<?xml version="1.0" encoding="UTF-8" standalone="no" ?>
<gpx xmlns="http://www.topografix.com/GPX/1/1" xmlns:xsi="http://www.w3.org/2001/XMLSchema-instance" xsi:schemaLocation="http://www.topografix.com/GPX/1/1 http://www.topografix.com/GPX/1/1/gpx.xsd" version="1.1" creator="VisuGPX - https://www.visugpx.com">
  <metadata>
    <name>Grenoble Trail - Rachais Ref.</name>
  </metadata>
  <trk>
    <name><![CDATA[Grenoble Trail - Rachais Ref.]]></name>
    <trkseg>
      <trkpt lat="45.19656" lon="5.73964">
        <ele>213.60000610352</ele>
        <time>2021-10-28T03:10:39.000Z</time>
      </trkpt>
      <trkpt lat="45.19656" lon="5.73964">
        <ele>213.60000610352</ele>
        <time>2021-10-28T03:10:40.000Z</time>
      </trkpt>
      <trkpt lat="45.19653" lon="5.73966">
        <ele>213.60000610352</ele>
        <time>2021-10-28T03:10:44.000Z</time>
      </trkpt>
      <trkpt lat="45.19647" lon="5.73971">
        <ele>213.80000305176</ele>
        <time>2021-10-28T03:10:49.000Z</time>
      </trkpt>
      <trkpt lat="45.19643" lon="5.73974">
        <ele>213.80000305176</ele>
        <time>2021-10-28T03:10:52.000Z</time>
      </trkpt>
      <trkpt lat="45.19643" lon="5.73973">
        <ele>213.80000305176</ele>
        <time>2021-10-28T03:10:55.000Z</time>
      </trkpt>
      <trkpt lat="45.19644" lon="5.73974">
        <ele>213.80000305176</ele>
        <time>2021-10-28T03:10:57.000Z</time>
      </trkpt>
      <trkpt lat="45.19643" lon="5.73975">
        <ele>213.80000305176</ele>
        <time>2021-10-28T03:10:59.000Z</time>
      </trkpt>
      <trkpt lat="45.19641" lon="5.73976">
        <ele>213.60000610352</ele>
        <time>2021-10-28T03:11:01.000Z</time>
      </trkpt>
      <trkpt lat="45.19639" lon="5.73976">
        <ele>213.39999389648</ele>
        <time>2021-10-28T03:11:03.000Z</time>
      </trkpt>
      <trkpt lat="45.19638" lon="5.73976">
        <ele>212.39999389648</ele>
        <time>2021-10-28T03:11:05.000Z</time>
      </trkpt>
      <trkpt lat="45.19638" lon="5.73977">
        <ele>211.80000305176</ele>
        <time>2021-10-28T03:11:07.000Z</time>
      </trkpt>
      <trkpt lat="45.19638" lon="5.73974">
        <ele>211.39999389648</ele>
        <time>2021-10-28T03:11:08.000Z</time>
      </trkpt>
      <trkpt lat="45.1964" lon="5.73976">
        <ele>211.19999694824</ele>
        <time>2021-10-28T03:11:10.000Z</time>
      </trkpt>
      <trkpt lat="45.1964" lon="5.73976">
        <ele>211</ele>
        <time>2021-10-28T03:11:11.000Z</time>
      </trkpt>
      <trkpt lat="45.19639" lon="5.73976">
        <ele>210.60000610352</ele>
        <time>2021-10-28T03:11:12.000Z</time>
      </trkpt>
      <trkpt lat="45.19637" lon="5.73977">
        <ele>210.39999389648</ele>
        <time>2021-10-28T03:11:13.000Z</time>
      </trkpt>
      <trkpt lat="45.19636" lon="5.73977">
        <ele>210</ele>
        <time>2021-10-28T03:11:14.000Z</time>
      </trkpt>
      <trkpt lat="45.19635" lon="5.73977">
        <ele>209.39999389648</ele>
        <time>2021-10-28T03:11:16.000Z</time>
      </trkpt>
      <trkpt lat="45.19636" lon="5.73973">
        <ele>208</ele>
        <time>2021-10-28T03:11:22.000Z</time>
      </trkpt>
      <trkpt lat="45.19635" lon="5.73971">
        <ele>207</ele>
        <time>2021-10-28T03:11:25.000Z</time>
      </trkpt>
      <trkpt lat="45.19634" lon="5.73972">
        <ele>206.39999389648</ele>
        <time>2021-10-28T03:11:26.000Z</time>
      </trkpt>
      <trkpt lat="45.19634" lon="5.73974">
        <ele>206.19999694824</ele>
        <time>2021-10-28T03:11:27.000Z</time>
      </trkpt>
      <trkpt lat="45.19634" lon="5.73975">
        <ele>205.80000305176</ele>
        <time>2021-10-28T03:11:28.000Z</time>
      </trkpt>
      <trkpt lat="45.19635" lon="5.73975">
        <ele>205.39999389648</ele>
        <time>2021-10-28T03:11:32.000Z</time>
      </trkpt>
      <trkpt lat="45.19635" lon="5.73974">
        <ele>205.39999389648</ele>
        <time>2021-10-28T03:11:34.000Z</time>
      </trkpt>
      <trkpt lat="45.19637" lon="5.73973">
        <ele>205.39999389648</ele>
        <time>2021-10-28T03:11:37.000Z</time>
      </trkpt>
      <trkpt lat="45.19645" lon="5.73971">
        <ele>205.39999389648</ele>
        <time>2021-10-28T03:11:42.000Z</time>
      </trkpt>
      <trkpt lat="45.19647" lon="5.73969">
        <ele>205.19999694824</ele>
        <time>2021-10-28T03:11:43.000Z</time>
      </trkpt>
      <trkpt lat="45.19653" lon="5.73963">
        <ele>205</ele>
        <time>2021-10-28T03:11:46.000Z</time>
      </trkpt>
      <trkpt lat="45.19658" lon="5.73958">
        <ele>205</ele>
        <time>2021-10-28T03:11:48.000Z</time>
      </trkpt>
      <trkpt lat="45.19662" lon="5.73955">
        <ele>204.80000305176</ele>
        <time>2021-10-28T03:11:50.000Z</time>
      </trkpt>
      <trkpt lat="45.19663" lon="5.73954">
        <ele>204.80000305176</ele>
        <time>2021-10-28T03:11:51.000Z</time>
      </trkpt>
      <trkpt lat="45.19665" lon="5.73951">
        <ele>204.80000305176</ele>
        <time>2021-10-28T03:11:54.000Z</time>
      </trkpt>
      <trkpt lat="45.19666" lon="5.7395">
        <ele>204.80000305176</ele>
        <time>2021-10-28T03:11:55.000Z</time>
      </trkpt>
      <trkpt lat="45.19667" lon="5.73949">
        <ele>204.80000305176</ele>
        <time>2021-10-28T03:11:56.000Z</time>
      </trkpt>
      <trkpt lat="45.19675" lon="5.73949">
        <ele>205</ele>
        <time>2021-10-28T03:12:00.000Z</time>
      </trkpt>
      <trkpt lat="45.19678" lon="5.7395">
        <ele>204.80000305176</ele>
        <time>2021-10-28T03:12:02.000Z</time>
      </trkpt>
      <trkpt lat="45.19677" lon="5.73954">
        <ele>204.80000305176</ele>
        <time>2021-10-28T03:12:04.000Z</time>
      </trkpt>
      <trkpt lat="45.19683" lon="5.73975">
        <ele>204.80000305176</ele>
        <time>2021-10-28T03:12:09.000Z</time>
      </trkpt>
      <trkpt lat="45.19683" lon="5.73978">
        <ele>204.80000305176</ele>
        <time>2021-10-28T03:12:10.000Z</time>
      </trkpt>
      <trkpt lat="45.19685" lon="5.73991">
        <ele>204.80000305176</ele>
        <time>2021-10-28T03:12:15.000Z</time>
      </trkpt>
      <trkpt lat="45.19688" lon="5.74003">
        <ele>204.80000305176</ele>
        <time>2021-10-28T03:12:18.000Z</time>
      </trkpt>
      <trkpt lat="45.19692" lon="5.74014">
        <ele>205.19999694824</ele>
        <time>2021-10-28T03:12:21.000Z</time>
      </trkpt>
      <trkpt lat="45.19699" lon="5.74039">
        <ele>205.19999694824</ele>
        <time>2021-10-28T03:12:29.000Z</time>
      </trkpt>
      <trkpt lat="45.19703" lon="5.74062">
        <ele>205.39999389648</ele>
        <time>2021-10-28T03:12:36.000Z</time>
      </trkpt>
      <trkpt lat="45.19706" lon="5.74077">
        <ele>205.39999389648</ele>
        <time>2021-10-28T03:12:40.000Z</time>
      </trkpt>
      <trkpt lat="45.19707" lon="5.74084">
        <ele>205.39999389648</ele>
        <time>2021-10-28T03:12:42.000Z</time>
      </trkpt>
      <trkpt lat="45.19708" lon="5.7411">
        <ele>205.60000610352</ele>
        <time>2021-10-28T03:12:48.000Z</time>
      </trkpt>
      <trkpt lat="45.19711" lon="5.74118">
        <ele>205.39999389648</ele>
        <time>2021-10-28T03:12:50.000Z</time>
      </trkpt>
      <trkpt lat="45.19717" lon="5.74141">
        <ele>205.60000610352</ele>
        <time>2021-10-28T03:12:56.000Z</time>
      </trkpt>
      <trkpt lat="45.19721" lon="5.74151">
        <ele>205.60000610352</ele>
        <time>2021-10-28T03:12:59.000Z</time>
      </trkpt>
      <trkpt lat="45.19722" lon="5.74154">
        <ele>205.39999389648</ele>
        <time>2021-10-28T03:13:00.000Z</time>
      </trkpt>
      <trkpt lat="45.19724" lon="5.74167">
        <ele>205.39999389648</ele>
        <time>2021-10-28T03:13:04.000Z</time>
      </trkpt>
      <trkpt lat="45.19727" lon="5.74189">
        <ele>205.19999694824</ele>
        <time>2021-10-28T03:13:10.000Z</time>
      </trkpt>
      <trkpt lat="45.19728" lon="5.74198">
        <ele>205.19999694824</ele>
        <time>2021-10-28T03:13:13.000Z</time>
      </trkpt>
      <trkpt lat="45.1973" lon="5.74221">
        <ele>205.39999389648</ele>
        <time>2021-10-28T03:13:20.000Z</time>
      </trkpt>
      <trkpt lat="45.19737" lon="5.74241">
        <ele>205.60000610352</ele>
        <time>2021-10-28T03:13:25.000Z</time>
      </trkpt>
      <trkpt lat="45.19737" lon="5.74251">
        <ele>206</ele>
        <time>2021-10-28T03:13:29.000Z</time>
      </trkpt>
      <trkpt lat="45.19739" lon="5.74251">
        <ele>206.60000610352</ele>
        <time>2021-10-28T03:13:31.000Z</time>
      </trkpt>
      <trkpt lat="45.19744" lon="5.74248">
        <ele>207</ele>
        <time>2021-10-28T03:13:34.000Z</time>
      </trkpt>
      <trkpt lat="45.19746" lon="5.74247">
        <ele>207.19999694824</ele>
        <time>2021-10-28T03:13:35.000Z</time>
      </trkpt>
      <trkpt lat="45.19759" lon="5.74241">
        <ele>207.60000610352</ele>
        <time>2021-10-28T03:13:41.000Z</time>
      </trkpt>
      <trkpt lat="45.19769" lon="5.74235">
        <ele>207.39999389648</ele>
        <time>2021-10-28T03:13:46.000Z</time>
      </trkpt>
      <trkpt lat="45.19776" lon="5.74234">
        <ele>207.39999389648</ele>
        <time>2021-10-28T03:13:49.000Z</time>
      </trkpt>
      <trkpt lat="45.19792" lon="5.74234">
        <ele>207.60000610352</ele>
        <time>2021-10-28T03:13:57.000Z</time>
      </trkpt>
      <trkpt lat="45.19809" lon="5.74225">
        <ele>207.60000610352</ele>
        <time>2021-10-28T03:14:05.000Z</time>
      </trkpt>
      <trkpt lat="45.19828" lon="5.74222">
        <ele>207.60000610352</ele>
        <time>2021-10-28T03:14:12.000Z</time>
      </trkpt>
      <trkpt lat="45.19832" lon="5.74219">
        <ele>207.60000610352</ele>
        <time>2021-10-28T03:14:14.000Z</time>
      </trkpt>
      <trkpt lat="45.19849" lon="5.74213">
        <ele>207.60000610352</ele>
        <time>2021-10-28T03:14:21.000Z</time>
      </trkpt>
      <trkpt lat="45.19863" lon="5.74204">
        <ele>207.60000610352</ele>
        <time>2021-10-28T03:14:27.000Z</time>
      </trkpt>
      <trkpt lat="45.19874" lon="5.74197">
        <ele>207.39999389648</ele>
        <time>2021-10-28T03:14:32.000Z</time>
      </trkpt>
      <trkpt lat="45.19882" lon="5.74192">
        <ele>207.39999389648</ele>
        <time>2021-10-28T03:14:36.000Z</time>
      </trkpt>
      <trkpt lat="45.199" lon="5.74183">
        <ele>207.39999389648</ele>
        <time>2021-10-28T03:14:43.000Z</time>
      </trkpt>
      <trkpt lat="45.19911" lon="5.74171">
        <ele>207.39999389648</ele>
        <time>2021-10-28T03:14:49.000Z</time>
      </trkpt>
      <trkpt lat="45.19926" lon="5.74164">
        <ele>207.39999389648</ele>
        <time>2021-10-28T03:14:55.000Z</time>
      </trkpt>
      <trkpt lat="45.19939" lon="5.74151">
        <ele>207.80000305176</ele>
        <time>2021-10-28T03:15:01.000Z</time>
      </trkpt>
      <trkpt lat="45.19946" lon="5.74145">
        <ele>207.80000305176</ele>
        <time>2021-10-28T03:15:04.000Z</time>
      </trkpt>
      <trkpt lat="45.19956" lon="5.74134">
        <ele>207.80000305176</ele>
        <time>2021-10-28T03:15:09.000Z</time>
      </trkpt>
      <trkpt lat="45.19963" lon="5.74121">
        <ele>207.80000305176</ele>
        <time>2021-10-28T03:15:14.000Z</time>
      </trkpt>
      <trkpt lat="45.19974" lon="5.74112">
        <ele>207.60000610352</ele>
        <time>2021-10-28T03:15:19.000Z</time>
      </trkpt>
      <trkpt lat="45.1999" lon="5.74102">
        <ele>206.39999389648</ele>
        <time>2021-10-28T03:15:25.000Z</time>
      </trkpt>
      <trkpt lat="45.19992" lon="5.741">
        <ele>206.19999694824</ele>
        <time>2021-10-28T03:15:26.000Z</time>
      </trkpt>
      <trkpt lat="45.19996" lon="5.74095">
        <ele>205.80000305176</ele>
        <time>2021-10-28T03:15:28.000Z</time>
      </trkpt>
      <trkpt lat="45.2" lon="5.74092">
        <ele>205.60000610352</ele>
        <time>2021-10-28T03:15:30.000Z</time>
      </trkpt>
      <trkpt lat="45.20007" lon="5.7409">
        <ele>205.19999694824</ele>
        <time>2021-10-28T03:15:33.000Z</time>
      </trkpt>
      <trkpt lat="45.20009" lon="5.74088">
        <ele>205.19999694824</ele>
        <time>2021-10-28T03:15:34.000Z</time>
      </trkpt>
      <trkpt lat="45.2001" lon="5.74088">
        <ele>205</ele>
        <time>2021-10-28T03:15:35.000Z</time>
      </trkpt>
      <trkpt lat="45.20017" lon="5.74085">
        <ele>204.80000305176</ele>
        <time>2021-10-28T03:15:42.000Z</time>
      </trkpt>
      <trkpt lat="45.20019" lon="5.74081">
        <ele>204.80000305176</ele>
        <time>2021-10-28T03:15:43.000Z</time>
      </trkpt>
      <trkpt lat="45.20025" lon="5.74073">
        <ele>204.80000305176</ele>
        <time>2021-10-28T03:15:46.000Z</time>
      </trkpt>
      <trkpt lat="45.20028" lon="5.74067">
        <ele>205.19999694824</ele>
        <time>2021-10-28T03:15:48.000Z</time>
      </trkpt>
      <trkpt lat="45.2003" lon="5.74064">
        <ele>205.39999389648</ele>
        <time>2021-10-28T03:15:49.000Z</time>
      </trkpt>
      <trkpt lat="45.20038" lon="5.74052">
        <ele>206.19999694824</ele>
        <time>2021-10-28T03:15:54.000Z</time>
      </trkpt>
      <trkpt lat="45.20042" lon="5.74047">
        <ele>206.80000305176</ele>
        <time>2021-10-28T03:15:56.000Z</time>
      </trkpt>
      <trkpt lat="45.20045" lon="5.74041">
        <ele>207.19999694824</ele>
        <time>2021-10-28T03:15:58.000Z</time>
      </trkpt>
      <trkpt lat="45.20047" lon="5.74037">
        <ele>207.39999389648</ele>
        <time>2021-10-28T03:15:59.000Z</time>
      </trkpt>
      <trkpt lat="45.20052" lon="5.74023">
        <ele>207.39999389648</ele>
        <time>2021-10-28T03:16:02.000Z</time>
      </trkpt>
      <trkpt lat="45.20061" lon="5.7401">
        <ele>207</ele>
        <time>2021-10-28T03:16:06.000Z</time>
      </trkpt>
      <trkpt lat="45.20065" lon="5.74004">
        <ele>206.80000305176</ele>
        <time>2021-10-28T03:16:08.000Z</time>
      </trkpt>
      <trkpt lat="45.2008" lon="5.73985">
        <ele>206.39999389648</ele>
        <time>2021-10-28T03:16:14.000Z</time>
      </trkpt>
      <trkpt lat="45.20082" lon="5.73981">
        <ele>206.39999389648</ele>
        <time>2021-10-28T03:16:15.000Z</time>
      </trkpt>
      <trkpt lat="45.20096" lon="5.73965">
        <ele>206.19999694824</ele>
        <time>2021-10-28T03:16:21.000Z</time>
      </trkpt>
      <trkpt lat="45.20109" lon="5.73948">
        <ele>206</ele>
        <time>2021-10-28T03:16:27.000Z</time>
      </trkpt>
      <trkpt lat="45.20117" lon="5.73933">
        <ele>206</ele>
        <time>2021-10-28T03:16:31.000Z</time>
      </trkpt>
      <trkpt lat="45.20128" lon="5.73916">
        <ele>206.39999389648</ele>
        <time>2021-10-28T03:16:37.000Z</time>
      </trkpt>
      <trkpt lat="45.20139" lon="5.73896">
        <ele>206.60000610352</ele>
        <time>2021-10-28T03:16:43.000Z</time>
      </trkpt>
      <trkpt lat="45.2015" lon="5.73877">
        <ele>206.60000610352</ele>
        <time>2021-10-28T03:16:49.000Z</time>
      </trkpt>
      <trkpt lat="45.20157" lon="5.73856">
        <ele>206.39999389648</ele>
        <time>2021-10-28T03:16:55.000Z</time>
      </trkpt>
      <trkpt lat="45.20165" lon="5.73835">
        <ele>206.19999694824</ele>
        <time>2021-10-28T03:17:01.000Z</time>
      </trkpt>
      <trkpt lat="45.20167" lon="5.73829">
        <ele>206.19999694824</ele>
        <time>2021-10-28T03:17:03.000Z</time>
      </trkpt>
      <trkpt lat="45.20169" lon="5.73816">
        <ele>206.19999694824</ele>
        <time>2021-10-28T03:17:06.000Z</time>
      </trkpt>
      <trkpt lat="45.20169" lon="5.73802">
        <ele>206.19999694824</ele>
        <time>2021-10-28T03:17:10.000Z</time>
      </trkpt>
      <trkpt lat="45.20171" lon="5.73779">
        <ele>206.39999389648</ele>
        <time>2021-10-28T03:17:16.000Z</time>
      </trkpt>
      <trkpt lat="45.20171" lon="5.73776">
        <ele>206.39999389648</ele>
        <time>2021-10-28T03:17:17.000Z</time>
      </trkpt>
      <trkpt lat="45.20172" lon="5.73756">
        <ele>206.19999694824</ele>
        <time>2021-10-28T03:17:22.000Z</time>
      </trkpt>
      <trkpt lat="45.2017" lon="5.73743">
        <ele>206.19999694824</ele>
        <time>2021-10-28T03:17:25.000Z</time>
      </trkpt>
      <trkpt lat="45.20169" lon="5.73719">
        <ele>206.60000610352</ele>
        <time>2021-10-28T03:17:32.000Z</time>
      </trkpt>
      <trkpt lat="45.20165" lon="5.73694">
        <ele>206.39999389648</ele>
        <time>2021-10-28T03:17:39.000Z</time>
      </trkpt>
      <trkpt lat="45.20164" lon="5.73691">
        <ele>206.39999389648</ele>
        <time>2021-10-28T03:17:40.000Z</time>
      </trkpt>
      <trkpt lat="45.20161" lon="5.73675">
        <ele>206.60000610352</ele>
        <time>2021-10-28T03:17:45.000Z</time>
      </trkpt>
      <trkpt lat="45.20158" lon="5.7366">
        <ele>206.60000610352</ele>
        <time>2021-10-28T03:17:49.000Z</time>
      </trkpt>
      <trkpt lat="45.20153" lon="5.73644">
        <ele>206.60000610352</ele>
        <time>2021-10-28T03:17:53.000Z</time>
      </trkpt>
      <trkpt lat="45.20149" lon="5.73632">
        <ele>206.60000610352</ele>
        <time>2021-10-28T03:17:56.000Z</time>
      </trkpt>
      <trkpt lat="45.20143" lon="5.73617">
        <ele>206.60000610352</ele>
        <time>2021-10-28T03:18:00.000Z</time>
      </trkpt>
      <trkpt lat="45.20131" lon="5.73593">
        <ele>206.60000610352</ele>
        <time>2021-10-28T03:18:07.000Z</time>
      </trkpt>
      <trkpt lat="45.20117" lon="5.73574">
        <ele>206.80000305176</ele>
        <time>2021-10-28T03:18:14.000Z</time>
      </trkpt>
      <trkpt lat="45.20115" lon="5.73572">
        <ele>206.80000305176</ele>
        <time>2021-10-28T03:18:15.000Z</time>
      </trkpt>
      <trkpt lat="45.20105" lon="5.73558">
        <ele>207</ele>
        <time>2021-10-28T03:18:20.000Z</time>
      </trkpt>
      <trkpt lat="45.20103" lon="5.73555">
        <ele>207</ele>
        <time>2021-10-28T03:18:21.000Z</time>
      </trkpt>
      <trkpt lat="45.2009" lon="5.73534">
        <ele>207</ele>
        <time>2021-10-28T03:18:28.000Z</time>
      </trkpt>
      <trkpt lat="45.20088" lon="5.7353">
        <ele>207</ele>
        <time>2021-10-28T03:18:29.000Z</time>
      </trkpt>
      <trkpt lat="45.2008" lon="5.73518">
        <ele>207</ele>
        <time>2021-10-28T03:18:34.000Z</time>
      </trkpt>
      <trkpt lat="45.20067" lon="5.73506">
        <ele>207.19999694824</ele>
        <time>2021-10-28T03:18:40.000Z</time>
      </trkpt>
      <trkpt lat="45.20055" lon="5.73498">
        <ele>207</ele>
        <time>2021-10-28T03:18:45.000Z</time>
      </trkpt>
      <trkpt lat="45.20039" lon="5.73484">
        <ele>206.80000305176</ele>
        <time>2021-10-28T03:18:51.000Z</time>
      </trkpt>
      <trkpt lat="45.20036" lon="5.73483">
        <ele>206.80000305176</ele>
        <time>2021-10-28T03:18:52.000Z</time>
      </trkpt>
      <trkpt lat="45.2003" lon="5.73478">
        <ele>206.60000610352</ele>
        <time>2021-10-28T03:18:54.000Z</time>
      </trkpt>
      <trkpt lat="45.20013" lon="5.73467">
        <ele>206.19999694824</ele>
        <time>2021-10-28T03:19:00.000Z</time>
      </trkpt>
      <trkpt lat="45.19997" lon="5.73456">
        <ele>206.60000610352</ele>
        <time>2021-10-28T03:19:06.000Z</time>
      </trkpt>
      <trkpt lat="45.19994" lon="5.73454">
        <ele>206.60000610352</ele>
        <time>2021-10-28T03:19:07.000Z</time>
      </trkpt>
      <trkpt lat="45.19987" lon="5.73447">
        <ele>206.80000305176</ele>
        <time>2021-10-28T03:19:10.000Z</time>
      </trkpt>
      <trkpt lat="45.19979" lon="5.73437">
        <ele>207</ele>
        <time>2021-10-28T03:19:14.000Z</time>
      </trkpt>
      <trkpt lat="45.19964" lon="5.73431">
        <ele>207.19999694824</ele>
        <time>2021-10-28T03:19:19.000Z</time>
      </trkpt>
      <trkpt lat="45.19947" lon="5.73423">
        <ele>207</ele>
        <time>2021-10-28T03:19:25.000Z</time>
      </trkpt>
      <trkpt lat="45.1993" lon="5.73419">
        <ele>207.19999694824</ele>
        <time>2021-10-28T03:19:31.000Z</time>
      </trkpt>
      <trkpt lat="45.19919" lon="5.73417">
        <ele>207</ele>
        <time>2021-10-28T03:19:35.000Z</time>
      </trkpt>
      <trkpt lat="45.19911" lon="5.73415">
        <ele>206.60000610352</ele>
        <time>2021-10-28T03:19:38.000Z</time>
      </trkpt>
      <trkpt lat="45.199" lon="5.7341">
        <ele>207.19999694824</ele>
        <time>2021-10-28T03:19:42.000Z</time>
      </trkpt>
      <trkpt lat="45.19886" lon="5.73409">
        <ele>207.19999694824</ele>
        <time>2021-10-28T03:19:47.000Z</time>
      </trkpt>
      <trkpt lat="45.19873" lon="5.73404">
        <ele>207.39999389648</ele>
        <time>2021-10-28T03:19:52.000Z</time>
      </trkpt>
      <trkpt lat="45.1987" lon="5.73403">
        <ele>207.39999389648</ele>
        <time>2021-10-28T03:19:53.000Z</time>
      </trkpt>
      <trkpt lat="45.19859" lon="5.73399">
        <ele>207.39999389648</ele>
        <time>2021-10-28T03:19:57.000Z</time>
      </trkpt>
      <trkpt lat="45.19851" lon="5.73396">
        <ele>207.39999389648</ele>
        <time>2021-10-28T03:20:00.000Z</time>
      </trkpt>
      <trkpt lat="45.19837" lon="5.73392">
        <ele>207.19999694824</ele>
        <time>2021-10-28T03:20:05.000Z</time>
      </trkpt>
      <trkpt lat="45.19819" lon="5.73387">
        <ele>207.39999389648</ele>
        <time>2021-10-28T03:20:11.000Z</time>
      </trkpt>
      <trkpt lat="45.19809" lon="5.73385">
        <ele>207.60000610352</ele>
        <time>2021-10-28T03:20:15.000Z</time>
      </trkpt>
      <trkpt lat="45.19804" lon="5.73383">
        <ele>207.60000610352</ele>
        <time>2021-10-28T03:20:17.000Z</time>
      </trkpt>
      <trkpt lat="45.1979" lon="5.7338">
        <ele>207.60000610352</ele>
        <time>2021-10-28T03:20:22.000Z</time>
      </trkpt>
      <trkpt lat="45.19779" lon="5.73378">
        <ele>207.60000610352</ele>
        <time>2021-10-28T03:20:26.000Z</time>
      </trkpt>
      <trkpt lat="45.19762" lon="5.73373">
        <ele>207.39999389648</ele>
        <time>2021-10-28T03:20:32.000Z</time>
      </trkpt>
      <trkpt lat="45.1976" lon="5.73372">
        <ele>207.39999389648</ele>
        <time>2021-10-28T03:20:33.000Z</time>
      </trkpt>
      <trkpt lat="45.19746" lon="5.73369">
        <ele>208.19999694824</ele>
        <time>2021-10-28T03:20:38.000Z</time>
      </trkpt>
      <trkpt lat="45.19738" lon="5.73367">
        <ele>208.39999389648</ele>
        <time>2021-10-28T03:20:41.000Z</time>
      </trkpt>
      <trkpt lat="45.19731" lon="5.73364">
        <ele>209</ele>
        <time>2021-10-28T03:20:44.000Z</time>
      </trkpt>
      <trkpt lat="45.1973" lon="5.73362">
        <ele>209.19999694824</ele>
        <time>2021-10-28T03:20:45.000Z</time>
      </trkpt>
      <trkpt lat="45.19731" lon="5.73355">
        <ele>209.39999389648</ele>
        <time>2021-10-28T03:20:47.000Z</time>
      </trkpt>
      <trkpt lat="45.19733" lon="5.73343">
        <ele>210</ele>
        <time>2021-10-28T03:20:51.000Z</time>
      </trkpt>
      <trkpt lat="45.19734" lon="5.73339">
        <ele>210</ele>
        <time>2021-10-28T03:20:52.000Z</time>
      </trkpt>
      <trkpt lat="45.19739" lon="5.73317">
        <ele>210.39999389648</ele>
        <time>2021-10-28T03:20:58.000Z</time>
      </trkpt>
      <trkpt lat="45.1974" lon="5.73312">
        <ele>210.39999389648</ele>
        <time>2021-10-28T03:20:59.000Z</time>
      </trkpt>
      <trkpt lat="45.19745" lon="5.73286">
        <ele>210.39999389648</ele>
        <time>2021-10-28T03:21:06.000Z</time>
      </trkpt>
      <trkpt lat="45.19747" lon="5.73278">
        <ele>210.19999694824</ele>
        <time>2021-10-28T03:21:08.000Z</time>
      </trkpt>
      <trkpt lat="45.19754" lon="5.73251">
        <ele>210</ele>
        <time>2021-10-28T03:21:15.000Z</time>
      </trkpt>
      <trkpt lat="45.19757" lon="5.73249">
        <ele>210</ele>
        <time>2021-10-28T03:21:16.000Z</time>
      </trkpt>
      <trkpt lat="45.19769" lon="5.73244">
        <ele>209.39999389648</ele>
        <time>2021-10-28T03:21:20.000Z</time>
      </trkpt>
      <trkpt lat="45.19779" lon="5.73242">
        <ele>209.19999694824</ele>
        <time>2021-10-28T03:21:23.000Z</time>
      </trkpt>
      <trkpt lat="45.19792" lon="5.73248">
        <ele>208.80000305176</ele>
        <time>2021-10-28T03:21:27.000Z</time>
      </trkpt>
      <trkpt lat="45.19808" lon="5.73258">
        <ele>208.60000610352</ele>
        <time>2021-10-28T03:21:33.000Z</time>
      </trkpt>
      <trkpt lat="45.19811" lon="5.73259">
        <ele>208.60000610352</ele>
        <time>2021-10-28T03:21:34.000Z</time>
      </trkpt>
      <trkpt lat="45.19825" lon="5.73263">
        <ele>208.60000610352</ele>
        <time>2021-10-28T03:21:40.000Z</time>
      </trkpt>
      <trkpt lat="45.1984" lon="5.73268">
        <ele>209</ele>
        <time>2021-10-28T03:21:45.000Z</time>
      </trkpt>
      <trkpt lat="45.19858" lon="5.7327">
        <ele>209</ele>
        <time>2021-10-28T03:21:52.000Z</time>
      </trkpt>
      <trkpt lat="45.19876" lon="5.73272">
        <ele>209</ele>
        <time>2021-10-28T03:21:59.000Z</time>
      </trkpt>
      <trkpt lat="45.19894" lon="5.73278">
        <ele>209.19999694824</ele>
        <time>2021-10-28T03:22:05.000Z</time>
      </trkpt>
      <trkpt lat="45.19897" lon="5.7328">
        <ele>209.19999694824</ele>
        <time>2021-10-28T03:22:06.000Z</time>
      </trkpt>
      <trkpt lat="45.19915" lon="5.73287">
        <ele>209.39999389648</ele>
        <time>2021-10-28T03:22:12.000Z</time>
      </trkpt>
      <trkpt lat="45.19926" lon="5.73296">
        <ele>209.19999694824</ele>
        <time>2021-10-28T03:22:16.000Z</time>
      </trkpt>
      <trkpt lat="45.19936" lon="5.73301">
        <ele>209.19999694824</ele>
        <time>2021-10-28T03:22:20.000Z</time>
      </trkpt>
      <trkpt lat="45.19945" lon="5.73306">
        <ele>209.39999389648</ele>
        <time>2021-10-28T03:22:24.000Z</time>
      </trkpt>
      <trkpt lat="45.19947" lon="5.73308">
        <ele>209.39999389648</ele>
        <time>2021-10-28T03:22:25.000Z</time>
      </trkpt>
      <trkpt lat="45.19949" lon="5.73309">
        <ele>209.39999389648</ele>
        <time>2021-10-28T03:22:26.000Z</time>
      </trkpt>
      <trkpt lat="45.19953" lon="5.73311">
        <ele>209.39999389648</ele>
        <time>2021-10-28T03:22:28.000Z</time>
      </trkpt>
      <trkpt lat="45.19971" lon="5.73316">
        <ele>209</ele>
        <time>2021-10-28T03:22:35.000Z</time>
      </trkpt>
      <trkpt lat="45.1999" lon="5.73324">
        <ele>208.80000305176</ele>
        <time>2021-10-28T03:22:41.000Z</time>
      </trkpt>
      <trkpt lat="45.19993" lon="5.73325">
        <ele>208.60000610352</ele>
        <time>2021-10-28T03:22:42.000Z</time>
      </trkpt>
      <trkpt lat="45.20008" lon="5.73332">
        <ele>208.39999389648</ele>
        <time>2021-10-28T03:22:47.000Z</time>
      </trkpt>
      <trkpt lat="45.20011" lon="5.73332">
        <ele>208.39999389648</ele>
        <time>2021-10-28T03:22:48.000Z</time>
      </trkpt>
      <trkpt lat="45.20022" lon="5.73339">
        <ele>208.39999389648</ele>
        <time>2021-10-28T03:22:52.000Z</time>
      </trkpt>
      <trkpt lat="45.20032" lon="5.73345">
        <ele>208.39999389648</ele>
        <time>2021-10-28T03:22:56.000Z</time>
      </trkpt>
      <trkpt lat="45.20035" lon="5.73346">
        <ele>208.39999389648</ele>
        <time>2021-10-28T03:22:57.000Z</time>
      </trkpt>
      <trkpt lat="45.20052" lon="5.73353">
        <ele>208.39999389648</ele>
        <time>2021-10-28T03:23:03.000Z</time>
      </trkpt>
      <trkpt lat="45.20068" lon="5.73364">
        <ele>208</ele>
        <time>2021-10-28T03:23:09.000Z</time>
      </trkpt>
      <trkpt lat="45.20071" lon="5.73364">
        <ele>208</ele>
        <time>2021-10-28T03:23:10.000Z</time>
      </trkpt>
      <trkpt lat="45.20078" lon="5.73366">
        <ele>208</ele>
        <time>2021-10-28T03:23:13.000Z</time>
      </trkpt>
      <trkpt lat="45.20091" lon="5.73369">
        <ele>207.80000305176</ele>
        <time>2021-10-28T03:23:17.000Z</time>
      </trkpt>
      <trkpt lat="45.20104" lon="5.73379">
        <ele>208</ele>
        <time>2021-10-28T03:23:22.000Z</time>
      </trkpt>
      <trkpt lat="45.2011" lon="5.73385">
        <ele>208.19999694824</ele>
        <time>2021-10-28T03:23:25.000Z</time>
      </trkpt>
      <trkpt lat="45.20112" lon="5.73387">
        <ele>208.19999694824</ele>
        <time>2021-10-28T03:23:26.000Z</time>
      </trkpt>
      <trkpt lat="45.20116" lon="5.73392">
        <ele>208.19999694824</ele>
        <time>2021-10-28T03:23:28.000Z</time>
      </trkpt>
      <trkpt lat="45.2012" lon="5.73396">
        <ele>208.19999694824</ele>
        <time>2021-10-28T03:23:30.000Z</time>
      </trkpt>
      <trkpt lat="45.2014" lon="5.73405">
        <ele>208</ele>
        <time>2021-10-28T03:23:36.000Z</time>
      </trkpt>
      <trkpt lat="45.20145" lon="5.73407">
        <ele>208.19999694824</ele>
        <time>2021-10-28T03:23:38.000Z</time>
      </trkpt>
      <trkpt lat="45.20151" lon="5.73406">
        <ele>208.39999389648</ele>
        <time>2021-10-28T03:23:40.000Z</time>
      </trkpt>
      <trkpt lat="45.20164" lon="5.73408">
        <ele>208.80000305176</ele>
        <time>2021-10-28T03:23:45.000Z</time>
      </trkpt>
      <trkpt lat="45.20179" lon="5.73412">
        <ele>209.19999694824</ele>
        <time>2021-10-28T03:23:51.000Z</time>
      </trkpt>
      <trkpt lat="45.20184" lon="5.73413">
        <ele>209.39999389648</ele>
        <time>2021-10-28T03:23:53.000Z</time>
      </trkpt>
      <trkpt lat="45.20197" lon="5.73421">
        <ele>209.80000305176</ele>
        <time>2021-10-28T03:23:58.000Z</time>
      </trkpt>
      <trkpt lat="45.20208" lon="5.73433">
        <ele>209.80000305176</ele>
        <time>2021-10-28T03:24:02.000Z</time>
      </trkpt>
      <trkpt lat="45.20217" lon="5.73446">
        <ele>210</ele>
        <time>2021-10-28T03:24:07.000Z</time>
      </trkpt>
      <trkpt lat="45.2022" lon="5.73454">
        <ele>210</ele>
        <time>2021-10-28T03:24:09.000Z</time>
      </trkpt>
      <trkpt lat="45.20221" lon="5.7346">
        <ele>209.80000305176</ele>
        <time>2021-10-28T03:24:11.000Z</time>
      </trkpt>
      <trkpt lat="45.20231" lon="5.73478">
        <ele>210.19999694824</ele>
        <time>2021-10-28T03:24:16.000Z</time>
      </trkpt>
      <trkpt lat="45.2024" lon="5.73487">
        <ele>210.19999694824</ele>
        <time>2021-10-28T03:24:20.000Z</time>
      </trkpt>
      <trkpt lat="45.20249" lon="5.735">
        <ele>210.60000610352</ele>
        <time>2021-10-28T03:24:25.000Z</time>
      </trkpt>
      <trkpt lat="45.20254" lon="5.73508">
        <ele>210.60000610352</ele>
        <time>2021-10-28T03:24:28.000Z</time>
      </trkpt>
      <trkpt lat="45.20264" lon="5.73521">
        <ele>211</ele>
        <time>2021-10-28T03:24:33.000Z</time>
      </trkpt>
      <trkpt lat="45.20275" lon="5.73533">
        <ele>211.39999389648</ele>
        <time>2021-10-28T03:24:38.000Z</time>
      </trkpt>
      <trkpt lat="45.20281" lon="5.73541">
        <ele>211.60000610352</ele>
        <time>2021-10-28T03:24:41.000Z</time>
      </trkpt>
      <trkpt lat="45.20289" lon="5.73551">
        <ele>212.60000610352</ele>
        <time>2021-10-28T03:24:45.000Z</time>
      </trkpt>
      <trkpt lat="45.20293" lon="5.7356">
        <ele>213.39999389648</ele>
        <time>2021-10-28T03:24:48.000Z</time>
      </trkpt>
      <trkpt lat="45.20299" lon="5.73568">
        <ele>213.60000610352</ele>
        <time>2021-10-28T03:24:51.000Z</time>
      </trkpt>
      <trkpt lat="45.20303" lon="5.73573">
        <ele>213.80000305176</ele>
        <time>2021-10-28T03:24:53.000Z</time>
      </trkpt>
      <trkpt lat="45.2031" lon="5.7358">
        <ele>214.39999389648</ele>
        <time>2021-10-28T03:24:57.000Z</time>
      </trkpt>
      <trkpt lat="45.20312" lon="5.73581">
        <ele>214.80000305176</ele>
        <time>2021-10-28T03:24:58.000Z</time>
      </trkpt>
      <trkpt lat="45.20318" lon="5.73587">
        <ele>215.39999389648</ele>
        <time>2021-10-28T03:25:01.000Z</time>
      </trkpt>
      <trkpt lat="45.20319" lon="5.73588">
        <ele>215.39999389648</ele>
        <time>2021-10-28T03:25:02.000Z</time>
      </trkpt>
      <trkpt lat="45.20322" lon="5.73594">
        <ele>215.60000610352</ele>
        <time>2021-10-28T03:25:04.000Z</time>
      </trkpt>
      <trkpt lat="45.20325" lon="5.73603">
        <ele>216</ele>
        <time>2021-10-28T03:25:07.000Z</time>
      </trkpt>
      <trkpt lat="45.20327" lon="5.73611">
        <ele>216.19999694824</ele>
        <time>2021-10-28T03:25:09.000Z</time>
      </trkpt>
      <trkpt lat="45.20329" lon="5.73617">
        <ele>216.19999694824</ele>
        <time>2021-10-28T03:25:11.000Z</time>
      </trkpt>
      <trkpt lat="45.20333" lon="5.73623">
        <ele>216.39999389648</ele>
        <time>2021-10-28T03:25:13.000Z</time>
      </trkpt>
      <trkpt lat="45.2034" lon="5.73632">
        <ele>216.39999389648</ele>
        <time>2021-10-28T03:25:16.000Z</time>
      </trkpt>
      <trkpt lat="45.20341" lon="5.73636">
        <ele>216.60000610352</ele>
        <time>2021-10-28T03:25:17.000Z</time>
      </trkpt>
      <trkpt lat="45.20353" lon="5.7365">
        <ele>216.80000305176</ele>
        <time>2021-10-28T03:25:23.000Z</time>
      </trkpt>
      <trkpt lat="45.20355" lon="5.73651">
        <ele>216.80000305176</ele>
        <time>2021-10-28T03:25:24.000Z</time>
      </trkpt>
      <trkpt lat="45.20365" lon="5.73658">
        <ele>217</ele>
        <time>2021-10-28T03:25:29.000Z</time>
      </trkpt>
      <trkpt lat="45.20376" lon="5.7367">
        <ele>217.39999389648</ele>
        <time>2021-10-28T03:25:34.000Z</time>
      </trkpt>
      <trkpt lat="45.20389" lon="5.73685">
        <ele>217.80000305176</ele>
        <time>2021-10-28T03:25:40.000Z</time>
      </trkpt>
      <trkpt lat="45.20402" lon="5.73699">
        <ele>218</ele>
        <time>2021-10-28T03:25:45.000Z</time>
      </trkpt>
      <trkpt lat="45.20407" lon="5.73706">
        <ele>218.19999694824</ele>
        <time>2021-10-28T03:25:48.000Z</time>
      </trkpt>
      <trkpt lat="45.20414" lon="5.73715">
        <ele>218.80000305176</ele>
        <time>2021-10-28T03:25:52.000Z</time>
      </trkpt>
      <trkpt lat="45.20419" lon="5.73723">
        <ele>218.80000305176</ele>
        <time>2021-10-28T03:25:55.000Z</time>
      </trkpt>
      <trkpt lat="45.20422" lon="5.73725">
        <ele>219</ele>
        <time>2021-10-28T03:25:56.000Z</time>
      </trkpt>
      <trkpt lat="45.20426" lon="5.73729">
        <ele>219.19999694824</ele>
        <time>2021-10-28T03:25:58.000Z</time>
      </trkpt>
      <trkpt lat="45.20428" lon="5.73732">
        <ele>219.19999694824</ele>
        <time>2021-10-28T03:25:59.000Z</time>
      </trkpt>
      <trkpt lat="45.2043" lon="5.73734">
        <ele>219.39999389648</ele>
        <time>2021-10-28T03:26:00.000Z</time>
      </trkpt>
      <trkpt lat="45.20435" lon="5.73739">
        <ele>219.60000610352</ele>
        <time>2021-10-28T03:26:03.000Z</time>
      </trkpt>
      <trkpt lat="45.20437" lon="5.73741">
        <ele>219.60000610352</ele>
        <time>2021-10-28T03:26:04.000Z</time>
      </trkpt>
      <trkpt lat="45.20441" lon="5.73747">
        <ele>219.80000305176</ele>
        <time>2021-10-28T03:26:07.000Z</time>
      </trkpt>
      <trkpt lat="45.20442" lon="5.73749">
        <ele>220</ele>
        <time>2021-10-28T03:26:08.000Z</time>
      </trkpt>
      <trkpt lat="45.20445" lon="5.73753">
        <ele>220.19999694824</ele>
        <time>2021-10-28T03:26:10.000Z</time>
      </trkpt>
      <trkpt lat="45.2045" lon="5.73759">
        <ele>220.60000610352</ele>
        <time>2021-10-28T03:26:12.000Z</time>
      </trkpt>
      <trkpt lat="45.20457" lon="5.73768">
        <ele>220.80000305176</ele>
        <time>2021-10-28T03:26:15.000Z</time>
      </trkpt>
      <trkpt lat="45.20466" lon="5.73781">
        <ele>221.19999694824</ele>
        <time>2021-10-28T03:26:19.000Z</time>
      </trkpt>
      <trkpt lat="45.20468" lon="5.73783">
        <ele>221.39999389648</ele>
        <time>2021-10-28T03:26:20.000Z</time>
      </trkpt>
      <trkpt lat="45.20479" lon="5.73797">
        <ele>222.19999694824</ele>
        <time>2021-10-28T03:26:26.000Z</time>
      </trkpt>
      <trkpt lat="45.20485" lon="5.73804">
        <ele>222.60000610352</ele>
        <time>2021-10-28T03:26:29.000Z</time>
      </trkpt>
      <trkpt lat="45.20489" lon="5.73812">
        <ele>223.39999389648</ele>
        <time>2021-10-28T03:26:33.000Z</time>
      </trkpt>
      <trkpt lat="45.2049" lon="5.73813">
        <ele>223.60000610352</ele>
        <time>2021-10-28T03:26:34.000Z</time>
      </trkpt>
      <trkpt lat="45.20505" lon="5.7383">
        <ele>224.60000610352</ele>
        <time>2021-10-28T03:26:41.000Z</time>
      </trkpt>
      <trkpt lat="45.20515" lon="5.73839">
        <ele>225.60000610352</ele>
        <time>2021-10-28T03:26:46.000Z</time>
      </trkpt>
      <trkpt lat="45.20516" lon="5.73839">
        <ele>225.80000305176</ele>
        <time>2021-10-28T03:26:47.000Z</time>
      </trkpt>
      <trkpt lat="45.20519" lon="5.7384">
        <ele>226</ele>
        <time>2021-10-28T03:26:48.000Z</time>
      </trkpt>
      <trkpt lat="45.20529" lon="5.73843">
        <ele>227</ele>
        <time>2021-10-28T03:26:52.000Z</time>
      </trkpt>
      <trkpt lat="45.20531" lon="5.73844">
        <ele>227.19999694824</ele>
        <time>2021-10-28T03:26:53.000Z</time>
      </trkpt>
      <trkpt lat="45.20535" lon="5.73847">
        <ele>227.60000610352</ele>
        <time>2021-10-28T03:26:55.000Z</time>
      </trkpt>
      <trkpt lat="45.20537" lon="5.73851">
        <ele>228</ele>
        <time>2021-10-28T03:26:57.000Z</time>
      </trkpt>
      <trkpt lat="45.20542" lon="5.73858">
        <ele>229</ele>
        <time>2021-10-28T03:27:00.000Z</time>
      </trkpt>
      <trkpt lat="45.20545" lon="5.73862">
        <ele>230</ele>
        <time>2021-10-28T03:27:02.000Z</time>
      </trkpt>
      <trkpt lat="45.20546" lon="5.73864">
        <ele>230.19999694824</ele>
        <time>2021-10-28T03:27:03.000Z</time>
      </trkpt>
      <trkpt lat="45.2055" lon="5.7387">
        <ele>231.39999389648</ele>
        <time>2021-10-28T03:27:07.000Z</time>
      </trkpt>
      <trkpt lat="45.20551" lon="5.73871">
        <ele>232.19999694824</ele>
        <time>2021-10-28T03:27:09.000Z</time>
      </trkpt>
      <trkpt lat="45.20552" lon="5.73872">
        <ele>232.80000305176</ele>
        <time>2021-10-28T03:27:10.000Z</time>
      </trkpt>
      <trkpt lat="45.20553" lon="5.73872">
        <ele>233</ele>
        <time>2021-10-28T03:27:11.000Z</time>
      </trkpt>
      <trkpt lat="45.20559" lon="5.73872">
        <ele>234</ele>
        <time>2021-10-28T03:27:14.000Z</time>
      </trkpt>
      <trkpt lat="45.20567" lon="5.73871">
        <ele>235.19999694824</ele>
        <time>2021-10-28T03:27:18.000Z</time>
      </trkpt>
      <trkpt lat="45.2057" lon="5.73869">
        <ele>235.80000305176</ele>
        <time>2021-10-28T03:27:20.000Z</time>
      </trkpt>
      <trkpt lat="45.20573" lon="5.73868">
        <ele>236.39999389648</ele>
        <time>2021-10-28T03:27:22.000Z</time>
      </trkpt>
      <trkpt lat="45.20577" lon="5.73866">
        <ele>237.39999389648</ele>
        <time>2021-10-28T03:27:25.000Z</time>
      </trkpt>
      <trkpt lat="45.20579" lon="5.73865">
        <ele>237.60000610352</ele>
        <time>2021-10-28T03:27:26.000Z</time>
      </trkpt>
      <trkpt lat="45.20584" lon="5.73861">
        <ele>238.60000610352</ele>
        <time>2021-10-28T03:27:30.000Z</time>
      </trkpt>
      <trkpt lat="45.20589" lon="5.73858">
        <ele>239.80000305176</ele>
        <time>2021-10-28T03:27:34.000Z</time>
      </trkpt>
      <trkpt lat="45.20593" lon="5.73856">
        <ele>240.80000305176</ele>
        <time>2021-10-28T03:27:37.000Z</time>
      </trkpt>
      <trkpt lat="45.20599" lon="5.73854">
        <ele>242.19999694824</ele>
        <time>2021-10-28T03:27:41.000Z</time>
      </trkpt>
      <trkpt lat="45.206" lon="5.73853">
        <ele>242.39999389648</ele>
        <time>2021-10-28T03:27:42.000Z</time>
      </trkpt>
      <trkpt lat="45.20604" lon="5.73851">
        <ele>243.60000610352</ele>
        <time>2021-10-28T03:27:45.000Z</time>
      </trkpt>
      <trkpt lat="45.2061" lon="5.7385">
        <ele>244.60000610352</ele>
        <time>2021-10-28T03:27:49.000Z</time>
      </trkpt>
      <trkpt lat="45.20611" lon="5.73849">
        <ele>245</ele>
        <time>2021-10-28T03:27:50.000Z</time>
      </trkpt>
      <trkpt lat="45.20616" lon="5.73849">
        <ele>245.80000305176</ele>
        <time>2021-10-28T03:27:53.000Z</time>
      </trkpt>
      <trkpt lat="45.20619" lon="5.73848">
        <ele>246.39999389648</ele>
        <time>2021-10-28T03:27:56.000Z</time>
      </trkpt>
      <trkpt lat="45.2062" lon="5.73847">
        <ele>247</ele>
        <time>2021-10-28T03:27:57.000Z</time>
      </trkpt>
      <trkpt lat="45.20628" lon="5.73846">
        <ele>248.19999694824</ele>
        <time>2021-10-28T03:28:02.000Z</time>
      </trkpt>
      <trkpt lat="45.20631" lon="5.73846">
        <ele>249</ele>
        <time>2021-10-28T03:28:04.000Z</time>
      </trkpt>
      <trkpt lat="45.20633" lon="5.73846">
        <ele>249.19999694824</ele>
        <time>2021-10-28T03:28:05.000Z</time>
      </trkpt>
      <trkpt lat="45.20634" lon="5.73846">
        <ele>249.39999389648</ele>
        <time>2021-10-28T03:28:06.000Z</time>
      </trkpt>
      <trkpt lat="45.20635" lon="5.73845">
        <ele>249.80000305176</ele>
        <time>2021-10-28T03:28:07.000Z</time>
      </trkpt>
      <trkpt lat="45.20638" lon="5.73845">
        <ele>250.39999389648</ele>
        <time>2021-10-28T03:28:09.000Z</time>
      </trkpt>
      <trkpt lat="45.2064" lon="5.73844">
        <ele>250.80000305176</ele>
        <time>2021-10-28T03:28:11.000Z</time>
      </trkpt>
      <trkpt lat="45.20641" lon="5.73844">
        <ele>251.80000305176</ele>
        <time>2021-10-28T03:28:13.000Z</time>
      </trkpt>
      <trkpt lat="45.20645" lon="5.73842">
        <ele>253</ele>
        <time>2021-10-28T03:28:17.000Z</time>
      </trkpt>
      <trkpt lat="45.20649" lon="5.7384">
        <ele>254.19999694824</ele>
        <time>2021-10-28T03:28:21.000Z</time>
      </trkpt>
      <trkpt lat="45.20651" lon="5.7384">
        <ele>254.80000305176</ele>
        <time>2021-10-28T03:28:22.000Z</time>
      </trkpt>
      <trkpt lat="45.20653" lon="5.73839">
        <ele>255.39999389648</ele>
        <time>2021-10-28T03:28:24.000Z</time>
      </trkpt>
      <trkpt lat="45.20654" lon="5.73838">
        <ele>255.39999389648</ele>
        <time>2021-10-28T03:28:25.000Z</time>
      </trkpt>
      <trkpt lat="45.20656" lon="5.73837">
        <ele>256.39999389648</ele>
        <time>2021-10-28T03:28:27.000Z</time>
      </trkpt>
      <trkpt lat="45.20659" lon="5.73837">
        <ele>257.39999389648</ele>
        <time>2021-10-28T03:28:30.000Z</time>
      </trkpt>
      <trkpt lat="45.2066" lon="5.73836">
        <ele>257.60000610352</ele>
        <time>2021-10-28T03:28:31.000Z</time>
      </trkpt>
      <trkpt lat="45.20661" lon="5.73835">
        <ele>258</ele>
        <time>2021-10-28T03:28:32.000Z</time>
      </trkpt>
      <trkpt lat="45.20666" lon="5.7383">
        <ele>259</ele>
        <time>2021-10-28T03:28:35.000Z</time>
      </trkpt>
      <trkpt lat="45.20668" lon="5.73829">
        <ele>259.60000610352</ele>
        <time>2021-10-28T03:28:37.000Z</time>
      </trkpt>
      <trkpt lat="45.2067" lon="5.73828">
        <ele>260</ele>
        <time>2021-10-28T03:28:39.000Z</time>
      </trkpt>
      <trkpt lat="45.20677" lon="5.73826">
        <ele>261.20001220703</ele>
        <time>2021-10-28T03:28:44.000Z</time>
      </trkpt>
      <trkpt lat="45.20681" lon="5.73824">
        <ele>262</ele>
        <time>2021-10-28T03:28:47.000Z</time>
      </trkpt>
      <trkpt lat="45.20683" lon="5.73823">
        <ele>262.39999389648</ele>
        <time>2021-10-28T03:28:48.000Z</time>
      </trkpt>
      <trkpt lat="45.20689" lon="5.7382">
        <ele>263.60000610352</ele>
        <time>2021-10-28T03:28:52.000Z</time>
      </trkpt>
      <trkpt lat="45.20692" lon="5.73818">
        <ele>264.39999389648</ele>
        <time>2021-10-28T03:28:55.000Z</time>
      </trkpt>
      <trkpt lat="45.20693" lon="5.73817">
        <ele>264.60000610352</ele>
        <time>2021-10-28T03:28:56.000Z</time>
      </trkpt>
      <trkpt lat="45.20696" lon="5.73815">
        <ele>265.79998779297</ele>
        <time>2021-10-28T03:28:59.000Z</time>
      </trkpt>
      <trkpt lat="45.20699" lon="5.73812">
        <ele>266.60000610352</ele>
        <time>2021-10-28T03:29:02.000Z</time>
      </trkpt>
      <trkpt lat="45.207" lon="5.73811">
        <ele>267</ele>
        <time>2021-10-28T03:29:03.000Z</time>
      </trkpt>
      <trkpt lat="45.20702" lon="5.73811">
        <ele>267.20001220703</ele>
        <time>2021-10-28T03:29:04.000Z</time>
      </trkpt>
      <trkpt lat="45.20704" lon="5.73809">
        <ele>268.20001220703</ele>
        <time>2021-10-28T03:29:07.000Z</time>
      </trkpt>
      <trkpt lat="45.20706" lon="5.73808">
        <ele>268.60000610352</ele>
        <time>2021-10-28T03:29:08.000Z</time>
      </trkpt>
      <trkpt lat="45.2071" lon="5.73807">
        <ele>269.20001220703</ele>
        <time>2021-10-28T03:29:11.000Z</time>
      </trkpt>
      <trkpt lat="45.20713" lon="5.73806">
        <ele>270.39999389648</ele>
        <time>2021-10-28T03:29:14.000Z</time>
      </trkpt>
      <trkpt lat="45.20715" lon="5.73805">
        <ele>271.20001220703</ele>
        <time>2021-10-28T03:29:16.000Z</time>
      </trkpt>
      <trkpt lat="45.20716" lon="5.73803">
        <ele>271.79998779297</ele>
        <time>2021-10-28T03:29:17.000Z</time>
      </trkpt>
      <trkpt lat="45.20719" lon="5.738">
        <ele>272.39999389648</ele>
        <time>2021-10-28T03:29:19.000Z</time>
      </trkpt>
      <trkpt lat="45.2072" lon="5.73797">
        <ele>273</ele>
        <time>2021-10-28T03:29:21.000Z</time>
      </trkpt>
      <trkpt lat="45.20722" lon="5.73792">
        <ele>274.20001220703</ele>
        <time>2021-10-28T03:29:25.000Z</time>
      </trkpt>
      <trkpt lat="45.20722" lon="5.7379">
        <ele>274.60000610352</ele>
        <time>2021-10-28T03:29:26.000Z</time>
      </trkpt>
      <trkpt lat="45.20723" lon="5.73788">
        <ele>275</ele>
        <time>2021-10-28T03:29:27.000Z</time>
      </trkpt>
      <trkpt lat="45.20725" lon="5.73784">
        <ele>275.39999389648</ele>
        <time>2021-10-28T03:29:29.000Z</time>
      </trkpt>
      <trkpt lat="45.20727" lon="5.73781">
        <ele>276.20001220703</ele>
        <time>2021-10-28T03:29:31.000Z</time>
      </trkpt>
      <trkpt lat="45.20728" lon="5.73781">
        <ele>276.60000610352</ele>
        <time>2021-10-28T03:29:32.000Z</time>
      </trkpt>
      <trkpt lat="45.20729" lon="5.73778">
        <ele>277</ele>
        <time>2021-10-28T03:29:34.000Z</time>
      </trkpt>
      <trkpt lat="45.2073" lon="5.73776">
        <ele>277.79998779297</ele>
        <time>2021-10-28T03:29:36.000Z</time>
      </trkpt>
      <trkpt lat="45.20731" lon="5.73775">
        <ele>278.20001220703</ele>
        <time>2021-10-28T03:29:37.000Z</time>
      </trkpt>
      <trkpt lat="45.20732" lon="5.73774">
        <ele>278.39999389648</ele>
        <time>2021-10-28T03:29:38.000Z</time>
      </trkpt>
      <trkpt lat="45.20734" lon="5.73772">
        <ele>279</ele>
        <time>2021-10-28T03:29:40.000Z</time>
      </trkpt>
      <trkpt lat="45.20738" lon="5.73769">
        <ele>280.20001220703</ele>
        <time>2021-10-28T03:29:43.000Z</time>
      </trkpt>
      <trkpt lat="45.20739" lon="5.73768">
        <ele>280.39999389648</ele>
        <time>2021-10-28T03:29:44.000Z</time>
      </trkpt>
      <trkpt lat="45.2074" lon="5.73767">
        <ele>281.39999389648</ele>
        <time>2021-10-28T03:29:46.000Z</time>
      </trkpt>
      <trkpt lat="45.20741" lon="5.73766">
        <ele>282</ele>
        <time>2021-10-28T03:29:48.000Z</time>
      </trkpt>
      <trkpt lat="45.20742" lon="5.73765">
        <ele>282.60000610352</ele>
        <time>2021-10-28T03:29:50.000Z</time>
      </trkpt>
      <trkpt lat="45.20744" lon="5.73762">
        <ele>283.60000610352</ele>
        <time>2021-10-28T03:29:53.000Z</time>
      </trkpt>
      <trkpt lat="45.20745" lon="5.73762">
        <ele>283.79998779297</ele>
        <time>2021-10-28T03:29:54.000Z</time>
      </trkpt>
      <trkpt lat="45.20745" lon="5.73761">
        <ele>284.20001220703</ele>
        <time>2021-10-28T03:29:55.000Z</time>
      </trkpt>
      <trkpt lat="45.20746" lon="5.7376">
        <ele>285</ele>
        <time>2021-10-28T03:29:57.000Z</time>
      </trkpt>
      <trkpt lat="45.20748" lon="5.73759">
        <ele>285.39999389648</ele>
        <time>2021-10-28T03:29:59.000Z</time>
      </trkpt>
      <trkpt lat="45.20749" lon="5.73758">
        <ele>285.79998779297</ele>
        <time>2021-10-28T03:30:00.000Z</time>
      </trkpt>
      <trkpt lat="45.2075" lon="5.73758">
        <ele>286.20001220703</ele>
        <time>2021-10-28T03:30:01.000Z</time>
      </trkpt>
      <trkpt lat="45.20752" lon="5.73757">
        <ele>286.79998779297</ele>
        <time>2021-10-28T03:30:03.000Z</time>
      </trkpt>
      <trkpt lat="45.20754" lon="5.73756">
        <ele>287.20001220703</ele>
        <time>2021-10-28T03:30:05.000Z</time>
      </trkpt>
      <trkpt lat="45.20755" lon="5.73755">
        <ele>287.79998779297</ele>
        <time>2021-10-28T03:30:06.000Z</time>
      </trkpt>
      <trkpt lat="45.20758" lon="5.73754">
        <ele>288.39999389648</ele>
        <time>2021-10-28T03:30:08.000Z</time>
      </trkpt>
      <trkpt lat="45.20762" lon="5.73752">
        <ele>289.60000610352</ele>
        <time>2021-10-28T03:30:12.000Z</time>
      </trkpt>
      <trkpt lat="45.20763" lon="5.73751">
        <ele>290.20001220703</ele>
        <time>2021-10-28T03:30:13.000Z</time>
      </trkpt>
      <trkpt lat="45.20764" lon="5.73748">
        <ele>290.79998779297</ele>
        <time>2021-10-28T03:30:15.000Z</time>
      </trkpt>
      <trkpt lat="45.20767" lon="5.73746">
        <ele>291.79998779297</ele>
        <time>2021-10-28T03:30:17.000Z</time>
      </trkpt>
      <trkpt lat="45.20768" lon="5.73746">
        <ele>292.20001220703</ele>
        <time>2021-10-28T03:30:18.000Z</time>
      </trkpt>
      <trkpt lat="45.20769" lon="5.73745">
        <ele>292.39999389648</ele>
        <time>2021-10-28T03:30:19.000Z</time>
      </trkpt>
      <trkpt lat="45.20773" lon="5.73743">
        <ele>293.39999389648</ele>
        <time>2021-10-28T03:30:22.000Z</time>
      </trkpt>
      <trkpt lat="45.20775" lon="5.73741">
        <ele>294.20001220703</ele>
        <time>2021-10-28T03:30:25.000Z</time>
      </trkpt>
      <trkpt lat="45.20778" lon="5.73739">
        <ele>294.60000610352</ele>
        <time>2021-10-28T03:30:27.000Z</time>
      </trkpt>
      <trkpt lat="45.20783" lon="5.73738">
        <ele>295.60000610352</ele>
        <time>2021-10-28T03:30:30.000Z</time>
      </trkpt>
      <trkpt lat="45.20784" lon="5.73737">
        <ele>295.79998779297</ele>
        <time>2021-10-28T03:30:31.000Z</time>
      </trkpt>
      <trkpt lat="45.20787" lon="5.73733">
        <ele>296.79998779297</ele>
        <time>2021-10-28T03:30:34.000Z</time>
      </trkpt>
      <trkpt lat="45.20788" lon="5.73732">
        <ele>297.20001220703</ele>
        <time>2021-10-28T03:30:35.000Z</time>
      </trkpt>
      <trkpt lat="45.20791" lon="5.73733">
        <ele>297.60000610352</ele>
        <time>2021-10-28T03:30:37.000Z</time>
      </trkpt>
      <trkpt lat="45.20792" lon="5.73733">
        <ele>297.79998779297</ele>
        <time>2021-10-28T03:30:38.000Z</time>
      </trkpt>
      <trkpt lat="45.20796" lon="5.73734">
        <ele>299</ele>
        <time>2021-10-28T03:30:41.000Z</time>
      </trkpt>
      <trkpt lat="45.20798" lon="5.73733">
        <ele>299.39999389648</ele>
        <time>2021-10-28T03:30:43.000Z</time>
      </trkpt>
      <trkpt lat="45.20798" lon="5.73733">
        <ele>299.60000610352</ele>
        <time>2021-10-28T03:30:44.000Z</time>
      </trkpt>
      <trkpt lat="45.208" lon="5.73732">
        <ele>300.39999389648</ele>
        <time>2021-10-28T03:30:46.000Z</time>
      </trkpt>
      <trkpt lat="45.20801" lon="5.73731">
        <ele>300.79998779297</ele>
        <time>2021-10-28T03:30:47.000Z</time>
      </trkpt>
      <trkpt lat="45.20802" lon="5.7373">
        <ele>301.39999389648</ele>
        <time>2021-10-28T03:30:49.000Z</time>
      </trkpt>
      <trkpt lat="45.20803" lon="5.7373">
        <ele>301.60000610352</ele>
        <time>2021-10-28T03:30:50.000Z</time>
      </trkpt>
      <trkpt lat="45.20804" lon="5.7373">
        <ele>301.79998779297</ele>
        <time>2021-10-28T03:30:51.000Z</time>
      </trkpt>
      <trkpt lat="45.20805" lon="5.73728">
        <ele>303</ele>
        <time>2021-10-28T03:30:53.000Z</time>
      </trkpt>
      <trkpt lat="45.20807" lon="5.73728">
        <ele>303.39999389648</ele>
        <time>2021-10-28T03:30:55.000Z</time>
      </trkpt>
      <trkpt lat="45.2081" lon="5.73729">
        <ele>304.20001220703</ele>
        <time>2021-10-28T03:30:57.000Z</time>
      </trkpt>
      <trkpt lat="45.20816" lon="5.73735">
        <ele>305</ele>
        <time>2021-10-28T03:31:01.000Z</time>
      </trkpt>
      <trkpt lat="45.20818" lon="5.73737">
        <ele>305.20001220703</ele>
        <time>2021-10-28T03:31:02.000Z</time>
      </trkpt>
      <trkpt lat="45.20822" lon="5.73738">
        <ele>305.79998779297</ele>
        <time>2021-10-28T03:31:04.000Z</time>
      </trkpt>
      <trkpt lat="45.20825" lon="5.73741">
        <ele>306.39999389648</ele>
        <time>2021-10-28T03:31:07.000Z</time>
      </trkpt>
      <trkpt lat="45.20829" lon="5.73739">
        <ele>307.39999389648</ele>
        <time>2021-10-28T03:31:11.000Z</time>
      </trkpt>
      <trkpt lat="45.2083" lon="5.73741">
        <ele>308</ele>
        <time>2021-10-28T03:31:13.000Z</time>
      </trkpt>
      <trkpt lat="45.20831" lon="5.7374">
        <ele>308.39999389648</ele>
        <time>2021-10-28T03:31:14.000Z</time>
      </trkpt>
      <trkpt lat="45.20835" lon="5.73736">
        <ele>309.60000610352</ele>
        <time>2021-10-28T03:31:18.000Z</time>
      </trkpt>
      <trkpt lat="45.20835" lon="5.73733">
        <ele>310.39999389648</ele>
        <time>2021-10-28T03:31:20.000Z</time>
      </trkpt>
      <trkpt lat="45.20836" lon="5.73731">
        <ele>310.79998779297</ele>
        <time>2021-10-28T03:31:21.000Z</time>
      </trkpt>
      <trkpt lat="45.2084" lon="5.73725">
        <ele>312.20001220703</ele>
        <time>2021-10-28T03:31:25.000Z</time>
      </trkpt>
      <trkpt lat="45.20841" lon="5.73726">
        <ele>312.60000610352</ele>
        <time>2021-10-28T03:31:26.000Z</time>
      </trkpt>
      <trkpt lat="45.20842" lon="5.73727">
        <ele>312.79998779297</ele>
        <time>2021-10-28T03:31:27.000Z</time>
      </trkpt>
      <trkpt lat="45.20844" lon="5.73729">
        <ele>313.20001220703</ele>
        <time>2021-10-28T03:31:28.000Z</time>
      </trkpt>
      <trkpt lat="45.20844" lon="5.73731">
        <ele>313.60000610352</ele>
        <time>2021-10-28T03:31:29.000Z</time>
      </trkpt>
      <trkpt lat="45.20844" lon="5.73733">
        <ele>314</ele>
        <time>2021-10-28T03:31:31.000Z</time>
      </trkpt>
      <trkpt lat="45.20845" lon="5.73733">
        <ele>314.20001220703</ele>
        <time>2021-10-28T03:31:32.000Z</time>
      </trkpt>
      <trkpt lat="45.20847" lon="5.73731">
        <ele>314.60000610352</ele>
        <time>2021-10-28T03:31:34.000Z</time>
      </trkpt>
      <trkpt lat="45.20847" lon="5.73726">
        <ele>315.79998779297</ele>
        <time>2021-10-28T03:31:38.000Z</time>
      </trkpt>
      <trkpt lat="45.20847" lon="5.73723">
        <ele>316.39999389648</ele>
        <time>2021-10-28T03:31:40.000Z</time>
      </trkpt>
      <trkpt lat="45.20847" lon="5.73723">
        <ele>316.79998779297</ele>
        <time>2021-10-28T03:31:41.000Z</time>
      </trkpt>
      <trkpt lat="45.20848" lon="5.73722">
        <ele>317</ele>
        <time>2021-10-28T03:31:42.000Z</time>
      </trkpt>
      <trkpt lat="45.2085" lon="5.73721">
        <ele>317.39999389648</ele>
        <time>2021-10-28T03:31:44.000Z</time>
      </trkpt>
      <trkpt lat="45.20851" lon="5.73721">
        <ele>318</ele>
        <time>2021-10-28T03:31:45.000Z</time>
      </trkpt>
      <trkpt lat="45.20854" lon="5.73722">
        <ele>318.60000610352</ele>
        <time>2021-10-28T03:31:47.000Z</time>
      </trkpt>
      <trkpt lat="45.20857" lon="5.73726">
        <ele>319.39999389648</ele>
        <time>2021-10-28T03:31:50.000Z</time>
      </trkpt>
      <trkpt lat="45.20857" lon="5.73726">
        <ele>319.60000610352</ele>
        <time>2021-10-28T03:31:51.000Z</time>
      </trkpt>
      <trkpt lat="45.20861" lon="5.73727">
        <ele>320.39999389648</ele>
        <time>2021-10-28T03:31:54.000Z</time>
      </trkpt>
      <trkpt lat="45.20867" lon="5.73729">
        <ele>321.60000610352</ele>
        <time>2021-10-28T03:31:58.000Z</time>
      </trkpt>
      <trkpt lat="45.20869" lon="5.7373">
        <ele>322.20001220703</ele>
        <time>2021-10-28T03:32:00.000Z</time>
      </trkpt>
      <trkpt lat="45.20872" lon="5.73732">
        <ele>322.60000610352</ele>
        <time>2021-10-28T03:32:03.000Z</time>
      </trkpt>
      <trkpt lat="45.20875" lon="5.73733">
        <ele>323.79998779297</ele>
        <time>2021-10-28T03:32:06.000Z</time>
      </trkpt>
      <trkpt lat="45.20878" lon="5.73733">
        <ele>324</ele>
        <time>2021-10-28T03:32:08.000Z</time>
      </trkpt>
      <trkpt lat="45.20879" lon="5.73732">
        <ele>324.39999389648</ele>
        <time>2021-10-28T03:32:09.000Z</time>
      </trkpt>
      <trkpt lat="45.2088" lon="5.7373">
        <ele>325</ele>
        <time>2021-10-28T03:32:11.000Z</time>
      </trkpt>
      <trkpt lat="45.2088" lon="5.73727">
        <ele>325.79998779297</ele>
        <time>2021-10-28T03:32:14.000Z</time>
      </trkpt>
      <trkpt lat="45.20881" lon="5.73727">
        <ele>325.79998779297</ele>
        <time>2021-10-28T03:32:15.000Z</time>
      </trkpt>
      <trkpt lat="45.20882" lon="5.73726">
        <ele>326.20001220703</ele>
        <time>2021-10-28T03:32:16.000Z</time>
      </trkpt>
      <trkpt lat="45.20885" lon="5.73723">
        <ele>327.39999389648</ele>
        <time>2021-10-28T03:32:20.000Z</time>
      </trkpt>
      <trkpt lat="45.20887" lon="5.73722">
        <ele>327.79998779297</ele>
        <time>2021-10-28T03:32:22.000Z</time>
      </trkpt>
      <trkpt lat="45.20889" lon="5.73722">
        <ele>328.39999389648</ele>
        <time>2021-10-28T03:32:24.000Z</time>
      </trkpt>
      <trkpt lat="45.20892" lon="5.73719">
        <ele>329.60000610352</ele>
        <time>2021-10-28T03:32:28.000Z</time>
      </trkpt>
      <trkpt lat="45.20892" lon="5.73719">
        <ele>330</ele>
        <time>2021-10-28T03:32:29.000Z</time>
      </trkpt>
      <trkpt lat="45.20894" lon="5.73718">
        <ele>330.79998779297</ele>
        <time>2021-10-28T03:32:32.000Z</time>
      </trkpt>
      <trkpt lat="45.20895" lon="5.73717">
        <ele>331</ele>
        <time>2021-10-28T03:32:33.000Z</time>
      </trkpt>
      <trkpt lat="45.20897" lon="5.73717">
        <ele>331.60000610352</ele>
        <time>2021-10-28T03:32:35.000Z</time>
      </trkpt>
      <trkpt lat="45.20898" lon="5.73716">
        <ele>332</ele>
        <time>2021-10-28T03:32:36.000Z</time>
      </trkpt>
      <trkpt lat="45.20898" lon="5.73716">
        <ele>332.20001220703</ele>
        <time>2021-10-28T03:32:37.000Z</time>
      </trkpt>
      <trkpt lat="45.20902" lon="5.73714">
        <ele>333.20001220703</ele>
        <time>2021-10-28T03:32:40.000Z</time>
      </trkpt>
      <trkpt lat="45.20905" lon="5.73712">
        <ele>333.60000610352</ele>
        <time>2021-10-28T03:32:42.000Z</time>
      </trkpt>
      <trkpt lat="45.20905" lon="5.73712">
        <ele>334.20001220703</ele>
        <time>2021-10-28T03:32:43.000Z</time>
      </trkpt>
      <trkpt lat="45.20908" lon="5.7371">
        <ele>335.39999389648</ele>
        <time>2021-10-28T03:32:46.000Z</time>
      </trkpt>
      <trkpt lat="45.20909" lon="5.7371">
        <ele>335.60000610352</ele>
        <time>2021-10-28T03:32:47.000Z</time>
      </trkpt>
      <trkpt lat="45.20911" lon="5.7371">
        <ele>336.60000610352</ele>
        <time>2021-10-28T03:32:50.000Z</time>
      </trkpt>
      <trkpt lat="45.20911" lon="5.7371">
        <ele>337</ele>
        <time>2021-10-28T03:32:51.000Z</time>
      </trkpt>
      <trkpt lat="45.20913" lon="5.73709">
        <ele>337.79998779297</ele>
        <time>2021-10-28T03:32:53.000Z</time>
      </trkpt>
      <trkpt lat="45.20914" lon="5.7371">
        <ele>338</ele>
        <time>2021-10-28T03:32:54.000Z</time>
      </trkpt>
      <trkpt lat="45.20917" lon="5.73711">
        <ele>338.79998779297</ele>
        <time>2021-10-28T03:32:57.000Z</time>
      </trkpt>
      <trkpt lat="45.20919" lon="5.7371">
        <ele>340</ele>
        <time>2021-10-28T03:33:00.000Z</time>
      </trkpt>
      <trkpt lat="45.20924" lon="5.73708">
        <ele>341.20001220703</ele>
        <time>2021-10-28T03:33:04.000Z</time>
      </trkpt>
      <trkpt lat="45.20927" lon="5.73706">
        <ele>342.39999389648</ele>
        <time>2021-10-28T03:33:07.000Z</time>
      </trkpt>
      <trkpt lat="45.20931" lon="5.73707">
        <ele>343.60000610352</ele>
        <time>2021-10-28T03:33:10.000Z</time>
      </trkpt>
      <trkpt lat="45.20933" lon="5.73708">
        <ele>344.20001220703</ele>
        <time>2021-10-28T03:33:12.000Z</time>
      </trkpt>
      <trkpt lat="45.20934" lon="5.73708">
        <ele>344.39999389648</ele>
        <time>2021-10-28T03:33:13.000Z</time>
      </trkpt>
      <trkpt lat="45.20935" lon="5.73708">
        <ele>344.79998779297</ele>
        <time>2021-10-28T03:33:14.000Z</time>
      </trkpt>
      <trkpt lat="45.20936" lon="5.73709">
        <ele>346</ele>
        <time>2021-10-28T03:33:17.000Z</time>
      </trkpt>
      <trkpt lat="45.20938" lon="5.73708">
        <ele>346.39999389648</ele>
        <time>2021-10-28T03:33:19.000Z</time>
      </trkpt>
      <trkpt lat="45.20939" lon="5.73708">
        <ele>347.20001220703</ele>
        <time>2021-10-28T03:33:21.000Z</time>
      </trkpt>
      <trkpt lat="45.2094" lon="5.73706">
        <ele>348.39999389648</ele>
        <time>2021-10-28T03:33:24.000Z</time>
      </trkpt>
      <trkpt lat="45.20942" lon="5.73704">
        <ele>348.79998779297</ele>
        <time>2021-10-28T03:33:27.000Z</time>
      </trkpt>
      <trkpt lat="45.20944" lon="5.73703">
        <ele>349</ele>
        <time>2021-10-28T03:33:29.000Z</time>
      </trkpt>
      <trkpt lat="45.20947" lon="5.73702">
        <ele>349.60000610352</ele>
        <time>2021-10-28T03:33:31.000Z</time>
      </trkpt>
      <trkpt lat="45.20948" lon="5.73701">
        <ele>349.79998779297</ele>
        <time>2021-10-28T03:33:32.000Z</time>
      </trkpt>
      <trkpt lat="45.2095" lon="5.737">
        <ele>350.60000610352</ele>
        <time>2021-10-28T03:33:34.000Z</time>
      </trkpt>
      <trkpt lat="45.20951" lon="5.73701">
        <ele>350.79998779297</ele>
        <time>2021-10-28T03:33:35.000Z</time>
      </trkpt>
      <trkpt lat="45.20954" lon="5.737">
        <ele>351.60000610352</ele>
        <time>2021-10-28T03:33:38.000Z</time>
      </trkpt>
      <trkpt lat="45.20955" lon="5.73699">
        <ele>352.20001220703</ele>
        <time>2021-10-28T03:33:39.000Z</time>
      </trkpt>
      <trkpt lat="45.20955" lon="5.73697">
        <ele>352.39999389648</ele>
        <time>2021-10-28T03:33:40.000Z</time>
      </trkpt>
      <trkpt lat="45.20956" lon="5.73695">
        <ele>353.20001220703</ele>
        <time>2021-10-28T03:33:43.000Z</time>
      </trkpt>
      <trkpt lat="45.20957" lon="5.73694">
        <ele>354.20001220703</ele>
        <time>2021-10-28T03:33:45.000Z</time>
      </trkpt>
      <trkpt lat="45.20958" lon="5.73693">
        <ele>354.79998779297</ele>
        <time>2021-10-28T03:33:46.000Z</time>
      </trkpt>
      <trkpt lat="45.20958" lon="5.73691">
        <ele>355.60000610352</ele>
        <time>2021-10-28T03:33:48.000Z</time>
      </trkpt>
      <trkpt lat="45.20959" lon="5.7369">
        <ele>356</ele>
        <time>2021-10-28T03:33:49.000Z</time>
      </trkpt>
      <trkpt lat="45.20961" lon="5.73688">
        <ele>356.39999389648</ele>
        <time>2021-10-28T03:33:51.000Z</time>
      </trkpt>
      <trkpt lat="45.20962" lon="5.73684">
        <ele>357</ele>
        <time>2021-10-28T03:33:54.000Z</time>
      </trkpt>
      <trkpt lat="45.20962" lon="5.73681">
        <ele>357.60000610352</ele>
        <time>2021-10-28T03:33:56.000Z</time>
      </trkpt>
      <trkpt lat="45.20963" lon="5.73679">
        <ele>358</ele>
        <time>2021-10-28T03:33:58.000Z</time>
      </trkpt>
      <trkpt lat="45.20964" lon="5.73678">
        <ele>358.20001220703</ele>
        <time>2021-10-28T03:33:59.000Z</time>
      </trkpt>
      <trkpt lat="45.20968" lon="5.73675">
        <ele>359.39999389648</ele>
        <time>2021-10-28T03:34:02.000Z</time>
      </trkpt>
      <trkpt lat="45.20968" lon="5.73674">
        <ele>359.79998779297</ele>
        <time>2021-10-28T03:34:03.000Z</time>
      </trkpt>
      <trkpt lat="45.20969" lon="5.73673">
        <ele>360.39999389648</ele>
        <time>2021-10-28T03:34:05.000Z</time>
      </trkpt>
      <trkpt lat="45.20969" lon="5.73671">
        <ele>360.60000610352</ele>
        <time>2021-10-28T03:34:06.000Z</time>
      </trkpt>
      <trkpt lat="45.2097" lon="5.73668">
        <ele>361</ele>
        <time>2021-10-28T03:34:08.000Z</time>
      </trkpt>
      <trkpt lat="45.20969" lon="5.73666">
        <ele>361.39999389648</ele>
        <time>2021-10-28T03:34:09.000Z</time>
      </trkpt>
      <trkpt lat="45.20969" lon="5.73664">
        <ele>361.79998779297</ele>
        <time>2021-10-28T03:34:10.000Z</time>
      </trkpt>
      <trkpt lat="45.20969" lon="5.73662">
        <ele>362.20001220703</ele>
        <time>2021-10-28T03:34:11.000Z</time>
      </trkpt>
      <trkpt lat="45.2097" lon="5.73659">
        <ele>362.79998779297</ele>
        <time>2021-10-28T03:34:13.000Z</time>
      </trkpt>
      <trkpt lat="45.20971" lon="5.73658">
        <ele>363</ele>
        <time>2021-10-28T03:34:14.000Z</time>
      </trkpt>
      <trkpt lat="45.20972" lon="5.73657">
        <ele>363.39999389648</ele>
        <time>2021-10-28T03:34:15.000Z</time>
      </trkpt>
      <trkpt lat="45.20972" lon="5.73656">
        <ele>364</ele>
        <time>2021-10-28T03:34:17.000Z</time>
      </trkpt>
      <trkpt lat="45.20973" lon="5.73654">
        <ele>364.79998779297</ele>
        <time>2021-10-28T03:34:20.000Z</time>
      </trkpt>
      <trkpt lat="45.20973" lon="5.73653">
        <ele>365.20001220703</ele>
        <time>2021-10-28T03:34:21.000Z</time>
      </trkpt>
      <trkpt lat="45.20975" lon="5.7365">
        <ele>366.39999389648</ele>
        <time>2021-10-28T03:34:25.000Z</time>
      </trkpt>
      <trkpt lat="45.20975" lon="5.73648">
        <ele>367</ele>
        <time>2021-10-28T03:34:27.000Z</time>
      </trkpt>
      <trkpt lat="45.20976" lon="5.73646">
        <ele>367.60000610352</ele>
        <time>2021-10-28T03:34:29.000Z</time>
      </trkpt>
      <trkpt lat="45.20976" lon="5.73643">
        <ele>368.60000610352</ele>
        <time>2021-10-28T03:34:33.000Z</time>
      </trkpt>
      <trkpt lat="45.20976" lon="5.73642">
        <ele>369</ele>
        <time>2021-10-28T03:34:34.000Z</time>
      </trkpt>
      <trkpt lat="45.20978" lon="5.73638">
        <ele>369.79998779297</ele>
        <time>2021-10-28T03:34:37.000Z</time>
      </trkpt>
      <trkpt lat="45.20979" lon="5.73633">
        <ele>371.20001220703</ele>
        <time>2021-10-28T03:34:41.000Z</time>
      </trkpt>
      <trkpt lat="45.20979" lon="5.73631">
        <ele>372.39999389648</ele>
        <time>2021-10-28T03:34:45.000Z</time>
      </trkpt>
      <trkpt lat="45.20979" lon="5.7363">
        <ele>372.60000610352</ele>
        <time>2021-10-28T03:34:46.000Z</time>
      </trkpt>
      <trkpt lat="45.20979" lon="5.73624">
        <ele>373.60000610352</ele>
        <time>2021-10-28T03:34:49.000Z</time>
      </trkpt>
      <trkpt lat="45.2098" lon="5.73618">
        <ele>374.60000610352</ele>
        <time>2021-10-28T03:34:53.000Z</time>
      </trkpt>
      <trkpt lat="45.2098" lon="5.73617">
        <ele>374.79998779297</ele>
        <time>2021-10-28T03:34:54.000Z</time>
      </trkpt>
      <trkpt lat="45.20981" lon="5.73612">
        <ele>376</ele>
        <time>2021-10-28T03:34:57.000Z</time>
      </trkpt>
      <trkpt lat="45.20981" lon="5.73609">
        <ele>376.60000610352</ele>
        <time>2021-10-28T03:34:59.000Z</time>
      </trkpt>
      <trkpt lat="45.20982" lon="5.73608">
        <ele>377</ele>
        <time>2021-10-28T03:35:00.000Z</time>
      </trkpt>
      <trkpt lat="45.20983" lon="5.73604">
        <ele>377.60000610352</ele>
        <time>2021-10-28T03:35:03.000Z</time>
      </trkpt>
      <trkpt lat="45.20983" lon="5.73603">
        <ele>378</ele>
        <time>2021-10-28T03:35:04.000Z</time>
      </trkpt>
      <trkpt lat="45.20984" lon="5.73601">
        <ele>379.20001220703</ele>
        <time>2021-10-28T03:35:07.000Z</time>
      </trkpt>
      <trkpt lat="45.20985" lon="5.736">
        <ele>379.60000610352</ele>
        <time>2021-10-28T03:35:08.000Z</time>
      </trkpt>
      <trkpt lat="45.20987" lon="5.73596">
        <ele>380.60000610352</ele>
        <time>2021-10-28T03:35:11.000Z</time>
      </trkpt>
      <trkpt lat="45.20988" lon="5.73591">
        <ele>381.39999389648</ele>
        <time>2021-10-28T03:35:14.000Z</time>
      </trkpt>
      <trkpt lat="45.20989" lon="5.73591">
        <ele>381.60000610352</ele>
        <time>2021-10-28T03:35:15.000Z</time>
      </trkpt>
      <trkpt lat="45.20989" lon="5.73589">
        <ele>382.79998779297</ele>
        <time>2021-10-28T03:35:18.000Z</time>
      </trkpt>
      <trkpt lat="45.20989" lon="5.73588">
        <ele>383</ele>
        <time>2021-10-28T03:35:19.000Z</time>
      </trkpt>
      <trkpt lat="45.20989" lon="5.73588">
        <ele>383.39999389648</ele>
        <time>2021-10-28T03:35:20.000Z</time>
      </trkpt>
      <trkpt lat="45.20989" lon="5.73585">
        <ele>384</ele>
        <time>2021-10-28T03:35:23.000Z</time>
      </trkpt>
      <trkpt lat="45.2099" lon="5.73584">
        <ele>384.60000610352</ele>
        <time>2021-10-28T03:35:24.000Z</time>
      </trkpt>
      <trkpt lat="45.2099" lon="5.73581">
        <ele>385.20001220703</ele>
        <time>2021-10-28T03:35:26.000Z</time>
      </trkpt>
      <trkpt lat="45.20991" lon="5.73578">
        <ele>385.60000610352</ele>
        <time>2021-10-28T03:35:28.000Z</time>
      </trkpt>
      <trkpt lat="45.20992" lon="5.73576">
        <ele>386.39999389648</ele>
        <time>2021-10-28T03:35:31.000Z</time>
      </trkpt>
      <trkpt lat="45.20992" lon="5.73572">
        <ele>387.39999389648</ele>
        <time>2021-10-28T03:35:34.000Z</time>
      </trkpt>
      <trkpt lat="45.20993" lon="5.73568">
        <ele>388.39999389648</ele>
        <time>2021-10-28T03:35:37.000Z</time>
      </trkpt>
      <trkpt lat="45.20994" lon="5.73567">
        <ele>389</ele>
        <time>2021-10-28T03:35:38.000Z</time>
      </trkpt>
      <trkpt lat="45.20994" lon="5.73565">
        <ele>390</ele>
        <time>2021-10-28T03:35:40.000Z</time>
      </trkpt>
      <trkpt lat="45.20994" lon="5.73562">
        <ele>391</ele>
        <time>2021-10-28T03:35:44.000Z</time>
      </trkpt>
      <trkpt lat="45.20995" lon="5.73561">
        <ele>391.20001220703</ele>
        <time>2021-10-28T03:35:45.000Z</time>
      </trkpt>
      <trkpt lat="45.20995" lon="5.73559">
        <ele>391.39999389648</ele>
        <time>2021-10-28T03:35:46.000Z</time>
      </trkpt>
      <trkpt lat="45.20996" lon="5.73557">
        <ele>392.39999389648</ele>
        <time>2021-10-28T03:35:49.000Z</time>
      </trkpt>
      <trkpt lat="45.20995" lon="5.73555">
        <ele>393.60000610352</ele>
        <time>2021-10-28T03:35:52.000Z</time>
      </trkpt>
      <trkpt lat="45.20995" lon="5.73553">
        <ele>394.39999389648</ele>
        <time>2021-10-28T03:35:55.000Z</time>
      </trkpt>
      <trkpt lat="45.20995" lon="5.73552">
        <ele>394.79998779297</ele>
        <time>2021-10-28T03:35:56.000Z</time>
      </trkpt>
      <trkpt lat="45.20995" lon="5.73549">
        <ele>395.79998779297</ele>
        <time>2021-10-28T03:35:59.000Z</time>
      </trkpt>
      <trkpt lat="45.20995" lon="5.73547">
        <ele>396.79998779297</ele>
        <time>2021-10-28T03:36:02.000Z</time>
      </trkpt>
      <trkpt lat="45.20997" lon="5.73543">
        <ele>398</ele>
        <time>2021-10-28T03:36:06.000Z</time>
      </trkpt>
      <trkpt lat="45.20998" lon="5.73542">
        <ele>398.20001220703</ele>
        <time>2021-10-28T03:36:07.000Z</time>
      </trkpt>
      <trkpt lat="45.20999" lon="5.73539">
        <ele>399</ele>
        <time>2021-10-28T03:36:09.000Z</time>
      </trkpt>
      <trkpt lat="45.21" lon="5.73536">
        <ele>400.20001220703</ele>
        <time>2021-10-28T03:36:12.000Z</time>
      </trkpt>
      <trkpt lat="45.21001" lon="5.73534">
        <ele>400.60000610352</ele>
        <time>2021-10-28T03:36:14.000Z</time>
      </trkpt>
      <trkpt lat="45.21003" lon="5.73531">
        <ele>401.39999389648</ele>
        <time>2021-10-28T03:36:17.000Z</time>
      </trkpt>
      <trkpt lat="45.21004" lon="5.73529">
        <ele>402.39999389648</ele>
        <time>2021-10-28T03:36:19.000Z</time>
      </trkpt>
      <trkpt lat="45.21007" lon="5.73526">
        <ele>403.20001220703</ele>
        <time>2021-10-28T03:36:21.000Z</time>
      </trkpt>
      <trkpt lat="45.21007" lon="5.73525">
        <ele>403.60000610352</ele>
        <time>2021-10-28T03:36:22.000Z</time>
      </trkpt>
      <trkpt lat="45.21009" lon="5.7352">
        <ele>404.79998779297</ele>
        <time>2021-10-28T03:36:26.000Z</time>
      </trkpt>
      <trkpt lat="45.21008" lon="5.73516">
        <ele>405.39999389648</ele>
        <time>2021-10-28T03:36:28.000Z</time>
      </trkpt>
      <trkpt lat="45.21009" lon="5.73516">
        <ele>406</ele>
        <time>2021-10-28T03:36:30.000Z</time>
      </trkpt>
      <trkpt lat="45.21009" lon="5.73514">
        <ele>407</ele>
        <time>2021-10-28T03:36:33.000Z</time>
      </trkpt>
      <trkpt lat="45.21009" lon="5.73513">
        <ele>407.39999389648</ele>
        <time>2021-10-28T03:36:34.000Z</time>
      </trkpt>
      <trkpt lat="45.21009" lon="5.73511">
        <ele>408.39999389648</ele>
        <time>2021-10-28T03:36:37.000Z</time>
      </trkpt>
      <trkpt lat="45.21009" lon="5.73509">
        <ele>409</ele>
        <time>2021-10-28T03:36:39.000Z</time>
      </trkpt>
      <trkpt lat="45.21009" lon="5.73509">
        <ele>409.60000610352</ele>
        <time>2021-10-28T03:36:40.000Z</time>
      </trkpt>
      <trkpt lat="45.2101" lon="5.73505">
        <ele>411</ele>
        <time>2021-10-28T03:36:44.000Z</time>
      </trkpt>
      <trkpt lat="45.2101" lon="5.73503">
        <ele>412</ele>
        <time>2021-10-28T03:36:47.000Z</time>
      </trkpt>
      <trkpt lat="45.21011" lon="5.735">
        <ele>413</ele>
        <time>2021-10-28T03:36:51.000Z</time>
      </trkpt>
      <trkpt lat="45.21012" lon="5.73496">
        <ele>414.39999389648</ele>
        <time>2021-10-28T03:36:54.000Z</time>
      </trkpt>
      <trkpt lat="45.21012" lon="5.73495">
        <ele>414.60000610352</ele>
        <time>2021-10-28T03:36:55.000Z</time>
      </trkpt>
      <trkpt lat="45.21012" lon="5.73492">
        <ele>415.39999389648</ele>
        <time>2021-10-28T03:36:58.000Z</time>
      </trkpt>
      <trkpt lat="45.21012" lon="5.73489">
        <ele>416.39999389648</ele>
        <time>2021-10-28T03:37:01.000Z</time>
      </trkpt>
      <trkpt lat="45.21012" lon="5.73485">
        <ele>417.60000610352</ele>
        <time>2021-10-28T03:37:05.000Z</time>
      </trkpt>
      <trkpt lat="45.21012" lon="5.73482">
        <ele>418.39999389648</ele>
        <time>2021-10-28T03:37:07.000Z</time>
      </trkpt>
      <trkpt lat="45.21013" lon="5.73482">
        <ele>418.79998779297</ele>
        <time>2021-10-28T03:37:08.000Z</time>
      </trkpt>
      <trkpt lat="45.21012" lon="5.7348">
        <ele>420</ele>
        <time>2021-10-28T03:37:12.000Z</time>
      </trkpt>
      <trkpt lat="45.21012" lon="5.73479">
        <ele>420.20001220703</ele>
        <time>2021-10-28T03:37:13.000Z</time>
      </trkpt>
      <trkpt lat="45.21011" lon="5.73478">
        <ele>421.20001220703</ele>
        <time>2021-10-28T03:37:16.000Z</time>
      </trkpt>
      <trkpt lat="45.21011" lon="5.73477">
        <ele>421.79998779297</ele>
        <time>2021-10-28T03:37:18.000Z</time>
      </trkpt>
      <trkpt lat="45.21012" lon="5.73476">
        <ele>422.79998779297</ele>
        <time>2021-10-28T03:37:20.000Z</time>
      </trkpt>
      <trkpt lat="45.21012" lon="5.73473">
        <ele>423.79998779297</ele>
        <time>2021-10-28T03:37:23.000Z</time>
      </trkpt>
      <trkpt lat="45.21011" lon="5.73469">
        <ele>424.79998779297</ele>
        <time>2021-10-28T03:37:27.000Z</time>
      </trkpt>
      <trkpt lat="45.21009" lon="5.73464">
        <ele>426.20001220703</ele>
        <time>2021-10-28T03:37:31.000Z</time>
      </trkpt>
      <trkpt lat="45.21009" lon="5.73463">
        <ele>426.60000610352</ele>
        <time>2021-10-28T03:37:32.000Z</time>
      </trkpt>
      <trkpt lat="45.21008" lon="5.73463">
        <ele>427.60000610352</ele>
        <time>2021-10-28T03:37:34.000Z</time>
      </trkpt>
      <trkpt lat="45.21007" lon="5.73462">
        <ele>428.60000610352</ele>
        <time>2021-10-28T03:37:36.000Z</time>
      </trkpt>
      <trkpt lat="45.21007" lon="5.73461">
        <ele>429</ele>
        <time>2021-10-28T03:37:37.000Z</time>
      </trkpt>
      <trkpt lat="45.21005" lon="5.73462">
        <ele>429.79998779297</ele>
        <time>2021-10-28T03:37:40.000Z</time>
      </trkpt>
      <trkpt lat="45.21005" lon="5.73462">
        <ele>430.20001220703</ele>
        <time>2021-10-28T03:37:41.000Z</time>
      </trkpt>
      <trkpt lat="45.21004" lon="5.73463">
        <ele>430.79998779297</ele>
        <time>2021-10-28T03:37:43.000Z</time>
      </trkpt>
      <trkpt lat="45.21004" lon="5.73464">
        <ele>431.20001220703</ele>
        <time>2021-10-28T03:37:44.000Z</time>
      </trkpt>
      <trkpt lat="45.21" lon="5.73463">
        <ele>432</ele>
        <time>2021-10-28T03:37:47.000Z</time>
      </trkpt>
      <trkpt lat="45.20998" lon="5.73459">
        <ele>432.60000610352</ele>
        <time>2021-10-28T03:37:50.000Z</time>
      </trkpt>
      <trkpt lat="45.20997" lon="5.73458">
        <ele>433</ele>
        <time>2021-10-28T03:37:51.000Z</time>
      </trkpt>
      <trkpt lat="45.20995" lon="5.73457">
        <ele>434.39999389648</ele>
        <time>2021-10-28T03:37:55.000Z</time>
      </trkpt>
      <trkpt lat="45.20994" lon="5.73456">
        <ele>434.60000610352</ele>
        <time>2021-10-28T03:37:56.000Z</time>
      </trkpt>
      <trkpt lat="45.2099" lon="5.73454">
        <ele>435.79998779297</ele>
        <time>2021-10-28T03:38:00.000Z</time>
      </trkpt>
      <trkpt lat="45.20987" lon="5.73453">
        <ele>436.79998779297</ele>
        <time>2021-10-28T03:38:03.000Z</time>
      </trkpt>
      <trkpt lat="45.20985" lon="5.73451">
        <ele>437.20001220703</ele>
        <time>2021-10-28T03:38:05.000Z</time>
      </trkpt>
      <trkpt lat="45.20982" lon="5.73449">
        <ele>438</ele>
        <time>2021-10-28T03:38:08.000Z</time>
      </trkpt>
      <trkpt lat="45.2098" lon="5.73448">
        <ele>439</ele>
        <time>2021-10-28T03:38:11.000Z</time>
      </trkpt>
      <trkpt lat="45.20978" lon="5.73447">
        <ele>439.60000610352</ele>
        <time>2021-10-28T03:38:13.000Z</time>
      </trkpt>
      <trkpt lat="45.20976" lon="5.73446">
        <ele>440</ele>
        <time>2021-10-28T03:38:15.000Z</time>
      </trkpt>
      <trkpt lat="45.20975" lon="5.73445">
        <ele>440.20001220703</ele>
        <time>2021-10-28T03:38:16.000Z</time>
      </trkpt>
      <trkpt lat="45.20974" lon="5.73444">
        <ele>441.39999389648</ele>
        <time>2021-10-28T03:38:19.000Z</time>
      </trkpt>
      <trkpt lat="45.20972" lon="5.73442">
        <ele>442.20001220703</ele>
        <time>2021-10-28T03:38:21.000Z</time>
      </trkpt>
      <trkpt lat="45.20971" lon="5.73442">
        <ele>442.39999389648</ele>
        <time>2021-10-28T03:38:22.000Z</time>
      </trkpt>
      <trkpt lat="45.2097" lon="5.73441">
        <ele>443.39999389648</ele>
        <time>2021-10-28T03:38:24.000Z</time>
      </trkpt>
      <trkpt lat="45.20969" lon="5.73441">
        <ele>443.60000610352</ele>
        <time>2021-10-28T03:38:25.000Z</time>
      </trkpt>
      <trkpt lat="45.20967" lon="5.73441">
        <ele>444.79998779297</ele>
        <time>2021-10-28T03:38:28.000Z</time>
      </trkpt>
      <trkpt lat="45.20967" lon="5.73439">
        <ele>445</ele>
        <time>2021-10-28T03:38:29.000Z</time>
      </trkpt>
      <trkpt lat="45.20965" lon="5.73436">
        <ele>445.60000610352</ele>
        <time>2021-10-28T03:38:32.000Z</time>
      </trkpt>
      <trkpt lat="45.20964" lon="5.73435">
        <ele>446</ele>
        <time>2021-10-28T03:38:33.000Z</time>
      </trkpt>
      <trkpt lat="45.20962" lon="5.73434">
        <ele>446.60000610352</ele>
        <time>2021-10-28T03:38:35.000Z</time>
      </trkpt>
      <trkpt lat="45.20961" lon="5.73432">
        <ele>447.60000610352</ele>
        <time>2021-10-28T03:38:37.000Z</time>
      </trkpt>
      <trkpt lat="45.2096" lon="5.73431">
        <ele>448</ele>
        <time>2021-10-28T03:38:38.000Z</time>
      </trkpt>
      <trkpt lat="45.20959" lon="5.73428">
        <ele>448.79998779297</ele>
        <time>2021-10-28T03:38:41.000Z</time>
      </trkpt>
      <trkpt lat="45.20958" lon="5.73426">
        <ele>449.39999389648</ele>
        <time>2021-10-28T03:38:44.000Z</time>
      </trkpt>
      <trkpt lat="45.20956" lon="5.73425">
        <ele>450</ele>
        <time>2021-10-28T03:38:46.000Z</time>
      </trkpt>
      <trkpt lat="45.20955" lon="5.73423">
        <ele>450.79998779297</ele>
        <time>2021-10-28T03:38:48.000Z</time>
      </trkpt>
      <trkpt lat="45.20955" lon="5.73423">
        <ele>451</ele>
        <time>2021-10-28T03:38:49.000Z</time>
      </trkpt>
      <trkpt lat="45.20954" lon="5.7342">
        <ele>451.60000610352</ele>
        <time>2021-10-28T03:38:51.000Z</time>
      </trkpt>
      <trkpt lat="45.20954" lon="5.73419">
        <ele>452.20001220703</ele>
        <time>2021-10-28T03:38:52.000Z</time>
      </trkpt>
      <trkpt lat="45.20954" lon="5.73419">
        <ele>452.39999389648</ele>
        <time>2021-10-28T03:38:53.000Z</time>
      </trkpt>
      <trkpt lat="45.20953" lon="5.73418">
        <ele>452.60000610352</ele>
        <time>2021-10-28T03:38:54.000Z</time>
      </trkpt>
      <trkpt lat="45.20953" lon="5.73415">
        <ele>453.39999389648</ele>
        <time>2021-10-28T03:38:56.000Z</time>
      </trkpt>
      <trkpt lat="45.20953" lon="5.73412">
        <ele>454.20001220703</ele>
        <time>2021-10-28T03:38:58.000Z</time>
      </trkpt>
      <trkpt lat="45.20953" lon="5.73411">
        <ele>454.60000610352</ele>
        <time>2021-10-28T03:38:59.000Z</time>
      </trkpt>
      <trkpt lat="45.20953" lon="5.7341">
        <ele>454.79998779297</ele>
        <time>2021-10-28T03:39:00.000Z</time>
      </trkpt>
      <trkpt lat="45.20953" lon="5.73409">
        <ele>455.20001220703</ele>
        <time>2021-10-28T03:39:01.000Z</time>
      </trkpt>
      <trkpt lat="45.20952" lon="5.73409">
        <ele>455.60000610352</ele>
        <time>2021-10-28T03:39:03.000Z</time>
      </trkpt>
      <trkpt lat="45.2095" lon="5.73406">
        <ele>456.60000610352</ele>
        <time>2021-10-28T03:39:06.000Z</time>
      </trkpt>
      <trkpt lat="45.2095" lon="5.73404">
        <ele>456.79998779297</ele>
        <time>2021-10-28T03:39:07.000Z</time>
      </trkpt>
      <trkpt lat="45.20947" lon="5.73402">
        <ele>458</ele>
        <time>2021-10-28T03:39:10.000Z</time>
      </trkpt>
      <trkpt lat="45.20946" lon="5.73402">
        <ele>458.39999389648</ele>
        <time>2021-10-28T03:39:11.000Z</time>
      </trkpt>
      <trkpt lat="45.20945" lon="5.73402">
        <ele>458.60000610352</ele>
        <time>2021-10-28T03:39:12.000Z</time>
      </trkpt>
      <trkpt lat="45.20933" lon="5.73399">
        <ele>458</ele>
        <time>2021-10-28T03:39:18.000Z</time>
      </trkpt>
      <trkpt lat="45.2093" lon="5.73397">
        <ele>457.79998779297</ele>
        <time>2021-10-28T03:39:20.000Z</time>
      </trkpt>
      <trkpt lat="45.20925" lon="5.73394">
        <ele>457.79998779297</ele>
        <time>2021-10-28T03:39:23.000Z</time>
      </trkpt>
      <trkpt lat="45.20922" lon="5.73389">
        <ele>459</ele>
        <time>2021-10-28T03:39:27.000Z</time>
      </trkpt>
      <trkpt lat="45.20921" lon="5.73388">
        <ele>459.20001220703</ele>
        <time>2021-10-28T03:39:28.000Z</time>
      </trkpt>
      <trkpt lat="45.20921" lon="5.73387">
        <ele>459.79998779297</ele>
        <time>2021-10-28T03:39:29.000Z</time>
      </trkpt>
      <trkpt lat="45.20919" lon="5.73384">
        <ele>460.39999389648</ele>
        <time>2021-10-28T03:39:31.000Z</time>
      </trkpt>
      <trkpt lat="45.20917" lon="5.73381">
        <ele>461.79998779297</ele>
        <time>2021-10-28T03:39:35.000Z</time>
      </trkpt>
      <trkpt lat="45.20915" lon="5.73379">
        <ele>462.20001220703</ele>
        <time>2021-10-28T03:39:37.000Z</time>
      </trkpt>
      <trkpt lat="45.20914" lon="5.73376">
        <ele>463</ele>
        <time>2021-10-28T03:39:40.000Z</time>
      </trkpt>
      <trkpt lat="45.20913" lon="5.73375">
        <ele>463.60000610352</ele>
        <time>2021-10-28T03:39:42.000Z</time>
      </trkpt>
      <trkpt lat="45.20913" lon="5.73374">
        <ele>464</ele>
        <time>2021-10-28T03:39:43.000Z</time>
      </trkpt>
      <trkpt lat="45.20913" lon="5.73373">
        <ele>464.39999389648</ele>
        <time>2021-10-28T03:39:44.000Z</time>
      </trkpt>
      <trkpt lat="45.20912" lon="5.73371">
        <ele>465</ele>
        <time>2021-10-28T03:39:46.000Z</time>
      </trkpt>
      <trkpt lat="45.20912" lon="5.7337">
        <ele>465.39999389648</ele>
        <time>2021-10-28T03:39:47.000Z</time>
      </trkpt>
      <trkpt lat="45.20912" lon="5.7337">
        <ele>466.20001220703</ele>
        <time>2021-10-28T03:39:49.000Z</time>
      </trkpt>
      <trkpt lat="45.20912" lon="5.73369">
        <ele>466.39999389648</ele>
        <time>2021-10-28T03:39:50.000Z</time>
      </trkpt>
      <trkpt lat="45.20911" lon="5.73368">
        <ele>467.39999389648</ele>
        <time>2021-10-28T03:39:53.000Z</time>
      </trkpt>
      <trkpt lat="45.20909" lon="5.73366">
        <ele>468</ele>
        <time>2021-10-28T03:39:55.000Z</time>
      </trkpt>
      <trkpt lat="45.20908" lon="5.73364">
        <ele>469</ele>
        <time>2021-10-28T03:39:58.000Z</time>
      </trkpt>
      <trkpt lat="45.20905" lon="5.73361">
        <ele>470</ele>
        <time>2021-10-28T03:40:02.000Z</time>
      </trkpt>
      <trkpt lat="45.20902" lon="5.73359">
        <ele>471.39999389648</ele>
        <time>2021-10-28T03:40:06.000Z</time>
      </trkpt>
      <trkpt lat="45.209" lon="5.73358">
        <ele>472</ele>
        <time>2021-10-28T03:40:08.000Z</time>
      </trkpt>
      <trkpt lat="45.20898" lon="5.73355">
        <ele>472.60000610352</ele>
        <time>2021-10-28T03:40:10.000Z</time>
      </trkpt>
      <trkpt lat="45.20895" lon="5.73351">
        <ele>473.39999389648</ele>
        <time>2021-10-28T03:40:14.000Z</time>
      </trkpt>
      <trkpt lat="45.20894" lon="5.7335">
        <ele>473.79998779297</ele>
        <time>2021-10-28T03:40:15.000Z</time>
      </trkpt>
      <trkpt lat="45.2089" lon="5.73351">
        <ele>475</ele>
        <time>2021-10-28T03:40:19.000Z</time>
      </trkpt>
      <trkpt lat="45.20889" lon="5.73352">
        <ele>475.20001220703</ele>
        <time>2021-10-28T03:40:20.000Z</time>
      </trkpt>
      <trkpt lat="45.20886" lon="5.73352">
        <ele>476.20001220703</ele>
        <time>2021-10-28T03:40:23.000Z</time>
      </trkpt>
      <trkpt lat="45.20884" lon="5.73351">
        <ele>476.79998779297</ele>
        <time>2021-10-28T03:40:25.000Z</time>
      </trkpt>
      <trkpt lat="45.20882" lon="5.7335">
        <ele>477.20001220703</ele>
        <time>2021-10-28T03:40:27.000Z</time>
      </trkpt>
      <trkpt lat="45.20882" lon="5.7335">
        <ele>477.60000610352</ele>
        <time>2021-10-28T03:40:28.000Z</time>
      </trkpt>
      <trkpt lat="45.2088" lon="5.73349">
        <ele>478</ele>
        <time>2021-10-28T03:40:29.000Z</time>
      </trkpt>
      <trkpt lat="45.20879" lon="5.73348">
        <ele>478.60000610352</ele>
        <time>2021-10-28T03:40:31.000Z</time>
      </trkpt>
      <trkpt lat="45.20878" lon="5.73348">
        <ele>479.20001220703</ele>
        <time>2021-10-28T03:40:33.000Z</time>
      </trkpt>
      <trkpt lat="45.20877" lon="5.73349">
        <ele>479.39999389648</ele>
        <time>2021-10-28T03:40:34.000Z</time>
      </trkpt>
      <trkpt lat="45.20875" lon="5.7335">
        <ele>480</ele>
        <time>2021-10-28T03:40:36.000Z</time>
      </trkpt>
      <trkpt lat="45.20874" lon="5.73349">
        <ele>480.20001220703</ele>
        <time>2021-10-28T03:40:37.000Z</time>
      </trkpt>
      <trkpt lat="45.20872" lon="5.73348">
        <ele>481.20001220703</ele>
        <time>2021-10-28T03:40:40.000Z</time>
      </trkpt>
      <trkpt lat="45.20869" lon="5.73348">
        <ele>482</ele>
        <time>2021-10-28T03:40:43.000Z</time>
      </trkpt>
      <trkpt lat="45.20868" lon="5.73348">
        <ele>482.20001220703</ele>
        <time>2021-10-28T03:40:44.000Z</time>
      </trkpt>
      <trkpt lat="45.20865" lon="5.73347">
        <ele>483.39999389648</ele>
        <time>2021-10-28T03:40:47.000Z</time>
      </trkpt>
      <trkpt lat="45.20863" lon="5.73347">
        <ele>484.20001220703</ele>
        <time>2021-10-28T03:40:49.000Z</time>
      </trkpt>
      <trkpt lat="45.20862" lon="5.73347">
        <ele>484.39999389648</ele>
        <time>2021-10-28T03:40:50.000Z</time>
      </trkpt>
      <trkpt lat="45.20861" lon="5.73346">
        <ele>485.20001220703</ele>
        <time>2021-10-28T03:40:53.000Z</time>
      </trkpt>
      <trkpt lat="45.20861" lon="5.73345">
        <ele>485.60000610352</ele>
        <time>2021-10-28T03:40:54.000Z</time>
      </trkpt>
      <trkpt lat="45.2086" lon="5.73345">
        <ele>485.79998779297</ele>
        <time>2021-10-28T03:40:55.000Z</time>
      </trkpt>
      <trkpt lat="45.20859" lon="5.73344">
        <ele>486.39999389648</ele>
        <time>2021-10-28T03:40:57.000Z</time>
      </trkpt>
      <trkpt lat="45.20859" lon="5.73343">
        <ele>486.60000610352</ele>
        <time>2021-10-28T03:40:58.000Z</time>
      </trkpt>
      <trkpt lat="45.20858" lon="5.73342">
        <ele>486.79998779297</ele>
        <time>2021-10-28T03:40:59.000Z</time>
      </trkpt>
      <trkpt lat="45.20857" lon="5.7334">
        <ele>487.79998779297</ele>
        <time>2021-10-28T03:41:02.000Z</time>
      </trkpt>
      <trkpt lat="45.20856" lon="5.73336">
        <ele>488.79998779297</ele>
        <time>2021-10-28T03:41:05.000Z</time>
      </trkpt>
      <trkpt lat="45.20856" lon="5.73334">
        <ele>489</ele>
        <time>2021-10-28T03:41:06.000Z</time>
      </trkpt>
      <trkpt lat="45.20854" lon="5.7333">
        <ele>489.79998779297</ele>
        <time>2021-10-28T03:41:09.000Z</time>
      </trkpt>
      <trkpt lat="45.20854" lon="5.73328">
        <ele>490.20001220703</ele>
        <time>2021-10-28T03:41:10.000Z</time>
      </trkpt>
      <trkpt lat="45.20853" lon="5.73319">
        <ele>491.39999389648</ele>
        <time>2021-10-28T03:41:14.000Z</time>
      </trkpt>
      <trkpt lat="45.20854" lon="5.73317">
        <ele>492</ele>
        <time>2021-10-28T03:41:16.000Z</time>
      </trkpt>
      <trkpt lat="45.20856" lon="5.73318">
        <ele>492.39999389648</ele>
        <time>2021-10-28T03:41:18.000Z</time>
      </trkpt>
      <trkpt lat="45.20858" lon="5.7332">
        <ele>493</ele>
        <time>2021-10-28T03:41:21.000Z</time>
      </trkpt>
      <trkpt lat="45.20861" lon="5.73317">
        <ele>493.60000610352</ele>
        <time>2021-10-28T03:41:23.000Z</time>
      </trkpt>
      <trkpt lat="45.20862" lon="5.73317">
        <ele>494</ele>
        <time>2021-10-28T03:41:24.000Z</time>
      </trkpt>
      <trkpt lat="45.20864" lon="5.73317">
        <ele>494.60000610352</ele>
        <time>2021-10-28T03:41:26.000Z</time>
      </trkpt>
      <trkpt lat="45.20868" lon="5.73319">
        <ele>495.20001220703</ele>
        <time>2021-10-28T03:41:29.000Z</time>
      </trkpt>
      <trkpt lat="45.20869" lon="5.73321">
        <ele>495.60000610352</ele>
        <time>2021-10-28T03:41:30.000Z</time>
      </trkpt>
      <trkpt lat="45.2087" lon="5.73321">
        <ele>496</ele>
        <time>2021-10-28T03:41:31.000Z</time>
      </trkpt>
      <trkpt lat="45.20874" lon="5.73321">
        <ele>496.39999389648</ele>
        <time>2021-10-28T03:41:34.000Z</time>
      </trkpt>
      <trkpt lat="45.20877" lon="5.7332">
        <ele>497</ele>
        <time>2021-10-28T03:41:36.000Z</time>
      </trkpt>
      <trkpt lat="45.2088" lon="5.73319">
        <ele>497.20001220703</ele>
        <time>2021-10-28T03:41:38.000Z</time>
      </trkpt>
      <trkpt lat="45.20883" lon="5.73318">
        <ele>498.20001220703</ele>
        <time>2021-10-28T03:41:41.000Z</time>
      </trkpt>
      <trkpt lat="45.20884" lon="5.73318">
        <ele>498.39999389648</ele>
        <time>2021-10-28T03:41:42.000Z</time>
      </trkpt>
      <trkpt lat="45.20889" lon="5.73318">
        <ele>499</ele>
        <time>2021-10-28T03:41:45.000Z</time>
      </trkpt>
      <trkpt lat="45.2089" lon="5.73317">
        <ele>499.39999389648</ele>
        <time>2021-10-28T03:41:46.000Z</time>
      </trkpt>
      <trkpt lat="45.20892" lon="5.73315">
        <ele>499.60000610352</ele>
        <time>2021-10-28T03:41:47.000Z</time>
      </trkpt>
      <trkpt lat="45.20898" lon="5.73314">
        <ele>500.60000610352</ele>
        <time>2021-10-28T03:41:51.000Z</time>
      </trkpt>
      <trkpt lat="45.209" lon="5.73313">
        <ele>500.79998779297</ele>
        <time>2021-10-28T03:41:52.000Z</time>
      </trkpt>
      <trkpt lat="45.20903" lon="5.73312">
        <ele>501.20001220703</ele>
        <time>2021-10-28T03:41:54.000Z</time>
      </trkpt>
      <trkpt lat="45.20906" lon="5.7331">
        <ele>501.60000610352</ele>
        <time>2021-10-28T03:41:56.000Z</time>
      </trkpt>
      <trkpt lat="45.20908" lon="5.73309">
        <ele>502.20001220703</ele>
        <time>2021-10-28T03:41:58.000Z</time>
      </trkpt>
      <trkpt lat="45.20911" lon="5.73309">
        <ele>502.79998779297</ele>
        <time>2021-10-28T03:42:00.000Z</time>
      </trkpt>
      <trkpt lat="45.20911" lon="5.73309">
        <ele>502.79998779297</ele>
        <time>2021-10-28T03:42:01.000Z</time>
      </trkpt>
      <trkpt lat="45.20912" lon="5.7331">
        <ele>503</ele>
        <time>2021-10-28T03:42:02.000Z</time>
      </trkpt>
      <trkpt lat="45.20914" lon="5.73313">
        <ele>503.79998779297</ele>
        <time>2021-10-28T03:42:05.000Z</time>
      </trkpt>
      <trkpt lat="45.20915" lon="5.73315">
        <ele>504</ele>
        <time>2021-10-28T03:42:06.000Z</time>
      </trkpt>
      <trkpt lat="45.20917" lon="5.73315">
        <ele>504.20001220703</ele>
        <time>2021-10-28T03:42:07.000Z</time>
      </trkpt>
      <trkpt lat="45.20922" lon="5.73317">
        <ele>504.79998779297</ele>
        <time>2021-10-28T03:42:10.000Z</time>
      </trkpt>
      <trkpt lat="45.20924" lon="5.73318">
        <ele>505</ele>
        <time>2021-10-28T03:42:11.000Z</time>
      </trkpt>
      <trkpt lat="45.20931" lon="5.7332">
        <ele>506</ele>
        <time>2021-10-28T03:42:15.000Z</time>
      </trkpt>
      <trkpt lat="45.20934" lon="5.7332">
        <ele>506.39999389648</ele>
        <time>2021-10-28T03:42:17.000Z</time>
      </trkpt>
      <trkpt lat="45.20938" lon="5.73319">
        <ele>507</ele>
        <time>2021-10-28T03:42:20.000Z</time>
      </trkpt>
      <trkpt lat="45.20944" lon="5.73316">
        <ele>508</ele>
        <time>2021-10-28T03:42:24.000Z</time>
      </trkpt>
      <trkpt lat="45.20948" lon="5.73314">
        <ele>508.79998779297</ele>
        <time>2021-10-28T03:42:27.000Z</time>
      </trkpt>
      <trkpt lat="45.20949" lon="5.73314">
        <ele>509.20001220703</ele>
        <time>2021-10-28T03:42:28.000Z</time>
      </trkpt>
      <trkpt lat="45.2095" lon="5.73314">
        <ele>509.20001220703</ele>
        <time>2021-10-28T03:42:29.000Z</time>
      </trkpt>
      <trkpt lat="45.20951" lon="5.73314">
        <ele>509.60000610352</ele>
        <time>2021-10-28T03:42:30.000Z</time>
      </trkpt>
      <trkpt lat="45.20952" lon="5.73313">
        <ele>509.79998779297</ele>
        <time>2021-10-28T03:42:31.000Z</time>
      </trkpt>
      <trkpt lat="45.20955" lon="5.7331">
        <ele>510.39999389648</ele>
        <time>2021-10-28T03:42:33.000Z</time>
      </trkpt>
      <trkpt lat="45.20957" lon="5.7331">
        <ele>510.60000610352</ele>
        <time>2021-10-28T03:42:34.000Z</time>
      </trkpt>
      <trkpt lat="45.2096" lon="5.73308">
        <ele>511.20001220703</ele>
        <time>2021-10-28T03:42:36.000Z</time>
      </trkpt>
      <trkpt lat="45.20965" lon="5.73306">
        <ele>511.60000610352</ele>
        <time>2021-10-28T03:42:38.000Z</time>
      </trkpt>
      <trkpt lat="45.2097" lon="5.73305">
        <ele>512.79998779297</ele>
        <time>2021-10-28T03:42:42.000Z</time>
      </trkpt>
      <trkpt lat="45.20974" lon="5.73306">
        <ele>513.20001220703</ele>
        <time>2021-10-28T03:42:44.000Z</time>
      </trkpt>
      <trkpt lat="45.20977" lon="5.73306">
        <ele>513.79998779297</ele>
        <time>2021-10-28T03:42:46.000Z</time>
      </trkpt>
      <trkpt lat="45.20984" lon="5.73306">
        <ele>514.79998779297</ele>
        <time>2021-10-28T03:42:50.000Z</time>
      </trkpt>
      <trkpt lat="45.20985" lon="5.73306">
        <ele>515.40002441406</ele>
        <time>2021-10-28T03:42:52.000Z</time>
      </trkpt>
      <trkpt lat="45.20985" lon="5.73306">
        <ele>516</ele>
        <time>2021-10-28T03:42:54.000Z</time>
      </trkpt>
      <trkpt lat="45.20983" lon="5.73307">
        <ele>516.40002441406</ele>
        <time>2021-10-28T03:42:56.000Z</time>
      </trkpt>
      <trkpt lat="45.20981" lon="5.73306">
        <ele>517.20001220703</ele>
        <time>2021-10-28T03:42:58.000Z</time>
      </trkpt>
      <trkpt lat="45.20975" lon="5.73303">
        <ele>518</ele>
        <time>2021-10-28T03:43:02.000Z</time>
      </trkpt>
      <trkpt lat="45.20974" lon="5.73304">
        <ele>518.20001220703</ele>
        <time>2021-10-28T03:43:03.000Z</time>
      </trkpt>
      <trkpt lat="45.2097" lon="5.73303">
        <ele>519</ele>
        <time>2021-10-28T03:43:06.000Z</time>
      </trkpt>
      <trkpt lat="45.20968" lon="5.73301">
        <ele>519.40002441406</ele>
        <time>2021-10-28T03:43:08.000Z</time>
      </trkpt>
      <trkpt lat="45.20968" lon="5.73301">
        <ele>519.79998779297</ele>
        <time>2021-10-28T03:43:09.000Z</time>
      </trkpt>
      <trkpt lat="45.20964" lon="5.73299">
        <ele>520.40002441406</ele>
        <time>2021-10-28T03:43:12.000Z</time>
      </trkpt>
      <trkpt lat="45.20959" lon="5.73297">
        <ele>521.40002441406</ele>
        <time>2021-10-28T03:43:16.000Z</time>
      </trkpt>
      <trkpt lat="45.20958" lon="5.73297">
        <ele>521.59997558594</ele>
        <time>2021-10-28T03:43:17.000Z</time>
      </trkpt>
      <trkpt lat="45.20951" lon="5.73298">
        <ele>522.59997558594</ele>
        <time>2021-10-28T03:43:22.000Z</time>
      </trkpt>
      <trkpt lat="45.20948" lon="5.733">
        <ele>523.40002441406</ele>
        <time>2021-10-28T03:43:25.000Z</time>
      </trkpt>
      <trkpt lat="45.20946" lon="5.733">
        <ele>523.79998779297</ele>
        <time>2021-10-28T03:43:26.000Z</time>
      </trkpt>
      <trkpt lat="45.2094" lon="5.73296">
        <ele>525</ele>
        <time>2021-10-28T03:43:31.000Z</time>
      </trkpt>
      <trkpt lat="45.20934" lon="5.73291">
        <ele>526</ele>
        <time>2021-10-28T03:43:35.000Z</time>
      </trkpt>
      <trkpt lat="45.20932" lon="5.7329">
        <ele>526.20001220703</ele>
        <time>2021-10-28T03:43:36.000Z</time>
      </trkpt>
      <trkpt lat="45.20929" lon="5.73289">
        <ele>526.59997558594</ele>
        <time>2021-10-28T03:43:38.000Z</time>
      </trkpt>
      <trkpt lat="45.20927" lon="5.73286">
        <ele>527.20001220703</ele>
        <time>2021-10-28T03:43:40.000Z</time>
      </trkpt>
      <trkpt lat="45.20923" lon="5.73282">
        <ele>528</ele>
        <time>2021-10-28T03:43:43.000Z</time>
      </trkpt>
      <trkpt lat="45.20919" lon="5.73278">
        <ele>528.40002441406</ele>
        <time>2021-10-28T03:43:45.000Z</time>
      </trkpt>
      <trkpt lat="45.20914" lon="5.73275">
        <ele>529.20001220703</ele>
        <time>2021-10-28T03:43:48.000Z</time>
      </trkpt>
      <trkpt lat="45.20913" lon="5.73273">
        <ele>529.40002441406</ele>
        <time>2021-10-28T03:43:49.000Z</time>
      </trkpt>
      <trkpt lat="45.20912" lon="5.73271">
        <ele>529.79998779297</ele>
        <time>2021-10-28T03:43:51.000Z</time>
      </trkpt>
      <trkpt lat="45.20911" lon="5.7327">
        <ele>530.20001220703</ele>
        <time>2021-10-28T03:43:52.000Z</time>
      </trkpt>
      <trkpt lat="45.2091" lon="5.73269">
        <ele>530.59997558594</ele>
        <time>2021-10-28T03:43:53.000Z</time>
      </trkpt>
      <trkpt lat="45.20906" lon="5.73266">
        <ele>531.59997558594</ele>
        <time>2021-10-28T03:43:57.000Z</time>
      </trkpt>
      <trkpt lat="45.20907" lon="5.73265">
        <ele>531.79998779297</ele>
        <time>2021-10-28T03:43:58.000Z</time>
      </trkpt>
      <trkpt lat="45.20909" lon="5.73264">
        <ele>532.79998779297</ele>
        <time>2021-10-28T03:44:02.000Z</time>
      </trkpt>
      <trkpt lat="45.2091" lon="5.73264">
        <ele>533.20001220703</ele>
        <time>2021-10-28T03:44:03.000Z</time>
      </trkpt>
      <trkpt lat="45.20919" lon="5.73262">
        <ele>534</ele>
        <time>2021-10-28T03:44:09.000Z</time>
      </trkpt>
      <trkpt lat="45.20922" lon="5.73264">
        <ele>534.79998779297</ele>
        <time>2021-10-28T03:44:12.000Z</time>
      </trkpt>
      <trkpt lat="45.20923" lon="5.73264">
        <ele>535.20001220703</ele>
        <time>2021-10-28T03:44:13.000Z</time>
      </trkpt>
      <trkpt lat="45.20926" lon="5.73264">
        <ele>535.79998779297</ele>
        <time>2021-10-28T03:44:15.000Z</time>
      </trkpt>
      <trkpt lat="45.20929" lon="5.73264">
        <ele>536.20001220703</ele>
        <time>2021-10-28T03:44:17.000Z</time>
      </trkpt>
      <trkpt lat="45.20931" lon="5.73265">
        <ele>536.79998779297</ele>
        <time>2021-10-28T03:44:19.000Z</time>
      </trkpt>
      <trkpt lat="45.20934" lon="5.73266">
        <ele>537.20001220703</ele>
        <time>2021-10-28T03:44:21.000Z</time>
      </trkpt>
      <trkpt lat="45.20936" lon="5.73267">
        <ele>537.40002441406</ele>
        <time>2021-10-28T03:44:22.000Z</time>
      </trkpt>
      <trkpt lat="45.20937" lon="5.73268">
        <ele>537.59997558594</ele>
        <time>2021-10-28T03:44:23.000Z</time>
      </trkpt>
      <trkpt lat="45.20941" lon="5.73267">
        <ele>538.40002441406</ele>
        <time>2021-10-28T03:44:26.000Z</time>
      </trkpt>
      <trkpt lat="45.20942" lon="5.73267">
        <ele>538.59997558594</ele>
        <time>2021-10-28T03:44:27.000Z</time>
      </trkpt>
      <trkpt lat="45.20944" lon="5.73267">
        <ele>539</ele>
        <time>2021-10-28T03:44:28.000Z</time>
      </trkpt>
      <trkpt lat="45.20947" lon="5.73266">
        <ele>539.59997558594</ele>
        <time>2021-10-28T03:44:31.000Z</time>
      </trkpt>
      <trkpt lat="45.20952" lon="5.73262">
        <ele>540.79998779297</ele>
        <time>2021-10-28T03:44:35.000Z</time>
      </trkpt>
      <trkpt lat="45.20957" lon="5.73259">
        <ele>541.79998779297</ele>
        <time>2021-10-28T03:44:39.000Z</time>
      </trkpt>
      <trkpt lat="45.20961" lon="5.73259">
        <ele>542.59997558594</ele>
        <time>2021-10-28T03:44:42.000Z</time>
      </trkpt>
      <trkpt lat="45.20964" lon="5.73258">
        <ele>543</ele>
        <time>2021-10-28T03:44:44.000Z</time>
      </trkpt>
      <trkpt lat="45.20969" lon="5.73258">
        <ele>544</ele>
        <time>2021-10-28T03:44:47.000Z</time>
      </trkpt>
      <trkpt lat="45.20973" lon="5.73258">
        <ele>544.40002441406</ele>
        <time>2021-10-28T03:44:49.000Z</time>
      </trkpt>
      <trkpt lat="45.20976" lon="5.73258">
        <ele>545.20001220703</ele>
        <time>2021-10-28T03:44:51.000Z</time>
      </trkpt>
      <trkpt lat="45.2098" lon="5.73255">
        <ele>546.40002441406</ele>
        <time>2021-10-28T03:44:55.000Z</time>
      </trkpt>
      <trkpt lat="45.20982" lon="5.73255">
        <ele>546.79998779297</ele>
        <time>2021-10-28T03:44:56.000Z</time>
      </trkpt>
      <trkpt lat="45.20984" lon="5.73252">
        <ele>547.40002441406</ele>
        <time>2021-10-28T03:44:59.000Z</time>
      </trkpt>
      <trkpt lat="45.20982" lon="5.73253">
        <ele>548</ele>
        <time>2021-10-28T03:45:01.000Z</time>
      </trkpt>
      <trkpt lat="45.20977" lon="5.73255">
        <ele>548.40002441406</ele>
        <time>2021-10-28T03:45:04.000Z</time>
      </trkpt>
      <trkpt lat="45.20973" lon="5.73254">
        <ele>549.59997558594</ele>
        <time>2021-10-28T03:45:07.000Z</time>
      </trkpt>
      <trkpt lat="45.20972" lon="5.73253">
        <ele>549.79998779297</ele>
        <time>2021-10-28T03:45:08.000Z</time>
      </trkpt>
      <trkpt lat="45.20967" lon="5.73251">
        <ele>550.59997558594</ele>
        <time>2021-10-28T03:45:12.000Z</time>
      </trkpt>
      <trkpt lat="45.20964" lon="5.7325">
        <ele>551.20001220703</ele>
        <time>2021-10-28T03:45:15.000Z</time>
      </trkpt>
      <trkpt lat="45.20961" lon="5.73248">
        <ele>552</ele>
        <time>2021-10-28T03:45:18.000Z</time>
      </trkpt>
      <trkpt lat="45.20958" lon="5.73247">
        <ele>552.59997558594</ele>
        <time>2021-10-28T03:45:21.000Z</time>
      </trkpt>
      <trkpt lat="45.2095" lon="5.7325">
        <ele>553.40002441406</ele>
        <time>2021-10-28T03:45:25.000Z</time>
      </trkpt>
      <trkpt lat="45.20949" lon="5.7325">
        <ele>553.59997558594</ele>
        <time>2021-10-28T03:45:26.000Z</time>
      </trkpt>
      <trkpt lat="45.20945" lon="5.73249">
        <ele>554.40002441406</ele>
        <time>2021-10-28T03:45:30.000Z</time>
      </trkpt>
      <trkpt lat="45.20942" lon="5.73247">
        <ele>555.20001220703</ele>
        <time>2021-10-28T03:45:33.000Z</time>
      </trkpt>
      <trkpt lat="45.20939" lon="5.73244">
        <ele>555.79998779297</ele>
        <time>2021-10-28T03:45:36.000Z</time>
      </trkpt>
      <trkpt lat="45.20932" lon="5.73238">
        <ele>557</ele>
        <time>2021-10-28T03:45:41.000Z</time>
      </trkpt>
      <trkpt lat="45.20927" lon="5.73232">
        <ele>558.40002441406</ele>
        <time>2021-10-28T03:45:46.000Z</time>
      </trkpt>
      <trkpt lat="45.20927" lon="5.73231">
        <ele>558.79998779297</ele>
        <time>2021-10-28T03:45:47.000Z</time>
      </trkpt>
      <trkpt lat="45.2093" lon="5.73231">
        <ele>559.20001220703</ele>
        <time>2021-10-28T03:45:49.000Z</time>
      </trkpt>
      <trkpt lat="45.20931" lon="5.73231">
        <ele>559.79998779297</ele>
        <time>2021-10-28T03:45:51.000Z</time>
      </trkpt>
      <trkpt lat="45.20933" lon="5.73231">
        <ele>560</ele>
        <time>2021-10-28T03:45:52.000Z</time>
      </trkpt>
      <trkpt lat="45.20936" lon="5.73231">
        <ele>560.79998779297</ele>
        <time>2021-10-28T03:45:55.000Z</time>
      </trkpt>
      <trkpt lat="45.20937" lon="5.73231">
        <ele>560.79998779297</ele>
        <time>2021-10-28T03:45:56.000Z</time>
      </trkpt>
      <trkpt lat="45.20939" lon="5.7323">
        <ele>561.40002441406</ele>
        <time>2021-10-28T03:45:58.000Z</time>
      </trkpt>
      <trkpt lat="45.20943" lon="5.7323">
        <ele>561.79998779297</ele>
        <time>2021-10-28T03:46:01.000Z</time>
      </trkpt>
      <trkpt lat="45.20946" lon="5.73229">
        <ele>562.40002441406</ele>
        <time>2021-10-28T03:46:04.000Z</time>
      </trkpt>
      <trkpt lat="45.20949" lon="5.73229">
        <ele>563.20001220703</ele>
        <time>2021-10-28T03:46:07.000Z</time>
      </trkpt>
      <trkpt lat="45.20954" lon="5.73227">
        <ele>564.20001220703</ele>
        <time>2021-10-28T03:46:11.000Z</time>
      </trkpt>
      <trkpt lat="45.20955" lon="5.73227">
        <ele>564.40002441406</ele>
        <time>2021-10-28T03:46:12.000Z</time>
      </trkpt>
      <trkpt lat="45.20962" lon="5.73225">
        <ele>565.59997558594</ele>
        <time>2021-10-28T03:46:17.000Z</time>
      </trkpt>
      <trkpt lat="45.20967" lon="5.73225">
        <ele>566.20001220703</ele>
        <time>2021-10-28T03:46:20.000Z</time>
      </trkpt>
      <trkpt lat="45.2097" lon="5.73225">
        <ele>566.79998779297</ele>
        <time>2021-10-28T03:46:22.000Z</time>
      </trkpt>
      <trkpt lat="45.20974" lon="5.73223">
        <ele>567.20001220703</ele>
        <time>2021-10-28T03:46:25.000Z</time>
      </trkpt>
      <trkpt lat="45.20977" lon="5.73222">
        <ele>567.79998779297</ele>
        <time>2021-10-28T03:46:27.000Z</time>
      </trkpt>
      <trkpt lat="45.2098" lon="5.7322">
        <ele>568.20001220703</ele>
        <time>2021-10-28T03:46:29.000Z</time>
      </trkpt>
      <trkpt lat="45.20982" lon="5.73218">
        <ele>568.79998779297</ele>
        <time>2021-10-28T03:46:31.000Z</time>
      </trkpt>
      <trkpt lat="45.20984" lon="5.73216">
        <ele>569.59997558594</ele>
        <time>2021-10-28T03:46:33.000Z</time>
      </trkpt>
      <trkpt lat="45.20983" lon="5.73216">
        <ele>570</ele>
        <time>2021-10-28T03:46:35.000Z</time>
      </trkpt>
      <trkpt lat="45.20979" lon="5.73216">
        <ele>570.79998779297</ele>
        <time>2021-10-28T03:46:38.000Z</time>
      </trkpt>
      <trkpt lat="45.20978" lon="5.73217">
        <ele>571.20001220703</ele>
        <time>2021-10-28T03:46:39.000Z</time>
      </trkpt>
      <trkpt lat="45.20974" lon="5.73218">
        <ele>571.59997558594</ele>
        <time>2021-10-28T03:46:42.000Z</time>
      </trkpt>
      <trkpt lat="45.20972" lon="5.73218">
        <ele>572</ele>
        <time>2021-10-28T03:46:43.000Z</time>
      </trkpt>
      <trkpt lat="45.20971" lon="5.73217">
        <ele>572.20001220703</ele>
        <time>2021-10-28T03:46:44.000Z</time>
      </trkpt>
      <trkpt lat="45.20971" lon="5.73216">
        <ele>572.40002441406</ele>
        <time>2021-10-28T03:46:45.000Z</time>
      </trkpt>
      <trkpt lat="45.20971" lon="5.73216">
        <ele>572.59997558594</ele>
        <time>2021-10-28T03:46:46.000Z</time>
      </trkpt>
      <trkpt lat="45.20972" lon="5.73215">
        <ele>572.59997558594</ele>
        <time>2021-10-28T03:46:47.000Z</time>
      </trkpt>
      <trkpt lat="45.20974" lon="5.73216">
        <ele>573.40002441406</ele>
        <time>2021-10-28T03:46:49.000Z</time>
      </trkpt>
      <trkpt lat="45.20975" lon="5.73215">
        <ele>573.79998779297</ele>
        <time>2021-10-28T03:46:50.000Z</time>
      </trkpt>
      <trkpt lat="45.20978" lon="5.73213">
        <ele>574.59997558594</ele>
        <time>2021-10-28T03:46:52.000Z</time>
      </trkpt>
      <trkpt lat="45.2098" lon="5.73211">
        <ele>575.20001220703</ele>
        <time>2021-10-28T03:46:54.000Z</time>
      </trkpt>
      <trkpt lat="45.20984" lon="5.73208">
        <ele>575.59997558594</ele>
        <time>2021-10-28T03:46:57.000Z</time>
      </trkpt>
      <trkpt lat="45.20988" lon="5.73203">
        <ele>576.40002441406</ele>
        <time>2021-10-28T03:47:01.000Z</time>
      </trkpt>
      <trkpt lat="45.20991" lon="5.73201">
        <ele>576.79998779297</ele>
        <time>2021-10-28T03:47:03.000Z</time>
      </trkpt>
      <trkpt lat="45.20999" lon="5.73195">
        <ele>578.20001220703</ele>
        <time>2021-10-28T03:47:09.000Z</time>
      </trkpt>
      <trkpt lat="45.21" lon="5.73194">
        <ele>578.20001220703</ele>
        <time>2021-10-28T03:47:10.000Z</time>
      </trkpt>
      <trkpt lat="45.21001" lon="5.73189">
        <ele>579.20001220703</ele>
        <time>2021-10-28T03:47:14.000Z</time>
      </trkpt>
      <trkpt lat="45.21003" lon="5.73184">
        <ele>580.20001220703</ele>
        <time>2021-10-28T03:47:18.000Z</time>
      </trkpt>
      <trkpt lat="45.21004" lon="5.73183">
        <ele>580.59997558594</ele>
        <time>2021-10-28T03:47:19.000Z</time>
      </trkpt>
      <trkpt lat="45.21006" lon="5.73183">
        <ele>581</ele>
        <time>2021-10-28T03:47:21.000Z</time>
      </trkpt>
      <trkpt lat="45.21007" lon="5.73182">
        <ele>581.40002441406</ele>
        <time>2021-10-28T03:47:22.000Z</time>
      </trkpt>
      <trkpt lat="45.2101" lon="5.7318">
        <ele>582</ele>
        <time>2021-10-28T03:47:24.000Z</time>
      </trkpt>
      <trkpt lat="45.2101" lon="5.73179">
        <ele>582.20001220703</ele>
        <time>2021-10-28T03:47:25.000Z</time>
      </trkpt>
      <trkpt lat="45.21011" lon="5.73178">
        <ele>582.40002441406</ele>
        <time>2021-10-28T03:47:26.000Z</time>
      </trkpt>
      <trkpt lat="45.21016" lon="5.73174">
        <ele>583.20001220703</ele>
        <time>2021-10-28T03:47:29.000Z</time>
      </trkpt>
      <trkpt lat="45.21017" lon="5.73176">
        <ele>583.59997558594</ele>
        <time>2021-10-28T03:47:30.000Z</time>
      </trkpt>
      <trkpt lat="45.21019" lon="5.73181">
        <ele>584</ele>
        <time>2021-10-28T03:47:33.000Z</time>
      </trkpt>
      <trkpt lat="45.21021" lon="5.73183">
        <ele>584.40002441406</ele>
        <time>2021-10-28T03:47:35.000Z</time>
      </trkpt>
      <trkpt lat="45.21022" lon="5.73184">
        <ele>584.79998779297</ele>
        <time>2021-10-28T03:47:36.000Z</time>
      </trkpt>
      <trkpt lat="45.21022" lon="5.73187">
        <ele>585.20001220703</ele>
        <time>2021-10-28T03:47:39.000Z</time>
      </trkpt>
      <trkpt lat="45.21023" lon="5.73188">
        <ele>585.59997558594</ele>
        <time>2021-10-28T03:47:40.000Z</time>
      </trkpt>
      <trkpt lat="45.21025" lon="5.7319">
        <ele>586</ele>
        <time>2021-10-28T03:47:41.000Z</time>
      </trkpt>
      <trkpt lat="45.21028" lon="5.73193">
        <ele>586.20001220703</ele>
        <time>2021-10-28T03:47:43.000Z</time>
      </trkpt>
      <trkpt lat="45.21029" lon="5.73195">
        <ele>586.79998779297</ele>
        <time>2021-10-28T03:47:44.000Z</time>
      </trkpt>
      <trkpt lat="45.2103" lon="5.73196">
        <ele>587</ele>
        <time>2021-10-28T03:47:45.000Z</time>
      </trkpt>
      <trkpt lat="45.21035" lon="5.73198">
        <ele>587.79998779297</ele>
        <time>2021-10-28T03:47:48.000Z</time>
      </trkpt>
      <trkpt lat="45.21038" lon="5.73199">
        <ele>588.40002441406</ele>
        <time>2021-10-28T03:47:50.000Z</time>
      </trkpt>
      <trkpt lat="45.21039" lon="5.73198">
        <ele>588.59997558594</ele>
        <time>2021-10-28T03:47:51.000Z</time>
      </trkpt>
      <trkpt lat="45.21041" lon="5.73196">
        <ele>589.20001220703</ele>
        <time>2021-10-28T03:47:53.000Z</time>
      </trkpt>
      <trkpt lat="45.21044" lon="5.73195">
        <ele>589.40002441406</ele>
        <time>2021-10-28T03:47:54.000Z</time>
      </trkpt>
      <trkpt lat="45.21047" lon="5.73194">
        <ele>590</ele>
        <time>2021-10-28T03:47:56.000Z</time>
      </trkpt>
      <trkpt lat="45.21053" lon="5.73196">
        <ele>590.59997558594</ele>
        <time>2021-10-28T03:47:59.000Z</time>
      </trkpt>
      <trkpt lat="45.21056" lon="5.73196">
        <ele>590.79998779297</ele>
        <time>2021-10-28T03:48:01.000Z</time>
      </trkpt>
      <trkpt lat="45.21057" lon="5.73199">
        <ele>591.59997558594</ele>
        <time>2021-10-28T03:48:03.000Z</time>
      </trkpt>
      <trkpt lat="45.21058" lon="5.73202">
        <ele>591.79998779297</ele>
        <time>2021-10-28T03:48:04.000Z</time>
      </trkpt>
      <trkpt lat="45.2106" lon="5.73207">
        <ele>592.40002441406</ele>
        <time>2021-10-28T03:48:07.000Z</time>
      </trkpt>
      <trkpt lat="45.21062" lon="5.73208">
        <ele>592.79998779297</ele>
        <time>2021-10-28T03:48:09.000Z</time>
      </trkpt>
      <trkpt lat="45.21069" lon="5.73212">
        <ele>593.79998779297</ele>
        <time>2021-10-28T03:48:14.000Z</time>
      </trkpt>
      <trkpt lat="45.2107" lon="5.73213">
        <ele>594.20001220703</ele>
        <time>2021-10-28T03:48:15.000Z</time>
      </trkpt>
      <trkpt lat="45.21073" lon="5.73216">
        <ele>595</ele>
        <time>2021-10-28T03:48:18.000Z</time>
      </trkpt>
      <trkpt lat="45.21074" lon="5.73217">
        <ele>595.20001220703</ele>
        <time>2021-10-28T03:48:19.000Z</time>
      </trkpt>
      <trkpt lat="45.21079" lon="5.73217">
        <ele>596</ele>
        <time>2021-10-28T03:48:22.000Z</time>
      </trkpt>
      <trkpt lat="45.21081" lon="5.73216">
        <ele>596</ele>
        <time>2021-10-28T03:48:23.000Z</time>
      </trkpt>
      <trkpt lat="45.21082" lon="5.73216">
        <ele>596.20001220703</ele>
        <time>2021-10-28T03:48:24.000Z</time>
      </trkpt>
      <trkpt lat="45.21082" lon="5.73218">
        <ele>596.79998779297</ele>
        <time>2021-10-28T03:48:25.000Z</time>
      </trkpt>
      <trkpt lat="45.21081" lon="5.73218">
        <ele>597.20001220703</ele>
        <time>2021-10-28T03:48:26.000Z</time>
      </trkpt>
      <trkpt lat="45.2108" lon="5.73218">
        <ele>597.40002441406</ele>
        <time>2021-10-28T03:48:27.000Z</time>
      </trkpt>
      <trkpt lat="45.21078" lon="5.73218">
        <ele>597.79998779297</ele>
        <time>2021-10-28T03:48:29.000Z</time>
      </trkpt>
      <trkpt lat="45.21076" lon="5.73214">
        <ele>598.20001220703</ele>
        <time>2021-10-28T03:48:31.000Z</time>
      </trkpt>
      <trkpt lat="45.21076" lon="5.73212">
        <ele>598.40002441406</ele>
        <time>2021-10-28T03:48:32.000Z</time>
      </trkpt>
      <trkpt lat="45.21074" lon="5.73206">
        <ele>599.40002441406</ele>
        <time>2021-10-28T03:48:35.000Z</time>
      </trkpt>
      <trkpt lat="45.21073" lon="5.73199">
        <ele>600</ele>
        <time>2021-10-28T03:48:38.000Z</time>
      </trkpt>
      <trkpt lat="45.21072" lon="5.73194">
        <ele>600.59997558594</ele>
        <time>2021-10-28T03:48:40.000Z</time>
      </trkpt>
      <trkpt lat="45.21071" lon="5.7319">
        <ele>601</ele>
        <time>2021-10-28T03:48:43.000Z</time>
      </trkpt>
      <trkpt lat="45.21069" lon="5.73189">
        <ele>601.40002441406</ele>
        <time>2021-10-28T03:48:44.000Z</time>
      </trkpt>
      <trkpt lat="45.21068" lon="5.73188">
        <ele>601.59997558594</ele>
        <time>2021-10-28T03:48:45.000Z</time>
      </trkpt>
      <trkpt lat="45.21067" lon="5.73186">
        <ele>601.79998779297</ele>
        <time>2021-10-28T03:48:46.000Z</time>
      </trkpt>
      <trkpt lat="45.21065" lon="5.73184">
        <ele>602.40002441406</ele>
        <time>2021-10-28T03:48:48.000Z</time>
      </trkpt>
      <trkpt lat="45.21064" lon="5.73183">
        <ele>602.79998779297</ele>
        <time>2021-10-28T03:48:49.000Z</time>
      </trkpt>
      <trkpt lat="45.21061" lon="5.73178">
        <ele>603.40002441406</ele>
        <time>2021-10-28T03:48:52.000Z</time>
      </trkpt>
      <trkpt lat="45.2106" lon="5.73174">
        <ele>604</ele>
        <time>2021-10-28T03:48:54.000Z</time>
      </trkpt>
      <trkpt lat="45.2106" lon="5.7317">
        <ele>604.79998779297</ele>
        <time>2021-10-28T03:48:57.000Z</time>
      </trkpt>
      <trkpt lat="45.21059" lon="5.73169">
        <ele>605.20001220703</ele>
        <time>2021-10-28T03:48:58.000Z</time>
      </trkpt>
      <trkpt lat="45.21058" lon="5.73168">
        <ele>605.59997558594</ele>
        <time>2021-10-28T03:48:59.000Z</time>
      </trkpt>
      <trkpt lat="45.21057" lon="5.73168">
        <ele>605.79998779297</ele>
        <time>2021-10-28T03:49:00.000Z</time>
      </trkpt>
      <trkpt lat="45.21053" lon="5.73169">
        <ele>606.40002441406</ele>
        <time>2021-10-28T03:49:03.000Z</time>
      </trkpt>
      <trkpt lat="45.21051" lon="5.73171">
        <ele>606.59997558594</ele>
        <time>2021-10-28T03:49:05.000Z</time>
      </trkpt>
      <trkpt lat="45.21049" lon="5.7317">
        <ele>606.79998779297</ele>
        <time>2021-10-28T03:49:06.000Z</time>
      </trkpt>
      <trkpt lat="45.21046" lon="5.7317">
        <ele>606.79998779297</ele>
        <time>2021-10-28T03:49:07.000Z</time>
      </trkpt>
      <trkpt lat="45.21043" lon="5.73169">
        <ele>607.20001220703</ele>
        <time>2021-10-28T03:49:09.000Z</time>
      </trkpt>
      <trkpt lat="45.21041" lon="5.73169">
        <ele>607.40002441406</ele>
        <time>2021-10-28T03:49:10.000Z</time>
      </trkpt>
      <trkpt lat="45.21039" lon="5.73168">
        <ele>607.59997558594</ele>
        <time>2021-10-28T03:49:11.000Z</time>
      </trkpt>
      <trkpt lat="45.21037" lon="5.73161">
        <ele>608.79998779297</ele>
        <time>2021-10-28T03:49:15.000Z</time>
      </trkpt>
      <trkpt lat="45.21036" lon="5.73159">
        <ele>608.79998779297</ele>
        <time>2021-10-28T03:49:16.000Z</time>
      </trkpt>
      <trkpt lat="45.21034" lon="5.73157">
        <ele>609</ele>
        <time>2021-10-28T03:49:18.000Z</time>
      </trkpt>
      <trkpt lat="45.21032" lon="5.73156">
        <ele>609.40002441406</ele>
        <time>2021-10-28T03:49:19.000Z</time>
      </trkpt>
      <trkpt lat="45.21031" lon="5.73154">
        <ele>609.79998779297</ele>
        <time>2021-10-28T03:49:20.000Z</time>
      </trkpt>
      <trkpt lat="45.21027" lon="5.73151">
        <ele>610.40002441406</ele>
        <time>2021-10-28T03:49:23.000Z</time>
      </trkpt>
      <trkpt lat="45.21026" lon="5.7315">
        <ele>610.79998779297</ele>
        <time>2021-10-28T03:49:24.000Z</time>
      </trkpt>
      <trkpt lat="45.21024" lon="5.73145">
        <ele>611.40002441406</ele>
        <time>2021-10-28T03:49:27.000Z</time>
      </trkpt>
      <trkpt lat="45.21022" lon="5.73142">
        <ele>612</ele>
        <time>2021-10-28T03:49:29.000Z</time>
      </trkpt>
      <trkpt lat="45.21022" lon="5.7314">
        <ele>612.40002441406</ele>
        <time>2021-10-28T03:49:30.000Z</time>
      </trkpt>
      <trkpt lat="45.21021" lon="5.73137">
        <ele>612.79998779297</ele>
        <time>2021-10-28T03:49:32.000Z</time>
      </trkpt>
      <trkpt lat="45.21021" lon="5.73136">
        <ele>613.40002441406</ele>
        <time>2021-10-28T03:49:33.000Z</time>
      </trkpt>
      <trkpt lat="45.2102" lon="5.73135">
        <ele>613.79998779297</ele>
        <time>2021-10-28T03:49:34.000Z</time>
      </trkpt>
      <trkpt lat="45.2102" lon="5.73135">
        <ele>614.40002441406</ele>
        <time>2021-10-28T03:49:35.000Z</time>
      </trkpt>
      <trkpt lat="45.2102" lon="5.73134">
        <ele>614.79998779297</ele>
        <time>2021-10-28T03:49:36.000Z</time>
      </trkpt>
      <trkpt lat="45.21018" lon="5.73135">
        <ele>615.59997558594</ele>
        <time>2021-10-28T03:49:39.000Z</time>
      </trkpt>
      <trkpt lat="45.21013" lon="5.73136">
        <ele>616</ele>
        <time>2021-10-28T03:49:43.000Z</time>
      </trkpt>
      <trkpt lat="45.21011" lon="5.73135">
        <ele>616.59997558594</ele>
        <time>2021-10-28T03:49:46.000Z</time>
      </trkpt>
      <trkpt lat="45.2101" lon="5.73135">
        <ele>616.79998779297</ele>
        <time>2021-10-28T03:49:48.000Z</time>
      </trkpt>
      <trkpt lat="45.2101" lon="5.73139">
        <ele>617</ele>
        <time>2021-10-28T03:49:50.000Z</time>
      </trkpt>
      <trkpt lat="45.21007" lon="5.73141">
        <ele>617.40002441406</ele>
        <time>2021-10-28T03:49:53.000Z</time>
      </trkpt>
      <trkpt lat="45.21004" lon="5.73142">
        <ele>617.79998779297</ele>
        <time>2021-10-28T03:49:55.000Z</time>
      </trkpt>
      <trkpt lat="45.21" lon="5.73144">
        <ele>618.79998779297</ele>
        <time>2021-10-28T03:49:59.000Z</time>
      </trkpt>
      <trkpt lat="45.20997" lon="5.73145">
        <ele>619.59997558594</ele>
        <time>2021-10-28T03:50:02.000Z</time>
      </trkpt>
      <trkpt lat="45.20996" lon="5.73145">
        <ele>619.79998779297</ele>
        <time>2021-10-28T03:50:03.000Z</time>
      </trkpt>
      <trkpt lat="45.20992" lon="5.73147">
        <ele>620.20001220703</ele>
        <time>2021-10-28T03:50:06.000Z</time>
      </trkpt>
      <trkpt lat="45.2099" lon="5.73148">
        <ele>621</ele>
        <time>2021-10-28T03:50:08.000Z</time>
      </trkpt>
      <trkpt lat="45.20987" lon="5.73151">
        <ele>621.59997558594</ele>
        <time>2021-10-28T03:50:11.000Z</time>
      </trkpt>
      <trkpt lat="45.20985" lon="5.7315">
        <ele>622</ele>
        <time>2021-10-28T03:50:13.000Z</time>
      </trkpt>
      <trkpt lat="45.20985" lon="5.73146">
        <ele>623.20001220703</ele>
        <time>2021-10-28T03:50:16.000Z</time>
      </trkpt>
      <trkpt lat="45.20986" lon="5.73144">
        <ele>623.40002441406</ele>
        <time>2021-10-28T03:50:17.000Z</time>
      </trkpt>
      <trkpt lat="45.20991" lon="5.73139">
        <ele>624.40002441406</ele>
        <time>2021-10-28T03:50:21.000Z</time>
      </trkpt>
      <trkpt lat="45.20992" lon="5.73136">
        <ele>624.59997558594</ele>
        <time>2021-10-28T03:50:23.000Z</time>
      </trkpt>
      <trkpt lat="45.20994" lon="5.73133">
        <ele>625.20001220703</ele>
        <time>2021-10-28T03:50:25.000Z</time>
      </trkpt>
      <trkpt lat="45.20994" lon="5.73133">
        <ele>625.40002441406</ele>
        <time>2021-10-28T03:50:26.000Z</time>
      </trkpt>
      <trkpt lat="45.20996" lon="5.73133">
        <ele>625.59997558594</ele>
        <time>2021-10-28T03:50:27.000Z</time>
      </trkpt>
      <trkpt lat="45.20997" lon="5.73132">
        <ele>626</ele>
        <time>2021-10-28T03:50:29.000Z</time>
      </trkpt>
      <trkpt lat="45.21001" lon="5.73128">
        <ele>626.59997558594</ele>
        <time>2021-10-28T03:50:32.000Z</time>
      </trkpt>
      <trkpt lat="45.21002" lon="5.73126">
        <ele>627.20001220703</ele>
        <time>2021-10-28T03:50:34.000Z</time>
      </trkpt>
      <trkpt lat="45.21002" lon="5.73124">
        <ele>627.79998779297</ele>
        <time>2021-10-28T03:50:36.000Z</time>
      </trkpt>
      <trkpt lat="45.21004" lon="5.7312">
        <ele>628.20001220703</ele>
        <time>2021-10-28T03:50:38.000Z</time>
      </trkpt>
      <trkpt lat="45.21005" lon="5.73118">
        <ele>628.59997558594</ele>
        <time>2021-10-28T03:50:40.000Z</time>
      </trkpt>
      <trkpt lat="45.21006" lon="5.73119">
        <ele>628.79998779297</ele>
        <time>2021-10-28T03:50:41.000Z</time>
      </trkpt>
      <trkpt lat="45.21009" lon="5.73118">
        <ele>630</ele>
        <time>2021-10-28T03:50:46.000Z</time>
      </trkpt>
      <trkpt lat="45.2101" lon="5.73118">
        <ele>630.20001220703</ele>
        <time>2021-10-28T03:50:47.000Z</time>
      </trkpt>
      <trkpt lat="45.21014" lon="5.73115">
        <ele>631.40002441406</ele>
        <time>2021-10-28T03:50:51.000Z</time>
      </trkpt>
      <trkpt lat="45.21015" lon="5.73115">
        <ele>631.59997558594</ele>
        <time>2021-10-28T03:50:52.000Z</time>
      </trkpt>
      <trkpt lat="45.21016" lon="5.73116">
        <ele>631.59997558594</ele>
        <time>2021-10-28T03:50:53.000Z</time>
      </trkpt>
      <trkpt lat="45.21018" lon="5.73119">
        <ele>632</ele>
        <time>2021-10-28T03:50:56.000Z</time>
      </trkpt>
      <trkpt lat="45.21023" lon="5.73119">
        <ele>632.20001220703</ele>
        <time>2021-10-28T03:50:59.000Z</time>
      </trkpt>
      <trkpt lat="45.21024" lon="5.73118">
        <ele>632.40002441406</ele>
        <time>2021-10-28T03:51:00.000Z</time>
      </trkpt>
      <trkpt lat="45.21027" lon="5.73122">
        <ele>633</ele>
        <time>2021-10-28T03:51:03.000Z</time>
      </trkpt>
      <trkpt lat="45.21029" lon="5.73123">
        <ele>633.20001220703</ele>
        <time>2021-10-28T03:51:04.000Z</time>
      </trkpt>
      <trkpt lat="45.2103" lon="5.73123">
        <ele>633.59997558594</ele>
        <time>2021-10-28T03:51:05.000Z</time>
      </trkpt>
      <trkpt lat="45.21032" lon="5.73123">
        <ele>633.79998779297</ele>
        <time>2021-10-28T03:51:06.000Z</time>
      </trkpt>
      <trkpt lat="45.21036" lon="5.73123">
        <ele>634.20001220703</ele>
        <time>2021-10-28T03:51:08.000Z</time>
      </trkpt>
      <trkpt lat="45.21037" lon="5.73124">
        <ele>634.59997558594</ele>
        <time>2021-10-28T03:51:09.000Z</time>
      </trkpt>
      <trkpt lat="45.2104" lon="5.73125">
        <ele>635</ele>
        <time>2021-10-28T03:51:11.000Z</time>
      </trkpt>
      <trkpt lat="45.21042" lon="5.73125">
        <ele>635.40002441406</ele>
        <time>2021-10-28T03:51:13.000Z</time>
      </trkpt>
      <trkpt lat="45.21044" lon="5.73126">
        <ele>635.79998779297</ele>
        <time>2021-10-28T03:51:14.000Z</time>
      </trkpt>
      <trkpt lat="45.21045" lon="5.73125">
        <ele>636.20001220703</ele>
        <time>2021-10-28T03:51:15.000Z</time>
      </trkpt>
      <trkpt lat="45.21051" lon="5.73124">
        <ele>637</ele>
        <time>2021-10-28T03:51:18.000Z</time>
      </trkpt>
      <trkpt lat="45.21053" lon="5.73124">
        <ele>637.20001220703</ele>
        <time>2021-10-28T03:51:19.000Z</time>
      </trkpt>
      <trkpt lat="45.21058" lon="5.73123">
        <ele>638</ele>
        <time>2021-10-28T03:51:22.000Z</time>
      </trkpt>
      <trkpt lat="45.2106" lon="5.73123">
        <ele>638.40002441406</ele>
        <time>2021-10-28T03:51:23.000Z</time>
      </trkpt>
      <trkpt lat="45.21063" lon="5.73123">
        <ele>638.79998779297</ele>
        <time>2021-10-28T03:51:25.000Z</time>
      </trkpt>
      <trkpt lat="45.21065" lon="5.73123">
        <ele>639.20001220703</ele>
        <time>2021-10-28T03:51:26.000Z</time>
      </trkpt>
      <trkpt lat="45.21068" lon="5.73122">
        <ele>640.20001220703</ele>
        <time>2021-10-28T03:51:29.000Z</time>
      </trkpt>
      <trkpt lat="45.2107" lon="5.73123">
        <ele>640.79998779297</ele>
        <time>2021-10-28T03:51:32.000Z</time>
      </trkpt>
      <trkpt lat="45.21073" lon="5.73125">
        <ele>641.40002441406</ele>
        <time>2021-10-28T03:51:34.000Z</time>
      </trkpt>
      <trkpt lat="45.21075" lon="5.7313">
        <ele>641.79998779297</ele>
        <time>2021-10-28T03:51:37.000Z</time>
      </trkpt>
      <trkpt lat="45.21079" lon="5.73135">
        <ele>642.40002441406</ele>
        <time>2021-10-28T03:51:41.000Z</time>
      </trkpt>
      <trkpt lat="45.21082" lon="5.73136">
        <ele>643</ele>
        <time>2021-10-28T03:51:43.000Z</time>
      </trkpt>
      <trkpt lat="45.21085" lon="5.73138">
        <ele>643.40002441406</ele>
        <time>2021-10-28T03:51:45.000Z</time>
      </trkpt>
      <trkpt lat="45.21086" lon="5.73139">
        <ele>643.59997558594</ele>
        <time>2021-10-28T03:51:46.000Z</time>
      </trkpt>
      <trkpt lat="45.21088" lon="5.73139">
        <ele>643.79998779297</ele>
        <time>2021-10-28T03:51:47.000Z</time>
      </trkpt>
      <trkpt lat="45.21089" lon="5.7314">
        <ele>644</ele>
        <time>2021-10-28T03:51:48.000Z</time>
      </trkpt>
      <trkpt lat="45.21093" lon="5.73144">
        <ele>644.79998779297</ele>
        <time>2021-10-28T03:51:51.000Z</time>
      </trkpt>
      <trkpt lat="45.21095" lon="5.73144">
        <ele>645</ele>
        <time>2021-10-28T03:51:52.000Z</time>
      </trkpt>
      <trkpt lat="45.21097" lon="5.73147">
        <ele>645.40002441406</ele>
        <time>2021-10-28T03:51:54.000Z</time>
      </trkpt>
      <trkpt lat="45.21098" lon="5.73148">
        <ele>645.79998779297</ele>
        <time>2021-10-28T03:51:55.000Z</time>
      </trkpt>
      <trkpt lat="45.21101" lon="5.73152">
        <ele>646.59997558594</ele>
        <time>2021-10-28T03:51:58.000Z</time>
      </trkpt>
      <trkpt lat="45.21101" lon="5.73153">
        <ele>646.79998779297</ele>
        <time>2021-10-28T03:51:59.000Z</time>
      </trkpt>
      <trkpt lat="45.21102" lon="5.73153">
        <ele>647.20001220703</ele>
        <time>2021-10-28T03:52:00.000Z</time>
      </trkpt>
      <trkpt lat="45.21105" lon="5.73153">
        <ele>648.20001220703</ele>
        <time>2021-10-28T03:52:04.000Z</time>
      </trkpt>
      <trkpt lat="45.21106" lon="5.73152">
        <ele>648.20001220703</ele>
        <time>2021-10-28T03:52:05.000Z</time>
      </trkpt>
      <trkpt lat="45.21108" lon="5.73152">
        <ele>649.40002441406</ele>
        <time>2021-10-28T03:52:07.000Z</time>
      </trkpt>
      <trkpt lat="45.2111" lon="5.73153">
        <ele>650</ele>
        <time>2021-10-28T03:52:09.000Z</time>
      </trkpt>
      <trkpt lat="45.21114" lon="5.73151">
        <ele>650.20001220703</ele>
        <time>2021-10-28T03:52:11.000Z</time>
      </trkpt>
      <trkpt lat="45.21117" lon="5.7315">
        <ele>650.40002441406</ele>
        <time>2021-10-28T03:52:12.000Z</time>
      </trkpt>
      <trkpt lat="45.21119" lon="5.7315">
        <ele>650.59997558594</ele>
        <time>2021-10-28T03:52:14.000Z</time>
      </trkpt>
      <trkpt lat="45.2112" lon="5.7315">
        <ele>650.79998779297</ele>
        <time>2021-10-28T03:52:15.000Z</time>
      </trkpt>
      <trkpt lat="45.21121" lon="5.73151">
        <ele>651</ele>
        <time>2021-10-28T03:52:16.000Z</time>
      </trkpt>
      <trkpt lat="45.21122" lon="5.73153">
        <ele>651.40002441406</ele>
        <time>2021-10-28T03:52:18.000Z</time>
      </trkpt>
      <trkpt lat="45.21123" lon="5.73153">
        <ele>651.59997558594</ele>
        <time>2021-10-28T03:52:19.000Z</time>
      </trkpt>
      <trkpt lat="45.21124" lon="5.73153">
        <ele>651.79998779297</ele>
        <time>2021-10-28T03:52:20.000Z</time>
      </trkpt>
      <trkpt lat="45.21126" lon="5.73151">
        <ele>652.40002441406</ele>
        <time>2021-10-28T03:52:22.000Z</time>
      </trkpt>
      <trkpt lat="45.21128" lon="5.73149">
        <ele>652.79998779297</ele>
        <time>2021-10-28T03:52:24.000Z</time>
      </trkpt>
      <trkpt lat="45.21127" lon="5.73151">
        <ele>654</ele>
        <time>2021-10-28T03:52:27.000Z</time>
      </trkpt>
      <trkpt lat="45.21126" lon="5.73152">
        <ele>654.40002441406</ele>
        <time>2021-10-28T03:52:29.000Z</time>
      </trkpt>
      <trkpt lat="45.21125" lon="5.73151">
        <ele>654.59997558594</ele>
        <time>2021-10-28T03:52:30.000Z</time>
      </trkpt>
      <trkpt lat="45.21123" lon="5.7315">
        <ele>655.40002441406</ele>
        <time>2021-10-28T03:52:32.000Z</time>
      </trkpt>
      <trkpt lat="45.21121" lon="5.73151">
        <ele>655.79998779297</ele>
        <time>2021-10-28T03:52:34.000Z</time>
      </trkpt>
      <trkpt lat="45.21119" lon="5.7315">
        <ele>656.20001220703</ele>
        <time>2021-10-28T03:52:36.000Z</time>
      </trkpt>
      <trkpt lat="45.21117" lon="5.7315">
        <ele>656.59997558594</ele>
        <time>2021-10-28T03:52:38.000Z</time>
      </trkpt>
      <trkpt lat="45.21114" lon="5.7315">
        <ele>657.40002441406</ele>
        <time>2021-10-28T03:52:41.000Z</time>
      </trkpt>
      <trkpt lat="45.21113" lon="5.7315">
        <ele>657.59997558594</ele>
        <time>2021-10-28T03:52:42.000Z</time>
      </trkpt>
      <trkpt lat="45.21107" lon="5.7315">
        <ele>658.79998779297</ele>
        <time>2021-10-28T03:52:47.000Z</time>
      </trkpt>
      <trkpt lat="45.21106" lon="5.73149">
        <ele>659</ele>
        <time>2021-10-28T03:52:48.000Z</time>
      </trkpt>
      <trkpt lat="45.21107" lon="5.73145">
        <ele>660.20001220703</ele>
        <time>2021-10-28T03:52:51.000Z</time>
      </trkpt>
      <trkpt lat="45.21111" lon="5.7314">
        <ele>660.59997558594</ele>
        <time>2021-10-28T03:52:53.000Z</time>
      </trkpt>
      <trkpt lat="45.21112" lon="5.73136">
        <ele>661.40002441406</ele>
        <time>2021-10-28T03:52:55.000Z</time>
      </trkpt>
      <trkpt lat="45.21113" lon="5.73135">
        <ele>661.59997558594</ele>
        <time>2021-10-28T03:52:56.000Z</time>
      </trkpt>
      <trkpt lat="45.21114" lon="5.73135">
        <ele>662</ele>
        <time>2021-10-28T03:52:57.000Z</time>
      </trkpt>
      <trkpt lat="45.21116" lon="5.73134">
        <ele>662.20001220703</ele>
        <time>2021-10-28T03:52:58.000Z</time>
      </trkpt>
      <trkpt lat="45.21117" lon="5.73133">
        <ele>662.40002441406</ele>
        <time>2021-10-28T03:52:59.000Z</time>
      </trkpt>
      <trkpt lat="45.21121" lon="5.73129">
        <ele>663.59997558594</ele>
        <time>2021-10-28T03:53:03.000Z</time>
      </trkpt>
      <trkpt lat="45.21123" lon="5.73128">
        <ele>663.59997558594</ele>
        <time>2021-10-28T03:53:04.000Z</time>
      </trkpt>
      <trkpt lat="45.21125" lon="5.73129">
        <ele>664</ele>
        <time>2021-10-28T03:53:06.000Z</time>
      </trkpt>
      <trkpt lat="45.21126" lon="5.73129">
        <ele>664.20001220703</ele>
        <time>2021-10-28T03:53:07.000Z</time>
      </trkpt>
      <trkpt lat="45.21126" lon="5.73129">
        <ele>664.59997558594</ele>
        <time>2021-10-28T03:53:08.000Z</time>
      </trkpt>
      <trkpt lat="45.21132" lon="5.73128">
        <ele>665.79998779297</ele>
        <time>2021-10-28T03:53:13.000Z</time>
      </trkpt>
      <trkpt lat="45.21137" lon="5.73126">
        <ele>666.79998779297</ele>
        <time>2021-10-28T03:53:18.000Z</time>
      </trkpt>
      <trkpt lat="45.21139" lon="5.73126">
        <ele>667.40002441406</ele>
        <time>2021-10-28T03:53:19.000Z</time>
      </trkpt>
      <trkpt lat="45.21139" lon="5.73126">
        <ele>667.79998779297</ele>
        <time>2021-10-28T03:53:20.000Z</time>
      </trkpt>
      <trkpt lat="45.2114" lon="5.73127">
        <ele>668</ele>
        <time>2021-10-28T03:53:21.000Z</time>
      </trkpt>
      <trkpt lat="45.21144" lon="5.73129">
        <ele>668.59997558594</ele>
        <time>2021-10-28T03:53:24.000Z</time>
      </trkpt>
      <trkpt lat="45.21144" lon="5.73129">
        <ele>668.79998779297</ele>
        <time>2021-10-28T03:53:25.000Z</time>
      </trkpt>
      <trkpt lat="45.21147" lon="5.73133">
        <ele>669.20001220703</ele>
        <time>2021-10-28T03:53:27.000Z</time>
      </trkpt>
      <trkpt lat="45.21148" lon="5.73138">
        <ele>670.20001220703</ele>
        <time>2021-10-28T03:53:30.000Z</time>
      </trkpt>
      <trkpt lat="45.21149" lon="5.73139">
        <ele>670.40002441406</ele>
        <time>2021-10-28T03:53:31.000Z</time>
      </trkpt>
      <trkpt lat="45.21151" lon="5.73141">
        <ele>670.79998779297</ele>
        <time>2021-10-28T03:53:33.000Z</time>
      </trkpt>
      <trkpt lat="45.21153" lon="5.73141">
        <ele>671</ele>
        <time>2021-10-28T03:53:34.000Z</time>
      </trkpt>
      <trkpt lat="45.21156" lon="5.73141">
        <ele>671.59997558594</ele>
        <time>2021-10-28T03:53:36.000Z</time>
      </trkpt>
      <trkpt lat="45.2116" lon="5.73143">
        <ele>672.20001220703</ele>
        <time>2021-10-28T03:53:39.000Z</time>
      </trkpt>
      <trkpt lat="45.21161" lon="5.73146">
        <ele>672.79998779297</ele>
        <time>2021-10-28T03:53:41.000Z</time>
      </trkpt>
      <trkpt lat="45.21161" lon="5.73147">
        <ele>673</ele>
        <time>2021-10-28T03:53:42.000Z</time>
      </trkpt>
      <trkpt lat="45.21163" lon="5.73151">
        <ele>673.79998779297</ele>
        <time>2021-10-28T03:53:45.000Z</time>
      </trkpt>
      <trkpt lat="45.21165" lon="5.73154">
        <ele>674.59997558594</ele>
        <time>2021-10-28T03:53:49.000Z</time>
      </trkpt>
      <trkpt lat="45.21165" lon="5.73155">
        <ele>675</ele>
        <time>2021-10-28T03:53:50.000Z</time>
      </trkpt>
      <trkpt lat="45.21169" lon="5.7316">
        <ele>675.79998779297</ele>
        <time>2021-10-28T03:53:54.000Z</time>
      </trkpt>
      <trkpt lat="45.2117" lon="5.73162">
        <ele>676.20001220703</ele>
        <time>2021-10-28T03:53:55.000Z</time>
      </trkpt>
      <trkpt lat="45.2117" lon="5.73164">
        <ele>676.59997558594</ele>
        <time>2021-10-28T03:53:56.000Z</time>
      </trkpt>
      <trkpt lat="45.21175" lon="5.73168">
        <ele>677.20001220703</ele>
        <time>2021-10-28T03:53:59.000Z</time>
      </trkpt>
      <trkpt lat="45.21176" lon="5.73169">
        <ele>677.59997558594</ele>
        <time>2021-10-28T03:54:00.000Z</time>
      </trkpt>
      <trkpt lat="45.21177" lon="5.7317">
        <ele>677.79998779297</ele>
        <time>2021-10-28T03:54:01.000Z</time>
      </trkpt>
      <trkpt lat="45.21179" lon="5.73173">
        <ele>678.40002441406</ele>
        <time>2021-10-28T03:54:03.000Z</time>
      </trkpt>
      <trkpt lat="45.21181" lon="5.73175">
        <ele>678.79998779297</ele>
        <time>2021-10-28T03:54:05.000Z</time>
      </trkpt>
      <trkpt lat="45.21184" lon="5.73178">
        <ele>679.20001220703</ele>
        <time>2021-10-28T03:54:07.000Z</time>
      </trkpt>
      <trkpt lat="45.21186" lon="5.73182">
        <ele>679.79998779297</ele>
        <time>2021-10-28T03:54:09.000Z</time>
      </trkpt>
      <trkpt lat="45.21191" lon="5.73189">
        <ele>680.79998779297</ele>
        <time>2021-10-28T03:54:13.000Z</time>
      </trkpt>
      <trkpt lat="45.21192" lon="5.7319">
        <ele>681</ele>
        <time>2021-10-28T03:54:14.000Z</time>
      </trkpt>
      <trkpt lat="45.21195" lon="5.73193">
        <ele>682</ele>
        <time>2021-10-28T03:54:17.000Z</time>
      </trkpt>
      <trkpt lat="45.21196" lon="5.73195">
        <ele>682.40002441406</ele>
        <time>2021-10-28T03:54:18.000Z</time>
      </trkpt>
      <trkpt lat="45.21199" lon="5.73197">
        <ele>682.59997558594</ele>
        <time>2021-10-28T03:54:20.000Z</time>
      </trkpt>
      <trkpt lat="45.21202" lon="5.73199">
        <ele>683.40002441406</ele>
        <time>2021-10-28T03:54:22.000Z</time>
      </trkpt>
      <trkpt lat="45.21204" lon="5.732">
        <ele>684</ele>
        <time>2021-10-28T03:54:24.000Z</time>
      </trkpt>
      <trkpt lat="45.21206" lon="5.73202">
        <ele>684.59997558594</ele>
        <time>2021-10-28T03:54:26.000Z</time>
      </trkpt>
      <trkpt lat="45.21211" lon="5.73205">
        <ele>685.79998779297</ele>
        <time>2021-10-28T03:54:30.000Z</time>
      </trkpt>
      <trkpt lat="45.21213" lon="5.73209">
        <ele>686.40002441406</ele>
        <time>2021-10-28T03:54:32.000Z</time>
      </trkpt>
      <trkpt lat="45.21216" lon="5.73213">
        <ele>687.20001220703</ele>
        <time>2021-10-28T03:54:35.000Z</time>
      </trkpt>
      <trkpt lat="45.21218" lon="5.73216">
        <ele>688</ele>
        <time>2021-10-28T03:54:37.000Z</time>
      </trkpt>
      <trkpt lat="45.2122" lon="5.73219">
        <ele>688.20001220703</ele>
        <time>2021-10-28T03:54:39.000Z</time>
      </trkpt>
      <trkpt lat="45.21221" lon="5.73219">
        <ele>688.59997558594</ele>
        <time>2021-10-28T03:54:40.000Z</time>
      </trkpt>
      <trkpt lat="45.21226" lon="5.73223">
        <ele>689.40002441406</ele>
        <time>2021-10-28T03:54:44.000Z</time>
      </trkpt>
      <trkpt lat="45.21227" lon="5.73223">
        <ele>689.59997558594</ele>
        <time>2021-10-28T03:54:45.000Z</time>
      </trkpt>
      <trkpt lat="45.21228" lon="5.73223">
        <ele>690</ele>
        <time>2021-10-28T03:54:46.000Z</time>
      </trkpt>
      <trkpt lat="45.21231" lon="5.73225">
        <ele>690.79998779297</ele>
        <time>2021-10-28T03:54:49.000Z</time>
      </trkpt>
      <trkpt lat="45.21234" lon="5.73226">
        <ele>691.59997558594</ele>
        <time>2021-10-28T03:54:52.000Z</time>
      </trkpt>
      <trkpt lat="45.21236" lon="5.73229">
        <ele>692.20001220703</ele>
        <time>2021-10-28T03:54:54.000Z</time>
      </trkpt>
      <trkpt lat="45.21237" lon="5.7323">
        <ele>692.59997558594</ele>
        <time>2021-10-28T03:54:55.000Z</time>
      </trkpt>
      <trkpt lat="45.21238" lon="5.73231">
        <ele>693.20001220703</ele>
        <time>2021-10-28T03:54:57.000Z</time>
      </trkpt>
      <trkpt lat="45.21239" lon="5.73231">
        <ele>693.59997558594</ele>
        <time>2021-10-28T03:54:58.000Z</time>
      </trkpt>
      <trkpt lat="45.21244" lon="5.73234">
        <ele>694.40002441406</ele>
        <time>2021-10-28T03:55:01.000Z</time>
      </trkpt>
      <trkpt lat="45.21247" lon="5.73236">
        <ele>695</ele>
        <time>2021-10-28T03:55:03.000Z</time>
      </trkpt>
      <trkpt lat="45.2125" lon="5.73238">
        <ele>695.40002441406</ele>
        <time>2021-10-28T03:55:05.000Z</time>
      </trkpt>
      <trkpt lat="45.21253" lon="5.73243">
        <ele>696.40002441406</ele>
        <time>2021-10-28T03:55:08.000Z</time>
      </trkpt>
      <trkpt lat="45.21255" lon="5.73246">
        <ele>696.79998779297</ele>
        <time>2021-10-28T03:55:10.000Z</time>
      </trkpt>
      <trkpt lat="45.21257" lon="5.7325">
        <ele>697.59997558594</ele>
        <time>2021-10-28T03:55:13.000Z</time>
      </trkpt>
      <trkpt lat="45.21259" lon="5.73253">
        <ele>698</ele>
        <time>2021-10-28T03:55:15.000Z</time>
      </trkpt>
      <trkpt lat="45.21262" lon="5.73257">
        <ele>698.59997558594</ele>
        <time>2021-10-28T03:55:18.000Z</time>
      </trkpt>
      <trkpt lat="45.21263" lon="5.73259">
        <ele>698.79998779297</ele>
        <time>2021-10-28T03:55:19.000Z</time>
      </trkpt>
      <trkpt lat="45.21263" lon="5.7326">
        <ele>699</ele>
        <time>2021-10-28T03:55:20.000Z</time>
      </trkpt>
      <trkpt lat="45.21264" lon="5.73261">
        <ele>699.20001220703</ele>
        <time>2021-10-28T03:55:21.000Z</time>
      </trkpt>
      <trkpt lat="45.21266" lon="5.73262">
        <ele>699.79998779297</ele>
        <time>2021-10-28T03:55:23.000Z</time>
      </trkpt>
      <trkpt lat="45.21267" lon="5.73263">
        <ele>700.20001220703</ele>
        <time>2021-10-28T03:55:25.000Z</time>
      </trkpt>
      <trkpt lat="45.21269" lon="5.73264">
        <ele>700.79998779297</ele>
        <time>2021-10-28T03:55:27.000Z</time>
      </trkpt>
      <trkpt lat="45.21273" lon="5.73267">
        <ele>701.79998779297</ele>
        <time>2021-10-28T03:55:31.000Z</time>
      </trkpt>
      <trkpt lat="45.21279" lon="5.73271">
        <ele>703</ele>
        <time>2021-10-28T03:55:35.000Z</time>
      </trkpt>
      <trkpt lat="45.21281" lon="5.73276">
        <ele>703.40002441406</ele>
        <time>2021-10-28T03:55:38.000Z</time>
      </trkpt>
      <trkpt lat="45.21285" lon="5.73278">
        <ele>704.40002441406</ele>
        <time>2021-10-28T03:55:42.000Z</time>
      </trkpt>
      <trkpt lat="45.21288" lon="5.73281">
        <ele>705.40002441406</ele>
        <time>2021-10-28T03:55:45.000Z</time>
      </trkpt>
      <trkpt lat="45.21289" lon="5.73283">
        <ele>705.79998779297</ele>
        <time>2021-10-28T03:55:46.000Z</time>
      </trkpt>
      <trkpt lat="45.2129" lon="5.73287">
        <ele>706.20001220703</ele>
        <time>2021-10-28T03:55:48.000Z</time>
      </trkpt>
      <trkpt lat="45.21291" lon="5.73289">
        <ele>706.40002441406</ele>
        <time>2021-10-28T03:55:49.000Z</time>
      </trkpt>
      <trkpt lat="45.21292" lon="5.73289">
        <ele>706.59997558594</ele>
        <time>2021-10-28T03:55:50.000Z</time>
      </trkpt>
      <trkpt lat="45.21292" lon="5.73291">
        <ele>706.79998779297</ele>
        <time>2021-10-28T03:55:51.000Z</time>
      </trkpt>
      <trkpt lat="45.21294" lon="5.73294">
        <ele>707.59997558594</ele>
        <time>2021-10-28T03:55:55.000Z</time>
      </trkpt>
      <trkpt lat="45.21295" lon="5.73294">
        <ele>708</ele>
        <time>2021-10-28T03:55:56.000Z</time>
      </trkpt>
      <trkpt lat="45.21297" lon="5.73295">
        <ele>708.59997558594</ele>
        <time>2021-10-28T03:55:59.000Z</time>
      </trkpt>
      <trkpt lat="45.21298" lon="5.73295">
        <ele>708.79998779297</ele>
        <time>2021-10-28T03:56:00.000Z</time>
      </trkpt>
      <trkpt lat="45.21299" lon="5.73296">
        <ele>708.79998779297</ele>
        <time>2021-10-28T03:56:01.000Z</time>
      </trkpt>
      <trkpt lat="45.21302" lon="5.73293">
        <ele>710</ele>
        <time>2021-10-28T03:56:04.000Z</time>
      </trkpt>
      <trkpt lat="45.21304" lon="5.73293">
        <ele>710.20001220703</ele>
        <time>2021-10-28T03:56:06.000Z</time>
      </trkpt>
      <trkpt lat="45.21309" lon="5.73291">
        <ele>711.20001220703</ele>
        <time>2021-10-28T03:56:09.000Z</time>
      </trkpt>
      <trkpt lat="45.21315" lon="5.73291">
        <ele>712.20001220703</ele>
        <time>2021-10-28T03:56:14.000Z</time>
      </trkpt>
      <trkpt lat="45.21316" lon="5.73291">
        <ele>712.59997558594</ele>
        <time>2021-10-28T03:56:15.000Z</time>
      </trkpt>
      <trkpt lat="45.21323" lon="5.73291">
        <ele>713.79998779297</ele>
        <time>2021-10-28T03:56:20.000Z</time>
      </trkpt>
      <trkpt lat="45.21325" lon="5.73292">
        <ele>714.59997558594</ele>
        <time>2021-10-28T03:56:23.000Z</time>
      </trkpt>
      <trkpt lat="45.21325" lon="5.73293">
        <ele>715.20001220703</ele>
        <time>2021-10-28T03:56:24.000Z</time>
      </trkpt>
      <trkpt lat="45.21325" lon="5.73295">
        <ele>715.40002441406</ele>
        <time>2021-10-28T03:56:25.000Z</time>
      </trkpt>
      <trkpt lat="45.21325" lon="5.73298">
        <ele>715.79998779297</ele>
        <time>2021-10-28T03:56:26.000Z</time>
      </trkpt>
      <trkpt lat="45.21324" lon="5.73301">
        <ele>716</ele>
        <time>2021-10-28T03:56:27.000Z</time>
      </trkpt>
      <trkpt lat="45.21327" lon="5.73306">
        <ele>716.20001220703</ele>
        <time>2021-10-28T03:56:30.000Z</time>
      </trkpt>
      <trkpt lat="45.21328" lon="5.73308">
        <ele>716.20001220703</ele>
        <time>2021-10-28T03:56:31.000Z</time>
      </trkpt>
      <trkpt lat="45.2133" lon="5.7331">
        <ele>716.40002441406</ele>
        <time>2021-10-28T03:56:33.000Z</time>
      </trkpt>
      <trkpt lat="45.21333" lon="5.73311">
        <ele>716.79998779297</ele>
        <time>2021-10-28T03:56:35.000Z</time>
      </trkpt>
      <trkpt lat="45.21336" lon="5.73311">
        <ele>717.20001220703</ele>
        <time>2021-10-28T03:56:37.000Z</time>
      </trkpt>
      <trkpt lat="45.21339" lon="5.73312">
        <ele>717.79998779297</ele>
        <time>2021-10-28T03:56:39.000Z</time>
      </trkpt>
      <trkpt lat="45.21343" lon="5.73312">
        <ele>718.20001220703</ele>
        <time>2021-10-28T03:56:41.000Z</time>
      </trkpt>
      <trkpt lat="45.21344" lon="5.73314">
        <ele>718.40002441406</ele>
        <time>2021-10-28T03:56:42.000Z</time>
      </trkpt>
      <trkpt lat="45.21347" lon="5.73317">
        <ele>719.40002441406</ele>
        <time>2021-10-28T03:56:44.000Z</time>
      </trkpt>
      <trkpt lat="45.21348" lon="5.73318">
        <ele>719.40002441406</ele>
        <time>2021-10-28T03:56:45.000Z</time>
      </trkpt>
      <trkpt lat="45.2135" lon="5.73322">
        <ele>720.20001220703</ele>
        <time>2021-10-28T03:56:47.000Z</time>
      </trkpt>
      <trkpt lat="45.21352" lon="5.73326">
        <ele>720.59997558594</ele>
        <time>2021-10-28T03:56:49.000Z</time>
      </trkpt>
      <trkpt lat="45.21352" lon="5.73327">
        <ele>720.59997558594</ele>
        <time>2021-10-28T03:56:50.000Z</time>
      </trkpt>
      <trkpt lat="45.21355" lon="5.73331">
        <ele>721.20001220703</ele>
        <time>2021-10-28T03:56:53.000Z</time>
      </trkpt>
      <trkpt lat="45.21357" lon="5.73332">
        <ele>721.40002441406</ele>
        <time>2021-10-28T03:56:54.000Z</time>
      </trkpt>
      <trkpt lat="45.21359" lon="5.73333">
        <ele>722</ele>
        <time>2021-10-28T03:56:55.000Z</time>
      </trkpt>
      <trkpt lat="45.21359" lon="5.73335">
        <ele>722.40002441406</ele>
        <time>2021-10-28T03:56:56.000Z</time>
      </trkpt>
      <trkpt lat="45.2136" lon="5.73334">
        <ele>723</ele>
        <time>2021-10-28T03:56:58.000Z</time>
      </trkpt>
      <trkpt lat="45.21361" lon="5.73334">
        <ele>723.20001220703</ele>
        <time>2021-10-28T03:56:59.000Z</time>
      </trkpt>
      <trkpt lat="45.21364" lon="5.73336">
        <ele>724</ele>
        <time>2021-10-28T03:57:01.000Z</time>
      </trkpt>
      <trkpt lat="45.21368" lon="5.73342">
        <ele>725.40002441406</ele>
        <time>2021-10-28T03:57:06.000Z</time>
      </trkpt>
      <trkpt lat="45.21369" lon="5.73346">
        <ele>725.79998779297</ele>
        <time>2021-10-28T03:57:08.000Z</time>
      </trkpt>
      <trkpt lat="45.21372" lon="5.73353">
        <ele>726.20001220703</ele>
        <time>2021-10-28T03:57:11.000Z</time>
      </trkpt>
      <trkpt lat="45.21373" lon="5.73354">
        <ele>726.20001220703</ele>
        <time>2021-10-28T03:57:12.000Z</time>
      </trkpt>
      <trkpt lat="45.21374" lon="5.73355">
        <ele>726.40002441406</ele>
        <time>2021-10-28T03:57:13.000Z</time>
      </trkpt>
      <trkpt lat="45.21376" lon="5.7336">
        <ele>727.20001220703</ele>
        <time>2021-10-28T03:57:16.000Z</time>
      </trkpt>
      <trkpt lat="45.21377" lon="5.73361">
        <ele>727.40002441406</ele>
        <time>2021-10-28T03:57:17.000Z</time>
      </trkpt>
      <trkpt lat="45.21377" lon="5.73363">
        <ele>728.20001220703</ele>
        <time>2021-10-28T03:57:19.000Z</time>
      </trkpt>
      <trkpt lat="45.21378" lon="5.73364">
        <ele>728.59997558594</ele>
        <time>2021-10-28T03:57:20.000Z</time>
      </trkpt>
      <trkpt lat="45.2138" lon="5.73366">
        <ele>729</ele>
        <time>2021-10-28T03:57:22.000Z</time>
      </trkpt>
      <trkpt lat="45.21381" lon="5.7337">
        <ele>729.59997558594</ele>
        <time>2021-10-28T03:57:24.000Z</time>
      </trkpt>
      <trkpt lat="45.21381" lon="5.73372">
        <ele>729.79998779297</ele>
        <time>2021-10-28T03:57:25.000Z</time>
      </trkpt>
      <trkpt lat="45.21381" lon="5.73373">
        <ele>730</ele>
        <time>2021-10-28T03:57:26.000Z</time>
      </trkpt>
      <trkpt lat="45.21382" lon="5.73378">
        <ele>730.40002441406</ele>
        <time>2021-10-28T03:57:30.000Z</time>
      </trkpt>
      <trkpt lat="45.21382" lon="5.73379">
        <ele>730.79998779297</ele>
        <time>2021-10-28T03:57:31.000Z</time>
      </trkpt>
      <trkpt lat="45.21385" lon="5.73382">
        <ele>731.40002441406</ele>
        <time>2021-10-28T03:57:34.000Z</time>
      </trkpt>
      <trkpt lat="45.21387" lon="5.73383">
        <ele>731.79998779297</ele>
        <time>2021-10-28T03:57:35.000Z</time>
      </trkpt>
      <trkpt lat="45.21392" lon="5.73386">
        <ele>733</ele>
        <time>2021-10-28T03:57:39.000Z</time>
      </trkpt>
      <trkpt lat="45.21395" lon="5.7339">
        <ele>733.40002441406</ele>
        <time>2021-10-28T03:57:41.000Z</time>
      </trkpt>
      <trkpt lat="45.21396" lon="5.73393">
        <ele>733.79998779297</ele>
        <time>2021-10-28T03:57:43.000Z</time>
      </trkpt>
      <trkpt lat="45.21398" lon="5.73398">
        <ele>734</ele>
        <time>2021-10-28T03:57:45.000Z</time>
      </trkpt>
      <trkpt lat="45.21401" lon="5.73401">
        <ele>734.40002441406</ele>
        <time>2021-10-28T03:57:47.000Z</time>
      </trkpt>
      <trkpt lat="45.21404" lon="5.73406">
        <ele>735.20001220703</ele>
        <time>2021-10-28T03:57:51.000Z</time>
      </trkpt>
      <trkpt lat="45.21405" lon="5.73408">
        <ele>735.79998779297</ele>
        <time>2021-10-28T03:57:53.000Z</time>
      </trkpt>
      <trkpt lat="45.21405" lon="5.73409">
        <ele>736</ele>
        <time>2021-10-28T03:57:54.000Z</time>
      </trkpt>
      <trkpt lat="45.21406" lon="5.73411">
        <ele>736.40002441406</ele>
        <time>2021-10-28T03:57:55.000Z</time>
      </trkpt>
      <trkpt lat="45.21408" lon="5.73415">
        <ele>737.40002441406</ele>
        <time>2021-10-28T03:57:59.000Z</time>
      </trkpt>
      <trkpt lat="45.21409" lon="5.73415">
        <ele>737.59997558594</ele>
        <time>2021-10-28T03:58:00.000Z</time>
      </trkpt>
      <trkpt lat="45.2141" lon="5.73419">
        <ele>738</ele>
        <time>2021-10-28T03:58:02.000Z</time>
      </trkpt>
      <trkpt lat="45.21412" lon="5.73423">
        <ele>738.59997558594</ele>
        <time>2021-10-28T03:58:04.000Z</time>
      </trkpt>
      <trkpt lat="45.21414" lon="5.73425">
        <ele>739</ele>
        <time>2021-10-28T03:58:06.000Z</time>
      </trkpt>
      <trkpt lat="45.21418" lon="5.7343">
        <ele>739.79998779297</ele>
        <time>2021-10-28T03:58:09.000Z</time>
      </trkpt>
      <trkpt lat="45.21419" lon="5.73432">
        <ele>740</ele>
        <time>2021-10-28T03:58:10.000Z</time>
      </trkpt>
      <trkpt lat="45.2142" lon="5.73436">
        <ele>740.40002441406</ele>
        <time>2021-10-28T03:58:12.000Z</time>
      </trkpt>
      <trkpt lat="45.2142" lon="5.73439">
        <ele>741</ele>
        <time>2021-10-28T03:58:14.000Z</time>
      </trkpt>
      <trkpt lat="45.21423" lon="5.73445">
        <ele>742.20001220703</ele>
        <time>2021-10-28T03:58:19.000Z</time>
      </trkpt>
      <trkpt lat="45.21427" lon="5.73447">
        <ele>743.40002441406</ele>
        <time>2021-10-28T03:58:22.000Z</time>
      </trkpt>
      <trkpt lat="45.21428" lon="5.73448">
        <ele>743.59997558594</ele>
        <time>2021-10-28T03:58:23.000Z</time>
      </trkpt>
      <trkpt lat="45.2143" lon="5.73452">
        <ele>744.59997558594</ele>
        <time>2021-10-28T03:58:25.000Z</time>
      </trkpt>
      <trkpt lat="45.21431" lon="5.7346">
        <ele>745.59997558594</ele>
        <time>2021-10-28T03:58:31.000Z</time>
      </trkpt>
      <trkpt lat="45.21432" lon="5.73463">
        <ele>746</ele>
        <time>2021-10-28T03:58:33.000Z</time>
      </trkpt>
      <trkpt lat="45.21434" lon="5.73467">
        <ele>746.79998779297</ele>
        <time>2021-10-28T03:58:35.000Z</time>
      </trkpt>
      <trkpt lat="45.21437" lon="5.7347">
        <ele>747.20001220703</ele>
        <time>2021-10-28T03:58:37.000Z</time>
      </trkpt>
      <trkpt lat="45.21443" lon="5.73475">
        <ele>748.20001220703</ele>
        <time>2021-10-28T03:58:40.000Z</time>
      </trkpt>
      <trkpt lat="45.21446" lon="5.73479">
        <ele>748.59997558594</ele>
        <time>2021-10-28T03:58:42.000Z</time>
      </trkpt>
      <trkpt lat="45.21448" lon="5.73483">
        <ele>749.20001220703</ele>
        <time>2021-10-28T03:58:44.000Z</time>
      </trkpt>
      <trkpt lat="45.21449" lon="5.73484">
        <ele>749.59997558594</ele>
        <time>2021-10-28T03:58:45.000Z</time>
      </trkpt>
      <trkpt lat="45.2145" lon="5.73486">
        <ele>750.20001220703</ele>
        <time>2021-10-28T03:58:47.000Z</time>
      </trkpt>
      <trkpt lat="45.21453" lon="5.73489">
        <ele>751</ele>
        <time>2021-10-28T03:58:50.000Z</time>
      </trkpt>
      <trkpt lat="45.21454" lon="5.73491">
        <ele>751.59997558594</ele>
        <time>2021-10-28T03:58:52.000Z</time>
      </trkpt>
      <trkpt lat="45.21459" lon="5.73498">
        <ele>752.79998779297</ele>
        <time>2021-10-28T03:58:57.000Z</time>
      </trkpt>
      <trkpt lat="45.21461" lon="5.735">
        <ele>753.20001220703</ele>
        <time>2021-10-28T03:58:59.000Z</time>
      </trkpt>
      <trkpt lat="45.21462" lon="5.73507">
        <ele>754.20001220703</ele>
        <time>2021-10-28T03:59:03.000Z</time>
      </trkpt>
      <trkpt lat="45.21463" lon="5.73511">
        <ele>754.79998779297</ele>
        <time>2021-10-28T03:59:05.000Z</time>
      </trkpt>
      <trkpt lat="45.21464" lon="5.73513">
        <ele>755</ele>
        <time>2021-10-28T03:59:06.000Z</time>
      </trkpt>
      <trkpt lat="45.21465" lon="5.73515">
        <ele>755.20001220703</ele>
        <time>2021-10-28T03:59:07.000Z</time>
      </trkpt>
      <trkpt lat="45.21465" lon="5.73516">
        <ele>755.40002441406</ele>
        <time>2021-10-28T03:59:08.000Z</time>
      </trkpt>
      <trkpt lat="45.21466" lon="5.7352">
        <ele>756</ele>
        <time>2021-10-28T03:59:10.000Z</time>
      </trkpt>
      <trkpt lat="45.21466" lon="5.73522">
        <ele>756.40002441406</ele>
        <time>2021-10-28T03:59:12.000Z</time>
      </trkpt>
      <trkpt lat="45.21467" lon="5.73524">
        <ele>756.79998779297</ele>
        <time>2021-10-28T03:59:13.000Z</time>
      </trkpt>
      <trkpt lat="45.21468" lon="5.7353">
        <ele>758</ele>
        <time>2021-10-28T03:59:17.000Z</time>
      </trkpt>
      <trkpt lat="45.21469" lon="5.73533">
        <ele>758.40002441406</ele>
        <time>2021-10-28T03:59:19.000Z</time>
      </trkpt>
      <trkpt lat="45.21472" lon="5.73538">
        <ele>759</ele>
        <time>2021-10-28T03:59:22.000Z</time>
      </trkpt>
      <trkpt lat="45.21474" lon="5.73543">
        <ele>760</ele>
        <time>2021-10-28T03:59:26.000Z</time>
      </trkpt>
      <trkpt lat="45.21477" lon="5.73547">
        <ele>760.79998779297</ele>
        <time>2021-10-28T03:59:29.000Z</time>
      </trkpt>
      <trkpt lat="45.21477" lon="5.73548">
        <ele>761.20001220703</ele>
        <time>2021-10-28T03:59:30.000Z</time>
      </trkpt>
      <trkpt lat="45.21478" lon="5.73549">
        <ele>761.59997558594</ele>
        <time>2021-10-28T03:59:32.000Z</time>
      </trkpt>
      <trkpt lat="45.2148" lon="5.7355">
        <ele>761.79998779297</ele>
        <time>2021-10-28T03:59:33.000Z</time>
      </trkpt>
      <trkpt lat="45.21483" lon="5.73552">
        <ele>762.20001220703</ele>
        <time>2021-10-28T03:59:35.000Z</time>
      </trkpt>
      <trkpt lat="45.21489" lon="5.73554">
        <ele>762.79998779297</ele>
        <time>2021-10-28T03:59:39.000Z</time>
      </trkpt>
      <trkpt lat="45.21489" lon="5.73555">
        <ele>763</ele>
        <time>2021-10-28T03:59:40.000Z</time>
      </trkpt>
      <trkpt lat="45.2149" lon="5.73556">
        <ele>763.20001220703</ele>
        <time>2021-10-28T03:59:41.000Z</time>
      </trkpt>
      <trkpt lat="45.21494" lon="5.73559">
        <ele>763.79998779297</ele>
        <time>2021-10-28T03:59:44.000Z</time>
      </trkpt>
      <trkpt lat="45.21495" lon="5.7356">
        <ele>764.40002441406</ele>
        <time>2021-10-28T03:59:46.000Z</time>
      </trkpt>
      <trkpt lat="45.21495" lon="5.73561">
        <ele>764.79998779297</ele>
        <time>2021-10-28T03:59:47.000Z</time>
      </trkpt>
      <trkpt lat="45.21496" lon="5.73562">
        <ele>765.20001220703</ele>
        <time>2021-10-28T03:59:48.000Z</time>
      </trkpt>
      <trkpt lat="45.21498" lon="5.73564">
        <ele>765.59997558594</ele>
        <time>2021-10-28T03:59:50.000Z</time>
      </trkpt>
      <trkpt lat="45.21501" lon="5.73568">
        <ele>766.40002441406</ele>
        <time>2021-10-28T03:59:53.000Z</time>
      </trkpt>
      <trkpt lat="45.21501" lon="5.73569">
        <ele>766.59997558594</ele>
        <time>2021-10-28T03:59:54.000Z</time>
      </trkpt>
      <trkpt lat="45.21502" lon="5.73572">
        <ele>767.20001220703</ele>
        <time>2021-10-28T03:59:55.000Z</time>
      </trkpt>
      <trkpt lat="45.21504" lon="5.73581">
        <ele>767.79998779297</ele>
        <time>2021-10-28T03:59:58.000Z</time>
      </trkpt>
      <trkpt lat="45.21504" lon="5.73585">
        <ele>768.59997558594</ele>
        <time>2021-10-28T04:00:01.000Z</time>
      </trkpt>
      <trkpt lat="45.21503" lon="5.73586">
        <ele>768.79998779297</ele>
        <time>2021-10-28T04:00:02.000Z</time>
      </trkpt>
      <trkpt lat="45.21504" lon="5.7359">
        <ele>769.40002441406</ele>
        <time>2021-10-28T04:00:04.000Z</time>
      </trkpt>
      <trkpt lat="45.21504" lon="5.73593">
        <ele>770</ele>
        <time>2021-10-28T04:00:06.000Z</time>
      </trkpt>
      <trkpt lat="45.21508" lon="5.736">
        <ele>771.40002441406</ele>
        <time>2021-10-28T04:00:12.000Z</time>
      </trkpt>
      <trkpt lat="45.21508" lon="5.73599">
        <ele>772</ele>
        <time>2021-10-28T04:00:14.000Z</time>
      </trkpt>
      <trkpt lat="45.21506" lon="5.73595">
        <ele>772.40002441406</ele>
        <time>2021-10-28T04:00:16.000Z</time>
      </trkpt>
      <trkpt lat="45.21506" lon="5.73593">
        <ele>772.79998779297</ele>
        <time>2021-10-28T04:00:17.000Z</time>
      </trkpt>
      <trkpt lat="45.21508" lon="5.73584">
        <ele>774</ele>
        <time>2021-10-28T04:00:21.000Z</time>
      </trkpt>
      <trkpt lat="45.2151" lon="5.73577">
        <ele>775</ele>
        <time>2021-10-28T04:00:25.000Z</time>
      </trkpt>
      <trkpt lat="45.21511" lon="5.73577">
        <ele>775.40002441406</ele>
        <time>2021-10-28T04:00:27.000Z</time>
      </trkpt>
      <trkpt lat="45.21512" lon="5.73578">
        <ele>775.40002441406</ele>
        <time>2021-10-28T04:00:28.000Z</time>
      </trkpt>
      <trkpt lat="45.21513" lon="5.73581">
        <ele>776.40002441406</ele>
        <time>2021-10-28T04:00:30.000Z</time>
      </trkpt>
      <trkpt lat="45.21514" lon="5.73586">
        <ele>776.79998779297</ele>
        <time>2021-10-28T04:00:32.000Z</time>
      </trkpt>
      <trkpt lat="45.21516" lon="5.7359">
        <ele>777.40002441406</ele>
        <time>2021-10-28T04:00:34.000Z</time>
      </trkpt>
      <trkpt lat="45.21521" lon="5.73598">
        <ele>778</ele>
        <time>2021-10-28T04:00:39.000Z</time>
      </trkpt>
      <trkpt lat="45.21521" lon="5.73598">
        <ele>778.59997558594</ele>
        <time>2021-10-28T04:00:40.000Z</time>
      </trkpt>
      <trkpt lat="45.21522" lon="5.73599">
        <ele>778.79998779297</ele>
        <time>2021-10-28T04:00:41.000Z</time>
      </trkpt>
      <trkpt lat="45.21524" lon="5.73603">
        <ele>779.20001220703</ele>
        <time>2021-10-28T04:00:44.000Z</time>
      </trkpt>
      <trkpt lat="45.21525" lon="5.73604">
        <ele>779.40002441406</ele>
        <time>2021-10-28T04:00:45.000Z</time>
      </trkpt>
      <trkpt lat="45.21526" lon="5.73606">
        <ele>779.79998779297</ele>
        <time>2021-10-28T04:00:46.000Z</time>
      </trkpt>
      <trkpt lat="45.2153" lon="5.73613">
        <ele>780.79998779297</ele>
        <time>2021-10-28T04:00:52.000Z</time>
      </trkpt>
      <trkpt lat="45.21532" lon="5.73616">
        <ele>781.40002441406</ele>
        <time>2021-10-28T04:00:55.000Z</time>
      </trkpt>
      <trkpt lat="45.21534" lon="5.7362">
        <ele>782</ele>
        <time>2021-10-28T04:00:58.000Z</time>
      </trkpt>
      <trkpt lat="45.21535" lon="5.7362">
        <ele>782.59997558594</ele>
        <time>2021-10-28T04:01:00.000Z</time>
      </trkpt>
      <trkpt lat="45.21535" lon="5.7362">
        <ele>783</ele>
        <time>2021-10-28T04:01:01.000Z</time>
      </trkpt>
      <trkpt lat="45.21534" lon="5.73618">
        <ele>783.40002441406</ele>
        <time>2021-10-28T04:01:03.000Z</time>
      </trkpt>
      <trkpt lat="45.21533" lon="5.73612">
        <ele>784.20001220703</ele>
        <time>2021-10-28T04:01:06.000Z</time>
      </trkpt>
      <trkpt lat="45.2153" lon="5.73603">
        <ele>785.59997558594</ele>
        <time>2021-10-28T04:01:11.000Z</time>
      </trkpt>
      <trkpt lat="45.21529" lon="5.73596">
        <ele>786.59997558594</ele>
        <time>2021-10-28T04:01:16.000Z</time>
      </trkpt>
      <trkpt lat="45.2153" lon="5.73596">
        <ele>786.79998779297</ele>
        <time>2021-10-28T04:01:17.000Z</time>
      </trkpt>
      <trkpt lat="45.21534" lon="5.73601">
        <ele>787.79998779297</ele>
        <time>2021-10-28T04:01:21.000Z</time>
      </trkpt>
      <trkpt lat="45.21536" lon="5.73603">
        <ele>788.40002441406</ele>
        <time>2021-10-28T04:01:23.000Z</time>
      </trkpt>
      <trkpt lat="45.21538" lon="5.73606">
        <ele>789</ele>
        <time>2021-10-28T04:01:25.000Z</time>
      </trkpt>
      <trkpt lat="45.21539" lon="5.73608">
        <ele>789.79998779297</ele>
        <time>2021-10-28T04:01:29.000Z</time>
      </trkpt>
      <trkpt lat="45.21538" lon="5.73607">
        <ele>790.20001220703</ele>
        <time>2021-10-28T04:01:30.000Z</time>
      </trkpt>
      <trkpt lat="45.21537" lon="5.73603">
        <ele>791</ele>
        <time>2021-10-28T04:01:33.000Z</time>
      </trkpt>
      <trkpt lat="45.21537" lon="5.73601">
        <ele>791.20001220703</ele>
        <time>2021-10-28T04:01:34.000Z</time>
      </trkpt>
      <trkpt lat="45.21536" lon="5.73598">
        <ele>791.59997558594</ele>
        <time>2021-10-28T04:01:36.000Z</time>
      </trkpt>
      <trkpt lat="45.21535" lon="5.73594">
        <ele>792.40002441406</ele>
        <time>2021-10-28T04:01:38.000Z</time>
      </trkpt>
      <trkpt lat="45.21535" lon="5.73591">
        <ele>792.79998779297</ele>
        <time>2021-10-28T04:01:40.000Z</time>
      </trkpt>
      <trkpt lat="45.21534" lon="5.7359">
        <ele>793</ele>
        <time>2021-10-28T04:01:41.000Z</time>
      </trkpt>
      <trkpt lat="45.21534" lon="5.73588">
        <ele>793.40002441406</ele>
        <time>2021-10-28T04:01:42.000Z</time>
      </trkpt>
      <trkpt lat="45.21533" lon="5.73585">
        <ele>793.79998779297</ele>
        <time>2021-10-28T04:01:44.000Z</time>
      </trkpt>
      <trkpt lat="45.21532" lon="5.73583">
        <ele>794</ele>
        <time>2021-10-28T04:01:45.000Z</time>
      </trkpt>
      <trkpt lat="45.2153" lon="5.73579">
        <ele>794.79998779297</ele>
        <time>2021-10-28T04:01:48.000Z</time>
      </trkpt>
      <trkpt lat="45.2153" lon="5.73571">
        <ele>795.59997558594</ele>
        <time>2021-10-28T04:01:52.000Z</time>
      </trkpt>
      <trkpt lat="45.21529" lon="5.7357">
        <ele>796.20001220703</ele>
        <time>2021-10-28T04:01:53.000Z</time>
      </trkpt>
      <trkpt lat="45.21529" lon="5.73568">
        <ele>796.79998779297</ele>
        <time>2021-10-28T04:01:55.000Z</time>
      </trkpt>
      <trkpt lat="45.2153" lon="5.73564">
        <ele>797.20001220703</ele>
        <time>2021-10-28T04:01:57.000Z</time>
      </trkpt>
      <trkpt lat="45.2153" lon="5.73562">
        <ele>797.59997558594</ele>
        <time>2021-10-28T04:01:58.000Z</time>
      </trkpt>
      <trkpt lat="45.21529" lon="5.73554">
        <ele>798.40002441406</ele>
        <time>2021-10-28T04:02:02.000Z</time>
      </trkpt>
      <trkpt lat="45.21529" lon="5.73552">
        <ele>798.40002441406</ele>
        <time>2021-10-28T04:02:03.000Z</time>
      </trkpt>
      <trkpt lat="45.2153" lon="5.73551">
        <ele>799</ele>
        <time>2021-10-28T04:02:05.000Z</time>
      </trkpt>
      <trkpt lat="45.2153" lon="5.73552">
        <ele>799.40002441406</ele>
        <time>2021-10-28T04:02:06.000Z</time>
      </trkpt>
      <trkpt lat="45.21531" lon="5.73553">
        <ele>799.79998779297</ele>
        <time>2021-10-28T04:02:07.000Z</time>
      </trkpt>
      <trkpt lat="45.21535" lon="5.73558">
        <ele>800.79998779297</ele>
        <time>2021-10-28T04:02:11.000Z</time>
      </trkpt>
      <trkpt lat="45.21537" lon="5.73562">
        <ele>801.59997558594</ele>
        <time>2021-10-28T04:02:14.000Z</time>
      </trkpt>
      <trkpt lat="45.21538" lon="5.73562">
        <ele>802</ele>
        <time>2021-10-28T04:02:15.000Z</time>
      </trkpt>
      <trkpt lat="45.21541" lon="5.73568">
        <ele>803</ele>
        <time>2021-10-28T04:02:19.000Z</time>
      </trkpt>
      <trkpt lat="45.21542" lon="5.73569">
        <ele>803.40002441406</ele>
        <time>2021-10-28T04:02:20.000Z</time>
      </trkpt>
      <trkpt lat="45.21545" lon="5.73574">
        <ele>804.40002441406</ele>
        <time>2021-10-28T04:02:25.000Z</time>
      </trkpt>
      <trkpt lat="45.21545" lon="5.73574">
        <ele>804.59997558594</ele>
        <time>2021-10-28T04:02:26.000Z</time>
      </trkpt>
      <trkpt lat="45.21547" lon="5.73578">
        <ele>805.40002441406</ele>
        <time>2021-10-28T04:02:29.000Z</time>
      </trkpt>
      <trkpt lat="45.21548" lon="5.7358">
        <ele>805.79998779297</ele>
        <time>2021-10-28T04:02:30.000Z</time>
      </trkpt>
      <trkpt lat="45.21551" lon="5.73583">
        <ele>806.59997558594</ele>
        <time>2021-10-28T04:02:33.000Z</time>
      </trkpt>
      <trkpt lat="45.21553" lon="5.73586">
        <ele>807</ele>
        <time>2021-10-28T04:02:35.000Z</time>
      </trkpt>
      <trkpt lat="45.21557" lon="5.7359">
        <ele>807.79998779297</ele>
        <time>2021-10-28T04:02:39.000Z</time>
      </trkpt>
      <trkpt lat="45.21557" lon="5.73589">
        <ele>808.20001220703</ele>
        <time>2021-10-28T04:02:40.000Z</time>
      </trkpt>
      <trkpt lat="45.21557" lon="5.73588">
        <ele>808.79998779297</ele>
        <time>2021-10-28T04:02:42.000Z</time>
      </trkpt>
      <trkpt lat="45.21556" lon="5.73585">
        <ele>809.40002441406</ele>
        <time>2021-10-28T04:02:44.000Z</time>
      </trkpt>
      <trkpt lat="45.21555" lon="5.73582">
        <ele>810.40002441406</ele>
        <time>2021-10-28T04:02:47.000Z</time>
      </trkpt>
      <trkpt lat="45.21553" lon="5.73575">
        <ele>811.40002441406</ele>
        <time>2021-10-28T04:02:51.000Z</time>
      </trkpt>
      <trkpt lat="45.21553" lon="5.73574">
        <ele>811.79998779297</ele>
        <time>2021-10-28T04:02:52.000Z</time>
      </trkpt>
      <trkpt lat="45.21553" lon="5.73572">
        <ele>812</ele>
        <time>2021-10-28T04:02:53.000Z</time>
      </trkpt>
      <trkpt lat="45.21552" lon="5.73566">
        <ele>812.40002441406</ele>
        <time>2021-10-28T04:02:56.000Z</time>
      </trkpt>
      <trkpt lat="45.21551" lon="5.73563">
        <ele>812.79998779297</ele>
        <time>2021-10-28T04:02:58.000Z</time>
      </trkpt>
      <trkpt lat="45.2155" lon="5.73558">
        <ele>813.59997558594</ele>
        <time>2021-10-28T04:03:01.000Z</time>
      </trkpt>
      <trkpt lat="45.2155" lon="5.73555">
        <ele>814</ele>
        <time>2021-10-28T04:03:03.000Z</time>
      </trkpt>
      <trkpt lat="45.21549" lon="5.73552">
        <ele>814.59997558594</ele>
        <time>2021-10-28T04:03:05.000Z</time>
      </trkpt>
      <trkpt lat="45.21548" lon="5.73546">
        <ele>815.40002441406</ele>
        <time>2021-10-28T04:03:09.000Z</time>
      </trkpt>
      <trkpt lat="45.21548" lon="5.73543">
        <ele>815.79998779297</ele>
        <time>2021-10-28T04:03:11.000Z</time>
      </trkpt>
      <trkpt lat="45.21549" lon="5.73533">
        <ele>817</ele>
        <time>2021-10-28T04:03:16.000Z</time>
      </trkpt>
      <trkpt lat="45.21549" lon="5.73529">
        <ele>817.20001220703</ele>
        <time>2021-10-28T04:03:18.000Z</time>
      </trkpt>
      <trkpt lat="45.21549" lon="5.73525">
        <ele>817.59997558594</ele>
        <time>2021-10-28T04:03:20.000Z</time>
      </trkpt>
      <trkpt lat="45.21549" lon="5.73523">
        <ele>818</ele>
        <time>2021-10-28T04:03:21.000Z</time>
      </trkpt>
      <trkpt lat="45.21549" lon="5.73516">
        <ele>819.40002441406</ele>
        <time>2021-10-28T04:03:25.000Z</time>
      </trkpt>
      <trkpt lat="45.21548" lon="5.7351">
        <ele>820</ele>
        <time>2021-10-28T04:03:29.000Z</time>
      </trkpt>
      <trkpt lat="45.21548" lon="5.73509">
        <ele>820.40002441406</ele>
        <time>2021-10-28T04:03:30.000Z</time>
      </trkpt>
      <trkpt lat="45.21547" lon="5.73503">
        <ele>821.20001220703</ele>
        <time>2021-10-28T04:03:33.000Z</time>
      </trkpt>
      <trkpt lat="45.21547" lon="5.73501">
        <ele>821.40002441406</ele>
        <time>2021-10-28T04:03:34.000Z</time>
      </trkpt>
      <trkpt lat="45.21545" lon="5.73493">
        <ele>822.59997558594</ele>
        <time>2021-10-28T04:03:38.000Z</time>
      </trkpt>
      <trkpt lat="45.21544" lon="5.73493">
        <ele>822.59997558594</ele>
        <time>2021-10-28T04:03:39.000Z</time>
      </trkpt>
      <trkpt lat="45.21542" lon="5.73492">
        <ele>823</ele>
        <time>2021-10-28T04:03:42.000Z</time>
      </trkpt>
      <trkpt lat="45.21538" lon="5.73489">
        <ele>823.59997558594</ele>
        <time>2021-10-28T04:03:45.000Z</time>
      </trkpt>
      <trkpt lat="45.21534" lon="5.73485">
        <ele>824.59997558594</ele>
        <time>2021-10-28T04:03:49.000Z</time>
      </trkpt>
      <trkpt lat="45.21533" lon="5.73483">
        <ele>824.79998779297</ele>
        <time>2021-10-28T04:03:50.000Z</time>
      </trkpt>
      <trkpt lat="45.21533" lon="5.73479">
        <ele>825.20001220703</ele>
        <time>2021-10-28T04:03:52.000Z</time>
      </trkpt>
      <trkpt lat="45.21534" lon="5.73478">
        <ele>825.79998779297</ele>
        <time>2021-10-28T04:03:54.000Z</time>
      </trkpt>
      <trkpt lat="45.21535" lon="5.73478">
        <ele>826</ele>
        <time>2021-10-28T04:03:55.000Z</time>
      </trkpt>
      <trkpt lat="45.21541" lon="5.73479">
        <ele>827</ele>
        <time>2021-10-28T04:03:58.000Z</time>
      </trkpt>
      <trkpt lat="45.21543" lon="5.73479">
        <ele>827.79998779297</ele>
        <time>2021-10-28T04:04:00.000Z</time>
      </trkpt>
      <trkpt lat="45.21544" lon="5.73479">
        <ele>827.79998779297</ele>
        <time>2021-10-28T04:04:01.000Z</time>
      </trkpt>
      <trkpt lat="45.21547" lon="5.7348">
        <ele>828.20001220703</ele>
        <time>2021-10-28T04:04:03.000Z</time>
      </trkpt>
      <trkpt lat="45.21548" lon="5.7348">
        <ele>828.79998779297</ele>
        <time>2021-10-28T04:04:04.000Z</time>
      </trkpt>
      <trkpt lat="45.2155" lon="5.73479">
        <ele>829.20001220703</ele>
        <time>2021-10-28T04:04:06.000Z</time>
      </trkpt>
      <trkpt lat="45.2155" lon="5.73479">
        <ele>829.40002441406</ele>
        <time>2021-10-28T04:04:07.000Z</time>
      </trkpt>
      <trkpt lat="45.21556" lon="5.73483">
        <ele>830.40002441406</ele>
        <time>2021-10-28T04:04:12.000Z</time>
      </trkpt>
      <trkpt lat="45.21561" lon="5.73488">
        <ele>831.59997558594</ele>
        <time>2021-10-28T04:04:17.000Z</time>
      </trkpt>
      <trkpt lat="45.21563" lon="5.73492">
        <ele>832</ele>
        <time>2021-10-28T04:04:20.000Z</time>
      </trkpt>
      <trkpt lat="45.21565" lon="5.73495">
        <ele>832.79998779297</ele>
        <time>2021-10-28T04:04:23.000Z</time>
      </trkpt>
      <trkpt lat="45.21568" lon="5.73501">
        <ele>833.59997558594</ele>
        <time>2021-10-28T04:04:27.000Z</time>
      </trkpt>
      <trkpt lat="45.21569" lon="5.73503">
        <ele>834</ele>
        <time>2021-10-28T04:04:28.000Z</time>
      </trkpt>
      <trkpt lat="45.21573" lon="5.73512">
        <ele>835.20001220703</ele>
        <time>2021-10-28T04:04:33.000Z</time>
      </trkpt>
      <trkpt lat="45.21574" lon="5.73514">
        <ele>835.40002441406</ele>
        <time>2021-10-28T04:04:34.000Z</time>
      </trkpt>
      <trkpt lat="45.21577" lon="5.73519">
        <ele>836.20001220703</ele>
        <time>2021-10-28T04:04:37.000Z</time>
      </trkpt>
      <trkpt lat="45.21581" lon="5.73525">
        <ele>837.20001220703</ele>
        <time>2021-10-28T04:04:41.000Z</time>
      </trkpt>
      <trkpt lat="45.21581" lon="5.73527">
        <ele>837.59997558594</ele>
        <time>2021-10-28T04:04:42.000Z</time>
      </trkpt>
      <trkpt lat="45.21583" lon="5.73531">
        <ele>838.40002441406</ele>
        <time>2021-10-28T04:04:45.000Z</time>
      </trkpt>
      <trkpt lat="45.21585" lon="5.73535">
        <ele>839.20001220703</ele>
        <time>2021-10-28T04:04:48.000Z</time>
      </trkpt>
      <trkpt lat="45.21586" lon="5.73536">
        <ele>839.59997558594</ele>
        <time>2021-10-28T04:04:49.000Z</time>
      </trkpt>
      <trkpt lat="45.21588" lon="5.73542">
        <ele>840.59997558594</ele>
        <time>2021-10-28T04:04:53.000Z</time>
      </trkpt>
      <trkpt lat="45.21589" lon="5.73543">
        <ele>841</ele>
        <time>2021-10-28T04:04:54.000Z</time>
      </trkpt>
      <trkpt lat="45.21592" lon="5.73548">
        <ele>841.79998779297</ele>
        <time>2021-10-28T04:04:58.000Z</time>
      </trkpt>
      <trkpt lat="45.21596" lon="5.73553">
        <ele>843</ele>
        <time>2021-10-28T04:05:02.000Z</time>
      </trkpt>
      <trkpt lat="45.21601" lon="5.73561">
        <ele>844.20001220703</ele>
        <time>2021-10-28T04:05:07.000Z</time>
      </trkpt>
      <trkpt lat="45.21603" lon="5.73562">
        <ele>844.79998779297</ele>
        <time>2021-10-28T04:05:09.000Z</time>
      </trkpt>
      <trkpt lat="45.21603" lon="5.73563">
        <ele>845</ele>
        <time>2021-10-28T04:05:10.000Z</time>
      </trkpt>
      <trkpt lat="45.21605" lon="5.73565">
        <ele>845.20001220703</ele>
        <time>2021-10-28T04:05:12.000Z</time>
      </trkpt>
      <trkpt lat="45.21606" lon="5.73566">
        <ele>845.79998779297</ele>
        <time>2021-10-28T04:05:13.000Z</time>
      </trkpt>
      <trkpt lat="45.21609" lon="5.73569">
        <ele>846.40002441406</ele>
        <time>2021-10-28T04:05:15.000Z</time>
      </trkpt>
      <trkpt lat="45.21612" lon="5.73572">
        <ele>846.79998779297</ele>
        <time>2021-10-28T04:05:17.000Z</time>
      </trkpt>
      <trkpt lat="45.21614" lon="5.73574">
        <ele>847.59997558594</ele>
        <time>2021-10-28T04:05:19.000Z</time>
      </trkpt>
      <trkpt lat="45.21616" lon="5.73577">
        <ele>848</ele>
        <time>2021-10-28T04:05:22.000Z</time>
      </trkpt>
      <trkpt lat="45.21617" lon="5.73578">
        <ele>848.59997558594</ele>
        <time>2021-10-28T04:05:23.000Z</time>
      </trkpt>
      <trkpt lat="45.21619" lon="5.73581">
        <ele>849.79998779297</ele>
        <time>2021-10-28T04:05:27.000Z</time>
      </trkpt>
      <trkpt lat="45.21619" lon="5.73582">
        <ele>850.40002441406</ele>
        <time>2021-10-28T04:05:29.000Z</time>
      </trkpt>
      <trkpt lat="45.21619" lon="5.73579">
        <ele>851</ele>
        <time>2021-10-28T04:05:31.000Z</time>
      </trkpt>
      <trkpt lat="45.21616" lon="5.73575">
        <ele>852.20001220703</ele>
        <time>2021-10-28T04:05:34.000Z</time>
      </trkpt>
      <trkpt lat="45.21612" lon="5.73569">
        <ele>853.20001220703</ele>
        <time>2021-10-28T04:05:38.000Z</time>
      </trkpt>
      <trkpt lat="45.21612" lon="5.73567">
        <ele>853.79998779297</ele>
        <time>2021-10-28T04:05:40.000Z</time>
      </trkpt>
      <trkpt lat="45.21611" lon="5.73562">
        <ele>854.40002441406</ele>
        <time>2021-10-28T04:05:43.000Z</time>
      </trkpt>
      <trkpt lat="45.2161" lon="5.73553">
        <ele>855.59997558594</ele>
        <time>2021-10-28T04:05:47.000Z</time>
      </trkpt>
      <trkpt lat="45.2161" lon="5.7355">
        <ele>856</ele>
        <time>2021-10-28T04:05:49.000Z</time>
      </trkpt>
      <trkpt lat="45.21609" lon="5.73547">
        <ele>856.59997558594</ele>
        <time>2021-10-28T04:05:51.000Z</time>
      </trkpt>
      <trkpt lat="45.21608" lon="5.73545">
        <ele>857</ele>
        <time>2021-10-28T04:05:52.000Z</time>
      </trkpt>
      <trkpt lat="45.21608" lon="5.73543">
        <ele>857.20001220703</ele>
        <time>2021-10-28T04:05:53.000Z</time>
      </trkpt>
      <trkpt lat="45.21608" lon="5.73537">
        <ele>857.79998779297</ele>
        <time>2021-10-28T04:05:56.000Z</time>
      </trkpt>
      <trkpt lat="45.21609" lon="5.73536">
        <ele>858.20001220703</ele>
        <time>2021-10-28T04:05:57.000Z</time>
      </trkpt>
      <trkpt lat="45.21609" lon="5.73536">
        <ele>858.40002441406</ele>
        <time>2021-10-28T04:05:58.000Z</time>
      </trkpt>
      <trkpt lat="45.21612" lon="5.73541">
        <ele>859.59997558594</ele>
        <time>2021-10-28T04:06:02.000Z</time>
      </trkpt>
      <trkpt lat="45.21613" lon="5.73542">
        <ele>860</ele>
        <time>2021-10-28T04:06:03.000Z</time>
      </trkpt>
      <trkpt lat="45.21615" lon="5.73544">
        <ele>860.40002441406</ele>
        <time>2021-10-28T04:06:05.000Z</time>
      </trkpt>
      <trkpt lat="45.21617" lon="5.73546">
        <ele>861</ele>
        <time>2021-10-28T04:06:07.000Z</time>
      </trkpt>
      <trkpt lat="45.21618" lon="5.73546">
        <ele>861.20001220703</ele>
        <time>2021-10-28T04:06:08.000Z</time>
      </trkpt>
      <trkpt lat="45.21619" lon="5.73548">
        <ele>861.40002441406</ele>
        <time>2021-10-28T04:06:09.000Z</time>
      </trkpt>
      <trkpt lat="45.21621" lon="5.73551">
        <ele>862.20001220703</ele>
        <time>2021-10-28T04:06:12.000Z</time>
      </trkpt>
      <trkpt lat="45.21624" lon="5.73553">
        <ele>863</ele>
        <time>2021-10-28T04:06:15.000Z</time>
      </trkpt>
      <trkpt lat="45.21626" lon="5.73554">
        <ele>863.59997558594</ele>
        <time>2021-10-28T04:06:17.000Z</time>
      </trkpt>
      <trkpt lat="45.21631" lon="5.73558">
        <ele>864.59997558594</ele>
        <time>2021-10-28T04:06:21.000Z</time>
      </trkpt>
      <trkpt lat="45.21631" lon="5.73558">
        <ele>864.79998779297</ele>
        <time>2021-10-28T04:06:22.000Z</time>
      </trkpt>
      <trkpt lat="45.21633" lon="5.73559">
        <ele>865.40002441406</ele>
        <time>2021-10-28T04:06:24.000Z</time>
      </trkpt>
      <trkpt lat="45.21634" lon="5.73561">
        <ele>866</ele>
        <time>2021-10-28T04:06:26.000Z</time>
      </trkpt>
      <trkpt lat="45.21635" lon="5.73561">
        <ele>866</ele>
        <time>2021-10-28T04:06:27.000Z</time>
      </trkpt>
      <trkpt lat="45.21637" lon="5.73562">
        <ele>866.20001220703</ele>
        <time>2021-10-28T04:06:28.000Z</time>
      </trkpt>
      <trkpt lat="45.21641" lon="5.73564">
        <ele>867</ele>
        <time>2021-10-28T04:06:32.000Z</time>
      </trkpt>
      <trkpt lat="45.21642" lon="5.73565">
        <ele>867.20001220703</ele>
        <time>2021-10-28T04:06:33.000Z</time>
      </trkpt>
      <trkpt lat="45.21648" lon="5.73564">
        <ele>868.40002441406</ele>
        <time>2021-10-28T04:06:37.000Z</time>
      </trkpt>
      <trkpt lat="45.21649" lon="5.73563">
        <ele>868.59997558594</ele>
        <time>2021-10-28T04:06:38.000Z</time>
      </trkpt>
      <trkpt lat="45.21653" lon="5.73562">
        <ele>869.20001220703</ele>
        <time>2021-10-28T04:06:41.000Z</time>
      </trkpt>
      <trkpt lat="45.21654" lon="5.73561">
        <ele>869.59997558594</ele>
        <time>2021-10-28T04:06:42.000Z</time>
      </trkpt>
      <trkpt lat="45.21659" lon="5.73561">
        <ele>870.40002441406</ele>
        <time>2021-10-28T04:06:46.000Z</time>
      </trkpt>
      <trkpt lat="45.2166" lon="5.7356">
        <ele>870.79998779297</ele>
        <time>2021-10-28T04:06:47.000Z</time>
      </trkpt>
      <trkpt lat="45.21665" lon="5.73559">
        <ele>871.79998779297</ele>
        <time>2021-10-28T04:06:50.000Z</time>
      </trkpt>
      <trkpt lat="45.21666" lon="5.73559">
        <ele>872.20001220703</ele>
        <time>2021-10-28T04:06:51.000Z</time>
      </trkpt>
      <trkpt lat="45.21667" lon="5.73559">
        <ele>872.59997558594</ele>
        <time>2021-10-28T04:06:52.000Z</time>
      </trkpt>
      <trkpt lat="45.21675" lon="5.73563">
        <ele>873</ele>
        <time>2021-10-28T04:06:57.000Z</time>
      </trkpt>
      <trkpt lat="45.21677" lon="5.73565">
        <ele>873.40002441406</ele>
        <time>2021-10-28T04:06:59.000Z</time>
      </trkpt>
      <trkpt lat="45.21678" lon="5.73566">
        <ele>873.59997558594</ele>
        <time>2021-10-28T04:07:00.000Z</time>
      </trkpt>
      <trkpt lat="45.21687" lon="5.73568">
        <ele>875</ele>
        <time>2021-10-28T04:07:04.000Z</time>
      </trkpt>
      <trkpt lat="45.21693" lon="5.73566">
        <ele>876.20001220703</ele>
        <time>2021-10-28T04:07:08.000Z</time>
      </trkpt>
      <trkpt lat="45.21695" lon="5.73566">
        <ele>876.40002441406</ele>
        <time>2021-10-28T04:07:09.000Z</time>
      </trkpt>
      <trkpt lat="45.21698" lon="5.7357">
        <ele>877.59997558594</ele>
        <time>2021-10-28T04:07:13.000Z</time>
      </trkpt>
      <trkpt lat="45.21698" lon="5.7357">
        <ele>877.79998779297</ele>
        <time>2021-10-28T04:07:14.000Z</time>
      </trkpt>
      <trkpt lat="45.21698" lon="5.73569">
        <ele>878.20001220703</ele>
        <time>2021-10-28T04:07:15.000Z</time>
      </trkpt>
      <trkpt lat="45.21697" lon="5.73567">
        <ele>878.59997558594</ele>
        <time>2021-10-28T04:07:16.000Z</time>
      </trkpt>
      <trkpt lat="45.21696" lon="5.73567">
        <ele>878.59997558594</ele>
        <time>2021-10-28T04:07:17.000Z</time>
      </trkpt>
      <trkpt lat="45.21693" lon="5.73566">
        <ele>879.20001220703</ele>
        <time>2021-10-28T04:07:19.000Z</time>
      </trkpt>
      <trkpt lat="45.21693" lon="5.73563">
        <ele>879.40002441406</ele>
        <time>2021-10-28T04:07:20.000Z</time>
      </trkpt>
      <trkpt lat="45.21692" lon="5.73561">
        <ele>879.59997558594</ele>
        <time>2021-10-28T04:07:21.000Z</time>
      </trkpt>
      <trkpt lat="45.21691" lon="5.7356">
        <ele>880</ele>
        <time>2021-10-28T04:07:22.000Z</time>
      </trkpt>
      <trkpt lat="45.21689" lon="5.73556">
        <ele>880.59997558594</ele>
        <time>2021-10-28T04:07:25.000Z</time>
      </trkpt>
      <trkpt lat="45.21688" lon="5.73554">
        <ele>881</ele>
        <time>2021-10-28T04:07:26.000Z</time>
      </trkpt>
      <trkpt lat="45.21684" lon="5.73546">
        <ele>882.20001220703</ele>
        <time>2021-10-28T04:07:31.000Z</time>
      </trkpt>
      <trkpt lat="45.21682" lon="5.73545">
        <ele>882.59997558594</ele>
        <time>2021-10-28T04:07:32.000Z</time>
      </trkpt>
      <trkpt lat="45.21678" lon="5.73542">
        <ele>883.20001220703</ele>
        <time>2021-10-28T04:07:35.000Z</time>
      </trkpt>
      <trkpt lat="45.21673" lon="5.73541">
        <ele>884.40002441406</ele>
        <time>2021-10-28T04:07:39.000Z</time>
      </trkpt>
      <trkpt lat="45.21671" lon="5.7354">
        <ele>885</ele>
        <time>2021-10-28T04:07:41.000Z</time>
      </trkpt>
      <trkpt lat="45.21669" lon="5.73538">
        <ele>885.59997558594</ele>
        <time>2021-10-28T04:07:43.000Z</time>
      </trkpt>
      <trkpt lat="45.21666" lon="5.73538">
        <ele>886.20001220703</ele>
        <time>2021-10-28T04:07:45.000Z</time>
      </trkpt>
      <trkpt lat="45.21665" lon="5.73537">
        <ele>886.40002441406</ele>
        <time>2021-10-28T04:07:46.000Z</time>
      </trkpt>
      <trkpt lat="45.21664" lon="5.73537">
        <ele>886.59997558594</ele>
        <time>2021-10-28T04:07:47.000Z</time>
      </trkpt>
      <trkpt lat="45.21663" lon="5.73536">
        <ele>887.40002441406</ele>
        <time>2021-10-28T04:07:49.000Z</time>
      </trkpt>
      <trkpt lat="45.21664" lon="5.73536">
        <ele>888.20001220703</ele>
        <time>2021-10-28T04:07:50.000Z</time>
      </trkpt>
      <trkpt lat="45.21665" lon="5.73536">
        <ele>888.79998779297</ele>
        <time>2021-10-28T04:07:52.000Z</time>
      </trkpt>
      <trkpt lat="45.21666" lon="5.73535">
        <ele>889.20001220703</ele>
        <time>2021-10-28T04:07:53.000Z</time>
      </trkpt>
      <trkpt lat="45.21667" lon="5.73535">
        <ele>889.40002441406</ele>
        <time>2021-10-28T04:07:54.000Z</time>
      </trkpt>
      <trkpt lat="45.21668" lon="5.73535">
        <ele>889.59997558594</ele>
        <time>2021-10-28T04:07:56.000Z</time>
      </trkpt>
      <trkpt lat="45.21671" lon="5.73535">
        <ele>890.20001220703</ele>
        <time>2021-10-28T04:07:59.000Z</time>
      </trkpt>
      <trkpt lat="45.21672" lon="5.73534">
        <ele>890.40002441406</ele>
        <time>2021-10-28T04:08:00.000Z</time>
      </trkpt>
      <trkpt lat="45.21674" lon="5.73535">
        <ele>891</ele>
        <time>2021-10-28T04:08:02.000Z</time>
      </trkpt>
      <trkpt lat="45.21675" lon="5.73535">
        <ele>891.20001220703</ele>
        <time>2021-10-28T04:08:03.000Z</time>
      </trkpt>
      <trkpt lat="45.21676" lon="5.73536">
        <ele>891.59997558594</ele>
        <time>2021-10-28T04:08:05.000Z</time>
      </trkpt>
      <trkpt lat="45.21678" lon="5.73536">
        <ele>891.79998779297</ele>
        <time>2021-10-28T04:08:06.000Z</time>
      </trkpt>
      <trkpt lat="45.2168" lon="5.73536">
        <ele>892</ele>
        <time>2021-10-28T04:08:07.000Z</time>
      </trkpt>
      <trkpt lat="45.21681" lon="5.73535">
        <ele>892.20001220703</ele>
        <time>2021-10-28T04:08:08.000Z</time>
      </trkpt>
      <trkpt lat="45.21686" lon="5.73533">
        <ele>893</ele>
        <time>2021-10-28T04:08:11.000Z</time>
      </trkpt>
      <trkpt lat="45.21687" lon="5.73533">
        <ele>893.20001220703</ele>
        <time>2021-10-28T04:08:12.000Z</time>
      </trkpt>
      <trkpt lat="45.21689" lon="5.73531">
        <ele>893.40002441406</ele>
        <time>2021-10-28T04:08:13.000Z</time>
      </trkpt>
      <trkpt lat="45.21693" lon="5.73529">
        <ele>894.40002441406</ele>
        <time>2021-10-28T04:08:16.000Z</time>
      </trkpt>
      <trkpt lat="45.21701" lon="5.73531">
        <ele>895.59997558594</ele>
        <time>2021-10-28T04:08:21.000Z</time>
      </trkpt>
      <trkpt lat="45.21702" lon="5.73531">
        <ele>895.79998779297</ele>
        <time>2021-10-28T04:08:22.000Z</time>
      </trkpt>
      <trkpt lat="45.21704" lon="5.73535">
        <ele>896.59997558594</ele>
        <time>2021-10-28T04:08:25.000Z</time>
      </trkpt>
      <trkpt lat="45.21704" lon="5.73537">
        <ele>897</ele>
        <time>2021-10-28T04:08:26.000Z</time>
      </trkpt>
      <trkpt lat="45.21705" lon="5.7354">
        <ele>897</ele>
        <time>2021-10-28T04:08:27.000Z</time>
      </trkpt>
      <trkpt lat="45.21705" lon="5.73542">
        <ele>897.79998779297</ele>
        <time>2021-10-28T04:08:29.000Z</time>
      </trkpt>
      <trkpt lat="45.21705" lon="5.73542">
        <ele>898.40002441406</ele>
        <time>2021-10-28T04:08:31.000Z</time>
      </trkpt>
      <trkpt lat="45.21704" lon="5.73542">
        <ele>898.79998779297</ele>
        <time>2021-10-28T04:08:32.000Z</time>
      </trkpt>
      <trkpt lat="45.217" lon="5.73533">
        <ele>899.59997558594</ele>
        <time>2021-10-28T04:08:38.000Z</time>
      </trkpt>
      <trkpt lat="45.21698" lon="5.7353">
        <ele>900</ele>
        <time>2021-10-28T04:08:40.000Z</time>
      </trkpt>
      <trkpt lat="45.21695" lon="5.73528">
        <ele>900.40002441406</ele>
        <time>2021-10-28T04:08:42.000Z</time>
      </trkpt>
      <trkpt lat="45.21692" lon="5.73525">
        <ele>901.20001220703</ele>
        <time>2021-10-28T04:08:45.000Z</time>
      </trkpt>
      <trkpt lat="45.21692" lon="5.73523">
        <ele>901.40002441406</ele>
        <time>2021-10-28T04:08:46.000Z</time>
      </trkpt>
      <trkpt lat="45.21691" lon="5.73521">
        <ele>901.59997558594</ele>
        <time>2021-10-28T04:08:47.000Z</time>
      </trkpt>
      <trkpt lat="45.21691" lon="5.7352">
        <ele>901.79998779297</ele>
        <time>2021-10-28T04:08:48.000Z</time>
      </trkpt>
      <trkpt lat="45.21691" lon="5.73519">
        <ele>902.40002441406</ele>
        <time>2021-10-28T04:08:49.000Z</time>
      </trkpt>
      <trkpt lat="45.2169" lon="5.73519">
        <ele>902.79998779297</ele>
        <time>2021-10-28T04:08:50.000Z</time>
      </trkpt>
      <trkpt lat="45.21687" lon="5.73519">
        <ele>903.59997558594</ele>
        <time>2021-10-28T04:08:53.000Z</time>
      </trkpt>
      <trkpt lat="45.21683" lon="5.73516">
        <ele>904.79998779297</ele>
        <time>2021-10-28T04:08:57.000Z</time>
      </trkpt>
      <trkpt lat="45.21683" lon="5.73516">
        <ele>905</ele>
        <time>2021-10-28T04:08:58.000Z</time>
      </trkpt>
      <trkpt lat="45.21677" lon="5.73514">
        <ele>906.20001220703</ele>
        <time>2021-10-28T04:09:03.000Z</time>
      </trkpt>
      <trkpt lat="45.21676" lon="5.73513">
        <ele>906.40002441406</ele>
        <time>2021-10-28T04:09:04.000Z</time>
      </trkpt>
      <trkpt lat="45.21671" lon="5.73507">
        <ele>907.20001220703</ele>
        <time>2021-10-28T04:09:09.000Z</time>
      </trkpt>
      <trkpt lat="45.21669" lon="5.73504">
        <ele>907.59997558594</ele>
        <time>2021-10-28T04:09:11.000Z</time>
      </trkpt>
      <trkpt lat="45.21669" lon="5.73502">
        <ele>908.20001220703</ele>
        <time>2021-10-28T04:09:12.000Z</time>
      </trkpt>
      <trkpt lat="45.21669" lon="5.735">
        <ele>908.59997558594</ele>
        <time>2021-10-28T04:09:13.000Z</time>
      </trkpt>
      <trkpt lat="45.2167" lon="5.73499">
        <ele>908.79998779297</ele>
        <time>2021-10-28T04:09:14.000Z</time>
      </trkpt>
      <trkpt lat="45.2167" lon="5.73494">
        <ele>909.40002441406</ele>
        <time>2021-10-28T04:09:16.000Z</time>
      </trkpt>
      <trkpt lat="45.2167" lon="5.7349">
        <ele>909.79998779297</ele>
        <time>2021-10-28T04:09:18.000Z</time>
      </trkpt>
      <trkpt lat="45.21669" lon="5.73487">
        <ele>910.79998779297</ele>
        <time>2021-10-28T04:09:21.000Z</time>
      </trkpt>
      <trkpt lat="45.21667" lon="5.73478">
        <ele>911.59997558594</ele>
        <time>2021-10-28T04:09:25.000Z</time>
      </trkpt>
      <trkpt lat="45.21667" lon="5.73475">
        <ele>911.79998779297</ele>
        <time>2021-10-28T04:09:26.000Z</time>
      </trkpt>
      <trkpt lat="45.21667" lon="5.73472">
        <ele>912</ele>
        <time>2021-10-28T04:09:27.000Z</time>
      </trkpt>
      <trkpt lat="45.21667" lon="5.73458">
        <ele>913.20001220703</ele>
        <time>2021-10-28T04:09:32.000Z</time>
      </trkpt>
      <trkpt lat="45.21668" lon="5.73447">
        <ele>914.20001220703</ele>
        <time>2021-10-28T04:09:37.000Z</time>
      </trkpt>
      <trkpt lat="45.21668" lon="5.73444">
        <ele>914.79998779297</ele>
        <time>2021-10-28T04:09:39.000Z</time>
      </trkpt>
      <trkpt lat="45.21668" lon="5.73441">
        <ele>915.40002441406</ele>
        <time>2021-10-28T04:09:41.000Z</time>
      </trkpt>
      <trkpt lat="45.21669" lon="5.73434">
        <ele>916.40002441406</ele>
        <time>2021-10-28T04:09:45.000Z</time>
      </trkpt>
      <trkpt lat="45.2167" lon="5.73433">
        <ele>916.79998779297</ele>
        <time>2021-10-28T04:09:46.000Z</time>
      </trkpt>
      <trkpt lat="45.2167" lon="5.73428">
        <ele>917.59997558594</ele>
        <time>2021-10-28T04:09:49.000Z</time>
      </trkpt>
      <trkpt lat="45.21668" lon="5.73426">
        <ele>918.20001220703</ele>
        <time>2021-10-28T04:09:51.000Z</time>
      </trkpt>
      <trkpt lat="45.21667" lon="5.73425">
        <ele>918.40002441406</ele>
        <time>2021-10-28T04:09:52.000Z</time>
      </trkpt>
      <trkpt lat="45.21667" lon="5.73424">
        <ele>918.59997558594</ele>
        <time>2021-10-28T04:09:53.000Z</time>
      </trkpt>
      <trkpt lat="45.21666" lon="5.7342">
        <ele>919.40002441406</ele>
        <time>2021-10-28T04:09:55.000Z</time>
      </trkpt>
      <trkpt lat="45.21666" lon="5.73418">
        <ele>919.59997558594</ele>
        <time>2021-10-28T04:09:56.000Z</time>
      </trkpt>
      <trkpt lat="45.21665" lon="5.73409">
        <ele>920.79998779297</ele>
        <time>2021-10-28T04:10:00.000Z</time>
      </trkpt>
      <trkpt lat="45.21665" lon="5.73405">
        <ele>921.40002441406</ele>
        <time>2021-10-28T04:10:02.000Z</time>
      </trkpt>
      <trkpt lat="45.21664" lon="5.73403">
        <ele>922.20001220703</ele>
        <time>2021-10-28T04:10:04.000Z</time>
      </trkpt>
      <trkpt lat="45.21663" lon="5.73399">
        <ele>923</ele>
        <time>2021-10-28T04:10:07.000Z</time>
      </trkpt>
      <trkpt lat="45.21662" lon="5.73397">
        <ele>923.20001220703</ele>
        <time>2021-10-28T04:10:08.000Z</time>
      </trkpt>
      <trkpt lat="45.21662" lon="5.73396">
        <ele>923.59997558594</ele>
        <time>2021-10-28T04:10:09.000Z</time>
      </trkpt>
      <trkpt lat="45.21661" lon="5.73393">
        <ele>924.40002441406</ele>
        <time>2021-10-28T04:10:11.000Z</time>
      </trkpt>
      <trkpt lat="45.2166" lon="5.73391">
        <ele>924.59997558594</ele>
        <time>2021-10-28T04:10:12.000Z</time>
      </trkpt>
      <trkpt lat="45.21659" lon="5.73389">
        <ele>925.40002441406</ele>
        <time>2021-10-28T04:10:14.000Z</time>
      </trkpt>
      <trkpt lat="45.21658" lon="5.73387">
        <ele>925.59997558594</ele>
        <time>2021-10-28T04:10:15.000Z</time>
      </trkpt>
      <trkpt lat="45.21656" lon="5.73385">
        <ele>926.40002441406</ele>
        <time>2021-10-28T04:10:17.000Z</time>
      </trkpt>
      <trkpt lat="45.21654" lon="5.73382">
        <ele>927</ele>
        <time>2021-10-28T04:10:19.000Z</time>
      </trkpt>
      <trkpt lat="45.21654" lon="5.7338">
        <ele>927.40002441406</ele>
        <time>2021-10-28T04:10:20.000Z</time>
      </trkpt>
      <trkpt lat="45.21653" lon="5.73376">
        <ele>927.79998779297</ele>
        <time>2021-10-28T04:10:22.000Z</time>
      </trkpt>
      <trkpt lat="45.21652" lon="5.73375">
        <ele>928</ele>
        <time>2021-10-28T04:10:23.000Z</time>
      </trkpt>
      <trkpt lat="45.21652" lon="5.73374">
        <ele>928.40002441406</ele>
        <time>2021-10-28T04:10:24.000Z</time>
      </trkpt>
      <trkpt lat="45.2165" lon="5.73372">
        <ele>929</ele>
        <time>2021-10-28T04:10:26.000Z</time>
      </trkpt>
      <trkpt lat="45.2165" lon="5.7337">
        <ele>929.59997558594</ele>
        <time>2021-10-28T04:10:27.000Z</time>
      </trkpt>
      <trkpt lat="45.21649" lon="5.73368">
        <ele>929.79998779297</ele>
        <time>2021-10-28T04:10:28.000Z</time>
      </trkpt>
      <trkpt lat="45.21648" lon="5.73363">
        <ele>930.59997558594</ele>
        <time>2021-10-28T04:10:31.000Z</time>
      </trkpt>
      <trkpt lat="45.21647" lon="5.73359">
        <ele>931.40002441406</ele>
        <time>2021-10-28T04:10:33.000Z</time>
      </trkpt>
      <trkpt lat="45.21647" lon="5.73357">
        <ele>931.79998779297</ele>
        <time>2021-10-28T04:10:34.000Z</time>
      </trkpt>
      <trkpt lat="45.21644" lon="5.73354">
        <ele>932.40002441406</ele>
        <time>2021-10-28T04:10:37.000Z</time>
      </trkpt>
      <trkpt lat="45.21644" lon="5.73352">
        <ele>932.79998779297</ele>
        <time>2021-10-28T04:10:38.000Z</time>
      </trkpt>
      <trkpt lat="45.21644" lon="5.73349">
        <ele>933.40002441406</ele>
        <time>2021-10-28T04:10:40.000Z</time>
      </trkpt>
      <trkpt lat="45.21646" lon="5.73341">
        <ele>934</ele>
        <time>2021-10-28T04:10:43.000Z</time>
      </trkpt>
      <trkpt lat="45.21646" lon="5.73337">
        <ele>935.40002441406</ele>
        <time>2021-10-28T04:10:46.000Z</time>
      </trkpt>
      <trkpt lat="45.21645" lon="5.73336">
        <ele>935.59997558594</ele>
        <time>2021-10-28T04:10:47.000Z</time>
      </trkpt>
      <trkpt lat="45.21643" lon="5.7333">
        <ele>936.59997558594</ele>
        <time>2021-10-28T04:10:51.000Z</time>
      </trkpt>
      <trkpt lat="45.21642" lon="5.73327">
        <ele>937</ele>
        <time>2021-10-28T04:10:53.000Z</time>
      </trkpt>
      <trkpt lat="45.21641" lon="5.73322">
        <ele>937.40002441406</ele>
        <time>2021-10-28T04:10:55.000Z</time>
      </trkpt>
      <trkpt lat="45.21641" lon="5.7332">
        <ele>937.59997558594</ele>
        <time>2021-10-28T04:10:56.000Z</time>
      </trkpt>
      <trkpt lat="45.2164" lon="5.73312">
        <ele>938.79998779297</ele>
        <time>2021-10-28T04:11:00.000Z</time>
      </trkpt>
      <trkpt lat="45.21639" lon="5.73307">
        <ele>939.79998779297</ele>
        <time>2021-10-28T04:11:03.000Z</time>
      </trkpt>
      <trkpt lat="45.21636" lon="5.73301">
        <ele>940.59997558594</ele>
        <time>2021-10-28T04:11:07.000Z</time>
      </trkpt>
      <trkpt lat="45.21636" lon="5.73299">
        <ele>940.79998779297</ele>
        <time>2021-10-28T04:11:08.000Z</time>
      </trkpt>
      <trkpt lat="45.21632" lon="5.73292">
        <ele>942</ele>
        <time>2021-10-28T04:11:13.000Z</time>
      </trkpt>
      <trkpt lat="45.21632" lon="5.7329">
        <ele>942.20001220703</ele>
        <time>2021-10-28T04:11:14.000Z</time>
      </trkpt>
      <trkpt lat="45.21631" lon="5.73288">
        <ele>942.40002441406</ele>
        <time>2021-10-28T04:11:15.000Z</time>
      </trkpt>
      <trkpt lat="45.21628" lon="5.73284">
        <ele>943</ele>
        <time>2021-10-28T04:11:18.000Z</time>
      </trkpt>
      <trkpt lat="45.21627" lon="5.73283">
        <ele>943.20001220703</ele>
        <time>2021-10-28T04:11:19.000Z</time>
      </trkpt>
      <trkpt lat="45.21621" lon="5.73275">
        <ele>944.20001220703</ele>
        <time>2021-10-28T04:11:25.000Z</time>
      </trkpt>
      <trkpt lat="45.2162" lon="5.73273">
        <ele>944.40002441406</ele>
        <time>2021-10-28T04:11:26.000Z</time>
      </trkpt>
      <trkpt lat="45.21618" lon="5.73271">
        <ele>944.79998779297</ele>
        <time>2021-10-28T04:11:28.000Z</time>
      </trkpt>
      <trkpt lat="45.21618" lon="5.7327">
        <ele>945</ele>
        <time>2021-10-28T04:11:29.000Z</time>
      </trkpt>
      <trkpt lat="45.21616" lon="5.73268">
        <ele>945.40002441406</ele>
        <time>2021-10-28T04:11:31.000Z</time>
      </trkpt>
      <trkpt lat="45.21615" lon="5.73267">
        <ele>945.79998779297</ele>
        <time>2021-10-28T04:11:32.000Z</time>
      </trkpt>
      <trkpt lat="45.21613" lon="5.73264">
        <ele>946.40002441406</ele>
        <time>2021-10-28T04:11:35.000Z</time>
      </trkpt>
      <trkpt lat="45.21611" lon="5.7326">
        <ele>947</ele>
        <time>2021-10-28T04:11:38.000Z</time>
      </trkpt>
      <trkpt lat="45.21609" lon="5.73258">
        <ele>947.79998779297</ele>
        <time>2021-10-28T04:11:40.000Z</time>
      </trkpt>
      <trkpt lat="45.21608" lon="5.73256">
        <ele>948</ele>
        <time>2021-10-28T04:11:41.000Z</time>
      </trkpt>
      <trkpt lat="45.21606" lon="5.73253">
        <ele>948.79998779297</ele>
        <time>2021-10-28T04:11:44.000Z</time>
      </trkpt>
      <trkpt lat="45.21603" lon="5.7325">
        <ele>950</ele>
        <time>2021-10-28T04:11:47.000Z</time>
      </trkpt>
      <trkpt lat="45.21603" lon="5.73249">
        <ele>950.20001220703</ele>
        <time>2021-10-28T04:11:48.000Z</time>
      </trkpt>
      <trkpt lat="45.216" lon="5.73246">
        <ele>951.59997558594</ele>
        <time>2021-10-28T04:11:52.000Z</time>
      </trkpt>
      <trkpt lat="45.21599" lon="5.73244">
        <ele>952.20001220703</ele>
        <time>2021-10-28T04:11:54.000Z</time>
      </trkpt>
      <trkpt lat="45.21598" lon="5.73243">
        <ele>952.59997558594</ele>
        <time>2021-10-28T04:11:55.000Z</time>
      </trkpt>
      <trkpt lat="45.21598" lon="5.73238">
        <ele>953.59997558594</ele>
        <time>2021-10-28T04:11:59.000Z</time>
      </trkpt>
      <trkpt lat="45.21597" lon="5.73237">
        <ele>954</ele>
        <time>2021-10-28T04:12:00.000Z</time>
      </trkpt>
      <trkpt lat="45.21597" lon="5.73232">
        <ele>954.79998779297</ele>
        <time>2021-10-28T04:12:03.000Z</time>
      </trkpt>
      <trkpt lat="45.21596" lon="5.73228">
        <ele>954.79998779297</ele>
        <time>2021-10-28T04:12:05.000Z</time>
      </trkpt>
      <trkpt lat="45.21593" lon="5.73225">
        <ele>955.40002441406</ele>
        <time>2021-10-28T04:12:08.000Z</time>
      </trkpt>
      <trkpt lat="45.21591" lon="5.73223">
        <ele>955.79998779297</ele>
        <time>2021-10-28T04:12:10.000Z</time>
      </trkpt>
      <trkpt lat="45.2159" lon="5.73222">
        <ele>956</ele>
        <time>2021-10-28T04:12:11.000Z</time>
      </trkpt>
      <trkpt lat="45.21589" lon="5.7322">
        <ele>956</ele>
        <time>2021-10-28T04:12:12.000Z</time>
      </trkpt>
      <trkpt lat="45.21589" lon="5.73217">
        <ele>956.20001220703</ele>
        <time>2021-10-28T04:12:13.000Z</time>
      </trkpt>
      <trkpt lat="45.21587" lon="5.73211">
        <ele>956.59997558594</ele>
        <time>2021-10-28T04:12:15.000Z</time>
      </trkpt>
      <trkpt lat="45.21586" lon="5.73209">
        <ele>956.59997558594</ele>
        <time>2021-10-28T04:12:16.000Z</time>
      </trkpt>
      <trkpt lat="45.21585" lon="5.73208">
        <ele>956.79998779297</ele>
        <time>2021-10-28T04:12:17.000Z</time>
      </trkpt>
      <trkpt lat="45.21583" lon="5.73204">
        <ele>957.40002441406</ele>
        <time>2021-10-28T04:12:19.000Z</time>
      </trkpt>
      <trkpt lat="45.21582" lon="5.73203">
        <ele>957.59997558594</ele>
        <time>2021-10-28T04:12:20.000Z</time>
      </trkpt>
      <trkpt lat="45.2158" lon="5.732">
        <ele>958</ele>
        <time>2021-10-28T04:12:22.000Z</time>
      </trkpt>
      <trkpt lat="45.21574" lon="5.73195">
        <ele>959.20001220703</ele>
        <time>2021-10-28T04:12:26.000Z</time>
      </trkpt>
      <trkpt lat="45.21571" lon="5.73192">
        <ele>959.59997558594</ele>
        <time>2021-10-28T04:12:28.000Z</time>
      </trkpt>
      <trkpt lat="45.21569" lon="5.73188">
        <ele>960.20001220703</ele>
        <time>2021-10-28T04:12:30.000Z</time>
      </trkpt>
      <trkpt lat="45.21568" lon="5.73187">
        <ele>960.40002441406</ele>
        <time>2021-10-28T04:12:31.000Z</time>
      </trkpt>
      <trkpt lat="45.21567" lon="5.73185">
        <ele>960.79998779297</ele>
        <time>2021-10-28T04:12:32.000Z</time>
      </trkpt>
      <trkpt lat="45.21566" lon="5.73182">
        <ele>961.59997558594</ele>
        <time>2021-10-28T04:12:35.000Z</time>
      </trkpt>
      <trkpt lat="45.21566" lon="5.73179">
        <ele>962</ele>
        <time>2021-10-28T04:12:36.000Z</time>
      </trkpt>
      <trkpt lat="45.21565" lon="5.73177">
        <ele>962.20001220703</ele>
        <time>2021-10-28T04:12:37.000Z</time>
      </trkpt>
      <trkpt lat="45.21564" lon="5.73174">
        <ele>962.79998779297</ele>
        <time>2021-10-28T04:12:39.000Z</time>
      </trkpt>
      <trkpt lat="45.21564" lon="5.73172">
        <ele>963.79998779297</ele>
        <time>2021-10-28T04:12:41.000Z</time>
      </trkpt>
      <trkpt lat="45.21563" lon="5.73169">
        <ele>964.79998779297</ele>
        <time>2021-10-28T04:12:43.000Z</time>
      </trkpt>
      <trkpt lat="45.21563" lon="5.73168">
        <ele>965</ele>
        <time>2021-10-28T04:12:44.000Z</time>
      </trkpt>
      <trkpt lat="45.21563" lon="5.73167">
        <ele>965.20001220703</ele>
        <time>2021-10-28T04:12:45.000Z</time>
      </trkpt>
      <trkpt lat="45.21563" lon="5.73161">
        <ele>966</ele>
        <time>2021-10-28T04:12:49.000Z</time>
      </trkpt>
      <trkpt lat="45.21565" lon="5.73161">
        <ele>967.20001220703</ele>
        <time>2021-10-28T04:12:52.000Z</time>
      </trkpt>
      <trkpt lat="45.21565" lon="5.73161">
        <ele>967.59997558594</ele>
        <time>2021-10-28T04:12:53.000Z</time>
      </trkpt>
      <trkpt lat="45.21566" lon="5.73159">
        <ele>968.59997558594</ele>
        <time>2021-10-28T04:12:56.000Z</time>
      </trkpt>
      <trkpt lat="45.21566" lon="5.73158">
        <ele>969.20001220703</ele>
        <time>2021-10-28T04:12:58.000Z</time>
      </trkpt>
      <trkpt lat="45.21566" lon="5.73157">
        <ele>969.59997558594</ele>
        <time>2021-10-28T04:12:59.000Z</time>
      </trkpt>
      <trkpt lat="45.21566" lon="5.73156">
        <ele>969.79998779297</ele>
        <time>2021-10-28T04:13:00.000Z</time>
      </trkpt>
      <trkpt lat="45.21567" lon="5.73152">
        <ele>970.20001220703</ele>
        <time>2021-10-28T04:13:02.000Z</time>
      </trkpt>
      <trkpt lat="45.21568" lon="5.73149">
        <ele>970.79998779297</ele>
        <time>2021-10-28T04:13:04.000Z</time>
      </trkpt>
      <trkpt lat="45.21569" lon="5.73147">
        <ele>971.79998779297</ele>
        <time>2021-10-28T04:13:07.000Z</time>
      </trkpt>
      <trkpt lat="45.21568" lon="5.73147">
        <ele>972</ele>
        <time>2021-10-28T04:13:08.000Z</time>
      </trkpt>
      <trkpt lat="45.21568" lon="5.73146">
        <ele>972.40002441406</ele>
        <time>2021-10-28T04:13:09.000Z</time>
      </trkpt>
      <trkpt lat="45.21569" lon="5.73145">
        <ele>972.59997558594</ele>
        <time>2021-10-28T04:13:10.000Z</time>
      </trkpt>
      <trkpt lat="45.2157" lon="5.73144">
        <ele>973.20001220703</ele>
        <time>2021-10-28T04:13:11.000Z</time>
      </trkpt>
      <trkpt lat="45.21571" lon="5.73144">
        <ele>973.40002441406</ele>
        <time>2021-10-28T04:13:12.000Z</time>
      </trkpt>
      <trkpt lat="45.21573" lon="5.73142">
        <ele>974.40002441406</ele>
        <time>2021-10-28T04:13:15.000Z</time>
      </trkpt>
      <trkpt lat="45.21575" lon="5.73141">
        <ele>975</ele>
        <time>2021-10-28T04:13:17.000Z</time>
      </trkpt>
      <trkpt lat="45.21577" lon="5.73139">
        <ele>975.59997558594</ele>
        <time>2021-10-28T04:13:19.000Z</time>
      </trkpt>
      <trkpt lat="45.21577" lon="5.73137">
        <ele>976.20001220703</ele>
        <time>2021-10-28T04:13:21.000Z</time>
      </trkpt>
      <trkpt lat="45.21577" lon="5.73136">
        <ele>976.40002441406</ele>
        <time>2021-10-28T04:13:22.000Z</time>
      </trkpt>
      <trkpt lat="45.21577" lon="5.73135">
        <ele>976.59997558594</ele>
        <time>2021-10-28T04:13:23.000Z</time>
      </trkpt>
      <trkpt lat="45.21576" lon="5.73134">
        <ele>976.79998779297</ele>
        <time>2021-10-28T04:13:24.000Z</time>
      </trkpt>
      <trkpt lat="45.21576" lon="5.73131">
        <ele>978</ele>
        <time>2021-10-28T04:13:27.000Z</time>
      </trkpt>
      <trkpt lat="45.21576" lon="5.73128">
        <ele>979</ele>
        <time>2021-10-28T04:13:30.000Z</time>
      </trkpt>
      <trkpt lat="45.21579" lon="5.73126">
        <ele>980</ele>
        <time>2021-10-28T04:13:33.000Z</time>
      </trkpt>
      <trkpt lat="45.2158" lon="5.73125">
        <ele>980.20001220703</ele>
        <time>2021-10-28T04:13:34.000Z</time>
      </trkpt>
      <trkpt lat="45.21584" lon="5.73121">
        <ele>981.20001220703</ele>
        <time>2021-10-28T04:13:38.000Z</time>
      </trkpt>
      <trkpt lat="45.21585" lon="5.73121">
        <ele>981.59997558594</ele>
        <time>2021-10-28T04:13:39.000Z</time>
      </trkpt>
      <trkpt lat="45.21591" lon="5.73119">
        <ele>982.40002441406</ele>
        <time>2021-10-28T04:13:43.000Z</time>
      </trkpt>
      <trkpt lat="45.21594" lon="5.7312">
        <ele>983.20001220703</ele>
        <time>2021-10-28T04:13:46.000Z</time>
      </trkpt>
      <trkpt lat="45.21599" lon="5.73123">
        <ele>983.59997558594</ele>
        <time>2021-10-28T04:13:49.000Z</time>
      </trkpt>
      <trkpt lat="45.21604" lon="5.73126">
        <ele>984.79998779297</ele>
        <time>2021-10-28T04:13:54.000Z</time>
      </trkpt>
      <trkpt lat="45.21612" lon="5.73127">
        <ele>985.79998779297</ele>
        <time>2021-10-28T04:13:59.000Z</time>
      </trkpt>
      <trkpt lat="45.21616" lon="5.73131">
        <ele>987</ele>
        <time>2021-10-28T04:14:03.000Z</time>
      </trkpt>
      <trkpt lat="45.21621" lon="5.73133">
        <ele>987.79998779297</ele>
        <time>2021-10-28T04:14:06.000Z</time>
      </trkpt>
      <trkpt lat="45.21622" lon="5.73133">
        <ele>988.20001220703</ele>
        <time>2021-10-28T04:14:08.000Z</time>
      </trkpt>
      <trkpt lat="45.21625" lon="5.73135">
        <ele>988.59997558594</ele>
        <time>2021-10-28T04:14:10.000Z</time>
      </trkpt>
      <trkpt lat="45.21627" lon="5.73137">
        <ele>989</ele>
        <time>2021-10-28T04:14:12.000Z</time>
      </trkpt>
      <trkpt lat="45.21627" lon="5.73137">
        <ele>989.40002441406</ele>
        <time>2021-10-28T04:14:13.000Z</time>
      </trkpt>
      <trkpt lat="45.21629" lon="5.73137">
        <ele>990</ele>
        <time>2021-10-28T04:14:16.000Z</time>
      </trkpt>
      <trkpt lat="45.2163" lon="5.73138">
        <ele>990.20001220703</ele>
        <time>2021-10-28T04:14:17.000Z</time>
      </trkpt>
      <trkpt lat="45.21631" lon="5.73139">
        <ele>990.79998779297</ele>
        <time>2021-10-28T04:14:18.000Z</time>
      </trkpt>
      <trkpt lat="45.21631" lon="5.73138">
        <ele>991.20001220703</ele>
        <time>2021-10-28T04:14:19.000Z</time>
      </trkpt>
      <trkpt lat="45.21634" lon="5.73137">
        <ele>991.79998779297</ele>
        <time>2021-10-28T04:14:22.000Z</time>
      </trkpt>
      <trkpt lat="45.21635" lon="5.73136">
        <ele>992.20001220703</ele>
        <time>2021-10-28T04:14:24.000Z</time>
      </trkpt>
      <trkpt lat="45.21638" lon="5.73137">
        <ele>993.20001220703</ele>
        <time>2021-10-28T04:14:26.000Z</time>
      </trkpt>
      <trkpt lat="45.21643" lon="5.73136">
        <ele>994.20001220703</ele>
        <time>2021-10-28T04:14:30.000Z</time>
      </trkpt>
      <trkpt lat="45.21646" lon="5.73137">
        <ele>994.79998779297</ele>
        <time>2021-10-28T04:14:32.000Z</time>
      </trkpt>
      <trkpt lat="45.21648" lon="5.73137">
        <ele>995.40002441406</ele>
        <time>2021-10-28T04:14:34.000Z</time>
      </trkpt>
      <trkpt lat="45.21652" lon="5.73138">
        <ele>996.40002441406</ele>
        <time>2021-10-28T04:14:37.000Z</time>
      </trkpt>
      <trkpt lat="45.21653" lon="5.73138">
        <ele>996.59997558594</ele>
        <time>2021-10-28T04:14:38.000Z</time>
      </trkpt>
      <trkpt lat="45.21654" lon="5.73138">
        <ele>996.79998779297</ele>
        <time>2021-10-28T04:14:39.000Z</time>
      </trkpt>
      <trkpt lat="45.21656" lon="5.73137">
        <ele>997.40002441406</ele>
        <time>2021-10-28T04:14:41.000Z</time>
      </trkpt>
      <trkpt lat="45.21656" lon="5.73137">
        <ele>997.79998779297</ele>
        <time>2021-10-28T04:14:42.000Z</time>
      </trkpt>
      <trkpt lat="45.21656" lon="5.73137">
        <ele>998.59997558594</ele>
        <time>2021-10-28T04:14:44.000Z</time>
      </trkpt>
      <trkpt lat="45.21658" lon="5.73139">
        <ele>999.59997558594</ele>
        <time>2021-10-28T04:14:48.000Z</time>
      </trkpt>
      <trkpt lat="45.21659" lon="5.7314">
        <ele>999.79998779297</ele>
        <time>2021-10-28T04:14:49.000Z</time>
      </trkpt>
      <trkpt lat="45.21661" lon="5.73142">
        <ele>1000.200012207</ele>
        <time>2021-10-28T04:14:50.000Z</time>
      </trkpt>
      <trkpt lat="45.21663" lon="5.73142">
        <ele>1000.799987793</ele>
        <time>2021-10-28T04:14:52.000Z</time>
      </trkpt>
      <trkpt lat="45.21665" lon="5.73142">
        <ele>1001.5999755859</ele>
        <time>2021-10-28T04:14:54.000Z</time>
      </trkpt>
      <trkpt lat="45.21666" lon="5.73142">
        <ele>1002</ele>
        <time>2021-10-28T04:14:55.000Z</time>
      </trkpt>
      <trkpt lat="45.21669" lon="5.73144">
        <ele>1002.799987793</ele>
        <time>2021-10-28T04:14:58.000Z</time>
      </trkpt>
      <trkpt lat="45.2167" lon="5.73145">
        <ele>1003</ele>
        <time>2021-10-28T04:14:59.000Z</time>
      </trkpt>
      <trkpt lat="45.2167" lon="5.73146">
        <ele>1003.200012207</ele>
        <time>2021-10-28T04:15:00.000Z</time>
      </trkpt>
      <trkpt lat="45.21671" lon="5.73146">
        <ele>1003.4000244141</ele>
        <time>2021-10-28T04:15:01.000Z</time>
      </trkpt>
      <trkpt lat="45.21672" lon="5.73147">
        <ele>1004.200012207</ele>
        <time>2021-10-28T04:15:04.000Z</time>
      </trkpt>
      <trkpt lat="45.21674" lon="5.73148">
        <ele>1004.4000244141</ele>
        <time>2021-10-28T04:15:05.000Z</time>
      </trkpt>
      <trkpt lat="45.21675" lon="5.7315">
        <ele>1005</ele>
        <time>2021-10-28T04:15:06.000Z</time>
      </trkpt>
      <trkpt lat="45.21676" lon="5.73151">
        <ele>1005.4000244141</ele>
        <time>2021-10-28T04:15:07.000Z</time>
      </trkpt>
      <trkpt lat="45.21676" lon="5.73154">
        <ele>1006.200012207</ele>
        <time>2021-10-28T04:15:09.000Z</time>
      </trkpt>
      <trkpt lat="45.21676" lon="5.73156">
        <ele>1006.4000244141</ele>
        <time>2021-10-28T04:15:10.000Z</time>
      </trkpt>
      <trkpt lat="45.21676" lon="5.73157">
        <ele>1006.799987793</ele>
        <time>2021-10-28T04:15:11.000Z</time>
      </trkpt>
      <trkpt lat="45.21676" lon="5.73162">
        <ele>1007.5999755859</ele>
        <time>2021-10-28T04:15:15.000Z</time>
      </trkpt>
      <trkpt lat="45.21677" lon="5.73166">
        <ele>1008.200012207</ele>
        <time>2021-10-28T04:15:17.000Z</time>
      </trkpt>
      <trkpt lat="45.21677" lon="5.73167">
        <ele>1009</ele>
        <time>2021-10-28T04:15:19.000Z</time>
      </trkpt>
      <trkpt lat="45.21677" lon="5.73168">
        <ele>1009.4000244141</ele>
        <time>2021-10-28T04:15:20.000Z</time>
      </trkpt>
      <trkpt lat="45.21678" lon="5.73169">
        <ele>1009.799987793</ele>
        <time>2021-10-28T04:15:21.000Z</time>
      </trkpt>
      <trkpt lat="45.21679" lon="5.7317">
        <ele>1010.200012207</ele>
        <time>2021-10-28T04:15:22.000Z</time>
      </trkpt>
      <trkpt lat="45.21683" lon="5.73173">
        <ele>1011</ele>
        <time>2021-10-28T04:15:25.000Z</time>
      </trkpt>
      <trkpt lat="45.21684" lon="5.73175">
        <ele>1011.200012207</ele>
        <time>2021-10-28T04:15:26.000Z</time>
      </trkpt>
      <trkpt lat="45.21686" lon="5.73181">
        <ele>1012.4000244141</ele>
        <time>2021-10-28T04:15:30.000Z</time>
      </trkpt>
      <trkpt lat="45.21689" lon="5.73188">
        <ele>1013.4000244141</ele>
        <time>2021-10-28T04:15:34.000Z</time>
      </trkpt>
      <trkpt lat="45.2169" lon="5.73189">
        <ele>1013.5999755859</ele>
        <time>2021-10-28T04:15:35.000Z</time>
      </trkpt>
      <trkpt lat="45.21696" lon="5.73195">
        <ele>1014</ele>
        <time>2021-10-28T04:15:40.000Z</time>
      </trkpt>
      <trkpt lat="45.21697" lon="5.73197">
        <ele>1014.200012207</ele>
        <time>2021-10-28T04:15:41.000Z</time>
      </trkpt>
      <trkpt lat="45.21698" lon="5.73201">
        <ele>1014.4000244141</ele>
        <time>2021-10-28T04:15:43.000Z</time>
      </trkpt>
      <trkpt lat="45.217" lon="5.73204">
        <ele>1014.5999755859</ele>
        <time>2021-10-28T04:15:45.000Z</time>
      </trkpt>
      <trkpt lat="45.21701" lon="5.73206">
        <ele>1014.799987793</ele>
        <time>2021-10-28T04:15:46.000Z</time>
      </trkpt>
      <trkpt lat="45.21704" lon="5.73211">
        <ele>1015</ele>
        <time>2021-10-28T04:15:50.000Z</time>
      </trkpt>
      <trkpt lat="45.2171" lon="5.73217">
        <ele>1015.5999755859</ele>
        <time>2021-10-28T04:15:54.000Z</time>
      </trkpt>
      <trkpt lat="45.21712" lon="5.73218">
        <ele>1015.5999755859</ele>
        <time>2021-10-28T04:15:55.000Z</time>
      </trkpt>
      <trkpt lat="45.21715" lon="5.7322">
        <ele>1016.200012207</ele>
        <time>2021-10-28T04:15:57.000Z</time>
      </trkpt>
      <trkpt lat="45.2172" lon="5.7322">
        <ele>1016.799987793</ele>
        <time>2021-10-28T04:16:00.000Z</time>
      </trkpt>
      <trkpt lat="45.21723" lon="5.7322">
        <ele>1017.799987793</ele>
        <time>2021-10-28T04:16:03.000Z</time>
      </trkpt>
      <trkpt lat="45.21726" lon="5.73216">
        <ele>1018.799987793</ele>
        <time>2021-10-28T04:16:07.000Z</time>
      </trkpt>
      <trkpt lat="45.21727" lon="5.73215">
        <ele>1019.4000244141</ele>
        <time>2021-10-28T04:16:08.000Z</time>
      </trkpt>
      <trkpt lat="45.21731" lon="5.7321">
        <ele>1020.4000244141</ele>
        <time>2021-10-28T04:16:12.000Z</time>
      </trkpt>
      <trkpt lat="45.21738" lon="5.73206">
        <ele>1021</ele>
        <time>2021-10-28T04:16:18.000Z</time>
      </trkpt>
      <trkpt lat="45.21739" lon="5.73205">
        <ele>1021</ele>
        <time>2021-10-28T04:16:20.000Z</time>
      </trkpt>
      <trkpt lat="45.21743" lon="5.73205">
        <ele>1020.5999755859</ele>
        <time>2021-10-28T04:16:23.000Z</time>
      </trkpt>
      <trkpt lat="45.21749" lon="5.7321">
        <ele>1020</ele>
        <time>2021-10-28T04:16:28.000Z</time>
      </trkpt>
      <trkpt lat="45.2175" lon="5.73212">
        <ele>1020</ele>
        <time>2021-10-28T04:16:29.000Z</time>
      </trkpt>
      <trkpt lat="45.21753" lon="5.73215">
        <ele>1020.4000244141</ele>
        <time>2021-10-28T04:16:32.000Z</time>
      </trkpt>
      <trkpt lat="45.21754" lon="5.73219">
        <ele>1021.5999755859</ele>
        <time>2021-10-28T04:16:34.000Z</time>
      </trkpt>
      <trkpt lat="45.21755" lon="5.73221">
        <ele>1022</ele>
        <time>2021-10-28T04:16:35.000Z</time>
      </trkpt>
      <trkpt lat="45.21756" lon="5.73222">
        <ele>1022.799987793</ele>
        <time>2021-10-28T04:16:37.000Z</time>
      </trkpt>
      <trkpt lat="45.21757" lon="5.73223">
        <ele>1023</ele>
        <time>2021-10-28T04:16:38.000Z</time>
      </trkpt>
      <trkpt lat="45.21758" lon="5.73223">
        <ele>1023.4000244141</ele>
        <time>2021-10-28T04:16:40.000Z</time>
      </trkpt>
      <trkpt lat="45.2176" lon="5.73225">
        <ele>1023.5999755859</ele>
        <time>2021-10-28T04:16:42.000Z</time>
      </trkpt>
      <trkpt lat="45.21762" lon="5.73229">
        <ele>1023.5999755859</ele>
        <time>2021-10-28T04:16:44.000Z</time>
      </trkpt>
      <trkpt lat="45.21765" lon="5.73234">
        <ele>1023.799987793</ele>
        <time>2021-10-28T04:16:47.000Z</time>
      </trkpt>
      <trkpt lat="45.21767" lon="5.73235">
        <ele>1024</ele>
        <time>2021-10-28T04:16:49.000Z</time>
      </trkpt>
      <trkpt lat="45.21768" lon="5.73236">
        <ele>1024</ele>
        <time>2021-10-28T04:16:51.000Z</time>
      </trkpt>
      <trkpt lat="45.21771" lon="5.73244">
        <ele>1023.799987793</ele>
        <time>2021-10-28T04:16:55.000Z</time>
      </trkpt>
      <trkpt lat="45.21775" lon="5.73254">
        <ele>1025</ele>
        <time>2021-10-28T04:17:00.000Z</time>
      </trkpt>
      <trkpt lat="45.21775" lon="5.7326">
        <ele>1025.4000244141</ele>
        <time>2021-10-28T04:17:02.000Z</time>
      </trkpt>
      <trkpt lat="45.21777" lon="5.73262">
        <ele>1026.4000244141</ele>
        <time>2021-10-28T04:17:04.000Z</time>
      </trkpt>
      <trkpt lat="45.21779" lon="5.73263">
        <ele>1026.5999755859</ele>
        <time>2021-10-28T04:17:05.000Z</time>
      </trkpt>
      <trkpt lat="45.21779" lon="5.73264">
        <ele>1026.8000488281</ele>
        <time>2021-10-28T04:17:06.000Z</time>
      </trkpt>
      <trkpt lat="45.2178" lon="5.73267">
        <ele>1027.4000244141</ele>
        <time>2021-10-28T04:17:08.000Z</time>
      </trkpt>
      <trkpt lat="45.21779" lon="5.73268">
        <ele>1027.5999755859</ele>
        <time>2021-10-28T04:17:09.000Z</time>
      </trkpt>
      <trkpt lat="45.21777" lon="5.73272">
        <ele>1028.1999511719</ele>
        <time>2021-10-28T04:17:12.000Z</time>
      </trkpt>
      <trkpt lat="45.2178" lon="5.73279">
        <ele>1028.8000488281</ele>
        <time>2021-10-28T04:17:16.000Z</time>
      </trkpt>
      <trkpt lat="45.2178" lon="5.73281">
        <ele>1028.8000488281</ele>
        <time>2021-10-28T04:17:17.000Z</time>
      </trkpt>
      <trkpt lat="45.21781" lon="5.73282">
        <ele>1029.5999755859</ele>
        <time>2021-10-28T04:17:19.000Z</time>
      </trkpt>
      <trkpt lat="45.21782" lon="5.73282">
        <ele>1030</ele>
        <time>2021-10-28T04:17:20.000Z</time>
      </trkpt>
      <trkpt lat="45.21784" lon="5.73284">
        <ele>1030.1999511719</ele>
        <time>2021-10-28T04:17:21.000Z</time>
      </trkpt>
      <trkpt lat="45.21788" lon="5.73289">
        <ele>1030.8000488281</ele>
        <time>2021-10-28T04:17:24.000Z</time>
      </trkpt>
      <trkpt lat="45.21789" lon="5.7329">
        <ele>1031.1999511719</ele>
        <time>2021-10-28T04:17:25.000Z</time>
      </trkpt>
      <trkpt lat="45.21791" lon="5.73291">
        <ele>1031.4000244141</ele>
        <time>2021-10-28T04:17:26.000Z</time>
      </trkpt>
      <trkpt lat="45.21794" lon="5.73294">
        <ele>1032.1999511719</ele>
        <time>2021-10-28T04:17:29.000Z</time>
      </trkpt>
      <trkpt lat="45.21797" lon="5.73298">
        <ele>1033</ele>
        <time>2021-10-28T04:17:32.000Z</time>
      </trkpt>
      <trkpt lat="45.21798" lon="5.73299">
        <ele>1033.1999511719</ele>
        <time>2021-10-28T04:17:33.000Z</time>
      </trkpt>
      <trkpt lat="45.21799" lon="5.733">
        <ele>1033.4000244141</ele>
        <time>2021-10-28T04:17:34.000Z</time>
      </trkpt>
      <trkpt lat="45.21801" lon="5.73306">
        <ele>1034</ele>
        <time>2021-10-28T04:17:37.000Z</time>
      </trkpt>
      <trkpt lat="45.21802" lon="5.73307">
        <ele>1034.4000244141</ele>
        <time>2021-10-28T04:17:38.000Z</time>
      </trkpt>
      <trkpt lat="45.21801" lon="5.73309">
        <ele>1034.5999755859</ele>
        <time>2021-10-28T04:17:39.000Z</time>
      </trkpt>
      <trkpt lat="45.21803" lon="5.7331">
        <ele>1035.1999511719</ele>
        <time>2021-10-28T04:17:41.000Z</time>
      </trkpt>
      <trkpt lat="45.21805" lon="5.73311">
        <ele>1035.4000244141</ele>
        <time>2021-10-28T04:17:42.000Z</time>
      </trkpt>
      <trkpt lat="45.21807" lon="5.73312">
        <ele>1035.5999755859</ele>
        <time>2021-10-28T04:17:43.000Z</time>
      </trkpt>
      <trkpt lat="45.2181" lon="5.73317">
        <ele>1036.4000244141</ele>
        <time>2021-10-28T04:17:46.000Z</time>
      </trkpt>
      <trkpt lat="45.2181" lon="5.73319">
        <ele>1036.5999755859</ele>
        <time>2021-10-28T04:17:47.000Z</time>
      </trkpt>
      <trkpt lat="45.21812" lon="5.7332">
        <ele>1037.1999511719</ele>
        <time>2021-10-28T04:17:48.000Z</time>
      </trkpt>
      <trkpt lat="45.21813" lon="5.73322">
        <ele>1037.5999755859</ele>
        <time>2021-10-28T04:17:49.000Z</time>
      </trkpt>
      <trkpt lat="45.21816" lon="5.73324">
        <ele>1038.1999511719</ele>
        <time>2021-10-28T04:17:51.000Z</time>
      </trkpt>
      <trkpt lat="45.21818" lon="5.73328">
        <ele>1038.8000488281</ele>
        <time>2021-10-28T04:17:53.000Z</time>
      </trkpt>
      <trkpt lat="45.21823" lon="5.73335">
        <ele>1039.8000488281</ele>
        <time>2021-10-28T04:17:57.000Z</time>
      </trkpt>
      <trkpt lat="45.21825" lon="5.73336">
        <ele>1040</ele>
        <time>2021-10-28T04:17:58.000Z</time>
      </trkpt>
      <trkpt lat="45.2184" lon="5.73347">
        <ele>1040.5999755859</ele>
        <time>2021-10-28T04:18:05.000Z</time>
      </trkpt>
      <trkpt lat="45.21841" lon="5.73348">
        <ele>1040.8000488281</ele>
        <time>2021-10-28T04:18:06.000Z</time>
      </trkpt>
      <trkpt lat="45.21842" lon="5.73349">
        <ele>1040.8000488281</ele>
        <time>2021-10-28T04:18:08.000Z</time>
      </trkpt>
      <trkpt lat="45.21841" lon="5.73349">
        <ele>1040.8000488281</ele>
        <time>2021-10-28T04:18:09.000Z</time>
      </trkpt>
      <trkpt lat="45.21842" lon="5.73351">
        <ele>1040.4000244141</ele>
        <time>2021-10-28T04:18:14.000Z</time>
      </trkpt>
      <trkpt lat="45.21842" lon="5.73354">
        <ele>1040.1999511719</ele>
        <time>2021-10-28T04:18:17.000Z</time>
      </trkpt>
      <trkpt lat="45.21842" lon="5.73356">
        <ele>1040.1999511719</ele>
        <time>2021-10-28T04:18:20.000Z</time>
      </trkpt>
      <trkpt lat="45.21843" lon="5.73358">
        <ele>1040.1999511719</ele>
        <time>2021-10-28T04:18:22.000Z</time>
      </trkpt>
      <trkpt lat="45.21844" lon="5.7336">
        <ele>1040</ele>
        <time>2021-10-28T04:18:28.000Z</time>
      </trkpt>
      <trkpt lat="45.21845" lon="5.73364">
        <ele>1039.8000488281</ele>
        <time>2021-10-28T04:18:36.000Z</time>
      </trkpt>
      <trkpt lat="45.21845" lon="5.73364">
        <ele>1040.1999511719</ele>
        <time>2021-10-28T04:18:42.000Z</time>
      </trkpt>
      <trkpt lat="45.21845" lon="5.73362">
        <ele>1040.1999511719</ele>
        <time>2021-10-28T04:18:50.000Z</time>
      </trkpt>
      <trkpt lat="45.21845" lon="5.73362">
        <ele>1040.1999511719</ele>
        <time>2021-10-28T04:18:52.000Z</time>
      </trkpt>
      <trkpt lat="45.21844" lon="5.73361">
        <ele>1040.1999511719</ele>
        <time>2021-10-28T04:18:58.000Z</time>
      </trkpt>
      <trkpt lat="45.21845" lon="5.73361">
        <ele>1040.1999511719</ele>
        <time>2021-10-28T04:19:02.000Z</time>
      </trkpt>
      <trkpt lat="45.21845" lon="5.73361">
        <ele>1040.1999511719</ele>
        <time>2021-10-28T04:19:05.000Z</time>
      </trkpt>
      <trkpt lat="45.21845" lon="5.73361">
        <ele>1040.1999511719</ele>
        <time>2021-10-28T04:19:07.000Z</time>
      </trkpt>
      <trkpt lat="45.21845" lon="5.7336">
        <ele>1040.1999511719</ele>
        <time>2021-10-28T04:19:10.000Z</time>
      </trkpt>
      <trkpt lat="45.21845" lon="5.7336">
        <ele>1040.1999511719</ele>
        <time>2021-10-28T04:19:13.000Z</time>
      </trkpt>
      <trkpt lat="45.21845" lon="5.7336">
        <ele>1040.1999511719</ele>
        <time>2021-10-28T04:19:15.000Z</time>
      </trkpt>
      <trkpt lat="45.21845" lon="5.7336">
        <ele>1040</ele>
        <time>2021-10-28T04:19:19.000Z</time>
      </trkpt>
      <trkpt lat="45.21845" lon="5.7336">
        <ele>1040</ele>
        <time>2021-10-28T04:19:21.000Z</time>
      </trkpt>
      <trkpt lat="45.21845" lon="5.73359">
        <ele>1040</ele>
        <time>2021-10-28T04:19:25.000Z</time>
      </trkpt>
      <trkpt lat="45.21845" lon="5.73358">
        <ele>1039.8000488281</ele>
        <time>2021-10-28T04:19:45.000Z</time>
      </trkpt>
      <trkpt lat="45.21845" lon="5.73358">
        <ele>1039.5999755859</ele>
        <time>2021-10-28T04:20:13.000Z</time>
      </trkpt>
      <trkpt lat="45.21845" lon="5.73358">
        <ele>1039.5999755859</ele>
        <time>2021-10-28T04:20:14.000Z</time>
      </trkpt>
      <trkpt lat="45.21845" lon="5.73358">
        <ele>1039</ele>
        <time>2021-10-28T04:20:22.000Z</time>
      </trkpt>
      <trkpt lat="45.21845" lon="5.73358">
        <ele>1039</ele>
        <time>2021-10-28T04:20:27.000Z</time>
      </trkpt>
      <trkpt lat="45.21845" lon="5.73358">
        <ele>1039</ele>
        <time>2021-10-28T04:20:28.000Z</time>
      </trkpt>
      <trkpt lat="45.21845" lon="5.73357">
        <ele>1039.1999511719</ele>
        <time>2021-10-28T04:20:32.000Z</time>
      </trkpt>
      <trkpt lat="45.21846" lon="5.73351">
        <ele>1039.1999511719</ele>
        <time>2021-10-28T04:20:36.000Z</time>
      </trkpt>
      <trkpt lat="45.21849" lon="5.73347">
        <ele>1039.5999755859</ele>
        <time>2021-10-28T04:20:42.000Z</time>
      </trkpt>
      <trkpt lat="45.21849" lon="5.73346">
        <ele>1039.5999755859</ele>
        <time>2021-10-28T04:20:45.000Z</time>
      </trkpt>
      <trkpt lat="45.21849" lon="5.73347">
        <ele>1039.5999755859</ele>
        <time>2021-10-28T04:20:47.000Z</time>
      </trkpt>
      <trkpt lat="45.21849" lon="5.73347">
        <ele>1039.5999755859</ele>
        <time>2021-10-28T04:21:02.000Z</time>
      </trkpt>
      <trkpt lat="45.21849" lon="5.73347">
        <ele>1038.8000488281</ele>
        <time>2021-10-28T04:21:16.000Z</time>
      </trkpt>
      <trkpt lat="45.21843" lon="5.7334">
        <ele>1038.8000488281</ele>
        <time>2021-10-28T04:21:25.000Z</time>
      </trkpt>
      <trkpt lat="45.2184" lon="5.73338">
        <ele>1038.8000488281</ele>
        <time>2021-10-28T04:21:28.000Z</time>
      </trkpt>
      <trkpt lat="45.2184" lon="5.73337">
        <ele>1038.8000488281</ele>
        <time>2021-10-28T04:21:29.000Z</time>
      </trkpt>
      <trkpt lat="45.21838" lon="5.73334">
        <ele>1038.8000488281</ele>
        <time>2021-10-28T04:21:32.000Z</time>
      </trkpt>
      <trkpt lat="45.21837" lon="5.73334">
        <ele>1038.5999755859</ele>
        <time>2021-10-28T04:21:33.000Z</time>
      </trkpt>
      <trkpt lat="45.21834" lon="5.73329">
        <ele>1038</ele>
        <time>2021-10-28T04:21:38.000Z</time>
      </trkpt>
      <trkpt lat="45.21832" lon="5.73327">
        <ele>1037.5999755859</ele>
        <time>2021-10-28T04:21:40.000Z</time>
      </trkpt>
      <trkpt lat="45.21829" lon="5.73322">
        <ele>1037</ele>
        <time>2021-10-28T04:21:44.000Z</time>
      </trkpt>
      <trkpt lat="45.21828" lon="5.73321">
        <ele>1037</ele>
        <time>2021-10-28T04:21:45.000Z</time>
      </trkpt>
      <trkpt lat="45.21827" lon="5.7332">
        <ele>1036.5999755859</ele>
        <time>2021-10-28T04:21:47.000Z</time>
      </trkpt>
      <trkpt lat="45.21824" lon="5.73316">
        <ele>1035.8000488281</ele>
        <time>2021-10-28T04:21:51.000Z</time>
      </trkpt>
      <trkpt lat="45.21822" lon="5.73315">
        <ele>1035.4000244141</ele>
        <time>2021-10-28T04:21:52.000Z</time>
      </trkpt>
      <trkpt lat="45.21819" lon="5.73312">
        <ele>1034.8000488281</ele>
        <time>2021-10-28T04:21:54.000Z</time>
      </trkpt>
      <trkpt lat="45.21816" lon="5.73311">
        <ele>1034.1999511719</ele>
        <time>2021-10-28T04:21:56.000Z</time>
      </trkpt>
      <trkpt lat="45.21815" lon="5.7331">
        <ele>1033.8000488281</ele>
        <time>2021-10-28T04:21:57.000Z</time>
      </trkpt>
      <trkpt lat="45.21812" lon="5.73306">
        <ele>1033.4000244141</ele>
        <time>2021-10-28T04:21:59.000Z</time>
      </trkpt>
      <trkpt lat="45.2181" lon="5.73304">
        <ele>1033</ele>
        <time>2021-10-28T04:22:00.000Z</time>
      </trkpt>
      <trkpt lat="45.21806" lon="5.73299">
        <ele>1032.5999755859</ele>
        <time>2021-10-28T04:22:02.000Z</time>
      </trkpt>
      <trkpt lat="45.21802" lon="5.73297">
        <ele>1032</ele>
        <time>2021-10-28T04:22:04.000Z</time>
      </trkpt>
      <trkpt lat="45.21796" lon="5.7329">
        <ele>1031</ele>
        <time>2021-10-28T04:22:08.000Z</time>
      </trkpt>
      <trkpt lat="45.21792" lon="5.73286">
        <ele>1030.1999511719</ele>
        <time>2021-10-28T04:22:11.000Z</time>
      </trkpt>
      <trkpt lat="45.21789" lon="5.73283">
        <ele>1029.5999755859</ele>
        <time>2021-10-28T04:22:13.000Z</time>
      </trkpt>
      <trkpt lat="45.21787" lon="5.7328">
        <ele>1029</ele>
        <time>2021-10-28T04:22:15.000Z</time>
      </trkpt>
      <trkpt lat="45.21787" lon="5.73279">
        <ele>1028.4000244141</ele>
        <time>2021-10-28T04:22:16.000Z</time>
      </trkpt>
      <trkpt lat="45.21782" lon="5.73276">
        <ele>1027.4000244141</ele>
        <time>2021-10-28T04:22:20.000Z</time>
      </trkpt>
      <trkpt lat="45.21781" lon="5.73273">
        <ele>1027.1999511719</ele>
        <time>2021-10-28T04:22:21.000Z</time>
      </trkpt>
      <trkpt lat="45.21782" lon="5.73267">
        <ele>1027</ele>
        <time>2021-10-28T04:22:23.000Z</time>
      </trkpt>
      <trkpt lat="45.21784" lon="5.73264">
        <ele>1026.4000244141</ele>
        <time>2021-10-28T04:22:25.000Z</time>
      </trkpt>
      <trkpt lat="45.21784" lon="5.73262">
        <ele>1026.1999511719</ele>
        <time>2021-10-28T04:22:26.000Z</time>
      </trkpt>
      <trkpt lat="45.21784" lon="5.7326">
        <ele>1026</ele>
        <time>2021-10-28T04:22:27.000Z</time>
      </trkpt>
      <trkpt lat="45.21782" lon="5.73258">
        <ele>1025.4000244141</ele>
        <time>2021-10-28T04:22:29.000Z</time>
      </trkpt>
      <trkpt lat="45.21781" lon="5.73257">
        <ele>1025.1999511719</ele>
        <time>2021-10-28T04:22:30.000Z</time>
      </trkpt>
      <trkpt lat="45.21781" lon="5.73256">
        <ele>1025</ele>
        <time>2021-10-28T04:22:31.000Z</time>
      </trkpt>
      <trkpt lat="45.21779" lon="5.73251">
        <ele>1024.1999511719</ele>
        <time>2021-10-28T04:22:33.000Z</time>
      </trkpt>
      <trkpt lat="45.21777" lon="5.73246">
        <ele>1023.4000244141</ele>
        <time>2021-10-28T04:22:35.000Z</time>
      </trkpt>
      <trkpt lat="45.21776" lon="5.73244">
        <ele>1023</ele>
        <time>2021-10-28T04:22:36.000Z</time>
      </trkpt>
      <trkpt lat="45.21776" lon="5.73243">
        <ele>1022.799987793</ele>
        <time>2021-10-28T04:22:37.000Z</time>
      </trkpt>
      <trkpt lat="45.21772" lon="5.73236">
        <ele>1022</ele>
        <time>2021-10-28T04:22:40.000Z</time>
      </trkpt>
      <trkpt lat="45.2177" lon="5.73235">
        <ele>1021.799987793</ele>
        <time>2021-10-28T04:22:41.000Z</time>
      </trkpt>
      <trkpt lat="45.21764" lon="5.73231">
        <ele>1021.4000244141</ele>
        <time>2021-10-28T04:22:45.000Z</time>
      </trkpt>
      <trkpt lat="45.21763" lon="5.73229">
        <ele>1021.4000244141</ele>
        <time>2021-10-28T04:22:47.000Z</time>
      </trkpt>
      <trkpt lat="45.21762" lon="5.73226">
        <ele>1021.4000244141</ele>
        <time>2021-10-28T04:22:49.000Z</time>
      </trkpt>
      <trkpt lat="45.2176" lon="5.73225">
        <ele>1021.4000244141</ele>
        <time>2021-10-28T04:22:51.000Z</time>
      </trkpt>
      <trkpt lat="45.21759" lon="5.73225">
        <ele>1021.200012207</ele>
        <time>2021-10-28T04:22:52.000Z</time>
      </trkpt>
      <trkpt lat="45.21757" lon="5.73224">
        <ele>1021.200012207</ele>
        <time>2021-10-28T04:22:54.000Z</time>
      </trkpt>
      <trkpt lat="45.21757" lon="5.73222">
        <ele>1020.799987793</ele>
        <time>2021-10-28T04:22:55.000Z</time>
      </trkpt>
      <trkpt lat="45.21757" lon="5.73219">
        <ele>1020</ele>
        <time>2021-10-28T04:22:58.000Z</time>
      </trkpt>
      <trkpt lat="45.21756" lon="5.73218">
        <ele>1019.799987793</ele>
        <time>2021-10-28T04:22:59.000Z</time>
      </trkpt>
      <trkpt lat="45.21756" lon="5.73217">
        <ele>1019.4000244141</ele>
        <time>2021-10-28T04:23:00.000Z</time>
      </trkpt>
      <trkpt lat="45.21755" lon="5.73214">
        <ele>1018.5999755859</ele>
        <time>2021-10-28T04:23:03.000Z</time>
      </trkpt>
      <trkpt lat="45.21754" lon="5.73213">
        <ele>1018</ele>
        <time>2021-10-28T04:23:04.000Z</time>
      </trkpt>
      <trkpt lat="45.21746" lon="5.73207">
        <ele>1017.4000244141</ele>
        <time>2021-10-28T04:23:09.000Z</time>
      </trkpt>
      <trkpt lat="45.21745" lon="5.73207">
        <ele>1017.5999755859</ele>
        <time>2021-10-28T04:23:10.000Z</time>
      </trkpt>
      <trkpt lat="45.21743" lon="5.73209">
        <ele>1018</ele>
        <time>2021-10-28T04:23:12.000Z</time>
      </trkpt>
      <trkpt lat="45.21742" lon="5.7321">
        <ele>1018.4000244141</ele>
        <time>2021-10-28T04:23:13.000Z</time>
      </trkpt>
      <trkpt lat="45.2174" lon="5.7321">
        <ele>1018.5999755859</ele>
        <time>2021-10-28T04:23:14.000Z</time>
      </trkpt>
      <trkpt lat="45.21738" lon="5.7321">
        <ele>1018.799987793</ele>
        <time>2021-10-28T04:23:16.000Z</time>
      </trkpt>
      <trkpt lat="45.21735" lon="5.73212">
        <ele>1018.5999755859</ele>
        <time>2021-10-28T04:23:18.000Z</time>
      </trkpt>
      <trkpt lat="45.21732" lon="5.73216">
        <ele>1018</ele>
        <time>2021-10-28T04:23:23.000Z</time>
      </trkpt>
      <trkpt lat="45.21731" lon="5.73219">
        <ele>1016.799987793</ele>
        <time>2021-10-28T04:23:26.000Z</time>
      </trkpt>
      <trkpt lat="45.21728" lon="5.7322">
        <ele>1016</ele>
        <time>2021-10-28T04:23:29.000Z</time>
      </trkpt>
      <trkpt lat="45.21728" lon="5.7322">
        <ele>1015.799987793</ele>
        <time>2021-10-28T04:23:30.000Z</time>
      </trkpt>
      <trkpt lat="45.21727" lon="5.7322">
        <ele>1015.5999755859</ele>
        <time>2021-10-28T04:23:31.000Z</time>
      </trkpt>
      <trkpt lat="45.21724" lon="5.7322">
        <ele>1015</ele>
        <time>2021-10-28T04:23:33.000Z</time>
      </trkpt>
      <trkpt lat="45.21723" lon="5.73219">
        <ele>1014.5999755859</ele>
        <time>2021-10-28T04:23:34.000Z</time>
      </trkpt>
      <trkpt lat="45.21722" lon="5.73217">
        <ele>1014.200012207</ele>
        <time>2021-10-28T04:23:35.000Z</time>
      </trkpt>
      <trkpt lat="45.21719" lon="5.73213">
        <ele>1013.4000244141</ele>
        <time>2021-10-28T04:23:37.000Z</time>
      </trkpt>
      <trkpt lat="45.21717" lon="5.73211">
        <ele>1013.200012207</ele>
        <time>2021-10-28T04:23:38.000Z</time>
      </trkpt>
      <trkpt lat="45.2171" lon="5.73203">
        <ele>1012.4000244141</ele>
        <time>2021-10-28T04:23:42.000Z</time>
      </trkpt>
      <trkpt lat="45.21708" lon="5.73199">
        <ele>1012.200012207</ele>
        <time>2021-10-28T04:23:44.000Z</time>
      </trkpt>
      <trkpt lat="45.21698" lon="5.73186">
        <ele>1011.4000244141</ele>
        <time>2021-10-28T04:23:50.000Z</time>
      </trkpt>
      <trkpt lat="45.21696" lon="5.73182">
        <ele>1011.200012207</ele>
        <time>2021-10-28T04:23:52.000Z</time>
      </trkpt>
      <trkpt lat="45.21693" lon="5.73177">
        <ele>1010.5999755859</ele>
        <time>2021-10-28T04:23:55.000Z</time>
      </trkpt>
      <trkpt lat="45.21691" lon="5.73174">
        <ele>1010</ele>
        <time>2021-10-28T04:23:57.000Z</time>
      </trkpt>
      <trkpt lat="45.2169" lon="5.73173">
        <ele>1009.5999755859</ele>
        <time>2021-10-28T04:23:58.000Z</time>
      </trkpt>
      <trkpt lat="45.21687" lon="5.73171">
        <ele>1008.799987793</ele>
        <time>2021-10-28T04:24:00.000Z</time>
      </trkpt>
      <trkpt lat="45.21685" lon="5.73168">
        <ele>1007.799987793</ele>
        <time>2021-10-28T04:24:03.000Z</time>
      </trkpt>
      <trkpt lat="45.21684" lon="5.73168">
        <ele>1007.4000244141</ele>
        <time>2021-10-28T04:24:04.000Z</time>
      </trkpt>
      <trkpt lat="45.21682" lon="5.73163">
        <ele>1006.4000244141</ele>
        <time>2021-10-28T04:24:08.000Z</time>
      </trkpt>
      <trkpt lat="45.2168" lon="5.73158">
        <ele>1005.4000244141</ele>
        <time>2021-10-28T04:24:11.000Z</time>
      </trkpt>
      <trkpt lat="45.21678" lon="5.73156">
        <ele>1004.4000244141</ele>
        <time>2021-10-28T04:24:13.000Z</time>
      </trkpt>
      <trkpt lat="45.21678" lon="5.73155">
        <ele>1004</ele>
        <time>2021-10-28T04:24:14.000Z</time>
      </trkpt>
      <trkpt lat="45.21674" lon="5.7315">
        <ele>1002.799987793</ele>
        <time>2021-10-28T04:24:18.000Z</time>
      </trkpt>
      <trkpt lat="45.21674" lon="5.73149">
        <ele>1002.4000244141</ele>
        <time>2021-10-28T04:24:19.000Z</time>
      </trkpt>
      <trkpt lat="45.21671" lon="5.73146">
        <ele>1001.4000244141</ele>
        <time>2021-10-28T04:24:22.000Z</time>
      </trkpt>
      <trkpt lat="45.2167" lon="5.73146">
        <ele>1001</ele>
        <time>2021-10-28T04:24:23.000Z</time>
      </trkpt>
      <trkpt lat="45.21668" lon="5.73146">
        <ele>1000.200012207</ele>
        <time>2021-10-28T04:24:25.000Z</time>
      </trkpt>
      <trkpt lat="45.21667" lon="5.73145">
        <ele>999.79998779297</ele>
        <time>2021-10-28T04:24:26.000Z</time>
      </trkpt>
      <trkpt lat="45.21665" lon="5.73144">
        <ele>999.20001220703</ele>
        <time>2021-10-28T04:24:29.000Z</time>
      </trkpt>
      <trkpt lat="45.21664" lon="5.73143">
        <ele>998.20001220703</ele>
        <time>2021-10-28T04:24:31.000Z</time>
      </trkpt>
      <trkpt lat="45.21662" lon="5.73141">
        <ele>997.40002441406</ele>
        <time>2021-10-28T04:24:33.000Z</time>
      </trkpt>
      <trkpt lat="45.21661" lon="5.7314">
        <ele>997</ele>
        <time>2021-10-28T04:24:34.000Z</time>
      </trkpt>
      <trkpt lat="45.21657" lon="5.7314">
        <ele>995.59997558594</ele>
        <time>2021-10-28T04:24:38.000Z</time>
      </trkpt>
      <trkpt lat="45.21656" lon="5.7314">
        <ele>995.20001220703</ele>
        <time>2021-10-28T04:24:39.000Z</time>
      </trkpt>
      <trkpt lat="45.21652" lon="5.73139">
        <ele>994</ele>
        <time>2021-10-28T04:24:41.000Z</time>
      </trkpt>
      <trkpt lat="45.2165" lon="5.73139">
        <ele>993.79998779297</ele>
        <time>2021-10-28T04:24:42.000Z</time>
      </trkpt>
      <trkpt lat="45.21647" lon="5.7314">
        <ele>993</ele>
        <time>2021-10-28T04:24:44.000Z</time>
      </trkpt>
      <trkpt lat="45.21646" lon="5.7314">
        <ele>992.59997558594</ele>
        <time>2021-10-28T04:24:45.000Z</time>
      </trkpt>
      <trkpt lat="45.21643" lon="5.73139">
        <ele>992</ele>
        <time>2021-10-28T04:24:47.000Z</time>
      </trkpt>
      <trkpt lat="45.21642" lon="5.7314">
        <ele>991.59997558594</ele>
        <time>2021-10-28T04:24:48.000Z</time>
      </trkpt>
      <trkpt lat="45.21641" lon="5.7314">
        <ele>990.79998779297</ele>
        <time>2021-10-28T04:24:50.000Z</time>
      </trkpt>
      <trkpt lat="45.2164" lon="5.73139">
        <ele>990.59997558594</ele>
        <time>2021-10-28T04:24:51.000Z</time>
      </trkpt>
      <trkpt lat="45.21639" lon="5.73139">
        <ele>990.40002441406</ele>
        <time>2021-10-28T04:24:52.000Z</time>
      </trkpt>
      <trkpt lat="45.21637" lon="5.7314">
        <ele>989.59997558594</ele>
        <time>2021-10-28T04:24:54.000Z</time>
      </trkpt>
      <trkpt lat="45.21635" lon="5.7314">
        <ele>988.40002441406</ele>
        <time>2021-10-28T04:24:56.000Z</time>
      </trkpt>
      <trkpt lat="45.21631" lon="5.7314">
        <ele>987.79998779297</ele>
        <time>2021-10-28T04:24:58.000Z</time>
      </trkpt>
      <trkpt lat="45.21629" lon="5.7314">
        <ele>987.20001220703</ele>
        <time>2021-10-28T04:24:59.000Z</time>
      </trkpt>
      <trkpt lat="45.21623" lon="5.73138">
        <ele>985.79998779297</ele>
        <time>2021-10-28T04:25:02.000Z</time>
      </trkpt>
      <trkpt lat="45.21619" lon="5.73136">
        <ele>985.20001220703</ele>
        <time>2021-10-28T04:25:04.000Z</time>
      </trkpt>
      <trkpt lat="45.21617" lon="5.73134">
        <ele>984.59997558594</ele>
        <time>2021-10-28T04:25:05.000Z</time>
      </trkpt>
      <trkpt lat="45.21611" lon="5.73131">
        <ele>983.40002441406</ele>
        <time>2021-10-28T04:25:08.000Z</time>
      </trkpt>
      <trkpt lat="45.21603" lon="5.73128">
        <ele>982.40002441406</ele>
        <time>2021-10-28T04:25:11.000Z</time>
      </trkpt>
      <trkpt lat="45.21598" lon="5.73124">
        <ele>981.40002441406</ele>
        <time>2021-10-28T04:25:13.000Z</time>
      </trkpt>
      <trkpt lat="45.21596" lon="5.73122">
        <ele>980.79998779297</ele>
        <time>2021-10-28T04:25:14.000Z</time>
      </trkpt>
      <trkpt lat="45.21592" lon="5.7312">
        <ele>980</ele>
        <time>2021-10-28T04:25:16.000Z</time>
      </trkpt>
      <trkpt lat="45.21591" lon="5.73121">
        <ele>979.79998779297</ele>
        <time>2021-10-28T04:25:17.000Z</time>
      </trkpt>
      <trkpt lat="45.21589" lon="5.73122">
        <ele>979.59997558594</ele>
        <time>2021-10-28T04:25:18.000Z</time>
      </trkpt>
      <trkpt lat="45.21587" lon="5.73124">
        <ele>978.79998779297</ele>
        <time>2021-10-28T04:25:20.000Z</time>
      </trkpt>
      <trkpt lat="45.21585" lon="5.73125">
        <ele>978.20001220703</ele>
        <time>2021-10-28T04:25:21.000Z</time>
      </trkpt>
      <trkpt lat="45.21583" lon="5.73126">
        <ele>977.59997558594</ele>
        <time>2021-10-28T04:25:22.000Z</time>
      </trkpt>
      <trkpt lat="45.21582" lon="5.73127">
        <ele>977.20001220703</ele>
        <time>2021-10-28T04:25:23.000Z</time>
      </trkpt>
      <trkpt lat="45.21581" lon="5.73129">
        <ele>976.79998779297</ele>
        <time>2021-10-28T04:25:25.000Z</time>
      </trkpt>
      <trkpt lat="45.21581" lon="5.7313">
        <ele>976.20001220703</ele>
        <time>2021-10-28T04:25:26.000Z</time>
      </trkpt>
      <trkpt lat="45.21583" lon="5.73133">
        <ele>975.40002441406</ele>
        <time>2021-10-28T04:25:28.000Z</time>
      </trkpt>
      <trkpt lat="45.21583" lon="5.73134">
        <ele>975</ele>
        <time>2021-10-28T04:25:29.000Z</time>
      </trkpt>
      <trkpt lat="45.21584" lon="5.7314">
        <ele>974</ele>
        <time>2021-10-28T04:25:32.000Z</time>
      </trkpt>
      <trkpt lat="45.21584" lon="5.73141">
        <ele>973.20001220703</ele>
        <time>2021-10-28T04:25:33.000Z</time>
      </trkpt>
      <trkpt lat="45.21582" lon="5.73143">
        <ele>971.79998779297</ele>
        <time>2021-10-28T04:25:36.000Z</time>
      </trkpt>
      <trkpt lat="45.21581" lon="5.73144">
        <ele>971.40002441406</ele>
        <time>2021-10-28T04:25:37.000Z</time>
      </trkpt>
      <trkpt lat="45.21579" lon="5.73145">
        <ele>970.79998779297</ele>
        <time>2021-10-28T04:25:39.000Z</time>
      </trkpt>
      <trkpt lat="45.21578" lon="5.73149">
        <ele>969.59997558594</ele>
        <time>2021-10-28T04:25:42.000Z</time>
      </trkpt>
      <trkpt lat="45.21577" lon="5.7315">
        <ele>969</ele>
        <time>2021-10-28T04:25:43.000Z</time>
      </trkpt>
      <trkpt lat="45.21576" lon="5.73152">
        <ele>968.40002441406</ele>
        <time>2021-10-28T04:25:45.000Z</time>
      </trkpt>
      <trkpt lat="45.21576" lon="5.73156">
        <ele>967</ele>
        <time>2021-10-28T04:25:48.000Z</time>
      </trkpt>
      <trkpt lat="45.21575" lon="5.73158">
        <ele>966.40002441406</ele>
        <time>2021-10-28T04:25:50.000Z</time>
      </trkpt>
      <trkpt lat="45.21573" lon="5.73158">
        <ele>965.59997558594</ele>
        <time>2021-10-28T04:25:51.000Z</time>
      </trkpt>
      <trkpt lat="45.21572" lon="5.73159">
        <ele>965.40002441406</ele>
        <time>2021-10-28T04:25:52.000Z</time>
      </trkpt>
      <trkpt lat="45.2157" lon="5.7316">
        <ele>964.20001220703</ele>
        <time>2021-10-28T04:25:54.000Z</time>
      </trkpt>
      <trkpt lat="45.2157" lon="5.73162">
        <ele>963.40002441406</ele>
        <time>2021-10-28T04:25:56.000Z</time>
      </trkpt>
      <trkpt lat="45.2157" lon="5.73164">
        <ele>963</ele>
        <time>2021-10-28T04:25:57.000Z</time>
      </trkpt>
      <trkpt lat="45.2157" lon="5.73166">
        <ele>962.59997558594</ele>
        <time>2021-10-28T04:25:58.000Z</time>
      </trkpt>
      <trkpt lat="45.21571" lon="5.73169">
        <ele>961.59997558594</ele>
        <time>2021-10-28T04:26:00.000Z</time>
      </trkpt>
      <trkpt lat="45.21571" lon="5.73171">
        <ele>961</ele>
        <time>2021-10-28T04:26:02.000Z</time>
      </trkpt>
      <trkpt lat="45.21572" lon="5.73173">
        <ele>960.40002441406</ele>
        <time>2021-10-28T04:26:04.000Z</time>
      </trkpt>
      <trkpt lat="45.21573" lon="5.73178">
        <ele>959.20001220703</ele>
        <time>2021-10-28T04:26:07.000Z</time>
      </trkpt>
      <trkpt lat="45.21574" lon="5.7318">
        <ele>958.40002441406</ele>
        <time>2021-10-28T04:26:09.000Z</time>
      </trkpt>
      <trkpt lat="45.21575" lon="5.73181">
        <ele>958</ele>
        <time>2021-10-28T04:26:10.000Z</time>
      </trkpt>
      <trkpt lat="45.21577" lon="5.73186">
        <ele>956.59997558594</ele>
        <time>2021-10-28T04:26:13.000Z</time>
      </trkpt>
      <trkpt lat="45.21582" lon="5.73191">
        <ele>955.59997558594</ele>
        <time>2021-10-28T04:26:16.000Z</time>
      </trkpt>
      <trkpt lat="45.21584" lon="5.73193">
        <ele>955.20001220703</ele>
        <time>2021-10-28T04:26:17.000Z</time>
      </trkpt>
      <trkpt lat="45.21589" lon="5.732">
        <ele>954.20001220703</ele>
        <time>2021-10-28T04:26:20.000Z</time>
      </trkpt>
      <trkpt lat="45.21595" lon="5.7321">
        <ele>953</ele>
        <time>2021-10-28T04:26:24.000Z</time>
      </trkpt>
      <trkpt lat="45.21598" lon="5.73215">
        <ele>952.40002441406</ele>
        <time>2021-10-28T04:26:26.000Z</time>
      </trkpt>
      <trkpt lat="45.216" lon="5.73218">
        <ele>951.79998779297</ele>
        <time>2021-10-28T04:26:28.000Z</time>
      </trkpt>
      <trkpt lat="45.21604" lon="5.73225">
        <ele>950.79998779297</ele>
        <time>2021-10-28T04:26:32.000Z</time>
      </trkpt>
      <trkpt lat="45.21608" lon="5.7323">
        <ele>949.59997558594</ele>
        <time>2021-10-28T04:26:35.000Z</time>
      </trkpt>
      <trkpt lat="45.21612" lon="5.73234">
        <ele>948.20001220703</ele>
        <time>2021-10-28T04:26:38.000Z</time>
      </trkpt>
      <trkpt lat="45.21614" lon="5.73238">
        <ele>947.20001220703</ele>
        <time>2021-10-28T04:26:41.000Z</time>
      </trkpt>
      <trkpt lat="45.21615" lon="5.7324">
        <ele>946.79998779297</ele>
        <time>2021-10-28T04:26:42.000Z</time>
      </trkpt>
      <trkpt lat="45.21618" lon="5.73245">
        <ele>946</ele>
        <time>2021-10-28T04:26:45.000Z</time>
      </trkpt>
      <trkpt lat="45.21621" lon="5.7325">
        <ele>944.79998779297</ele>
        <time>2021-10-28T04:26:47.000Z</time>
      </trkpt>
      <trkpt lat="45.21625" lon="5.73256">
        <ele>943.59997558594</ele>
        <time>2021-10-28T04:26:50.000Z</time>
      </trkpt>
      <trkpt lat="45.21628" lon="5.73262">
        <ele>942.40002441406</ele>
        <time>2021-10-28T04:26:53.000Z</time>
      </trkpt>
      <trkpt lat="45.21634" lon="5.73271">
        <ele>941.20001220703</ele>
        <time>2021-10-28T04:26:57.000Z</time>
      </trkpt>
      <trkpt lat="45.21638" lon="5.73279">
        <ele>940.20001220703</ele>
        <time>2021-10-28T04:27:00.000Z</time>
      </trkpt>
      <trkpt lat="45.21644" lon="5.73294">
        <ele>938.79998779297</ele>
        <time>2021-10-28T04:27:05.000Z</time>
      </trkpt>
      <trkpt lat="45.21645" lon="5.73297">
        <ele>938.40002441406</ele>
        <time>2021-10-28T04:27:06.000Z</time>
      </trkpt>
      <trkpt lat="45.21646" lon="5.73303">
        <ele>937.59997558594</ele>
        <time>2021-10-28T04:27:08.000Z</time>
      </trkpt>
      <trkpt lat="45.21648" lon="5.73312">
        <ele>936.59997558594</ele>
        <time>2021-10-28T04:27:11.000Z</time>
      </trkpt>
      <trkpt lat="45.21648" lon="5.73314">
        <ele>936.40002441406</ele>
        <time>2021-10-28T04:27:12.000Z</time>
      </trkpt>
      <trkpt lat="45.21649" lon="5.73319">
        <ele>935.59997558594</ele>
        <time>2021-10-28T04:27:14.000Z</time>
      </trkpt>
      <trkpt lat="45.21651" lon="5.73326">
        <ele>934.20001220703</ele>
        <time>2021-10-28T04:27:17.000Z</time>
      </trkpt>
      <trkpt lat="45.21652" lon="5.73329">
        <ele>933</ele>
        <time>2021-10-28T04:27:20.000Z</time>
      </trkpt>
      <trkpt lat="45.21654" lon="5.73334">
        <ele>932.40002441406</ele>
        <time>2021-10-28T04:27:22.000Z</time>
      </trkpt>
      <trkpt lat="45.21655" lon="5.73338">
        <ele>931.40002441406</ele>
        <time>2021-10-28T04:27:24.000Z</time>
      </trkpt>
      <trkpt lat="45.21658" lon="5.73344">
        <ele>930.20001220703</ele>
        <time>2021-10-28T04:27:27.000Z</time>
      </trkpt>
      <trkpt lat="45.21659" lon="5.73345">
        <ele>929.40002441406</ele>
        <time>2021-10-28T04:27:28.000Z</time>
      </trkpt>
      <trkpt lat="45.2166" lon="5.73347">
        <ele>929.20001220703</ele>
        <time>2021-10-28T04:27:29.000Z</time>
      </trkpt>
      <trkpt lat="45.21662" lon="5.7335">
        <ele>928.20001220703</ele>
        <time>2021-10-28T04:27:31.000Z</time>
      </trkpt>
      <trkpt lat="45.21663" lon="5.73352">
        <ele>927.79998779297</ele>
        <time>2021-10-28T04:27:32.000Z</time>
      </trkpt>
      <trkpt lat="45.21664" lon="5.73357">
        <ele>926.40002441406</ele>
        <time>2021-10-28T04:27:34.000Z</time>
      </trkpt>
      <trkpt lat="45.21664" lon="5.73363">
        <ele>925.20001220703</ele>
        <time>2021-10-28T04:27:37.000Z</time>
      </trkpt>
      <trkpt lat="45.21665" lon="5.73368">
        <ele>924.20001220703</ele>
        <time>2021-10-28T04:27:39.000Z</time>
      </trkpt>
      <trkpt lat="45.21666" lon="5.73377">
        <ele>922.79998779297</ele>
        <time>2021-10-28T04:27:42.000Z</time>
      </trkpt>
      <trkpt lat="45.21666" lon="5.73381">
        <ele>921.79998779297</ele>
        <time>2021-10-28T04:27:44.000Z</time>
      </trkpt>
      <trkpt lat="45.21666" lon="5.73383">
        <ele>921.20001220703</ele>
        <time>2021-10-28T04:27:45.000Z</time>
      </trkpt>
      <trkpt lat="45.21666" lon="5.7339">
        <ele>919.79998779297</ele>
        <time>2021-10-28T04:27:49.000Z</time>
      </trkpt>
      <trkpt lat="45.21668" lon="5.73396">
        <ele>918.59997558594</ele>
        <time>2021-10-28T04:27:51.000Z</time>
      </trkpt>
      <trkpt lat="45.2167" lon="5.73402">
        <ele>917.59997558594</ele>
        <time>2021-10-28T04:27:53.000Z</time>
      </trkpt>
      <trkpt lat="45.21671" lon="5.73405">
        <ele>917.20001220703</ele>
        <time>2021-10-28T04:27:54.000Z</time>
      </trkpt>
      <trkpt lat="45.21671" lon="5.73408">
        <ele>917</ele>
        <time>2021-10-28T04:27:55.000Z</time>
      </trkpt>
      <trkpt lat="45.21672" lon="5.73411">
        <ele>916</ele>
        <time>2021-10-28T04:27:57.000Z</time>
      </trkpt>
      <trkpt lat="45.21673" lon="5.7342">
        <ele>914.59997558594</ele>
        <time>2021-10-28T04:28:00.000Z</time>
      </trkpt>
      <trkpt lat="45.21673" lon="5.73424">
        <ele>914</ele>
        <time>2021-10-28T04:28:01.000Z</time>
      </trkpt>
      <trkpt lat="45.21673" lon="5.73427">
        <ele>913.59997558594</ele>
        <time>2021-10-28T04:28:02.000Z</time>
      </trkpt>
      <trkpt lat="45.21673" lon="5.73439">
        <ele>912.40002441406</ele>
        <time>2021-10-28T04:28:05.000Z</time>
      </trkpt>
      <trkpt lat="45.21673" lon="5.73443">
        <ele>911.59997558594</ele>
        <time>2021-10-28T04:28:06.000Z</time>
      </trkpt>
      <trkpt lat="45.21673" lon="5.73447">
        <ele>911</ele>
        <time>2021-10-28T04:28:07.000Z</time>
      </trkpt>
      <trkpt lat="45.21673" lon="5.73464">
        <ele>909.59997558594</ele>
        <time>2021-10-28T04:28:11.000Z</time>
      </trkpt>
      <trkpt lat="45.21673" lon="5.7347">
        <ele>908.79998779297</ele>
        <time>2021-10-28T04:28:13.000Z</time>
      </trkpt>
      <trkpt lat="45.21674" lon="5.73472">
        <ele>908.40002441406</ele>
        <time>2021-10-28T04:28:14.000Z</time>
      </trkpt>
      <trkpt lat="45.21675" lon="5.73475">
        <ele>908</ele>
        <time>2021-10-28T04:28:16.000Z</time>
      </trkpt>
      <trkpt lat="45.21676" lon="5.73476">
        <ele>908</ele>
        <time>2021-10-28T04:28:17.000Z</time>
      </trkpt>
      <trkpt lat="45.21676" lon="5.73478">
        <ele>907.59997558594</ele>
        <time>2021-10-28T04:28:18.000Z</time>
      </trkpt>
      <trkpt lat="45.21674" lon="5.73478">
        <ele>907.20001220703</ele>
        <time>2021-10-28T04:28:19.000Z</time>
      </trkpt>
      <trkpt lat="45.21671" lon="5.73476">
        <ele>906.40002441406</ele>
        <time>2021-10-28T04:28:21.000Z</time>
      </trkpt>
      <trkpt lat="45.2167" lon="5.73473">
        <ele>906.20001220703</ele>
        <time>2021-10-28T04:28:22.000Z</time>
      </trkpt>
      <trkpt lat="45.21666" lon="5.73459">
        <ele>904.79998779297</ele>
        <time>2021-10-28T04:28:26.000Z</time>
      </trkpt>
      <trkpt lat="45.21663" lon="5.73449">
        <ele>903.79998779297</ele>
        <time>2021-10-28T04:28:29.000Z</time>
      </trkpt>
      <trkpt lat="45.21659" lon="5.73436">
        <ele>902.79998779297</ele>
        <time>2021-10-28T04:28:33.000Z</time>
      </trkpt>
      <trkpt lat="45.21657" lon="5.73433">
        <ele>902.59997558594</ele>
        <time>2021-10-28T04:28:34.000Z</time>
      </trkpt>
      <trkpt lat="45.21649" lon="5.73418">
        <ele>901.59997558594</ele>
        <time>2021-10-28T04:28:39.000Z</time>
      </trkpt>
      <trkpt lat="45.21635" lon="5.73397">
        <ele>900.40002441406</ele>
        <time>2021-10-28T04:28:46.000Z</time>
      </trkpt>
      <trkpt lat="45.21624" lon="5.73389">
        <ele>899.20001220703</ele>
        <time>2021-10-28T04:28:51.000Z</time>
      </trkpt>
      <trkpt lat="45.21618" lon="5.73385">
        <ele>898.20001220703</ele>
        <time>2021-10-28T04:28:54.000Z</time>
      </trkpt>
      <trkpt lat="45.21616" lon="5.73384">
        <ele>897.79998779297</ele>
        <time>2021-10-28T04:28:55.000Z</time>
      </trkpt>
      <trkpt lat="45.21613" lon="5.73381">
        <ele>897.20001220703</ele>
        <time>2021-10-28T04:28:57.000Z</time>
      </trkpt>
      <trkpt lat="45.21609" lon="5.73378">
        <ele>897</ele>
        <time>2021-10-28T04:28:59.000Z</time>
      </trkpt>
      <trkpt lat="45.21606" lon="5.73375">
        <ele>895.79998779297</ele>
        <time>2021-10-28T04:29:01.000Z</time>
      </trkpt>
      <trkpt lat="45.21601" lon="5.7337">
        <ele>894.40002441406</ele>
        <time>2021-10-28T04:29:04.000Z</time>
      </trkpt>
      <trkpt lat="45.21599" lon="5.73368">
        <ele>894</ele>
        <time>2021-10-28T04:29:05.000Z</time>
      </trkpt>
      <trkpt lat="45.21597" lon="5.73362">
        <ele>893.40002441406</ele>
        <time>2021-10-28T04:29:07.000Z</time>
      </trkpt>
      <trkpt lat="45.21595" lon="5.73355">
        <ele>892.40002441406</ele>
        <time>2021-10-28T04:29:10.000Z</time>
      </trkpt>
      <trkpt lat="45.21593" lon="5.73353">
        <ele>892.20001220703</ele>
        <time>2021-10-28T04:29:11.000Z</time>
      </trkpt>
      <trkpt lat="45.21587" lon="5.73346">
        <ele>891.20001220703</ele>
        <time>2021-10-28T04:29:15.000Z</time>
      </trkpt>
      <trkpt lat="45.21581" lon="5.73344">
        <ele>890.20001220703</ele>
        <time>2021-10-28T04:29:18.000Z</time>
      </trkpt>
      <trkpt lat="45.21579" lon="5.73344">
        <ele>889.79998779297</ele>
        <time>2021-10-28T04:29:19.000Z</time>
      </trkpt>
      <trkpt lat="45.21571" lon="5.73342">
        <ele>888.79998779297</ele>
        <time>2021-10-28T04:29:22.000Z</time>
      </trkpt>
      <trkpt lat="45.21566" lon="5.7334">
        <ele>888.20001220703</ele>
        <time>2021-10-28T04:29:24.000Z</time>
      </trkpt>
      <trkpt lat="45.21563" lon="5.73339">
        <ele>888</ele>
        <time>2021-10-28T04:29:25.000Z</time>
      </trkpt>
      <trkpt lat="45.21561" lon="5.73338">
        <ele>887.59997558594</ele>
        <time>2021-10-28T04:29:26.000Z</time>
      </trkpt>
      <trkpt lat="45.21558" lon="5.73337">
        <ele>887.40002441406</ele>
        <time>2021-10-28T04:29:27.000Z</time>
      </trkpt>
      <trkpt lat="45.21555" lon="5.73334">
        <ele>886.59997558594</ele>
        <time>2021-10-28T04:29:29.000Z</time>
      </trkpt>
      <trkpt lat="45.21554" lon="5.73333">
        <ele>886.40002441406</ele>
        <time>2021-10-28T04:29:30.000Z</time>
      </trkpt>
      <trkpt lat="45.2155" lon="5.73333">
        <ele>885.79998779297</ele>
        <time>2021-10-28T04:29:32.000Z</time>
      </trkpt>
      <trkpt lat="45.21548" lon="5.73333">
        <ele>885.59997558594</ele>
        <time>2021-10-28T04:29:33.000Z</time>
      </trkpt>
      <trkpt lat="45.21547" lon="5.73332">
        <ele>885.40002441406</ele>
        <time>2021-10-28T04:29:34.000Z</time>
      </trkpt>
      <trkpt lat="45.21541" lon="5.73329">
        <ele>884</ele>
        <time>2021-10-28T04:29:37.000Z</time>
      </trkpt>
      <trkpt lat="45.2154" lon="5.73327">
        <ele>883.59997558594</ele>
        <time>2021-10-28T04:29:38.000Z</time>
      </trkpt>
      <trkpt lat="45.21536" lon="5.73326">
        <ele>882.79998779297</ele>
        <time>2021-10-28T04:29:40.000Z</time>
      </trkpt>
      <trkpt lat="45.21525" lon="5.73326">
        <ele>881.59997558594</ele>
        <time>2021-10-28T04:29:44.000Z</time>
      </trkpt>
      <trkpt lat="45.21517" lon="5.73323">
        <ele>880.20001220703</ele>
        <time>2021-10-28T04:29:47.000Z</time>
      </trkpt>
      <trkpt lat="45.21511" lon="5.73318">
        <ele>879.59997558594</ele>
        <time>2021-10-28T04:29:50.000Z</time>
      </trkpt>
      <trkpt lat="45.2151" lon="5.73314">
        <ele>879</ele>
        <time>2021-10-28T04:29:52.000Z</time>
      </trkpt>
      <trkpt lat="45.2151" lon="5.73311">
        <ele>878.59997558594</ele>
        <time>2021-10-28T04:29:54.000Z</time>
      </trkpt>
      <trkpt lat="45.2151" lon="5.73306">
        <ele>878</ele>
        <time>2021-10-28T04:29:56.000Z</time>
      </trkpt>
      <trkpt lat="45.2151" lon="5.73296">
        <ele>877.20001220703</ele>
        <time>2021-10-28T04:29:59.000Z</time>
      </trkpt>
      <trkpt lat="45.21508" lon="5.73277">
        <ele>877</ele>
        <time>2021-10-28T04:30:03.000Z</time>
      </trkpt>
      <trkpt lat="45.21508" lon="5.73272">
        <ele>877</ele>
        <time>2021-10-28T04:30:04.000Z</time>
      </trkpt>
      <trkpt lat="45.21506" lon="5.73263">
        <ele>877</ele>
        <time>2021-10-28T04:30:07.000Z</time>
      </trkpt>
      <trkpt lat="45.21502" lon="5.73259">
        <ele>876.79998779297</ele>
        <time>2021-10-28T04:30:09.000Z</time>
      </trkpt>
      <trkpt lat="45.21497" lon="5.73252">
        <ele>875.79998779297</ele>
        <time>2021-10-28T04:30:12.000Z</time>
      </trkpt>
      <trkpt lat="45.21491" lon="5.73244">
        <ele>874.40002441406</ele>
        <time>2021-10-28T04:30:16.000Z</time>
      </trkpt>
      <trkpt lat="45.21487" lon="5.7324">
        <ele>873.20001220703</ele>
        <time>2021-10-28T04:30:19.000Z</time>
      </trkpt>
      <trkpt lat="45.21484" lon="5.73237">
        <ele>872.59997558594</ele>
        <time>2021-10-28T04:30:21.000Z</time>
      </trkpt>
      <trkpt lat="45.21481" lon="5.73234">
        <ele>872</ele>
        <time>2021-10-28T04:30:23.000Z</time>
      </trkpt>
      <trkpt lat="45.21474" lon="5.73228">
        <ele>870.79998779297</ele>
        <time>2021-10-28T04:30:26.000Z</time>
      </trkpt>
      <trkpt lat="45.21472" lon="5.73226">
        <ele>870.40002441406</ele>
        <time>2021-10-28T04:30:27.000Z</time>
      </trkpt>
      <trkpt lat="45.21471" lon="5.73223">
        <ele>870.20001220703</ele>
        <time>2021-10-28T04:30:28.000Z</time>
      </trkpt>
      <trkpt lat="45.2147" lon="5.73219">
        <ele>869.79998779297</ele>
        <time>2021-10-28T04:30:29.000Z</time>
      </trkpt>
      <trkpt lat="45.2147" lon="5.73215">
        <ele>869.59997558594</ele>
        <time>2021-10-28T04:30:30.000Z</time>
      </trkpt>
      <trkpt lat="45.2147" lon="5.73211">
        <ele>869.40002441406</ele>
        <time>2021-10-28T04:30:31.000Z</time>
      </trkpt>
      <trkpt lat="45.21471" lon="5.73198">
        <ele>868.79998779297</ele>
        <time>2021-10-28T04:30:35.000Z</time>
      </trkpt>
      <trkpt lat="45.21471" lon="5.73196">
        <ele>868.79998779297</ele>
        <time>2021-10-28T04:30:36.000Z</time>
      </trkpt>
      <trkpt lat="45.21469" lon="5.73192">
        <ele>868.40002441406</ele>
        <time>2021-10-28T04:30:38.000Z</time>
      </trkpt>
      <trkpt lat="45.21468" lon="5.73189">
        <ele>867.79998779297</ele>
        <time>2021-10-28T04:30:40.000Z</time>
      </trkpt>
      <trkpt lat="45.21468" lon="5.73187">
        <ele>867.20001220703</ele>
        <time>2021-10-28T04:30:41.000Z</time>
      </trkpt>
      <trkpt lat="45.21465" lon="5.73185">
        <ele>866.40002441406</ele>
        <time>2021-10-28T04:30:43.000Z</time>
      </trkpt>
      <trkpt lat="45.21461" lon="5.73181">
        <ele>865</ele>
        <time>2021-10-28T04:30:46.000Z</time>
      </trkpt>
      <trkpt lat="45.21461" lon="5.73179">
        <ele>864.59997558594</ele>
        <time>2021-10-28T04:30:47.000Z</time>
      </trkpt>
      <trkpt lat="45.21458" lon="5.73176">
        <ele>864.20001220703</ele>
        <time>2021-10-28T04:30:49.000Z</time>
      </trkpt>
      <trkpt lat="45.21456" lon="5.73174">
        <ele>863.59997558594</ele>
        <time>2021-10-28T04:30:50.000Z</time>
      </trkpt>
      <trkpt lat="45.21453" lon="5.7317">
        <ele>862.59997558594</ele>
        <time>2021-10-28T04:30:52.000Z</time>
      </trkpt>
      <trkpt lat="45.2145" lon="5.73167">
        <ele>861.59997558594</ele>
        <time>2021-10-28T04:30:54.000Z</time>
      </trkpt>
      <trkpt lat="45.21448" lon="5.73166">
        <ele>861.20001220703</ele>
        <time>2021-10-28T04:30:55.000Z</time>
      </trkpt>
      <trkpt lat="45.21445" lon="5.73164">
        <ele>860.40002441406</ele>
        <time>2021-10-28T04:30:57.000Z</time>
      </trkpt>
      <trkpt lat="45.21444" lon="5.73165">
        <ele>860</ele>
        <time>2021-10-28T04:30:58.000Z</time>
      </trkpt>
      <trkpt lat="45.21439" lon="5.73164">
        <ele>859.40002441406</ele>
        <time>2021-10-28T04:31:00.000Z</time>
      </trkpt>
      <trkpt lat="45.21437" lon="5.73165">
        <ele>859</ele>
        <time>2021-10-28T04:31:01.000Z</time>
      </trkpt>
      <trkpt lat="45.21432" lon="5.73163">
        <ele>858</ele>
        <time>2021-10-28T04:31:03.000Z</time>
      </trkpt>
      <trkpt lat="45.2143" lon="5.73162">
        <ele>857.79998779297</ele>
        <time>2021-10-28T04:31:04.000Z</time>
      </trkpt>
      <trkpt lat="45.21426" lon="5.73161">
        <ele>857.20001220703</ele>
        <time>2021-10-28T04:31:06.000Z</time>
      </trkpt>
      <trkpt lat="45.2142" lon="5.73157">
        <ele>856.59997558594</ele>
        <time>2021-10-28T04:31:09.000Z</time>
      </trkpt>
      <trkpt lat="45.21414" lon="5.73151">
        <ele>855.79998779297</ele>
        <time>2021-10-28T04:31:13.000Z</time>
      </trkpt>
      <trkpt lat="45.21412" lon="5.73149">
        <ele>855.40002441406</ele>
        <time>2021-10-28T04:31:14.000Z</time>
      </trkpt>
      <trkpt lat="45.21408" lon="5.73141">
        <ele>854.20001220703</ele>
        <time>2021-10-28T04:31:17.000Z</time>
      </trkpt>
      <trkpt lat="45.21405" lon="5.73136">
        <ele>853.40002441406</ele>
        <time>2021-10-28T04:31:19.000Z</time>
      </trkpt>
      <trkpt lat="45.21404" lon="5.73133">
        <ele>853.20001220703</ele>
        <time>2021-10-28T04:31:20.000Z</time>
      </trkpt>
      <trkpt lat="45.21391" lon="5.73118">
        <ele>852.40002441406</ele>
        <time>2021-10-28T04:31:26.000Z</time>
      </trkpt>
      <trkpt lat="45.21389" lon="5.73115">
        <ele>852</ele>
        <time>2021-10-28T04:31:27.000Z</time>
      </trkpt>
      <trkpt lat="45.21381" lon="5.73102">
        <ele>851</ele>
        <time>2021-10-28T04:31:31.000Z</time>
      </trkpt>
      <trkpt lat="45.21377" lon="5.73096">
        <ele>850.40002441406</ele>
        <time>2021-10-28T04:31:33.000Z</time>
      </trkpt>
      <trkpt lat="45.21375" lon="5.73092">
        <ele>850.20001220703</ele>
        <time>2021-10-28T04:31:34.000Z</time>
      </trkpt>
      <trkpt lat="45.21372" lon="5.73086">
        <ele>850</ele>
        <time>2021-10-28T04:31:36.000Z</time>
      </trkpt>
      <trkpt lat="45.21371" lon="5.73083">
        <ele>849.79998779297</ele>
        <time>2021-10-28T04:31:37.000Z</time>
      </trkpt>
      <trkpt lat="45.21369" lon="5.7308">
        <ele>849.59997558594</ele>
        <time>2021-10-28T04:31:38.000Z</time>
      </trkpt>
      <trkpt lat="45.21367" lon="5.73078">
        <ele>849.40002441406</ele>
        <time>2021-10-28T04:31:39.000Z</time>
      </trkpt>
      <trkpt lat="45.21364" lon="5.73073">
        <ele>849</ele>
        <time>2021-10-28T04:31:42.000Z</time>
      </trkpt>
      <trkpt lat="45.21363" lon="5.73071">
        <ele>848.79998779297</ele>
        <time>2021-10-28T04:31:43.000Z</time>
      </trkpt>
      <trkpt lat="45.21361" lon="5.73071">
        <ele>848.79998779297</ele>
        <time>2021-10-28T04:31:44.000Z</time>
      </trkpt>
      <trkpt lat="45.21356" lon="5.73065">
        <ele>847.40002441406</ele>
        <time>2021-10-28T04:31:48.000Z</time>
      </trkpt>
      <trkpt lat="45.21354" lon="5.73059">
        <ele>846.40002441406</ele>
        <time>2021-10-28T04:31:51.000Z</time>
      </trkpt>
      <trkpt lat="45.2135" lon="5.73054">
        <ele>845.20001220703</ele>
        <time>2021-10-28T04:31:54.000Z</time>
      </trkpt>
      <trkpt lat="45.21348" lon="5.7305">
        <ele>844.59997558594</ele>
        <time>2021-10-28T04:31:56.000Z</time>
      </trkpt>
      <trkpt lat="45.21347" lon="5.73046">
        <ele>844</ele>
        <time>2021-10-28T04:31:58.000Z</time>
      </trkpt>
      <trkpt lat="45.21344" lon="5.73042">
        <ele>842.79998779297</ele>
        <time>2021-10-28T04:32:01.000Z</time>
      </trkpt>
      <trkpt lat="45.21342" lon="5.73038">
        <ele>841.79998779297</ele>
        <time>2021-10-28T04:32:04.000Z</time>
      </trkpt>
      <trkpt lat="45.21341" lon="5.73035">
        <ele>841</ele>
        <time>2021-10-28T04:32:06.000Z</time>
      </trkpt>
      <trkpt lat="45.2134" lon="5.73033">
        <ele>840.59997558594</ele>
        <time>2021-10-28T04:32:07.000Z</time>
      </trkpt>
      <trkpt lat="45.21337" lon="5.7303">
        <ele>839.59997558594</ele>
        <time>2021-10-28T04:32:10.000Z</time>
      </trkpt>
      <trkpt lat="45.21333" lon="5.73026">
        <ele>838.40002441406</ele>
        <time>2021-10-28T04:32:13.000Z</time>
      </trkpt>
      <trkpt lat="45.21328" lon="5.73021">
        <ele>837.40002441406</ele>
        <time>2021-10-28T04:32:16.000Z</time>
      </trkpt>
      <trkpt lat="45.21327" lon="5.7302">
        <ele>836.79998779297</ele>
        <time>2021-10-28T04:32:17.000Z</time>
      </trkpt>
      <trkpt lat="45.21326" lon="5.73019">
        <ele>836.40002441406</ele>
        <time>2021-10-28T04:32:18.000Z</time>
      </trkpt>
      <trkpt lat="45.21323" lon="5.73016">
        <ele>835.59997558594</ele>
        <time>2021-10-28T04:32:20.000Z</time>
      </trkpt>
      <trkpt lat="45.2132" lon="5.73011">
        <ele>835.20001220703</ele>
        <time>2021-10-28T04:32:22.000Z</time>
      </trkpt>
      <trkpt lat="45.21318" lon="5.7301">
        <ele>835</ele>
        <time>2021-10-28T04:32:23.000Z</time>
      </trkpt>
      <trkpt lat="45.21316" lon="5.73007">
        <ele>834.40002441406</ele>
        <time>2021-10-28T04:32:24.000Z</time>
      </trkpt>
      <trkpt lat="45.21314" lon="5.73004">
        <ele>834</ele>
        <time>2021-10-28T04:32:25.000Z</time>
      </trkpt>
      <trkpt lat="45.21313" lon="5.73002">
        <ele>833.40002441406</ele>
        <time>2021-10-28T04:32:26.000Z</time>
      </trkpt>
      <trkpt lat="45.21311" lon="5.72998">
        <ele>832.79998779297</ele>
        <time>2021-10-28T04:32:28.000Z</time>
      </trkpt>
      <trkpt lat="45.21308" lon="5.72994">
        <ele>832.20001220703</ele>
        <time>2021-10-28T04:32:30.000Z</time>
      </trkpt>
      <trkpt lat="45.21307" lon="5.72992">
        <ele>831.79998779297</ele>
        <time>2021-10-28T04:32:31.000Z</time>
      </trkpt>
      <trkpt lat="45.21306" lon="5.72991">
        <ele>831.59997558594</ele>
        <time>2021-10-28T04:32:32.000Z</time>
      </trkpt>
      <trkpt lat="45.21303" lon="5.7299">
        <ele>831</ele>
        <time>2021-10-28T04:32:34.000Z</time>
      </trkpt>
      <trkpt lat="45.213" lon="5.72988">
        <ele>830.40002441406</ele>
        <time>2021-10-28T04:32:36.000Z</time>
      </trkpt>
      <trkpt lat="45.21297" lon="5.72986">
        <ele>830</ele>
        <time>2021-10-28T04:32:38.000Z</time>
      </trkpt>
      <trkpt lat="45.21296" lon="5.72982">
        <ele>829.20001220703</ele>
        <time>2021-10-28T04:32:40.000Z</time>
      </trkpt>
      <trkpt lat="45.21294" lon="5.72978">
        <ele>828.20001220703</ele>
        <time>2021-10-28T04:32:42.000Z</time>
      </trkpt>
      <trkpt lat="45.21289" lon="5.72974">
        <ele>827</ele>
        <time>2021-10-28T04:32:45.000Z</time>
      </trkpt>
      <trkpt lat="45.21287" lon="5.72972">
        <ele>826.59997558594</ele>
        <time>2021-10-28T04:32:46.000Z</time>
      </trkpt>
      <trkpt lat="45.21284" lon="5.72969">
        <ele>826</ele>
        <time>2021-10-28T04:32:48.000Z</time>
      </trkpt>
      <trkpt lat="45.21279" lon="5.72965">
        <ele>824.79998779297</ele>
        <time>2021-10-28T04:32:51.000Z</time>
      </trkpt>
      <trkpt lat="45.21277" lon="5.72962">
        <ele>824.20001220703</ele>
        <time>2021-10-28T04:32:53.000Z</time>
      </trkpt>
      <trkpt lat="45.21276" lon="5.7296">
        <ele>823.79998779297</ele>
        <time>2021-10-28T04:32:54.000Z</time>
      </trkpt>
      <trkpt lat="45.21272" lon="5.72955">
        <ele>822.59997558594</ele>
        <time>2021-10-28T04:32:57.000Z</time>
      </trkpt>
      <trkpt lat="45.21268" lon="5.72955">
        <ele>821.40002441406</ele>
        <time>2021-10-28T04:33:00.000Z</time>
      </trkpt>
      <trkpt lat="45.21267" lon="5.72954">
        <ele>820.79998779297</ele>
        <time>2021-10-28T04:33:02.000Z</time>
      </trkpt>
      <trkpt lat="45.21262" lon="5.72952">
        <ele>820.40002441406</ele>
        <time>2021-10-28T04:33:05.000Z</time>
      </trkpt>
      <trkpt lat="45.21261" lon="5.7295">
        <ele>819.40002441406</ele>
        <time>2021-10-28T04:33:06.000Z</time>
      </trkpt>
      <trkpt lat="45.2126" lon="5.72948">
        <ele>818.59997558594</ele>
        <time>2021-10-28T04:33:07.000Z</time>
      </trkpt>
      <trkpt lat="45.21259" lon="5.72947">
        <ele>818.20001220703</ele>
        <time>2021-10-28T04:33:08.000Z</time>
      </trkpt>
      <trkpt lat="45.21257" lon="5.72945">
        <ele>817.40002441406</ele>
        <time>2021-10-28T04:33:10.000Z</time>
      </trkpt>
      <trkpt lat="45.21255" lon="5.72945">
        <ele>817.20001220703</ele>
        <time>2021-10-28T04:33:11.000Z</time>
      </trkpt>
      <trkpt lat="45.21251" lon="5.72944">
        <ele>816.20001220703</ele>
        <time>2021-10-28T04:33:14.000Z</time>
      </trkpt>
      <trkpt lat="45.21248" lon="5.72943">
        <ele>815</ele>
        <time>2021-10-28T04:33:16.000Z</time>
      </trkpt>
      <trkpt lat="45.21241" lon="5.72939">
        <ele>813.79998779297</ele>
        <time>2021-10-28T04:33:20.000Z</time>
      </trkpt>
      <trkpt lat="45.21237" lon="5.72937">
        <ele>813</ele>
        <time>2021-10-28T04:33:22.000Z</time>
      </trkpt>
      <trkpt lat="45.21233" lon="5.72934">
        <ele>812.20001220703</ele>
        <time>2021-10-28T04:33:24.000Z</time>
      </trkpt>
      <trkpt lat="45.2123" lon="5.7293">
        <ele>811.59997558594</ele>
        <time>2021-10-28T04:33:26.000Z</time>
      </trkpt>
      <trkpt lat="45.21229" lon="5.72928">
        <ele>811.20001220703</ele>
        <time>2021-10-28T04:33:27.000Z</time>
      </trkpt>
      <trkpt lat="45.21229" lon="5.72926">
        <ele>811</ele>
        <time>2021-10-28T04:33:28.000Z</time>
      </trkpt>
      <trkpt lat="45.21228" lon="5.72926">
        <ele>810.59997558594</ele>
        <time>2021-10-28T04:33:29.000Z</time>
      </trkpt>
      <trkpt lat="45.21226" lon="5.72924">
        <ele>809.79998779297</ele>
        <time>2021-10-28T04:33:31.000Z</time>
      </trkpt>
      <trkpt lat="45.21221" lon="5.72923">
        <ele>808.79998779297</ele>
        <time>2021-10-28T04:33:34.000Z</time>
      </trkpt>
      <trkpt lat="45.21217" lon="5.72919">
        <ele>807.59997558594</ele>
        <time>2021-10-28T04:33:38.000Z</time>
      </trkpt>
      <trkpt lat="45.21215" lon="5.72918">
        <ele>807</ele>
        <time>2021-10-28T04:33:40.000Z</time>
      </trkpt>
      <trkpt lat="45.21214" lon="5.72921">
        <ele>806.40002441406</ele>
        <time>2021-10-28T04:33:42.000Z</time>
      </trkpt>
      <trkpt lat="45.21214" lon="5.72924">
        <ele>806.20001220703</ele>
        <time>2021-10-28T04:33:43.000Z</time>
      </trkpt>
      <trkpt lat="45.21214" lon="5.72928">
        <ele>805.20001220703</ele>
        <time>2021-10-28T04:33:45.000Z</time>
      </trkpt>
      <trkpt lat="45.21215" lon="5.72937">
        <ele>804</ele>
        <time>2021-10-28T04:33:48.000Z</time>
      </trkpt>
      <trkpt lat="45.21216" lon="5.72942">
        <ele>803.20001220703</ele>
        <time>2021-10-28T04:33:50.000Z</time>
      </trkpt>
      <trkpt lat="45.21217" lon="5.72944">
        <ele>802.79998779297</ele>
        <time>2021-10-28T04:33:51.000Z</time>
      </trkpt>
      <trkpt lat="45.21217" lon="5.72948">
        <ele>801.79998779297</ele>
        <time>2021-10-28T04:33:54.000Z</time>
      </trkpt>
      <trkpt lat="45.21215" lon="5.72948">
        <ele>801.20001220703</ele>
        <time>2021-10-28T04:33:55.000Z</time>
      </trkpt>
      <trkpt lat="45.21207" lon="5.72944">
        <ele>800.20001220703</ele>
        <time>2021-10-28T04:33:58.000Z</time>
      </trkpt>
      <trkpt lat="45.21202" lon="5.72936">
        <ele>799</ele>
        <time>2021-10-28T04:34:01.000Z</time>
      </trkpt>
      <trkpt lat="45.21196" lon="5.72927">
        <ele>797.79998779297</ele>
        <time>2021-10-28T04:34:05.000Z</time>
      </trkpt>
      <trkpt lat="45.21189" lon="5.72921">
        <ele>796.59997558594</ele>
        <time>2021-10-28T04:34:08.000Z</time>
      </trkpt>
      <trkpt lat="45.21183" lon="5.72915">
        <ele>795.40002441406</ele>
        <time>2021-10-28T04:34:11.000Z</time>
      </trkpt>
      <trkpt lat="45.21179" lon="5.72911">
        <ele>794.40002441406</ele>
        <time>2021-10-28T04:34:14.000Z</time>
      </trkpt>
      <trkpt lat="45.21177" lon="5.7291">
        <ele>793.79998779297</ele>
        <time>2021-10-28T04:34:15.000Z</time>
      </trkpt>
      <trkpt lat="45.2117" lon="5.72904">
        <ele>792.20001220703</ele>
        <time>2021-10-28T04:34:19.000Z</time>
      </trkpt>
      <trkpt lat="45.21169" lon="5.72903">
        <ele>791.79998779297</ele>
        <time>2021-10-28T04:34:20.000Z</time>
      </trkpt>
      <trkpt lat="45.21165" lon="5.72901">
        <ele>791</ele>
        <time>2021-10-28T04:34:22.000Z</time>
      </trkpt>
      <trkpt lat="45.21159" lon="5.72898">
        <ele>790</ele>
        <time>2021-10-28T04:34:25.000Z</time>
      </trkpt>
      <trkpt lat="45.21152" lon="5.72897">
        <ele>789</ele>
        <time>2021-10-28T04:34:28.000Z</time>
      </trkpt>
      <trkpt lat="45.21151" lon="5.72897">
        <ele>788.59997558594</ele>
        <time>2021-10-28T04:34:29.000Z</time>
      </trkpt>
      <trkpt lat="45.21148" lon="5.72897">
        <ele>788.40002441406</ele>
        <time>2021-10-28T04:34:31.000Z</time>
      </trkpt>
      <trkpt lat="45.21147" lon="5.72897">
        <ele>787.79998779297</ele>
        <time>2021-10-28T04:34:32.000Z</time>
      </trkpt>
      <trkpt lat="45.21145" lon="5.72898">
        <ele>787.59997558594</ele>
        <time>2021-10-28T04:34:33.000Z</time>
      </trkpt>
      <trkpt lat="45.21144" lon="5.72898">
        <ele>787.20001220703</ele>
        <time>2021-10-28T04:34:34.000Z</time>
      </trkpt>
      <trkpt lat="45.21141" lon="5.72897">
        <ele>786.59997558594</ele>
        <time>2021-10-28T04:34:36.000Z</time>
      </trkpt>
      <trkpt lat="45.21139" lon="5.72895">
        <ele>785.79998779297</ele>
        <time>2021-10-28T04:34:38.000Z</time>
      </trkpt>
      <trkpt lat="45.21137" lon="5.72892">
        <ele>785.20001220703</ele>
        <time>2021-10-28T04:34:40.000Z</time>
      </trkpt>
      <trkpt lat="45.21134" lon="5.7289">
        <ele>784.20001220703</ele>
        <time>2021-10-28T04:34:42.000Z</time>
      </trkpt>
      <trkpt lat="45.21132" lon="5.7289">
        <ele>783.79998779297</ele>
        <time>2021-10-28T04:34:43.000Z</time>
      </trkpt>
      <trkpt lat="45.21128" lon="5.72887">
        <ele>783</ele>
        <time>2021-10-28T04:34:45.000Z</time>
      </trkpt>
      <trkpt lat="45.21127" lon="5.72886">
        <ele>782.59997558594</ele>
        <time>2021-10-28T04:34:46.000Z</time>
      </trkpt>
      <trkpt lat="45.21118" lon="5.72881">
        <ele>781.59997558594</ele>
        <time>2021-10-28T04:34:50.000Z</time>
      </trkpt>
      <trkpt lat="45.21116" lon="5.72879">
        <ele>781.40002441406</ele>
        <time>2021-10-28T04:34:51.000Z</time>
      </trkpt>
      <trkpt lat="45.21113" lon="5.72874">
        <ele>780.40002441406</ele>
        <time>2021-10-28T04:34:53.000Z</time>
      </trkpt>
      <trkpt lat="45.2111" lon="5.72871">
        <ele>780</ele>
        <time>2021-10-28T04:34:55.000Z</time>
      </trkpt>
      <trkpt lat="45.21107" lon="5.72869">
        <ele>779.40002441406</ele>
        <time>2021-10-28T04:34:57.000Z</time>
      </trkpt>
      <trkpt lat="45.21102" lon="5.72864">
        <ele>778</ele>
        <time>2021-10-28T04:35:01.000Z</time>
      </trkpt>
      <trkpt lat="45.21097" lon="5.72858">
        <ele>777</ele>
        <time>2021-10-28T04:35:04.000Z</time>
      </trkpt>
      <trkpt lat="45.21091" lon="5.72853">
        <ele>776.20001220703</ele>
        <time>2021-10-28T04:35:07.000Z</time>
      </trkpt>
      <trkpt lat="45.21088" lon="5.7285">
        <ele>775.79998779297</ele>
        <time>2021-10-28T04:35:09.000Z</time>
      </trkpt>
      <trkpt lat="45.21083" lon="5.72842">
        <ele>774.59997558594</ele>
        <time>2021-10-28T04:35:14.000Z</time>
      </trkpt>
      <trkpt lat="45.21081" lon="5.72839">
        <ele>774.40002441406</ele>
        <time>2021-10-28T04:35:15.000Z</time>
      </trkpt>
      <trkpt lat="45.21074" lon="5.72825">
        <ele>773.59997558594</ele>
        <time>2021-10-28T04:35:20.000Z</time>
      </trkpt>
      <trkpt lat="45.21072" lon="5.72822">
        <ele>773.40002441406</ele>
        <time>2021-10-28T04:35:21.000Z</time>
      </trkpt>
      <trkpt lat="45.21064" lon="5.72801">
        <ele>772.79998779297</ele>
        <time>2021-10-28T04:35:28.000Z</time>
      </trkpt>
      <trkpt lat="45.21064" lon="5.72799">
        <ele>772.79998779297</ele>
        <time>2021-10-28T04:35:29.000Z</time>
      </trkpt>
      <trkpt lat="45.21062" lon="5.72786">
        <ele>772.59997558594</ele>
        <time>2021-10-28T04:35:33.000Z</time>
      </trkpt>
      <trkpt lat="45.2106" lon="5.72781">
        <ele>772.40002441406</ele>
        <time>2021-10-28T04:35:35.000Z</time>
      </trkpt>
      <trkpt lat="45.2106" lon="5.72776">
        <ele>772.20001220703</ele>
        <time>2021-10-28T04:35:37.000Z</time>
      </trkpt>
      <trkpt lat="45.21054" lon="5.72761">
        <ele>771.40002441406</ele>
        <time>2021-10-28T04:35:43.000Z</time>
      </trkpt>
      <trkpt lat="45.2105" lon="5.72756">
        <ele>770.79998779297</ele>
        <time>2021-10-28T04:35:46.000Z</time>
      </trkpt>
      <trkpt lat="45.21047" lon="5.72755">
        <ele>770.20001220703</ele>
        <time>2021-10-28T04:35:48.000Z</time>
      </trkpt>
      <trkpt lat="45.21046" lon="5.72755">
        <ele>769.79998779297</ele>
        <time>2021-10-28T04:35:49.000Z</time>
      </trkpt>
      <trkpt lat="45.21042" lon="5.72752">
        <ele>768.79998779297</ele>
        <time>2021-10-28T04:35:53.000Z</time>
      </trkpt>
      <trkpt lat="45.2104" lon="5.72752">
        <ele>768</ele>
        <time>2021-10-28T04:35:55.000Z</time>
      </trkpt>
      <trkpt lat="45.21038" lon="5.72751">
        <ele>767.79998779297</ele>
        <time>2021-10-28T04:35:56.000Z</time>
      </trkpt>
      <trkpt lat="45.21035" lon="5.7275">
        <ele>766.79998779297</ele>
        <time>2021-10-28T04:35:58.000Z</time>
      </trkpt>
      <trkpt lat="45.21034" lon="5.72749">
        <ele>766.59997558594</ele>
        <time>2021-10-28T04:35:59.000Z</time>
      </trkpt>
      <trkpt lat="45.21033" lon="5.72749">
        <ele>766.20001220703</ele>
        <time>2021-10-28T04:36:00.000Z</time>
      </trkpt>
      <trkpt lat="45.21032" lon="5.72748">
        <ele>765.59997558594</ele>
        <time>2021-10-28T04:36:01.000Z</time>
      </trkpt>
      <trkpt lat="45.21031" lon="5.72748">
        <ele>765</ele>
        <time>2021-10-28T04:36:02.000Z</time>
      </trkpt>
      <trkpt lat="45.21028" lon="5.7275">
        <ele>764</ele>
        <time>2021-10-28T04:36:05.000Z</time>
      </trkpt>
      <trkpt lat="45.21027" lon="5.7275">
        <ele>763.40002441406</ele>
        <time>2021-10-28T04:36:07.000Z</time>
      </trkpt>
      <trkpt lat="45.21026" lon="5.7275">
        <ele>762.79998779297</ele>
        <time>2021-10-28T04:36:09.000Z</time>
      </trkpt>
      <trkpt lat="45.21025" lon="5.72749">
        <ele>762.59997558594</ele>
        <time>2021-10-28T04:36:10.000Z</time>
      </trkpt>
      <trkpt lat="45.21023" lon="5.72749">
        <ele>761.59997558594</ele>
        <time>2021-10-28T04:36:12.000Z</time>
      </trkpt>
      <trkpt lat="45.21021" lon="5.72748">
        <ele>761</ele>
        <time>2021-10-28T04:36:14.000Z</time>
      </trkpt>
      <trkpt lat="45.2102" lon="5.72748">
        <ele>760.59997558594</ele>
        <time>2021-10-28T04:36:15.000Z</time>
      </trkpt>
      <trkpt lat="45.21019" lon="5.72748">
        <ele>760.40002441406</ele>
        <time>2021-10-28T04:36:16.000Z</time>
      </trkpt>
      <trkpt lat="45.21015" lon="5.7275">
        <ele>759.59997558594</ele>
        <time>2021-10-28T04:36:18.000Z</time>
      </trkpt>
      <trkpt lat="45.21013" lon="5.7275">
        <ele>758.40002441406</ele>
        <time>2021-10-28T04:36:20.000Z</time>
      </trkpt>
      <trkpt lat="45.21011" lon="5.7275">
        <ele>757.59997558594</ele>
        <time>2021-10-28T04:36:22.000Z</time>
      </trkpt>
      <trkpt lat="45.21011" lon="5.7275">
        <ele>757.20001220703</ele>
        <time>2021-10-28T04:36:23.000Z</time>
      </trkpt>
      <trkpt lat="45.21008" lon="5.72753">
        <ele>755.79998779297</ele>
        <time>2021-10-28T04:36:27.000Z</time>
      </trkpt>
      <trkpt lat="45.21005" lon="5.72755">
        <ele>754.59997558594</ele>
        <time>2021-10-28T04:36:30.000Z</time>
      </trkpt>
      <trkpt lat="45.21002" lon="5.72758">
        <ele>753.59997558594</ele>
        <time>2021-10-28T04:36:33.000Z</time>
      </trkpt>
      <trkpt lat="45.21" lon="5.72758">
        <ele>753</ele>
        <time>2021-10-28T04:36:34.000Z</time>
      </trkpt>
      <trkpt lat="45.20998" lon="5.72759">
        <ele>752.20001220703</ele>
        <time>2021-10-28T04:36:36.000Z</time>
      </trkpt>
      <trkpt lat="45.20997" lon="5.72761">
        <ele>751.20001220703</ele>
        <time>2021-10-28T04:36:38.000Z</time>
      </trkpt>
      <trkpt lat="45.20996" lon="5.72762">
        <ele>750.79998779297</ele>
        <time>2021-10-28T04:36:39.000Z</time>
      </trkpt>
      <trkpt lat="45.20993" lon="5.72763">
        <ele>749.59997558594</ele>
        <time>2021-10-28T04:36:41.000Z</time>
      </trkpt>
      <trkpt lat="45.20993" lon="5.72762">
        <ele>749.40002441406</ele>
        <time>2021-10-28T04:36:42.000Z</time>
      </trkpt>
      <trkpt lat="45.20991" lon="5.7276">
        <ele>748.59997558594</ele>
        <time>2021-10-28T04:36:45.000Z</time>
      </trkpt>
      <trkpt lat="45.2099" lon="5.72759">
        <ele>747.59997558594</ele>
        <time>2021-10-28T04:36:47.000Z</time>
      </trkpt>
      <trkpt lat="45.20986" lon="5.72756">
        <ele>746.59997558594</ele>
        <time>2021-10-28T04:36:50.000Z</time>
      </trkpt>
      <trkpt lat="45.20984" lon="5.72755">
        <ele>745.40002441406</ele>
        <time>2021-10-28T04:36:52.000Z</time>
      </trkpt>
      <trkpt lat="45.20981" lon="5.7275">
        <ele>744.20001220703</ele>
        <time>2021-10-28T04:36:55.000Z</time>
      </trkpt>
      <trkpt lat="45.20979" lon="5.72748">
        <ele>743.40002441406</ele>
        <time>2021-10-28T04:36:57.000Z</time>
      </trkpt>
      <trkpt lat="45.20978" lon="5.72747">
        <ele>743</ele>
        <time>2021-10-28T04:36:58.000Z</time>
      </trkpt>
      <trkpt lat="45.20978" lon="5.72746">
        <ele>742.59997558594</ele>
        <time>2021-10-28T04:36:59.000Z</time>
      </trkpt>
      <trkpt lat="45.20976" lon="5.72744">
        <ele>741.79998779297</ele>
        <time>2021-10-28T04:37:01.000Z</time>
      </trkpt>
      <trkpt lat="45.20974" lon="5.72741">
        <ele>740.79998779297</ele>
        <time>2021-10-28T04:37:04.000Z</time>
      </trkpt>
      <trkpt lat="45.20973" lon="5.7274">
        <ele>740.40002441406</ele>
        <time>2021-10-28T04:37:05.000Z</time>
      </trkpt>
      <trkpt lat="45.20973" lon="5.72738">
        <ele>739.20001220703</ele>
        <time>2021-10-28T04:37:07.000Z</time>
      </trkpt>
      <trkpt lat="45.20971" lon="5.72734">
        <ele>737.79998779297</ele>
        <time>2021-10-28T04:37:11.000Z</time>
      </trkpt>
      <trkpt lat="45.20968" lon="5.72732">
        <ele>737</ele>
        <time>2021-10-28T04:37:13.000Z</time>
      </trkpt>
      <trkpt lat="45.20967" lon="5.72732">
        <ele>736.59997558594</ele>
        <time>2021-10-28T04:37:14.000Z</time>
      </trkpt>
      <trkpt lat="45.20965" lon="5.7273">
        <ele>735.79998779297</ele>
        <time>2021-10-28T04:37:16.000Z</time>
      </trkpt>
      <trkpt lat="45.20964" lon="5.72729">
        <ele>735.40002441406</ele>
        <time>2021-10-28T04:37:17.000Z</time>
      </trkpt>
      <trkpt lat="45.20961" lon="5.72727">
        <ele>734.59997558594</ele>
        <time>2021-10-28T04:37:19.000Z</time>
      </trkpt>
      <trkpt lat="45.2096" lon="5.72726">
        <ele>734</ele>
        <time>2021-10-28T04:37:20.000Z</time>
      </trkpt>
      <trkpt lat="45.20955" lon="5.72723">
        <ele>732.79998779297</ele>
        <time>2021-10-28T04:37:23.000Z</time>
      </trkpt>
      <trkpt lat="45.20953" lon="5.7272">
        <ele>732</ele>
        <time>2021-10-28T04:37:25.000Z</time>
      </trkpt>
      <trkpt lat="45.20952" lon="5.72719">
        <ele>731.59997558594</ele>
        <time>2021-10-28T04:37:26.000Z</time>
      </trkpt>
      <trkpt lat="45.20947" lon="5.72713">
        <ele>730.20001220703</ele>
        <time>2021-10-28T04:37:29.000Z</time>
      </trkpt>
      <trkpt lat="45.20943" lon="5.72704">
        <ele>729</ele>
        <time>2021-10-28T04:37:32.000Z</time>
      </trkpt>
      <trkpt lat="45.20939" lon="5.727">
        <ele>727.79998779297</ele>
        <time>2021-10-28T04:37:34.000Z</time>
      </trkpt>
      <trkpt lat="45.20937" lon="5.72697">
        <ele>727</ele>
        <time>2021-10-28T04:37:36.000Z</time>
      </trkpt>
      <trkpt lat="45.20935" lon="5.72696">
        <ele>726.79998779297</ele>
        <time>2021-10-28T04:37:37.000Z</time>
      </trkpt>
      <trkpt lat="45.20933" lon="5.72695">
        <ele>726.40002441406</ele>
        <time>2021-10-28T04:37:38.000Z</time>
      </trkpt>
      <trkpt lat="45.20931" lon="5.72694">
        <ele>725.79998779297</ele>
        <time>2021-10-28T04:37:39.000Z</time>
      </trkpt>
      <trkpt lat="45.20926" lon="5.72691">
        <ele>724.79998779297</ele>
        <time>2021-10-28T04:37:41.000Z</time>
      </trkpt>
      <trkpt lat="45.20924" lon="5.72688">
        <ele>724.59997558594</ele>
        <time>2021-10-28T04:37:42.000Z</time>
      </trkpt>
      <trkpt lat="45.20921" lon="5.72684">
        <ele>723.79998779297</ele>
        <time>2021-10-28T04:37:44.000Z</time>
      </trkpt>
      <trkpt lat="45.2092" lon="5.72683">
        <ele>723.40002441406</ele>
        <time>2021-10-28T04:37:45.000Z</time>
      </trkpt>
      <trkpt lat="45.20915" lon="5.72682">
        <ele>722.20001220703</ele>
        <time>2021-10-28T04:37:48.000Z</time>
      </trkpt>
      <trkpt lat="45.2091" lon="5.72682">
        <ele>721.40002441406</ele>
        <time>2021-10-28T04:37:51.000Z</time>
      </trkpt>
      <trkpt lat="45.2091" lon="5.72681">
        <ele>720.79998779297</ele>
        <time>2021-10-28T04:37:52.000Z</time>
      </trkpt>
      <trkpt lat="45.20907" lon="5.72683">
        <ele>719.79998779297</ele>
        <time>2021-10-28T04:37:54.000Z</time>
      </trkpt>
      <trkpt lat="45.20906" lon="5.72683">
        <ele>719.59997558594</ele>
        <time>2021-10-28T04:37:55.000Z</time>
      </trkpt>
      <trkpt lat="45.20903" lon="5.72683">
        <ele>718.59997558594</ele>
        <time>2021-10-28T04:37:58.000Z</time>
      </trkpt>
      <trkpt lat="45.20898" lon="5.72683">
        <ele>717.20001220703</ele>
        <time>2021-10-28T04:38:01.000Z</time>
      </trkpt>
      <trkpt lat="45.20895" lon="5.72684">
        <ele>716.59997558594</ele>
        <time>2021-10-28T04:38:03.000Z</time>
      </trkpt>
      <trkpt lat="45.20893" lon="5.72684">
        <ele>716.20001220703</ele>
        <time>2021-10-28T04:38:04.000Z</time>
      </trkpt>
      <trkpt lat="45.20889" lon="5.72685">
        <ele>715</ele>
        <time>2021-10-28T04:38:07.000Z</time>
      </trkpt>
      <trkpt lat="45.20885" lon="5.72686">
        <ele>713.79998779297</ele>
        <time>2021-10-28T04:38:10.000Z</time>
      </trkpt>
      <trkpt lat="45.20879" lon="5.72689">
        <ele>712.79998779297</ele>
        <time>2021-10-28T04:38:13.000Z</time>
      </trkpt>
      <trkpt lat="45.20877" lon="5.72689">
        <ele>712.20001220703</ele>
        <time>2021-10-28T04:38:14.000Z</time>
      </trkpt>
      <trkpt lat="45.2087" lon="5.72691">
        <ele>711.40002441406</ele>
        <time>2021-10-28T04:38:17.000Z</time>
      </trkpt>
      <trkpt lat="45.20867" lon="5.72691">
        <ele>711</ele>
        <time>2021-10-28T04:38:18.000Z</time>
      </trkpt>
      <trkpt lat="45.20858" lon="5.7269">
        <ele>709.59997558594</ele>
        <time>2021-10-28T04:38:22.000Z</time>
      </trkpt>
      <trkpt lat="45.20854" lon="5.7269">
        <ele>709.20001220703</ele>
        <time>2021-10-28T04:38:24.000Z</time>
      </trkpt>
      <trkpt lat="45.20852" lon="5.7269">
        <ele>708.59997558594</ele>
        <time>2021-10-28T04:38:27.000Z</time>
      </trkpt>
      <trkpt lat="45.20849" lon="5.72692">
        <ele>708.20001220703</ele>
        <time>2021-10-28T04:38:29.000Z</time>
      </trkpt>
      <trkpt lat="45.20846" lon="5.72693">
        <ele>707.20001220703</ele>
        <time>2021-10-28T04:38:31.000Z</time>
      </trkpt>
      <trkpt lat="45.20843" lon="5.72694">
        <ele>706.40002441406</ele>
        <time>2021-10-28T04:38:33.000Z</time>
      </trkpt>
      <trkpt lat="45.20841" lon="5.72696">
        <ele>706</ele>
        <time>2021-10-28T04:38:34.000Z</time>
      </trkpt>
      <trkpt lat="45.20836" lon="5.72697">
        <ele>705</ele>
        <time>2021-10-28T04:38:38.000Z</time>
      </trkpt>
      <trkpt lat="45.20835" lon="5.72697">
        <ele>704.79998779297</ele>
        <time>2021-10-28T04:38:39.000Z</time>
      </trkpt>
      <trkpt lat="45.20834" lon="5.72698">
        <ele>704.79998779297</ele>
        <time>2021-10-28T04:38:40.000Z</time>
      </trkpt>
      <trkpt lat="45.20834" lon="5.72701">
        <ele>705</ele>
        <time>2021-10-28T04:38:43.000Z</time>
      </trkpt>
      <trkpt lat="45.20834" lon="5.72706">
        <ele>706.20001220703</ele>
        <time>2021-10-28T04:38:47.000Z</time>
      </trkpt>
      <trkpt lat="45.20833" lon="5.72709">
        <ele>707.40002441406</ele>
        <time>2021-10-28T04:38:50.000Z</time>
      </trkpt>
      <trkpt lat="45.20832" lon="5.7271">
        <ele>707.79998779297</ele>
        <time>2021-10-28T04:38:51.000Z</time>
      </trkpt>
      <trkpt lat="45.20832" lon="5.72712">
        <ele>708.40002441406</ele>
        <time>2021-10-28T04:38:53.000Z</time>
      </trkpt>
      <trkpt lat="45.20832" lon="5.72715">
        <ele>710</ele>
        <time>2021-10-28T04:38:56.000Z</time>
      </trkpt>
      <trkpt lat="45.20829" lon="5.72719">
        <ele>711</ele>
        <time>2021-10-28T04:39:00.000Z</time>
      </trkpt>
      <trkpt lat="45.20826" lon="5.7272">
        <ele>711.20001220703</ele>
        <time>2021-10-28T04:39:03.000Z</time>
      </trkpt>
      <trkpt lat="45.20823" lon="5.72725">
        <ele>711.40002441406</ele>
        <time>2021-10-28T04:39:09.000Z</time>
      </trkpt>
      <trkpt lat="45.20823" lon="5.72726">
        <ele>711.40002441406</ele>
        <time>2021-10-28T04:39:10.000Z</time>
      </trkpt>
      <trkpt lat="45.20819" lon="5.72728">
        <ele>710.40002441406</ele>
        <time>2021-10-28T04:39:15.000Z</time>
      </trkpt>
      <trkpt lat="45.20818" lon="5.72728">
        <ele>710.20001220703</ele>
        <time>2021-10-28T04:39:16.000Z</time>
      </trkpt>
      <trkpt lat="45.20817" lon="5.72728">
        <ele>709.79998779297</ele>
        <time>2021-10-28T04:39:17.000Z</time>
      </trkpt>
      <trkpt lat="45.20808" lon="5.72729">
        <ele>708.59997558594</ele>
        <time>2021-10-28T04:39:22.000Z</time>
      </trkpt>
      <trkpt lat="45.20808" lon="5.7273">
        <ele>708.40002441406</ele>
        <time>2021-10-28T04:39:23.000Z</time>
      </trkpt>
      <trkpt lat="45.20807" lon="5.72731">
        <ele>708.40002441406</ele>
        <time>2021-10-28T04:39:24.000Z</time>
      </trkpt>
      <trkpt lat="45.20804" lon="5.72733">
        <ele>708.20001220703</ele>
        <time>2021-10-28T04:39:26.000Z</time>
      </trkpt>
      <trkpt lat="45.20802" lon="5.72732">
        <ele>708.79998779297</ele>
        <time>2021-10-28T04:39:29.000Z</time>
      </trkpt>
      <trkpt lat="45.20801" lon="5.72732">
        <ele>709.40002441406</ele>
        <time>2021-10-28T04:39:31.000Z</time>
      </trkpt>
      <trkpt lat="45.20801" lon="5.72731">
        <ele>709.79998779297</ele>
        <time>2021-10-28T04:39:32.000Z</time>
      </trkpt>
      <trkpt lat="45.208" lon="5.72731">
        <ele>710</ele>
        <time>2021-10-28T04:39:33.000Z</time>
      </trkpt>
      <trkpt lat="45.208" lon="5.7273">
        <ele>710.40002441406</ele>
        <time>2021-10-28T04:39:35.000Z</time>
      </trkpt>
      <trkpt lat="45.20799" lon="5.72729">
        <ele>710.79998779297</ele>
        <time>2021-10-28T04:39:37.000Z</time>
      </trkpt>
      <trkpt lat="45.20799" lon="5.72727">
        <ele>710.79998779297</ele>
        <time>2021-10-28T04:39:38.000Z</time>
      </trkpt>
      <trkpt lat="45.20799" lon="5.72727">
        <ele>710.59997558594</ele>
        <time>2021-10-28T04:39:42.000Z</time>
      </trkpt>
      <trkpt lat="45.20799" lon="5.72727">
        <ele>710.40002441406</ele>
        <time>2021-10-28T04:39:45.000Z</time>
      </trkpt>
      <trkpt lat="45.20799" lon="5.72727">
        <ele>710.59997558594</ele>
        <time>2021-10-28T04:39:57.000Z</time>
      </trkpt>
      <trkpt lat="45.20799" lon="5.72725">
        <ele>711</ele>
        <time>2021-10-28T04:40:18.000Z</time>
      </trkpt>
      <trkpt lat="45.20799" lon="5.72725">
        <ele>711</ele>
        <time>2021-10-28T04:40:20.000Z</time>
      </trkpt>
      <trkpt lat="45.20799" lon="5.72725">
        <ele>711</ele>
        <time>2021-10-28T04:40:21.000Z</time>
      </trkpt>
      <trkpt lat="45.20799" lon="5.72725">
        <ele>711</ele>
        <time>2021-10-28T04:40:23.000Z</time>
      </trkpt>
      <trkpt lat="45.20799" lon="5.72725">
        <ele>711</ele>
        <time>2021-10-28T04:40:25.000Z</time>
      </trkpt>
      <trkpt lat="45.20799" lon="5.72725">
        <ele>710.79998779297</ele>
        <time>2021-10-28T04:40:33.000Z</time>
      </trkpt>
      <trkpt lat="45.20799" lon="5.72725">
        <ele>710.79998779297</ele>
        <time>2021-10-28T04:40:37.000Z</time>
      </trkpt>
      <trkpt lat="45.20799" lon="5.72725">
        <ele>710.79998779297</ele>
        <time>2021-10-28T04:40:40.000Z</time>
      </trkpt>
      <trkpt lat="45.20798" lon="5.72725">
        <ele>710.79998779297</ele>
        <time>2021-10-28T04:40:47.000Z</time>
      </trkpt>
      <trkpt lat="45.20798" lon="5.72725">
        <ele>710.79998779297</ele>
        <time>2021-10-28T04:40:58.000Z</time>
      </trkpt>
      <trkpt lat="45.20798" lon="5.72726">
        <ele>710.79998779297</ele>
        <time>2021-10-28T04:41:02.000Z</time>
      </trkpt>
      <trkpt lat="45.20798" lon="5.72727">
        <ele>710.79998779297</ele>
        <time>2021-10-28T04:41:25.000Z</time>
      </trkpt>
      <trkpt lat="45.20798" lon="5.72727">
        <ele>710.79998779297</ele>
        <time>2021-10-28T04:41:41.000Z</time>
      </trkpt>
      <trkpt lat="45.20798" lon="5.72727">
        <ele>710.79998779297</ele>
        <time>2021-10-28T04:41:52.000Z</time>
      </trkpt>
      <trkpt lat="45.20798" lon="5.72728">
        <ele>710.79998779297</ele>
        <time>2021-10-28T04:42:02.000Z</time>
      </trkpt>
      <trkpt lat="45.20798" lon="5.72728">
        <ele>710.79998779297</ele>
        <time>2021-10-28T04:42:13.000Z</time>
      </trkpt>
      <trkpt lat="45.20798" lon="5.72729">
        <ele>710.79998779297</ele>
        <time>2021-10-28T04:42:16.000Z</time>
      </trkpt>
      <trkpt lat="45.20798" lon="5.72729">
        <ele>710.79998779297</ele>
        <time>2021-10-28T04:42:18.000Z</time>
      </trkpt>
      <trkpt lat="45.20798" lon="5.72729">
        <ele>710.79998779297</ele>
        <time>2021-10-28T04:42:21.000Z</time>
      </trkpt>
      <trkpt lat="45.20798" lon="5.72729">
        <ele>710.79998779297</ele>
        <time>2021-10-28T04:42:30.000Z</time>
      </trkpt>
      <trkpt lat="45.20797" lon="5.72729">
        <ele>710.79998779297</ele>
        <time>2021-10-28T04:42:34.000Z</time>
      </trkpt>
      <trkpt lat="45.208" lon="5.72729">
        <ele>710.79998779297</ele>
        <time>2021-10-28T04:42:44.000Z</time>
      </trkpt>
      <trkpt lat="45.20806" lon="5.7273">
        <ele>710.79998779297</ele>
        <time>2021-10-28T04:42:48.000Z</time>
      </trkpt>
      <trkpt lat="45.2081" lon="5.7273">
        <ele>710.79998779297</ele>
        <time>2021-10-28T04:42:50.000Z</time>
      </trkpt>
      <trkpt lat="45.20812" lon="5.7273">
        <ele>710.79998779297</ele>
        <time>2021-10-28T04:42:51.000Z</time>
      </trkpt>
      <trkpt lat="45.20814" lon="5.7273">
        <ele>710.79998779297</ele>
        <time>2021-10-28T04:42:53.000Z</time>
      </trkpt>
      <trkpt lat="45.20815" lon="5.72728">
        <ele>711.40002441406</ele>
        <time>2021-10-28T04:42:55.000Z</time>
      </trkpt>
      <trkpt lat="45.20816" lon="5.72728">
        <ele>711.79998779297</ele>
        <time>2021-10-28T04:42:56.000Z</time>
      </trkpt>
      <trkpt lat="45.20817" lon="5.72728">
        <ele>712.40002441406</ele>
        <time>2021-10-28T04:42:57.000Z</time>
      </trkpt>
      <trkpt lat="45.20819" lon="5.72727">
        <ele>713</ele>
        <time>2021-10-28T04:42:59.000Z</time>
      </trkpt>
      <trkpt lat="45.2082" lon="5.72725">
        <ele>713.40002441406</ele>
        <time>2021-10-28T04:43:01.000Z</time>
      </trkpt>
      <trkpt lat="45.20822" lon="5.72723">
        <ele>713.59997558594</ele>
        <time>2021-10-28T04:43:03.000Z</time>
      </trkpt>
      <trkpt lat="45.20825" lon="5.72723">
        <ele>713.40002441406</ele>
        <time>2021-10-28T04:43:06.000Z</time>
      </trkpt>
      <trkpt lat="45.20829" lon="5.72716">
        <ele>713</ele>
        <time>2021-10-28T04:43:11.000Z</time>
      </trkpt>
      <trkpt lat="45.20829" lon="5.72715">
        <ele>712.79998779297</ele>
        <time>2021-10-28T04:43:12.000Z</time>
      </trkpt>
      <trkpt lat="45.20829" lon="5.72714">
        <ele>712</ele>
        <time>2021-10-28T04:43:14.000Z</time>
      </trkpt>
      <trkpt lat="45.20829" lon="5.72713">
        <ele>711.40002441406</ele>
        <time>2021-10-28T04:43:15.000Z</time>
      </trkpt>
      <trkpt lat="45.2083" lon="5.72711">
        <ele>710.40002441406</ele>
        <time>2021-10-28T04:43:17.000Z</time>
      </trkpt>
      <trkpt lat="45.20831" lon="5.72709">
        <ele>709.40002441406</ele>
        <time>2021-10-28T04:43:19.000Z</time>
      </trkpt>
      <trkpt lat="45.20832" lon="5.72708">
        <ele>709.20001220703</ele>
        <time>2021-10-28T04:43:20.000Z</time>
      </trkpt>
      <trkpt lat="45.20833" lon="5.72705">
        <ele>708</ele>
        <time>2021-10-28T04:43:22.000Z</time>
      </trkpt>
      <trkpt lat="45.20834" lon="5.72701">
        <ele>706.79998779297</ele>
        <time>2021-10-28T04:43:24.000Z</time>
      </trkpt>
      <trkpt lat="45.20835" lon="5.72698">
        <ele>706</ele>
        <time>2021-10-28T04:43:25.000Z</time>
      </trkpt>
      <trkpt lat="45.20835" lon="5.72696">
        <ele>705.59997558594</ele>
        <time>2021-10-28T04:43:26.000Z</time>
      </trkpt>
      <trkpt lat="45.20834" lon="5.72684">
        <ele>704.40002441406</ele>
        <time>2021-10-28T04:43:31.000Z</time>
      </trkpt>
      <trkpt lat="45.20835" lon="5.72677">
        <ele>703.20001220703</ele>
        <time>2021-10-28T04:43:34.000Z</time>
      </trkpt>
      <trkpt lat="45.20835" lon="5.7267">
        <ele>702.20001220703</ele>
        <time>2021-10-28T04:43:37.000Z</time>
      </trkpt>
      <trkpt lat="45.20834" lon="5.72667">
        <ele>701</ele>
        <time>2021-10-28T04:43:39.000Z</time>
      </trkpt>
      <trkpt lat="45.20833" lon="5.72664">
        <ele>699.79998779297</ele>
        <time>2021-10-28T04:43:41.000Z</time>
      </trkpt>
      <trkpt lat="45.20831" lon="5.7266">
        <ele>699.20001220703</ele>
        <time>2021-10-28T04:43:43.000Z</time>
      </trkpt>
      <trkpt lat="45.2083" lon="5.72659">
        <ele>698.59997558594</ele>
        <time>2021-10-28T04:43:44.000Z</time>
      </trkpt>
      <trkpt lat="45.20828" lon="5.7266">
        <ele>698.20001220703</ele>
        <time>2021-10-28T04:43:45.000Z</time>
      </trkpt>
      <trkpt lat="45.20827" lon="5.72662">
        <ele>697.59997558594</ele>
        <time>2021-10-28T04:43:47.000Z</time>
      </trkpt>
      <trkpt lat="45.20826" lon="5.72664">
        <ele>697.20001220703</ele>
        <time>2021-10-28T04:43:48.000Z</time>
      </trkpt>
      <trkpt lat="45.20821" lon="5.7267">
        <ele>696.20001220703</ele>
        <time>2021-10-28T04:43:51.000Z</time>
      </trkpt>
      <trkpt lat="45.20815" lon="5.72673">
        <ele>694.59997558594</ele>
        <time>2021-10-28T04:43:54.000Z</time>
      </trkpt>
      <trkpt lat="45.2081" lon="5.72674">
        <ele>693.79998779297</ele>
        <time>2021-10-28T04:43:57.000Z</time>
      </trkpt>
      <trkpt lat="45.20809" lon="5.72673">
        <ele>693.20001220703</ele>
        <time>2021-10-28T04:43:58.000Z</time>
      </trkpt>
      <trkpt lat="45.20807" lon="5.72669">
        <ele>692.40002441406</ele>
        <time>2021-10-28T04:44:00.000Z</time>
      </trkpt>
      <trkpt lat="45.20807" lon="5.72666">
        <ele>692</ele>
        <time>2021-10-28T04:44:01.000Z</time>
      </trkpt>
      <trkpt lat="45.20807" lon="5.72661">
        <ele>690.79998779297</ele>
        <time>2021-10-28T04:44:04.000Z</time>
      </trkpt>
      <trkpt lat="45.20807" lon="5.72657">
        <ele>689.79998779297</ele>
        <time>2021-10-28T04:44:06.000Z</time>
      </trkpt>
      <trkpt lat="45.20807" lon="5.72654">
        <ele>689.40002441406</ele>
        <time>2021-10-28T04:44:07.000Z</time>
      </trkpt>
      <trkpt lat="45.20807" lon="5.72649">
        <ele>688.79998779297</ele>
        <time>2021-10-28T04:44:09.000Z</time>
      </trkpt>
      <trkpt lat="45.20805" lon="5.72644">
        <ele>687.59997558594</ele>
        <time>2021-10-28T04:44:12.000Z</time>
      </trkpt>
      <trkpt lat="45.20805" lon="5.72642">
        <ele>687.20001220703</ele>
        <time>2021-10-28T04:44:13.000Z</time>
      </trkpt>
      <trkpt lat="45.20804" lon="5.7264">
        <ele>686.59997558594</ele>
        <time>2021-10-28T04:44:14.000Z</time>
      </trkpt>
      <trkpt lat="45.20801" lon="5.72633">
        <ele>685.20001220703</ele>
        <time>2021-10-28T04:44:17.000Z</time>
      </trkpt>
      <trkpt lat="45.208" lon="5.72629">
        <ele>684.20001220703</ele>
        <time>2021-10-28T04:44:19.000Z</time>
      </trkpt>
      <trkpt lat="45.20799" lon="5.72629">
        <ele>683.79998779297</ele>
        <time>2021-10-28T04:44:20.000Z</time>
      </trkpt>
      <trkpt lat="45.20798" lon="5.72631">
        <ele>683</ele>
        <time>2021-10-28T04:44:22.000Z</time>
      </trkpt>
      <trkpt lat="45.20797" lon="5.72636">
        <ele>682.20001220703</ele>
        <time>2021-10-28T04:44:24.000Z</time>
      </trkpt>
      <trkpt lat="45.20795" lon="5.72641">
        <ele>681.40002441406</ele>
        <time>2021-10-28T04:44:26.000Z</time>
      </trkpt>
      <trkpt lat="45.20794" lon="5.72642">
        <ele>681.20001220703</ele>
        <time>2021-10-28T04:44:27.000Z</time>
      </trkpt>
      <trkpt lat="45.2079" lon="5.72644">
        <ele>680.40002441406</ele>
        <time>2021-10-28T04:44:29.000Z</time>
      </trkpt>
      <trkpt lat="45.20785" lon="5.72647">
        <ele>679</ele>
        <time>2021-10-28T04:44:32.000Z</time>
      </trkpt>
      <trkpt lat="45.20779" lon="5.72651">
        <ele>677.59997558594</ele>
        <time>2021-10-28T04:44:35.000Z</time>
      </trkpt>
      <trkpt lat="45.20776" lon="5.7265">
        <ele>676.59997558594</ele>
        <time>2021-10-28T04:44:37.000Z</time>
      </trkpt>
      <trkpt lat="45.20775" lon="5.72648">
        <ele>676.20001220703</ele>
        <time>2021-10-28T04:44:38.000Z</time>
      </trkpt>
      <trkpt lat="45.20773" lon="5.72644">
        <ele>675.79998779297</ele>
        <time>2021-10-28T04:44:40.000Z</time>
      </trkpt>
      <trkpt lat="45.20774" lon="5.72641">
        <ele>674.79998779297</ele>
        <time>2021-10-28T04:44:42.000Z</time>
      </trkpt>
      <trkpt lat="45.20774" lon="5.72637">
        <ele>673.79998779297</ele>
        <time>2021-10-28T04:44:44.000Z</time>
      </trkpt>
      <trkpt lat="45.20775" lon="5.72629">
        <ele>672.20001220703</ele>
        <time>2021-10-28T04:44:47.000Z</time>
      </trkpt>
      <trkpt lat="45.20776" lon="5.72627">
        <ele>671.59997558594</ele>
        <time>2021-10-28T04:44:48.000Z</time>
      </trkpt>
      <trkpt lat="45.20776" lon="5.72622">
        <ele>670.79998779297</ele>
        <time>2021-10-28T04:44:50.000Z</time>
      </trkpt>
      <trkpt lat="45.20775" lon="5.72619">
        <ele>670.20001220703</ele>
        <time>2021-10-28T04:44:52.000Z</time>
      </trkpt>
      <trkpt lat="45.20774" lon="5.72617">
        <ele>670</ele>
        <time>2021-10-28T04:44:53.000Z</time>
      </trkpt>
      <trkpt lat="45.20773" lon="5.72616">
        <ele>669.40002441406</ele>
        <time>2021-10-28T04:44:54.000Z</time>
      </trkpt>
      <trkpt lat="45.20772" lon="5.72617">
        <ele>668.79998779297</ele>
        <time>2021-10-28T04:44:55.000Z</time>
      </trkpt>
      <trkpt lat="45.20769" lon="5.72617">
        <ele>667.79998779297</ele>
        <time>2021-10-28T04:44:57.000Z</time>
      </trkpt>
      <trkpt lat="45.20766" lon="5.72617">
        <ele>667.20001220703</ele>
        <time>2021-10-28T04:44:59.000Z</time>
      </trkpt>
      <trkpt lat="45.20764" lon="5.72618">
        <ele>666.59997558594</ele>
        <time>2021-10-28T04:45:00.000Z</time>
      </trkpt>
      <trkpt lat="45.20763" lon="5.72618">
        <ele>666.20001220703</ele>
        <time>2021-10-28T04:45:01.000Z</time>
      </trkpt>
      <trkpt lat="45.20761" lon="5.72619">
        <ele>665.40002441406</ele>
        <time>2021-10-28T04:45:02.000Z</time>
      </trkpt>
      <trkpt lat="45.20759" lon="5.72618">
        <ele>665</ele>
        <time>2021-10-28T04:45:03.000Z</time>
      </trkpt>
      <trkpt lat="45.20757" lon="5.72618">
        <ele>664.20001220703</ele>
        <time>2021-10-28T04:45:04.000Z</time>
      </trkpt>
      <trkpt lat="45.20752" lon="5.72618">
        <ele>663</ele>
        <time>2021-10-28T04:45:07.000Z</time>
      </trkpt>
      <trkpt lat="45.2075" lon="5.72618">
        <ele>662.79998779297</ele>
        <time>2021-10-28T04:45:08.000Z</time>
      </trkpt>
      <trkpt lat="45.20749" lon="5.72617">
        <ele>662.59997558594</ele>
        <time>2021-10-28T04:45:09.000Z</time>
      </trkpt>
      <trkpt lat="45.20749" lon="5.72616">
        <ele>662</ele>
        <time>2021-10-28T04:45:10.000Z</time>
      </trkpt>
      <trkpt lat="45.20748" lon="5.72613">
        <ele>661.20001220703</ele>
        <time>2021-10-28T04:45:12.000Z</time>
      </trkpt>
      <trkpt lat="45.20747" lon="5.7261">
        <ele>660.79998779297</ele>
        <time>2021-10-28T04:45:13.000Z</time>
      </trkpt>
      <trkpt lat="45.20744" lon="5.72603">
        <ele>659.59997558594</ele>
        <time>2021-10-28T04:45:16.000Z</time>
      </trkpt>
      <trkpt lat="45.20742" lon="5.72593">
        <ele>658.20001220703</ele>
        <time>2021-10-28T04:45:19.000Z</time>
      </trkpt>
      <trkpt lat="45.20739" lon="5.7259">
        <ele>657.40002441406</ele>
        <time>2021-10-28T04:45:21.000Z</time>
      </trkpt>
      <trkpt lat="45.20736" lon="5.7259">
        <ele>656.59997558594</ele>
        <time>2021-10-28T04:45:23.000Z</time>
      </trkpt>
      <trkpt lat="45.20734" lon="5.72587">
        <ele>655.40002441406</ele>
        <time>2021-10-28T04:45:25.000Z</time>
      </trkpt>
      <trkpt lat="45.20732" lon="5.72585">
        <ele>654.20001220703</ele>
        <time>2021-10-28T04:45:27.000Z</time>
      </trkpt>
      <trkpt lat="45.20727" lon="5.72582">
        <ele>653.20001220703</ele>
        <time>2021-10-28T04:45:29.000Z</time>
      </trkpt>
      <trkpt lat="45.20722" lon="5.72582">
        <ele>652.40002441406</ele>
        <time>2021-10-28T04:45:31.000Z</time>
      </trkpt>
      <trkpt lat="45.2072" lon="5.72583">
        <ele>652</ele>
        <time>2021-10-28T04:45:32.000Z</time>
      </trkpt>
      <trkpt lat="45.20715" lon="5.72582">
        <ele>651</ele>
        <time>2021-10-28T04:45:34.000Z</time>
      </trkpt>
      <trkpt lat="45.20714" lon="5.72581">
        <ele>650.79998779297</ele>
        <time>2021-10-28T04:45:35.000Z</time>
      </trkpt>
      <trkpt lat="45.20713" lon="5.7258">
        <ele>650.40002441406</ele>
        <time>2021-10-28T04:45:36.000Z</time>
      </trkpt>
      <trkpt lat="45.2071" lon="5.72578">
        <ele>649.40002441406</ele>
        <time>2021-10-28T04:45:38.000Z</time>
      </trkpt>
      <trkpt lat="45.20707" lon="5.72576">
        <ele>648.79998779297</ele>
        <time>2021-10-28T04:45:40.000Z</time>
      </trkpt>
      <trkpt lat="45.20706" lon="5.72574">
        <ele>648.20001220703</ele>
        <time>2021-10-28T04:45:41.000Z</time>
      </trkpt>
      <trkpt lat="45.20705" lon="5.72572">
        <ele>647.79998779297</ele>
        <time>2021-10-28T04:45:42.000Z</time>
      </trkpt>
      <trkpt lat="45.20703" lon="5.7257">
        <ele>647</ele>
        <time>2021-10-28T04:45:44.000Z</time>
      </trkpt>
      <trkpt lat="45.20698" lon="5.72568">
        <ele>646</ele>
        <time>2021-10-28T04:45:47.000Z</time>
      </trkpt>
      <trkpt lat="45.20696" lon="5.72568">
        <ele>645.59997558594</ele>
        <time>2021-10-28T04:45:48.000Z</time>
      </trkpt>
      <trkpt lat="45.20692" lon="5.7257">
        <ele>644.79998779297</ele>
        <time>2021-10-28T04:45:50.000Z</time>
      </trkpt>
      <trkpt lat="45.20684" lon="5.72572">
        <ele>643.59997558594</ele>
        <time>2021-10-28T04:45:53.000Z</time>
      </trkpt>
      <trkpt lat="45.20682" lon="5.72572">
        <ele>643.40002441406</ele>
        <time>2021-10-28T04:45:54.000Z</time>
      </trkpt>
      <trkpt lat="45.2068" lon="5.72574">
        <ele>642.79998779297</ele>
        <time>2021-10-28T04:45:55.000Z</time>
      </trkpt>
      <trkpt lat="45.20678" lon="5.72575">
        <ele>642.40002441406</ele>
        <time>2021-10-28T04:45:56.000Z</time>
      </trkpt>
      <trkpt lat="45.20674" lon="5.72579">
        <ele>641.59997558594</ele>
        <time>2021-10-28T04:45:58.000Z</time>
      </trkpt>
      <trkpt lat="45.20672" lon="5.72581">
        <ele>641.20001220703</ele>
        <time>2021-10-28T04:45:59.000Z</time>
      </trkpt>
      <trkpt lat="45.20663" lon="5.72589">
        <ele>639.79998779297</ele>
        <time>2021-10-28T04:46:03.000Z</time>
      </trkpt>
      <trkpt lat="45.20659" lon="5.72593">
        <ele>639.20001220703</ele>
        <time>2021-10-28T04:46:05.000Z</time>
      </trkpt>
      <trkpt lat="45.20655" lon="5.72597">
        <ele>639</ele>
        <time>2021-10-28T04:46:07.000Z</time>
      </trkpt>
      <trkpt lat="45.20652" lon="5.72598">
        <ele>638.59997558594</ele>
        <time>2021-10-28T04:46:08.000Z</time>
      </trkpt>
      <trkpt lat="45.20645" lon="5.726">
        <ele>638</ele>
        <time>2021-10-28T04:46:11.000Z</time>
      </trkpt>
      <trkpt lat="45.20637" lon="5.72602">
        <ele>637.59997558594</ele>
        <time>2021-10-28T04:46:14.000Z</time>
      </trkpt>
      <trkpt lat="45.20635" lon="5.72601">
        <ele>637.40002441406</ele>
        <time>2021-10-28T04:46:15.000Z</time>
      </trkpt>
      <trkpt lat="45.20631" lon="5.726">
        <ele>637</ele>
        <time>2021-10-28T04:46:17.000Z</time>
      </trkpt>
      <trkpt lat="45.20624" lon="5.72597">
        <ele>636.20001220703</ele>
        <time>2021-10-28T04:46:20.000Z</time>
      </trkpt>
      <trkpt lat="45.20617" lon="5.72593">
        <ele>635.20001220703</ele>
        <time>2021-10-28T04:46:23.000Z</time>
      </trkpt>
      <trkpt lat="45.20608" lon="5.72586">
        <ele>634</ele>
        <time>2021-10-28T04:46:27.000Z</time>
      </trkpt>
      <trkpt lat="45.20605" lon="5.72585">
        <ele>634</ele>
        <time>2021-10-28T04:46:28.000Z</time>
      </trkpt>
      <trkpt lat="45.20594" lon="5.72576">
        <ele>633.59997558594</ele>
        <time>2021-10-28T04:46:32.000Z</time>
      </trkpt>
      <trkpt lat="45.20592" lon="5.72574">
        <ele>633.40002441406</ele>
        <time>2021-10-28T04:46:33.000Z</time>
      </trkpt>
      <trkpt lat="45.20587" lon="5.72569">
        <ele>632.79998779297</ele>
        <time>2021-10-28T04:46:36.000Z</time>
      </trkpt>
      <trkpt lat="45.20583" lon="5.72566">
        <ele>632.20001220703</ele>
        <time>2021-10-28T04:46:38.000Z</time>
      </trkpt>
      <trkpt lat="45.20576" lon="5.72563">
        <ele>631.59997558594</ele>
        <time>2021-10-28T04:46:40.000Z</time>
      </trkpt>
      <trkpt lat="45.20563" lon="5.72561">
        <ele>630.79998779297</ele>
        <time>2021-10-28T04:46:44.000Z</time>
      </trkpt>
      <trkpt lat="45.20557" lon="5.72559">
        <ele>630.40002441406</ele>
        <time>2021-10-28T04:46:46.000Z</time>
      </trkpt>
      <trkpt lat="45.20554" lon="5.72559">
        <ele>630.20001220703</ele>
        <time>2021-10-28T04:46:47.000Z</time>
      </trkpt>
      <trkpt lat="45.20548" lon="5.7256">
        <ele>629.79998779297</ele>
        <time>2021-10-28T04:46:49.000Z</time>
      </trkpt>
      <trkpt lat="45.20539" lon="5.72561">
        <ele>629.40002441406</ele>
        <time>2021-10-28T04:46:52.000Z</time>
      </trkpt>
      <trkpt lat="45.20531" lon="5.7256">
        <ele>629.20001220703</ele>
        <time>2021-10-28T04:46:55.000Z</time>
      </trkpt>
      <trkpt lat="45.20529" lon="5.7256">
        <ele>629.20001220703</ele>
        <time>2021-10-28T04:46:56.000Z</time>
      </trkpt>
      <trkpt lat="45.20521" lon="5.7256">
        <ele>630.20001220703</ele>
        <time>2021-10-28T04:47:00.000Z</time>
      </trkpt>
      <trkpt lat="45.20519" lon="5.72559">
        <ele>630.40002441406</ele>
        <time>2021-10-28T04:47:01.000Z</time>
      </trkpt>
      <trkpt lat="45.20516" lon="5.72558">
        <ele>630.59997558594</ele>
        <time>2021-10-28T04:47:02.000Z</time>
      </trkpt>
      <trkpt lat="45.20512" lon="5.72555">
        <ele>631</ele>
        <time>2021-10-28T04:47:04.000Z</time>
      </trkpt>
      <trkpt lat="45.20504" lon="5.72545">
        <ele>631.40002441406</ele>
        <time>2021-10-28T04:47:08.000Z</time>
      </trkpt>
      <trkpt lat="45.20494" lon="5.72532">
        <ele>631.20001220703</ele>
        <time>2021-10-28T04:47:13.000Z</time>
      </trkpt>
      <trkpt lat="45.20493" lon="5.72529">
        <ele>631</ele>
        <time>2021-10-28T04:47:14.000Z</time>
      </trkpt>
      <trkpt lat="45.20486" lon="5.72505">
        <ele>630.40002441406</ele>
        <time>2021-10-28T04:47:20.000Z</time>
      </trkpt>
      <trkpt lat="45.20482" lon="5.72484">
        <ele>629.79998779297</ele>
        <time>2021-10-28T04:47:26.000Z</time>
      </trkpt>
      <trkpt lat="45.20482" lon="5.7247">
        <ele>631.20001220703</ele>
        <time>2021-10-28T04:47:31.000Z</time>
      </trkpt>
      <trkpt lat="45.20482" lon="5.72467">
        <ele>631.79998779297</ele>
        <time>2021-10-28T04:47:32.000Z</time>
      </trkpt>
      <trkpt lat="45.20481" lon="5.72462">
        <ele>632.40002441406</ele>
        <time>2021-10-28T04:47:34.000Z</time>
      </trkpt>
      <trkpt lat="45.20481" lon="5.72459">
        <ele>633</ele>
        <time>2021-10-28T04:47:35.000Z</time>
      </trkpt>
      <trkpt lat="45.20479" lon="5.72454">
        <ele>634.20001220703</ele>
        <time>2021-10-28T04:47:38.000Z</time>
      </trkpt>
      <trkpt lat="45.20476" lon="5.72445">
        <ele>635</ele>
        <time>2021-10-28T04:47:41.000Z</time>
      </trkpt>
      <trkpt lat="45.20475" lon="5.72442">
        <ele>635.20001220703</ele>
        <time>2021-10-28T04:47:42.000Z</time>
      </trkpt>
      <trkpt lat="45.20473" lon="5.7244">
        <ele>635.20001220703</ele>
        <time>2021-10-28T04:47:43.000Z</time>
      </trkpt>
      <trkpt lat="45.20471" lon="5.72438">
        <ele>635.40002441406</ele>
        <time>2021-10-28T04:47:44.000Z</time>
      </trkpt>
      <trkpt lat="45.20467" lon="5.72434">
        <ele>635.59997558594</ele>
        <time>2021-10-28T04:47:46.000Z</time>
      </trkpt>
      <trkpt lat="45.20463" lon="5.72432">
        <ele>635.59997558594</ele>
        <time>2021-10-28T04:47:48.000Z</time>
      </trkpt>
      <trkpt lat="45.20459" lon="5.7243">
        <ele>635.79998779297</ele>
        <time>2021-10-28T04:47:50.000Z</time>
      </trkpt>
      <trkpt lat="45.2045" lon="5.72427">
        <ele>635.79998779297</ele>
        <time>2021-10-28T04:47:54.000Z</time>
      </trkpt>
      <trkpt lat="45.20448" lon="5.72426">
        <ele>635.59997558594</ele>
        <time>2021-10-28T04:47:55.000Z</time>
      </trkpt>
      <trkpt lat="45.20439" lon="5.72423">
        <ele>635.40002441406</ele>
        <time>2021-10-28T04:48:00.000Z</time>
      </trkpt>
      <trkpt lat="45.20437" lon="5.72423">
        <ele>635.20001220703</ele>
        <time>2021-10-28T04:48:01.000Z</time>
      </trkpt>
      <trkpt lat="45.20427" lon="5.72423">
        <ele>635.40002441406</ele>
        <time>2021-10-28T04:48:06.000Z</time>
      </trkpt>
      <trkpt lat="45.20426" lon="5.72424">
        <ele>635.40002441406</ele>
        <time>2021-10-28T04:48:07.000Z</time>
      </trkpt>
      <trkpt lat="45.20424" lon="5.72425">
        <ele>635.59997558594</ele>
        <time>2021-10-28T04:48:08.000Z</time>
      </trkpt>
      <trkpt lat="45.20415" lon="5.72428">
        <ele>636.20001220703</ele>
        <time>2021-10-28T04:48:13.000Z</time>
      </trkpt>
      <trkpt lat="45.2041" lon="5.72429">
        <ele>636.59997558594</ele>
        <time>2021-10-28T04:48:15.000Z</time>
      </trkpt>
      <trkpt lat="45.20403" lon="5.72429">
        <ele>636.59997558594</ele>
        <time>2021-10-28T04:48:18.000Z</time>
      </trkpt>
      <trkpt lat="45.204" lon="5.72425">
        <ele>636.59997558594</ele>
        <time>2021-10-28T04:48:20.000Z</time>
      </trkpt>
      <trkpt lat="45.20398" lon="5.72416">
        <ele>637</ele>
        <time>2021-10-28T04:48:24.000Z</time>
      </trkpt>
      <trkpt lat="45.20396" lon="5.72416">
        <ele>637</ele>
        <time>2021-10-28T04:48:27.000Z</time>
      </trkpt>
      <trkpt lat="45.20395" lon="5.72416">
        <ele>636.79998779297</ele>
        <time>2021-10-28T04:48:29.000Z</time>
      </trkpt>
      <trkpt lat="45.20394" lon="5.72417">
        <ele>636.59997558594</ele>
        <time>2021-10-28T04:48:30.000Z</time>
      </trkpt>
      <trkpt lat="45.20389" lon="5.7242">
        <ele>636.20001220703</ele>
        <time>2021-10-28T04:48:34.000Z</time>
      </trkpt>
      <trkpt lat="45.20386" lon="5.72424">
        <ele>635.40002441406</ele>
        <time>2021-10-28T04:48:38.000Z</time>
      </trkpt>
      <trkpt lat="45.20386" lon="5.7243">
        <ele>635.20001220703</ele>
        <time>2021-10-28T04:48:40.000Z</time>
      </trkpt>
      <trkpt lat="45.20387" lon="5.72438">
        <ele>634.40002441406</ele>
        <time>2021-10-28T04:48:44.000Z</time>
      </trkpt>
      <trkpt lat="45.20388" lon="5.72439">
        <ele>634.40002441406</ele>
        <time>2021-10-28T04:48:45.000Z</time>
      </trkpt>
      <trkpt lat="45.20389" lon="5.7244">
        <ele>634.40002441406</ele>
        <time>2021-10-28T04:48:46.000Z</time>
      </trkpt>
      <trkpt lat="45.20396" lon="5.72439">
        <ele>634</ele>
        <time>2021-10-28T04:48:51.000Z</time>
      </trkpt>
      <trkpt lat="45.20399" lon="5.72438">
        <ele>633.59997558594</ele>
        <time>2021-10-28T04:48:53.000Z</time>
      </trkpt>
      <trkpt lat="45.204" lon="5.72439">
        <ele>633.40002441406</ele>
        <time>2021-10-28T04:48:54.000Z</time>
      </trkpt>
      <trkpt lat="45.20401" lon="5.7244">
        <ele>632.79998779297</ele>
        <time>2021-10-28T04:48:56.000Z</time>
      </trkpt>
      <trkpt lat="45.20401" lon="5.72441">
        <ele>632.59997558594</ele>
        <time>2021-10-28T04:48:57.000Z</time>
      </trkpt>
      <trkpt lat="45.20401" lon="5.72444">
        <ele>632</ele>
        <time>2021-10-28T04:48:59.000Z</time>
      </trkpt>
      <trkpt lat="45.20402" lon="5.72445">
        <ele>631.59997558594</ele>
        <time>2021-10-28T04:49:00.000Z</time>
      </trkpt>
      <trkpt lat="45.20403" lon="5.72445">
        <ele>631.40002441406</ele>
        <time>2021-10-28T04:49:01.000Z</time>
      </trkpt>
      <trkpt lat="45.20408" lon="5.72449">
        <ele>630.59997558594</ele>
        <time>2021-10-28T04:49:04.000Z</time>
      </trkpt>
      <trkpt lat="45.20411" lon="5.72454">
        <ele>630</ele>
        <time>2021-10-28T04:49:06.000Z</time>
      </trkpt>
      <trkpt lat="45.20418" lon="5.72461">
        <ele>629.40002441406</ele>
        <time>2021-10-28T04:49:09.000Z</time>
      </trkpt>
      <trkpt lat="45.20428" lon="5.72469">
        <ele>629</ele>
        <time>2021-10-28T04:49:13.000Z</time>
      </trkpt>
      <trkpt lat="45.20443" lon="5.72475">
        <ele>629.59997558594</ele>
        <time>2021-10-28T04:49:20.000Z</time>
      </trkpt>
      <trkpt lat="45.20458" lon="5.7248">
        <ele>629.59997558594</ele>
        <time>2021-10-28T04:49:26.000Z</time>
      </trkpt>
      <trkpt lat="45.2047" lon="5.72486">
        <ele>629.40002441406</ele>
        <time>2021-10-28T04:49:32.000Z</time>
      </trkpt>
      <trkpt lat="45.20482" lon="5.72506">
        <ele>629.79998779297</ele>
        <time>2021-10-28T04:49:38.000Z</time>
      </trkpt>
      <trkpt lat="45.20483" lon="5.72529">
        <ele>629.59997558594</ele>
        <time>2021-10-28T04:49:44.000Z</time>
      </trkpt>
      <trkpt lat="45.20488" lon="5.72543">
        <ele>628.40002441406</ele>
        <time>2021-10-28T04:49:49.000Z</time>
      </trkpt>
      <trkpt lat="45.20489" lon="5.72546">
        <ele>628</ele>
        <time>2021-10-28T04:49:50.000Z</time>
      </trkpt>
      <trkpt lat="45.2049" lon="5.72552">
        <ele>627.20001220703</ele>
        <time>2021-10-28T04:49:52.000Z</time>
      </trkpt>
      <trkpt lat="45.2049" lon="5.72558">
        <ele>626</ele>
        <time>2021-10-28T04:49:54.000Z</time>
      </trkpt>
      <trkpt lat="45.20487" lon="5.72566">
        <ele>624.79998779297</ele>
        <time>2021-10-28T04:49:57.000Z</time>
      </trkpt>
      <trkpt lat="45.20479" lon="5.72559">
        <ele>623.59997558594</ele>
        <time>2021-10-28T04:50:01.000Z</time>
      </trkpt>
      <trkpt lat="45.20471" lon="5.7255">
        <ele>622.59997558594</ele>
        <time>2021-10-28T04:50:05.000Z</time>
      </trkpt>
      <trkpt lat="45.20464" lon="5.72543">
        <ele>621.40002441406</ele>
        <time>2021-10-28T04:50:09.000Z</time>
      </trkpt>
      <trkpt lat="45.20456" lon="5.72534">
        <ele>620.40002441406</ele>
        <time>2021-10-28T04:50:13.000Z</time>
      </trkpt>
      <trkpt lat="45.20453" lon="5.72528">
        <ele>620</ele>
        <time>2021-10-28T04:50:15.000Z</time>
      </trkpt>
      <trkpt lat="45.20448" lon="5.72522">
        <ele>619</ele>
        <time>2021-10-28T04:50:18.000Z</time>
      </trkpt>
      <trkpt lat="45.20443" lon="5.72522">
        <ele>618.20001220703</ele>
        <time>2021-10-28T04:50:20.000Z</time>
      </trkpt>
      <trkpt lat="45.20441" lon="5.72522">
        <ele>618</ele>
        <time>2021-10-28T04:50:21.000Z</time>
      </trkpt>
      <trkpt lat="45.20437" lon="5.72523">
        <ele>617.40002441406</ele>
        <time>2021-10-28T04:50:25.000Z</time>
      </trkpt>
      <trkpt lat="45.20437" lon="5.72523">
        <ele>617</ele>
        <time>2021-10-28T04:50:26.000Z</time>
      </trkpt>
      <trkpt lat="45.20436" lon="5.72523">
        <ele>616.59997558594</ele>
        <time>2021-10-28T04:50:27.000Z</time>
      </trkpt>
      <trkpt lat="45.20434" lon="5.72523">
        <ele>615</ele>
        <time>2021-10-28T04:50:30.000Z</time>
      </trkpt>
      <trkpt lat="45.20433" lon="5.72522">
        <ele>614.40002441406</ele>
        <time>2021-10-28T04:50:31.000Z</time>
      </trkpt>
      <trkpt lat="45.20431" lon="5.72522">
        <ele>614.20001220703</ele>
        <time>2021-10-28T04:50:32.000Z</time>
      </trkpt>
      <trkpt lat="45.20429" lon="5.72521">
        <ele>613.79998779297</ele>
        <time>2021-10-28T04:50:33.000Z</time>
      </trkpt>
      <trkpt lat="45.20428" lon="5.72521">
        <ele>613</ele>
        <time>2021-10-28T04:50:35.000Z</time>
      </trkpt>
      <trkpt lat="45.20427" lon="5.72521">
        <ele>612.40002441406</ele>
        <time>2021-10-28T04:50:36.000Z</time>
      </trkpt>
      <trkpt lat="45.20426" lon="5.72521">
        <ele>612</ele>
        <time>2021-10-28T04:50:37.000Z</time>
      </trkpt>
      <trkpt lat="45.20425" lon="5.72523">
        <ele>611.40002441406</ele>
        <time>2021-10-28T04:50:39.000Z</time>
      </trkpt>
      <trkpt lat="45.20422" lon="5.72524">
        <ele>610.59997558594</ele>
        <time>2021-10-28T04:50:41.000Z</time>
      </trkpt>
      <trkpt lat="45.2042" lon="5.72525">
        <ele>610.20001220703</ele>
        <time>2021-10-28T04:50:42.000Z</time>
      </trkpt>
      <trkpt lat="45.2042" lon="5.72527">
        <ele>609.79998779297</ele>
        <time>2021-10-28T04:50:43.000Z</time>
      </trkpt>
      <trkpt lat="45.20419" lon="5.72528">
        <ele>609.40002441406</ele>
        <time>2021-10-28T04:50:44.000Z</time>
      </trkpt>
      <trkpt lat="45.20419" lon="5.72529">
        <ele>609</ele>
        <time>2021-10-28T04:50:45.000Z</time>
      </trkpt>
      <trkpt lat="45.20418" lon="5.72532">
        <ele>608.40002441406</ele>
        <time>2021-10-28T04:50:47.000Z</time>
      </trkpt>
      <trkpt lat="45.20418" lon="5.72534">
        <ele>608</ele>
        <time>2021-10-28T04:50:48.000Z</time>
      </trkpt>
      <trkpt lat="45.20418" lon="5.72534">
        <ele>607.59997558594</ele>
        <time>2021-10-28T04:50:49.000Z</time>
      </trkpt>
      <trkpt lat="45.20415" lon="5.72535">
        <ele>606.40002441406</ele>
        <time>2021-10-28T04:50:52.000Z</time>
      </trkpt>
      <trkpt lat="45.20412" lon="5.72536">
        <ele>605.40002441406</ele>
        <time>2021-10-28T04:50:55.000Z</time>
      </trkpt>
      <trkpt lat="45.20411" lon="5.72538">
        <ele>605.20001220703</ele>
        <time>2021-10-28T04:50:56.000Z</time>
      </trkpt>
      <trkpt lat="45.20408" lon="5.72539">
        <ele>603.79998779297</ele>
        <time>2021-10-28T04:50:59.000Z</time>
      </trkpt>
      <trkpt lat="45.20406" lon="5.72542">
        <ele>602.79998779297</ele>
        <time>2021-10-28T04:51:03.000Z</time>
      </trkpt>
      <trkpt lat="45.20404" lon="5.72544">
        <ele>602</ele>
        <time>2021-10-28T04:51:06.000Z</time>
      </trkpt>
      <trkpt lat="45.20402" lon="5.72543">
        <ele>601.79998779297</ele>
        <time>2021-10-28T04:51:07.000Z</time>
      </trkpt>
      <trkpt lat="45.20399" lon="5.7254">
        <ele>600.79998779297</ele>
        <time>2021-10-28T04:51:10.000Z</time>
      </trkpt>
      <trkpt lat="45.20398" lon="5.72541">
        <ele>600.40002441406</ele>
        <time>2021-10-28T04:51:11.000Z</time>
      </trkpt>
      <trkpt lat="45.20396" lon="5.72542">
        <ele>599.59997558594</ele>
        <time>2021-10-28T04:51:13.000Z</time>
      </trkpt>
      <trkpt lat="45.20395" lon="5.72544">
        <ele>599.20001220703</ele>
        <time>2021-10-28T04:51:14.000Z</time>
      </trkpt>
      <trkpt lat="45.20392" lon="5.72548">
        <ele>598</ele>
        <time>2021-10-28T04:51:17.000Z</time>
      </trkpt>
      <trkpt lat="45.20391" lon="5.72549">
        <ele>597.40002441406</ele>
        <time>2021-10-28T04:51:18.000Z</time>
      </trkpt>
      <trkpt lat="45.20389" lon="5.72548">
        <ele>597</ele>
        <time>2021-10-28T04:51:19.000Z</time>
      </trkpt>
      <trkpt lat="45.20387" lon="5.72545">
        <ele>596.20001220703</ele>
        <time>2021-10-28T04:51:21.000Z</time>
      </trkpt>
      <trkpt lat="45.20386" lon="5.72544">
        <ele>595.79998779297</ele>
        <time>2021-10-28T04:51:22.000Z</time>
      </trkpt>
      <trkpt lat="45.20383" lon="5.72541">
        <ele>595</ele>
        <time>2021-10-28T04:51:25.000Z</time>
      </trkpt>
      <trkpt lat="45.20382" lon="5.7254">
        <ele>594.79998779297</ele>
        <time>2021-10-28T04:51:26.000Z</time>
      </trkpt>
      <trkpt lat="45.20381" lon="5.72538">
        <ele>594</ele>
        <time>2021-10-28T04:51:28.000Z</time>
      </trkpt>
      <trkpt lat="45.2038" lon="5.72537">
        <ele>593.59997558594</ele>
        <time>2021-10-28T04:51:29.000Z</time>
      </trkpt>
      <trkpt lat="45.20379" lon="5.72536">
        <ele>592.59997558594</ele>
        <time>2021-10-28T04:51:31.000Z</time>
      </trkpt>
      <trkpt lat="45.20379" lon="5.72536">
        <ele>592.40002441406</ele>
        <time>2021-10-28T04:51:32.000Z</time>
      </trkpt>
      <trkpt lat="45.20377" lon="5.72535">
        <ele>591.40002441406</ele>
        <time>2021-10-28T04:51:34.000Z</time>
      </trkpt>
      <trkpt lat="45.20375" lon="5.72532">
        <ele>590.20001220703</ele>
        <time>2021-10-28T04:51:36.000Z</time>
      </trkpt>
      <trkpt lat="45.20373" lon="5.72531">
        <ele>589.79998779297</ele>
        <time>2021-10-28T04:51:37.000Z</time>
      </trkpt>
      <trkpt lat="45.20372" lon="5.7253">
        <ele>589.40002441406</ele>
        <time>2021-10-28T04:51:38.000Z</time>
      </trkpt>
      <trkpt lat="45.2037" lon="5.7253">
        <ele>589</ele>
        <time>2021-10-28T04:51:39.000Z</time>
      </trkpt>
      <trkpt lat="45.20369" lon="5.72529">
        <ele>588.40002441406</ele>
        <time>2021-10-28T04:51:40.000Z</time>
      </trkpt>
      <trkpt lat="45.20368" lon="5.72528">
        <ele>588.20001220703</ele>
        <time>2021-10-28T04:51:41.000Z</time>
      </trkpt>
      <trkpt lat="45.20365" lon="5.72528">
        <ele>587.79998779297</ele>
        <time>2021-10-28T04:51:43.000Z</time>
      </trkpt>
      <trkpt lat="45.20363" lon="5.72527">
        <ele>587.40002441406</ele>
        <time>2021-10-28T04:51:45.000Z</time>
      </trkpt>
      <trkpt lat="45.20362" lon="5.72526">
        <ele>587.40002441406</ele>
        <time>2021-10-28T04:51:46.000Z</time>
      </trkpt>
      <trkpt lat="45.2036" lon="5.72525">
        <ele>586.79998779297</ele>
        <time>2021-10-28T04:51:48.000Z</time>
      </trkpt>
      <trkpt lat="45.20359" lon="5.72525">
        <ele>586.20001220703</ele>
        <time>2021-10-28T04:51:50.000Z</time>
      </trkpt>
      <trkpt lat="45.20357" lon="5.72527">
        <ele>585.20001220703</ele>
        <time>2021-10-28T04:51:52.000Z</time>
      </trkpt>
      <trkpt lat="45.20354" lon="5.72528">
        <ele>583.79998779297</ele>
        <time>2021-10-28T04:51:56.000Z</time>
      </trkpt>
      <trkpt lat="45.20352" lon="5.72528">
        <ele>582.79998779297</ele>
        <time>2021-10-28T04:51:58.000Z</time>
      </trkpt>
      <trkpt lat="45.20348" lon="5.72528">
        <ele>582.20001220703</ele>
        <time>2021-10-28T04:52:00.000Z</time>
      </trkpt>
      <trkpt lat="45.20346" lon="5.72527">
        <ele>581.40002441406</ele>
        <time>2021-10-28T04:52:02.000Z</time>
      </trkpt>
      <trkpt lat="45.20345" lon="5.72527">
        <ele>581</ele>
        <time>2021-10-28T04:52:03.000Z</time>
      </trkpt>
      <trkpt lat="45.20343" lon="5.72527">
        <ele>580.20001220703</ele>
        <time>2021-10-28T04:52:05.000Z</time>
      </trkpt>
      <trkpt lat="45.2034" lon="5.72528">
        <ele>579.59997558594</ele>
        <time>2021-10-28T04:52:08.000Z</time>
      </trkpt>
      <trkpt lat="45.20339" lon="5.72529">
        <ele>578.79998779297</ele>
        <time>2021-10-28T04:52:10.000Z</time>
      </trkpt>
      <trkpt lat="45.20338" lon="5.72528">
        <ele>578</ele>
        <time>2021-10-28T04:52:12.000Z</time>
      </trkpt>
      <trkpt lat="45.20337" lon="5.72527">
        <ele>577.79998779297</ele>
        <time>2021-10-28T04:52:13.000Z</time>
      </trkpt>
      <trkpt lat="45.20337" lon="5.72528">
        <ele>577.20001220703</ele>
        <time>2021-10-28T04:52:16.000Z</time>
      </trkpt>
      <trkpt lat="45.20337" lon="5.72526">
        <ele>576.79998779297</ele>
        <time>2021-10-28T04:52:18.000Z</time>
      </trkpt>
      <trkpt lat="45.20337" lon="5.72527">
        <ele>576.79998779297</ele>
        <time>2021-10-28T04:52:19.000Z</time>
      </trkpt>
      <trkpt lat="45.20336" lon="5.72527">
        <ele>576.59997558594</ele>
        <time>2021-10-28T04:52:20.000Z</time>
      </trkpt>
      <trkpt lat="45.20335" lon="5.72527">
        <ele>576</ele>
        <time>2021-10-28T04:52:23.000Z</time>
      </trkpt>
      <trkpt lat="45.20333" lon="5.72527">
        <ele>575.40002441406</ele>
        <time>2021-10-28T04:52:24.000Z</time>
      </trkpt>
      <trkpt lat="45.20329" lon="5.72528">
        <ele>574.40002441406</ele>
        <time>2021-10-28T04:52:27.000Z</time>
      </trkpt>
      <trkpt lat="45.20325" lon="5.72528">
        <ele>573.79998779297</ele>
        <time>2021-10-28T04:52:29.000Z</time>
      </trkpt>
      <trkpt lat="45.20322" lon="5.72527">
        <ele>573.20001220703</ele>
        <time>2021-10-28T04:52:30.000Z</time>
      </trkpt>
      <trkpt lat="45.20321" lon="5.72527">
        <ele>572.59997558594</ele>
        <time>2021-10-28T04:52:31.000Z</time>
      </trkpt>
      <trkpt lat="45.20319" lon="5.72526">
        <ele>572.20001220703</ele>
        <time>2021-10-28T04:52:32.000Z</time>
      </trkpt>
      <trkpt lat="45.20318" lon="5.72524">
        <ele>571.20001220703</ele>
        <time>2021-10-28T04:52:34.000Z</time>
      </trkpt>
      <trkpt lat="45.20315" lon="5.72523">
        <ele>570</ele>
        <time>2021-10-28T04:52:37.000Z</time>
      </trkpt>
      <trkpt lat="45.20311" lon="5.72522">
        <ele>569</ele>
        <time>2021-10-28T04:52:40.000Z</time>
      </trkpt>
      <trkpt lat="45.20307" lon="5.72522">
        <ele>567.79998779297</ele>
        <time>2021-10-28T04:52:43.000Z</time>
      </trkpt>
      <trkpt lat="45.20302" lon="5.72521">
        <ele>566.79998779297</ele>
        <time>2021-10-28T04:52:46.000Z</time>
      </trkpt>
      <trkpt lat="45.20297" lon="5.72521">
        <ele>565.59997558594</ele>
        <time>2021-10-28T04:52:49.000Z</time>
      </trkpt>
      <trkpt lat="45.20292" lon="5.7252">
        <ele>564.79998779297</ele>
        <time>2021-10-28T04:52:51.000Z</time>
      </trkpt>
      <trkpt lat="45.20291" lon="5.7252">
        <ele>564.40002441406</ele>
        <time>2021-10-28T04:52:52.000Z</time>
      </trkpt>
      <trkpt lat="45.20289" lon="5.7252">
        <ele>564</ele>
        <time>2021-10-28T04:52:53.000Z</time>
      </trkpt>
      <trkpt lat="45.20284" lon="5.7252">
        <ele>563</ele>
        <time>2021-10-28T04:52:56.000Z</time>
      </trkpt>
      <trkpt lat="45.2028" lon="5.7252">
        <ele>562.40002441406</ele>
        <time>2021-10-28T04:52:58.000Z</time>
      </trkpt>
      <trkpt lat="45.20276" lon="5.7252">
        <ele>561.59997558594</ele>
        <time>2021-10-28T04:53:00.000Z</time>
      </trkpt>
      <trkpt lat="45.20271" lon="5.72521">
        <ele>560.20001220703</ele>
        <time>2021-10-28T04:53:03.000Z</time>
      </trkpt>
      <trkpt lat="45.20266" lon="5.72523">
        <ele>559</ele>
        <time>2021-10-28T04:53:06.000Z</time>
      </trkpt>
      <trkpt lat="45.2026" lon="5.72522">
        <ele>557.79998779297</ele>
        <time>2021-10-28T04:53:09.000Z</time>
      </trkpt>
      <trkpt lat="45.20259" lon="5.72522">
        <ele>557.40002441406</ele>
        <time>2021-10-28T04:53:10.000Z</time>
      </trkpt>
      <trkpt lat="45.20257" lon="5.72522">
        <ele>557</ele>
        <time>2021-10-28T04:53:11.000Z</time>
      </trkpt>
      <trkpt lat="45.20255" lon="5.72523">
        <ele>556.59997558594</ele>
        <time>2021-10-28T04:53:12.000Z</time>
      </trkpt>
      <trkpt lat="45.20254" lon="5.72524">
        <ele>556.40002441406</ele>
        <time>2021-10-28T04:53:13.000Z</time>
      </trkpt>
      <trkpt lat="45.20252" lon="5.72525">
        <ele>556.20001220703</ele>
        <time>2021-10-28T04:53:14.000Z</time>
      </trkpt>
      <trkpt lat="45.20251" lon="5.72525">
        <ele>555.40002441406</ele>
        <time>2021-10-28T04:53:15.000Z</time>
      </trkpt>
      <trkpt lat="45.2025" lon="5.72525">
        <ele>554.79998779297</ele>
        <time>2021-10-28T04:53:16.000Z</time>
      </trkpt>
      <trkpt lat="45.20248" lon="5.72525">
        <ele>554</ele>
        <time>2021-10-28T04:53:17.000Z</time>
      </trkpt>
      <trkpt lat="45.20245" lon="5.72526">
        <ele>553</ele>
        <time>2021-10-28T04:53:19.000Z</time>
      </trkpt>
      <trkpt lat="45.20244" lon="5.72525">
        <ele>552.40002441406</ele>
        <time>2021-10-28T04:53:20.000Z</time>
      </trkpt>
      <trkpt lat="45.20242" lon="5.72525">
        <ele>551.59997558594</ele>
        <time>2021-10-28T04:53:22.000Z</time>
      </trkpt>
      <trkpt lat="45.2024" lon="5.72525">
        <ele>551</ele>
        <time>2021-10-28T04:53:23.000Z</time>
      </trkpt>
      <trkpt lat="45.20238" lon="5.72526">
        <ele>550.20001220703</ele>
        <time>2021-10-28T04:53:25.000Z</time>
      </trkpt>
      <trkpt lat="45.20236" lon="5.72527">
        <ele>549.79998779297</ele>
        <time>2021-10-28T04:53:26.000Z</time>
      </trkpt>
      <trkpt lat="45.20233" lon="5.72528">
        <ele>548.79998779297</ele>
        <time>2021-10-28T04:53:28.000Z</time>
      </trkpt>
      <trkpt lat="45.20231" lon="5.72528">
        <ele>548.59997558594</ele>
        <time>2021-10-28T04:53:29.000Z</time>
      </trkpt>
      <trkpt lat="45.20226" lon="5.72528">
        <ele>547.40002441406</ele>
        <time>2021-10-28T04:53:32.000Z</time>
      </trkpt>
      <trkpt lat="45.20221" lon="5.72528">
        <ele>546.20001220703</ele>
        <time>2021-10-28T04:53:35.000Z</time>
      </trkpt>
      <trkpt lat="45.20217" lon="5.72529">
        <ele>544.59997558594</ele>
        <time>2021-10-28T04:53:38.000Z</time>
      </trkpt>
      <trkpt lat="45.20214" lon="5.72529">
        <ele>543.79998779297</ele>
        <time>2021-10-28T04:53:40.000Z</time>
      </trkpt>
      <trkpt lat="45.20213" lon="5.72528">
        <ele>543.40002441406</ele>
        <time>2021-10-28T04:53:41.000Z</time>
      </trkpt>
      <trkpt lat="45.20211" lon="5.72528">
        <ele>543</ele>
        <time>2021-10-28T04:53:42.000Z</time>
      </trkpt>
      <trkpt lat="45.2021" lon="5.72527">
        <ele>542.40002441406</ele>
        <time>2021-10-28T04:53:43.000Z</time>
      </trkpt>
      <trkpt lat="45.20205" lon="5.72521">
        <ele>541.40002441406</ele>
        <time>2021-10-28T04:53:46.000Z</time>
      </trkpt>
      <trkpt lat="45.20201" lon="5.72519">
        <ele>540.59997558594</ele>
        <time>2021-10-28T04:53:48.000Z</time>
      </trkpt>
      <trkpt lat="45.202" lon="5.72517">
        <ele>540.20001220703</ele>
        <time>2021-10-28T04:53:49.000Z</time>
      </trkpt>
      <trkpt lat="45.20196" lon="5.72514">
        <ele>539.40002441406</ele>
        <time>2021-10-28T04:53:51.000Z</time>
      </trkpt>
      <trkpt lat="45.20195" lon="5.72512">
        <ele>539.20001220703</ele>
        <time>2021-10-28T04:53:52.000Z</time>
      </trkpt>
      <trkpt lat="45.20193" lon="5.72509">
        <ele>538.59997558594</ele>
        <time>2021-10-28T04:53:54.000Z</time>
      </trkpt>
      <trkpt lat="45.20191" lon="5.72505">
        <ele>537.79998779297</ele>
        <time>2021-10-28T04:53:56.000Z</time>
      </trkpt>
      <trkpt lat="45.20185" lon="5.72499">
        <ele>536.79998779297</ele>
        <time>2021-10-28T04:54:00.000Z</time>
      </trkpt>
      <trkpt lat="45.20182" lon="5.72498">
        <ele>536.59997558594</ele>
        <time>2021-10-28T04:54:02.000Z</time>
      </trkpt>
      <trkpt lat="45.20178" lon="5.72497">
        <ele>535.40002441406</ele>
        <time>2021-10-28T04:54:05.000Z</time>
      </trkpt>
      <trkpt lat="45.20173" lon="5.7249">
        <ele>534.59997558594</ele>
        <time>2021-10-28T04:54:09.000Z</time>
      </trkpt>
      <trkpt lat="45.20172" lon="5.72489">
        <ele>534.20001220703</ele>
        <time>2021-10-28T04:54:10.000Z</time>
      </trkpt>
      <trkpt lat="45.2017" lon="5.72488">
        <ele>534</ele>
        <time>2021-10-28T04:54:11.000Z</time>
      </trkpt>
      <trkpt lat="45.20167" lon="5.72486">
        <ele>533</ele>
        <time>2021-10-28T04:54:14.000Z</time>
      </trkpt>
      <trkpt lat="45.20165" lon="5.7248">
        <ele>531.59997558594</ele>
        <time>2021-10-28T04:54:18.000Z</time>
      </trkpt>
      <trkpt lat="45.20163" lon="5.72478">
        <ele>530.79998779297</ele>
        <time>2021-10-28T04:54:20.000Z</time>
      </trkpt>
      <trkpt lat="45.20162" lon="5.72478">
        <ele>530.59997558594</ele>
        <time>2021-10-28T04:54:21.000Z</time>
      </trkpt>
      <trkpt lat="45.2016" lon="5.72475">
        <ele>529.40002441406</ele>
        <time>2021-10-28T04:54:24.000Z</time>
      </trkpt>
      <trkpt lat="45.20159" lon="5.72475">
        <ele>528.79998779297</ele>
        <time>2021-10-28T04:54:26.000Z</time>
      </trkpt>
      <trkpt lat="45.20159" lon="5.72474">
        <ele>528.59997558594</ele>
        <time>2021-10-28T04:54:27.000Z</time>
      </trkpt>
      <trkpt lat="45.20156" lon="5.72473">
        <ele>527.79998779297</ele>
        <time>2021-10-28T04:54:30.000Z</time>
      </trkpt>
      <trkpt lat="45.20155" lon="5.72472">
        <ele>527.40002441406</ele>
        <time>2021-10-28T04:54:32.000Z</time>
      </trkpt>
      <trkpt lat="45.20155" lon="5.72471">
        <ele>526.79998779297</ele>
        <time>2021-10-28T04:54:33.000Z</time>
      </trkpt>
      <trkpt lat="45.20154" lon="5.7247">
        <ele>525.79998779297</ele>
        <time>2021-10-28T04:54:35.000Z</time>
      </trkpt>
      <trkpt lat="45.20151" lon="5.72466">
        <ele>524.59997558594</ele>
        <time>2021-10-28T04:54:39.000Z</time>
      </trkpt>
      <trkpt lat="45.2015" lon="5.72465">
        <ele>524.20001220703</ele>
        <time>2021-10-28T04:54:40.000Z</time>
      </trkpt>
      <trkpt lat="45.20149" lon="5.72463">
        <ele>523.40002441406</ele>
        <time>2021-10-28T04:54:42.000Z</time>
      </trkpt>
      <trkpt lat="45.20148" lon="5.72463">
        <ele>522.59997558594</ele>
        <time>2021-10-28T04:54:43.000Z</time>
      </trkpt>
      <trkpt lat="45.20147" lon="5.72463">
        <ele>522.20001220703</ele>
        <time>2021-10-28T04:54:44.000Z</time>
      </trkpt>
      <trkpt lat="45.20146" lon="5.72462">
        <ele>521.79998779297</ele>
        <time>2021-10-28T04:54:45.000Z</time>
      </trkpt>
      <trkpt lat="45.20146" lon="5.72461">
        <ele>521.40002441406</ele>
        <time>2021-10-28T04:54:46.000Z</time>
      </trkpt>
      <trkpt lat="45.20145" lon="5.7246">
        <ele>521</ele>
        <time>2021-10-28T04:54:47.000Z</time>
      </trkpt>
      <trkpt lat="45.20144" lon="5.7246">
        <ele>520.79998779297</ele>
        <time>2021-10-28T04:54:48.000Z</time>
      </trkpt>
      <trkpt lat="45.20142" lon="5.72462">
        <ele>519.59997558594</ele>
        <time>2021-10-28T04:54:50.000Z</time>
      </trkpt>
      <trkpt lat="45.20142" lon="5.72464">
        <ele>519</ele>
        <time>2021-10-28T04:54:51.000Z</time>
      </trkpt>
      <trkpt lat="45.20141" lon="5.72466">
        <ele>518.79998779297</ele>
        <time>2021-10-28T04:54:52.000Z</time>
      </trkpt>
      <trkpt lat="45.2014" lon="5.72467">
        <ele>518.20001220703</ele>
        <time>2021-10-28T04:54:53.000Z</time>
      </trkpt>
      <trkpt lat="45.20138" lon="5.72469">
        <ele>517</ele>
        <time>2021-10-28T04:54:56.000Z</time>
      </trkpt>
      <trkpt lat="45.20137" lon="5.72471">
        <ele>516.40002441406</ele>
        <time>2021-10-28T04:54:58.000Z</time>
      </trkpt>
      <trkpt lat="45.20134" lon="5.72473">
        <ele>515.59997558594</ele>
        <time>2021-10-28T04:55:01.000Z</time>
      </trkpt>
      <trkpt lat="45.20133" lon="5.72478">
        <ele>514.40002441406</ele>
        <time>2021-10-28T04:55:03.000Z</time>
      </trkpt>
      <trkpt lat="45.20132" lon="5.72482">
        <ele>513.20001220703</ele>
        <time>2021-10-28T04:55:05.000Z</time>
      </trkpt>
      <trkpt lat="45.20131" lon="5.72486">
        <ele>512.79998779297</ele>
        <time>2021-10-28T04:55:07.000Z</time>
      </trkpt>
      <trkpt lat="45.20131" lon="5.72488">
        <ele>511.79998779297</ele>
        <time>2021-10-28T04:55:08.000Z</time>
      </trkpt>
      <trkpt lat="45.2013" lon="5.72493">
        <ele>510.60000610352</ele>
        <time>2021-10-28T04:55:10.000Z</time>
      </trkpt>
      <trkpt lat="45.20126" lon="5.72498">
        <ele>509.20001220703</ele>
        <time>2021-10-28T04:55:13.000Z</time>
      </trkpt>
      <trkpt lat="45.20121" lon="5.72505">
        <ele>507.79998779297</ele>
        <time>2021-10-28T04:55:16.000Z</time>
      </trkpt>
      <trkpt lat="45.20118" lon="5.72509">
        <ele>506.79998779297</ele>
        <time>2021-10-28T04:55:18.000Z</time>
      </trkpt>
      <trkpt lat="45.20115" lon="5.72512">
        <ele>505.79998779297</ele>
        <time>2021-10-28T04:55:20.000Z</time>
      </trkpt>
      <trkpt lat="45.20114" lon="5.72514">
        <ele>505.39999389648</ele>
        <time>2021-10-28T04:55:21.000Z</time>
      </trkpt>
      <trkpt lat="45.20112" lon="5.72521">
        <ele>504.39999389648</ele>
        <time>2021-10-28T04:55:24.000Z</time>
      </trkpt>
      <trkpt lat="45.20112" lon="5.72523">
        <ele>504</ele>
        <time>2021-10-28T04:55:25.000Z</time>
      </trkpt>
      <trkpt lat="45.20113" lon="5.7253">
        <ele>503</ele>
        <time>2021-10-28T04:55:28.000Z</time>
      </trkpt>
      <trkpt lat="45.20115" lon="5.72535">
        <ele>502.20001220703</ele>
        <time>2021-10-28T04:55:30.000Z</time>
      </trkpt>
      <trkpt lat="45.20116" lon="5.72537">
        <ele>501.79998779297</ele>
        <time>2021-10-28T04:55:31.000Z</time>
      </trkpt>
      <trkpt lat="45.20118" lon="5.72541">
        <ele>501.20001220703</ele>
        <time>2021-10-28T04:55:33.000Z</time>
      </trkpt>
      <trkpt lat="45.20118" lon="5.72543">
        <ele>500.60000610352</ele>
        <time>2021-10-28T04:55:34.000Z</time>
      </trkpt>
      <trkpt lat="45.20116" lon="5.72545">
        <ele>500.20001220703</ele>
        <time>2021-10-28T04:55:35.000Z</time>
      </trkpt>
      <trkpt lat="45.20115" lon="5.72545">
        <ele>499.79998779297</ele>
        <time>2021-10-28T04:55:36.000Z</time>
      </trkpt>
      <trkpt lat="45.20113" lon="5.72545">
        <ele>499.39999389648</ele>
        <time>2021-10-28T04:55:37.000Z</time>
      </trkpt>
      <trkpt lat="45.20108" lon="5.72543">
        <ele>498.39999389648</ele>
        <time>2021-10-28T04:55:40.000Z</time>
      </trkpt>
      <trkpt lat="45.20105" lon="5.72545">
        <ele>497.60000610352</ele>
        <time>2021-10-28T04:55:42.000Z</time>
      </trkpt>
      <trkpt lat="45.20101" lon="5.72546">
        <ele>497</ele>
        <time>2021-10-28T04:55:44.000Z</time>
      </trkpt>
      <trkpt lat="45.20095" lon="5.72547">
        <ele>495.60000610352</ele>
        <time>2021-10-28T04:55:47.000Z</time>
      </trkpt>
      <trkpt lat="45.20091" lon="5.72547">
        <ele>495</ele>
        <time>2021-10-28T04:55:49.000Z</time>
      </trkpt>
      <trkpt lat="45.20088" lon="5.72548">
        <ele>494.60000610352</ele>
        <time>2021-10-28T04:55:50.000Z</time>
      </trkpt>
      <trkpt lat="45.20083" lon="5.72548">
        <ele>493.20001220703</ele>
        <time>2021-10-28T04:55:52.000Z</time>
      </trkpt>
      <trkpt lat="45.20078" lon="5.72546">
        <ele>492</ele>
        <time>2021-10-28T04:55:54.000Z</time>
      </trkpt>
      <trkpt lat="45.20073" lon="5.72541">
        <ele>491.39999389648</ele>
        <time>2021-10-28T04:55:56.000Z</time>
      </trkpt>
      <trkpt lat="45.20067" lon="5.72527">
        <ele>491</ele>
        <time>2021-10-28T04:56:00.000Z</time>
      </trkpt>
      <trkpt lat="45.20066" lon="5.72519">
        <ele>490.79998779297</ele>
        <time>2021-10-28T04:56:02.000Z</time>
      </trkpt>
      <trkpt lat="45.20069" lon="5.72498">
        <ele>490.79998779297</ele>
        <time>2021-10-28T04:56:07.000Z</time>
      </trkpt>
      <trkpt lat="45.20073" lon="5.7248">
        <ele>490</ele>
        <time>2021-10-28T04:56:12.000Z</time>
      </trkpt>
      <trkpt lat="45.20072" lon="5.72473">
        <ele>489.60000610352</ele>
        <time>2021-10-28T04:56:14.000Z</time>
      </trkpt>
      <trkpt lat="45.20072" lon="5.72462">
        <ele>488.79998779297</ele>
        <time>2021-10-28T04:56:17.000Z</time>
      </trkpt>
      <trkpt lat="45.20072" lon="5.72459">
        <ele>488.60000610352</ele>
        <time>2021-10-28T04:56:18.000Z</time>
      </trkpt>
      <trkpt lat="45.20071" lon="5.72452">
        <ele>488.60000610352</ele>
        <time>2021-10-28T04:56:20.000Z</time>
      </trkpt>
      <trkpt lat="45.20068" lon="5.72445">
        <ele>487.79998779297</ele>
        <time>2021-10-28T04:56:22.000Z</time>
      </trkpt>
      <trkpt lat="45.20062" lon="5.72438">
        <ele>486.79998779297</ele>
        <time>2021-10-28T04:56:25.000Z</time>
      </trkpt>
      <trkpt lat="45.20059" lon="5.72436">
        <ele>486.20001220703</ele>
        <time>2021-10-28T04:56:26.000Z</time>
      </trkpt>
      <trkpt lat="45.20049" lon="5.72432">
        <ele>485</ele>
        <time>2021-10-28T04:56:30.000Z</time>
      </trkpt>
      <trkpt lat="45.20046" lon="5.72432">
        <ele>484.60000610352</ele>
        <time>2021-10-28T04:56:31.000Z</time>
      </trkpt>
      <trkpt lat="45.20038" lon="5.72431">
        <ele>483.60000610352</ele>
        <time>2021-10-28T04:56:34.000Z</time>
      </trkpt>
      <trkpt lat="45.20023" lon="5.72429">
        <ele>482.39999389648</ele>
        <time>2021-10-28T04:56:39.000Z</time>
      </trkpt>
      <trkpt lat="45.20015" lon="5.72428">
        <ele>481.39999389648</ele>
        <time>2021-10-28T04:56:42.000Z</time>
      </trkpt>
      <trkpt lat="45.20003" lon="5.72427">
        <ele>480.20001220703</ele>
        <time>2021-10-28T04:56:46.000Z</time>
      </trkpt>
      <trkpt lat="45.19995" lon="5.72426">
        <ele>479.20001220703</ele>
        <time>2021-10-28T04:56:49.000Z</time>
      </trkpt>
      <trkpt lat="45.19989" lon="5.72425">
        <ele>478.60000610352</ele>
        <time>2021-10-28T04:56:51.000Z</time>
      </trkpt>
      <trkpt lat="45.19986" lon="5.72425">
        <ele>478.20001220703</ele>
        <time>2021-10-28T04:56:52.000Z</time>
      </trkpt>
      <trkpt lat="45.19978" lon="5.72424">
        <ele>477.39999389648</ele>
        <time>2021-10-28T04:56:55.000Z</time>
      </trkpt>
      <trkpt lat="45.19975" lon="5.72423">
        <ele>477.20001220703</ele>
        <time>2021-10-28T04:56:56.000Z</time>
      </trkpt>
      <trkpt lat="45.1997" lon="5.72423">
        <ele>476.39999389648</ele>
        <time>2021-10-28T04:56:58.000Z</time>
      </trkpt>
      <trkpt lat="45.19964" lon="5.72422">
        <ele>476</ele>
        <time>2021-10-28T04:57:00.000Z</time>
      </trkpt>
      <trkpt lat="45.19961" lon="5.72422">
        <ele>475.60000610352</ele>
        <time>2021-10-28T04:57:01.000Z</time>
      </trkpt>
      <trkpt lat="45.1995" lon="5.72422">
        <ele>474.79998779297</ele>
        <time>2021-10-28T04:57:05.000Z</time>
      </trkpt>
      <trkpt lat="45.19947" lon="5.72422">
        <ele>474.39999389648</ele>
        <time>2021-10-28T04:57:06.000Z</time>
      </trkpt>
      <trkpt lat="45.19938" lon="5.72423">
        <ele>473.39999389648</ele>
        <time>2021-10-28T04:57:09.000Z</time>
      </trkpt>
      <trkpt lat="45.1993" lon="5.72424">
        <ele>473.20001220703</ele>
        <time>2021-10-28T04:57:12.000Z</time>
      </trkpt>
      <trkpt lat="45.19924" lon="5.72426">
        <ele>473.20001220703</ele>
        <time>2021-10-28T04:57:14.000Z</time>
      </trkpt>
      <trkpt lat="45.19911" lon="5.72431">
        <ele>474</ele>
        <time>2021-10-28T04:57:19.000Z</time>
      </trkpt>
      <trkpt lat="45.19907" lon="5.72433">
        <ele>474.60000610352</ele>
        <time>2021-10-28T04:57:21.000Z</time>
      </trkpt>
      <trkpt lat="45.19897" lon="5.72437">
        <ele>475.60000610352</ele>
        <time>2021-10-28T04:57:25.000Z</time>
      </trkpt>
      <trkpt lat="45.19895" lon="5.72438">
        <ele>475.79998779297</ele>
        <time>2021-10-28T04:57:26.000Z</time>
      </trkpt>
      <trkpt lat="45.19893" lon="5.72438">
        <ele>476</ele>
        <time>2021-10-28T04:57:27.000Z</time>
      </trkpt>
      <trkpt lat="45.19889" lon="5.72441">
        <ele>476.79998779297</ele>
        <time>2021-10-28T04:57:29.000Z</time>
      </trkpt>
      <trkpt lat="45.19887" lon="5.72443">
        <ele>477.20001220703</ele>
        <time>2021-10-28T04:57:30.000Z</time>
      </trkpt>
      <trkpt lat="45.19886" lon="5.72447">
        <ele>477.39999389648</ele>
        <time>2021-10-28T04:57:32.000Z</time>
      </trkpt>
      <trkpt lat="45.19885" lon="5.72451">
        <ele>477.39999389648</ele>
        <time>2021-10-28T04:57:35.000Z</time>
      </trkpt>
      <trkpt lat="45.19882" lon="5.72456">
        <ele>477.39999389648</ele>
        <time>2021-10-28T04:57:37.000Z</time>
      </trkpt>
      <trkpt lat="45.1988" lon="5.7246">
        <ele>477.39999389648</ele>
        <time>2021-10-28T04:57:39.000Z</time>
      </trkpt>
      <trkpt lat="45.19879" lon="5.72462">
        <ele>477.39999389648</ele>
        <time>2021-10-28T04:57:41.000Z</time>
      </trkpt>
      <trkpt lat="45.19877" lon="5.72464">
        <ele>477.39999389648</ele>
        <time>2021-10-28T04:57:43.000Z</time>
      </trkpt>
      <trkpt lat="45.19873" lon="5.72466">
        <ele>477.39999389648</ele>
        <time>2021-10-28T04:57:45.000Z</time>
      </trkpt>
      <trkpt lat="45.19863" lon="5.72474">
        <ele>477.39999389648</ele>
        <time>2021-10-28T04:57:50.000Z</time>
      </trkpt>
      <trkpt lat="45.19854" lon="5.7249">
        <ele>476.39999389648</ele>
        <time>2021-10-28T04:57:55.000Z</time>
      </trkpt>
      <trkpt lat="45.19855" lon="5.72499">
        <ele>475.79998779297</ele>
        <time>2021-10-28T04:57:57.000Z</time>
      </trkpt>
      <trkpt lat="45.19859" lon="5.72513">
        <ele>475.20001220703</ele>
        <time>2021-10-28T04:58:00.000Z</time>
      </trkpt>
      <trkpt lat="45.19858" lon="5.72537">
        <ele>474.60000610352</ele>
        <time>2021-10-28T04:58:06.000Z</time>
      </trkpt>
      <trkpt lat="45.19858" lon="5.72541">
        <ele>474.39999389648</ele>
        <time>2021-10-28T04:58:07.000Z</time>
      </trkpt>
      <trkpt lat="45.19858" lon="5.72551">
        <ele>473.39999389648</ele>
        <time>2021-10-28T04:58:10.000Z</time>
      </trkpt>
      <trkpt lat="45.19856" lon="5.72553">
        <ele>473</ele>
        <time>2021-10-28T04:58:11.000Z</time>
      </trkpt>
      <trkpt lat="45.19855" lon="5.72551">
        <ele>472.79998779297</ele>
        <time>2021-10-28T04:58:12.000Z</time>
      </trkpt>
      <trkpt lat="45.19852" lon="5.72545">
        <ele>472.20001220703</ele>
        <time>2021-10-28T04:58:14.000Z</time>
      </trkpt>
      <trkpt lat="45.19852" lon="5.72541">
        <ele>472</ele>
        <time>2021-10-28T04:58:15.000Z</time>
      </trkpt>
      <trkpt lat="45.19853" lon="5.72533">
        <ele>471</ele>
        <time>2021-10-28T04:58:17.000Z</time>
      </trkpt>
      <trkpt lat="45.19851" lon="5.72515">
        <ele>470</ele>
        <time>2021-10-28T04:58:22.000Z</time>
      </trkpt>
      <trkpt lat="45.1985" lon="5.7251">
        <ele>469.60000610352</ele>
        <time>2021-10-28T04:58:23.000Z</time>
      </trkpt>
      <trkpt lat="45.1985" lon="5.72506">
        <ele>469.39999389648</ele>
        <time>2021-10-28T04:58:24.000Z</time>
      </trkpt>
      <trkpt lat="45.19849" lon="5.72502">
        <ele>469.20001220703</ele>
        <time>2021-10-28T04:58:25.000Z</time>
      </trkpt>
      <trkpt lat="45.19849" lon="5.72499">
        <ele>469</ele>
        <time>2021-10-28T04:58:26.000Z</time>
      </trkpt>
      <trkpt lat="45.19849" lon="5.72487">
        <ele>468</ele>
        <time>2021-10-28T04:58:29.000Z</time>
      </trkpt>
      <trkpt lat="45.19849" lon="5.72484">
        <ele>467.79998779297</ele>
        <time>2021-10-28T04:58:30.000Z</time>
      </trkpt>
      <trkpt lat="45.19849" lon="5.72476">
        <ele>467.39999389648</ele>
        <time>2021-10-28T04:58:32.000Z</time>
      </trkpt>
      <trkpt lat="45.19849" lon="5.72465">
        <ele>466.60000610352</ele>
        <time>2021-10-28T04:58:35.000Z</time>
      </trkpt>
      <trkpt lat="45.19848" lon="5.72454">
        <ele>465.60000610352</ele>
        <time>2021-10-28T04:58:38.000Z</time>
      </trkpt>
      <trkpt lat="45.19845" lon="5.72448">
        <ele>465</ele>
        <time>2021-10-28T04:58:40.000Z</time>
      </trkpt>
      <trkpt lat="45.19842" lon="5.72444">
        <ele>464.60000610352</ele>
        <time>2021-10-28T04:58:42.000Z</time>
      </trkpt>
      <trkpt lat="45.1984" lon="5.72444">
        <ele>464.39999389648</ele>
        <time>2021-10-28T04:58:43.000Z</time>
      </trkpt>
      <trkpt lat="45.19836" lon="5.7245">
        <ele>464.20001220703</ele>
        <time>2021-10-28T04:58:46.000Z</time>
      </trkpt>
      <trkpt lat="45.19835" lon="5.72457">
        <ele>463.20001220703</ele>
        <time>2021-10-28T04:58:48.000Z</time>
      </trkpt>
      <trkpt lat="45.19833" lon="5.72473">
        <ele>461.79998779297</ele>
        <time>2021-10-28T04:58:52.000Z</time>
      </trkpt>
      <trkpt lat="45.19832" lon="5.72486">
        <ele>460.60000610352</ele>
        <time>2021-10-28T04:58:56.000Z</time>
      </trkpt>
      <trkpt lat="45.1983" lon="5.72496">
        <ele>459.39999389648</ele>
        <time>2021-10-28T04:58:59.000Z</time>
      </trkpt>
      <trkpt lat="45.19828" lon="5.72508">
        <ele>458.39999389648</ele>
        <time>2021-10-28T04:59:02.000Z</time>
      </trkpt>
      <trkpt lat="45.19825" lon="5.72524">
        <ele>457</ele>
        <time>2021-10-28T04:59:06.000Z</time>
      </trkpt>
      <trkpt lat="45.19823" lon="5.72539">
        <ele>455.60000610352</ele>
        <time>2021-10-28T04:59:10.000Z</time>
      </trkpt>
      <trkpt lat="45.19824" lon="5.7255">
        <ele>454.79998779297</ele>
        <time>2021-10-28T04:59:13.000Z</time>
      </trkpt>
      <trkpt lat="45.19824" lon="5.72559">
        <ele>454.39999389648</ele>
        <time>2021-10-28T04:59:15.000Z</time>
      </trkpt>
      <trkpt lat="45.19825" lon="5.7257">
        <ele>453.39999389648</ele>
        <time>2021-10-28T04:59:18.000Z</time>
      </trkpt>
      <trkpt lat="45.19825" lon="5.72578">
        <ele>453</ele>
        <time>2021-10-28T04:59:20.000Z</time>
      </trkpt>
      <trkpt lat="45.19826" lon="5.72586">
        <ele>452.20001220703</ele>
        <time>2021-10-28T04:59:22.000Z</time>
      </trkpt>
      <trkpt lat="45.19828" lon="5.726">
        <ele>450.79998779297</ele>
        <time>2021-10-28T04:59:26.000Z</time>
      </trkpt>
      <trkpt lat="45.19829" lon="5.72604">
        <ele>450.60000610352</ele>
        <time>2021-10-28T04:59:27.000Z</time>
      </trkpt>
      <trkpt lat="45.19833" lon="5.72619">
        <ele>449.79998779297</ele>
        <time>2021-10-28T04:59:31.000Z</time>
      </trkpt>
      <trkpt lat="45.19836" lon="5.72633">
        <ele>448.79998779297</ele>
        <time>2021-10-28T04:59:35.000Z</time>
      </trkpt>
      <trkpt lat="45.19837" lon="5.72636">
        <ele>448.60000610352</ele>
        <time>2021-10-28T04:59:36.000Z</time>
      </trkpt>
      <trkpt lat="45.19843" lon="5.72647">
        <ele>447.60000610352</ele>
        <time>2021-10-28T04:59:40.000Z</time>
      </trkpt>
      <trkpt lat="45.19845" lon="5.72656">
        <ele>446.79998779297</ele>
        <time>2021-10-28T04:59:42.000Z</time>
      </trkpt>
      <trkpt lat="45.19847" lon="5.72659">
        <ele>446.39999389648</ele>
        <time>2021-10-28T04:59:43.000Z</time>
      </trkpt>
      <trkpt lat="45.19856" lon="5.72676">
        <ele>445.39999389648</ele>
        <time>2021-10-28T04:59:48.000Z</time>
      </trkpt>
      <trkpt lat="45.19858" lon="5.72685">
        <ele>444.20001220703</ele>
        <time>2021-10-28T04:59:51.000Z</time>
      </trkpt>
      <trkpt lat="45.19857" lon="5.72686">
        <ele>444</ele>
        <time>2021-10-28T04:59:52.000Z</time>
      </trkpt>
      <trkpt lat="45.19856" lon="5.72686">
        <ele>443.39999389648</ele>
        <time>2021-10-28T04:59:53.000Z</time>
      </trkpt>
      <trkpt lat="45.19854" lon="5.72685">
        <ele>443</ele>
        <time>2021-10-28T04:59:54.000Z</time>
      </trkpt>
      <trkpt lat="45.19849" lon="5.7268">
        <ele>442.60000610352</ele>
        <time>2021-10-28T04:59:56.000Z</time>
      </trkpt>
      <trkpt lat="45.19845" lon="5.72675">
        <ele>442</ele>
        <time>2021-10-28T04:59:58.000Z</time>
      </trkpt>
      <trkpt lat="45.19833" lon="5.72663">
        <ele>440.79998779297</ele>
        <time>2021-10-28T05:00:03.000Z</time>
      </trkpt>
      <trkpt lat="45.19821" lon="5.7265">
        <ele>439.60000610352</ele>
        <time>2021-10-28T05:00:08.000Z</time>
      </trkpt>
      <trkpt lat="45.19818" lon="5.72648">
        <ele>439</ele>
        <time>2021-10-28T05:00:09.000Z</time>
      </trkpt>
      <trkpt lat="45.19814" lon="5.72645">
        <ele>438.60000610352</ele>
        <time>2021-10-28T05:00:11.000Z</time>
      </trkpt>
      <trkpt lat="45.19812" lon="5.72643">
        <ele>438</ele>
        <time>2021-10-28T05:00:12.000Z</time>
      </trkpt>
      <trkpt lat="45.19805" lon="5.72638">
        <ele>437.39999389648</ele>
        <time>2021-10-28T05:00:15.000Z</time>
      </trkpt>
      <trkpt lat="45.19802" lon="5.72636">
        <ele>437</ele>
        <time>2021-10-28T05:00:16.000Z</time>
      </trkpt>
      <trkpt lat="45.19791" lon="5.72624">
        <ele>435.79998779297</ele>
        <time>2021-10-28T05:00:21.000Z</time>
      </trkpt>
      <trkpt lat="45.1979" lon="5.7262">
        <ele>435.60000610352</ele>
        <time>2021-10-28T05:00:22.000Z</time>
      </trkpt>
      <trkpt lat="45.19786" lon="5.72604">
        <ele>434.60000610352</ele>
        <time>2021-10-28T05:00:26.000Z</time>
      </trkpt>
      <trkpt lat="45.19785" lon="5.72599">
        <ele>434.20001220703</ele>
        <time>2021-10-28T05:00:27.000Z</time>
      </trkpt>
      <trkpt lat="45.19785" lon="5.72588">
        <ele>433.39999389648</ele>
        <time>2021-10-28T05:00:30.000Z</time>
      </trkpt>
      <trkpt lat="45.19784" lon="5.72574">
        <ele>432.79998779297</ele>
        <time>2021-10-28T05:00:33.000Z</time>
      </trkpt>
      <trkpt lat="45.19784" lon="5.72567">
        <ele>432.20001220703</ele>
        <time>2021-10-28T05:00:35.000Z</time>
      </trkpt>
      <trkpt lat="45.19786" lon="5.72556">
        <ele>431.20001220703</ele>
        <time>2021-10-28T05:00:38.000Z</time>
      </trkpt>
      <trkpt lat="45.19787" lon="5.72552">
        <ele>430.79998779297</ele>
        <time>2021-10-28T05:00:39.000Z</time>
      </trkpt>
      <trkpt lat="45.19787" lon="5.72533">
        <ele>429.60000610352</ele>
        <time>2021-10-28T05:00:44.000Z</time>
      </trkpt>
      <trkpt lat="45.19786" lon="5.72531">
        <ele>429.39999389648</ele>
        <time>2021-10-28T05:00:45.000Z</time>
      </trkpt>
      <trkpt lat="45.19784" lon="5.7253">
        <ele>429</ele>
        <time>2021-10-28T05:00:47.000Z</time>
      </trkpt>
      <trkpt lat="45.19783" lon="5.7253">
        <ele>428.60000610352</ele>
        <time>2021-10-28T05:00:48.000Z</time>
      </trkpt>
      <trkpt lat="45.19781" lon="5.72532">
        <ele>428.20001220703</ele>
        <time>2021-10-28T05:00:49.000Z</time>
      </trkpt>
      <trkpt lat="45.19779" lon="5.7254">
        <ele>427.79998779297</ele>
        <time>2021-10-28T05:00:51.000Z</time>
      </trkpt>
      <trkpt lat="45.19778" lon="5.72544">
        <ele>427.39999389648</ele>
        <time>2021-10-28T05:00:52.000Z</time>
      </trkpt>
      <trkpt lat="45.19775" lon="5.72561">
        <ele>426.20001220703</ele>
        <time>2021-10-28T05:00:56.000Z</time>
      </trkpt>
      <trkpt lat="45.19775" lon="5.72565">
        <ele>425.60000610352</ele>
        <time>2021-10-28T05:00:57.000Z</time>
      </trkpt>
      <trkpt lat="45.19774" lon="5.72573">
        <ele>424.79998779297</ele>
        <time>2021-10-28T05:00:59.000Z</time>
      </trkpt>
      <trkpt lat="45.1977" lon="5.72581">
        <ele>424.39999389648</ele>
        <time>2021-10-28T05:01:02.000Z</time>
      </trkpt>
      <trkpt lat="45.19767" lon="5.72576">
        <ele>423.60000610352</ele>
        <time>2021-10-28T05:01:05.000Z</time>
      </trkpt>
      <trkpt lat="45.19766" lon="5.72563">
        <ele>422.20001220703</ele>
        <time>2021-10-28T05:01:08.000Z</time>
      </trkpt>
      <trkpt lat="45.19767" lon="5.7256">
        <ele>422</ele>
        <time>2021-10-28T05:01:09.000Z</time>
      </trkpt>
      <trkpt lat="45.19767" lon="5.72557">
        <ele>421.60000610352</ele>
        <time>2021-10-28T05:01:10.000Z</time>
      </trkpt>
      <trkpt lat="45.19767" lon="5.72551">
        <ele>421</ele>
        <time>2021-10-28T05:01:12.000Z</time>
      </trkpt>
      <trkpt lat="45.19766" lon="5.72541">
        <ele>420.39999389648</ele>
        <time>2021-10-28T05:01:14.000Z</time>
      </trkpt>
      <trkpt lat="45.19766" lon="5.72534">
        <ele>420</ele>
        <time>2021-10-28T05:01:16.000Z</time>
      </trkpt>
      <trkpt lat="45.19769" lon="5.72522">
        <ele>418.79998779297</ele>
        <time>2021-10-28T05:01:19.000Z</time>
      </trkpt>
      <trkpt lat="45.19771" lon="5.72519">
        <ele>418.39999389648</ele>
        <time>2021-10-28T05:01:20.000Z</time>
      </trkpt>
      <trkpt lat="45.19774" lon="5.72508">
        <ele>417.60000610352</ele>
        <time>2021-10-28T05:01:24.000Z</time>
      </trkpt>
      <trkpt lat="45.19773" lon="5.72508">
        <ele>417.39999389648</ele>
        <time>2021-10-28T05:01:25.000Z</time>
      </trkpt>
      <trkpt lat="45.19769" lon="5.72512">
        <ele>416.60000610352</ele>
        <time>2021-10-28T05:01:28.000Z</time>
      </trkpt>
      <trkpt lat="45.19766" lon="5.72515">
        <ele>416.20001220703</ele>
        <time>2021-10-28T05:01:29.000Z</time>
      </trkpt>
      <trkpt lat="45.19759" lon="5.72523">
        <ele>415.39999389648</ele>
        <time>2021-10-28T05:01:32.000Z</time>
      </trkpt>
      <trkpt lat="45.19754" lon="5.72534">
        <ele>414.79998779297</ele>
        <time>2021-10-28T05:01:35.000Z</time>
      </trkpt>
      <trkpt lat="45.1975" lon="5.72556">
        <ele>414.39999389648</ele>
        <time>2021-10-28T05:01:41.000Z</time>
      </trkpt>
      <trkpt lat="45.19751" lon="5.72583">
        <ele>414.20001220703</ele>
        <time>2021-10-28T05:01:48.000Z</time>
      </trkpt>
      <trkpt lat="45.19756" lon="5.72606">
        <ele>414</ele>
        <time>2021-10-28T05:01:54.000Z</time>
      </trkpt>
      <trkpt lat="45.19762" lon="5.7263">
        <ele>413.79998779297</ele>
        <time>2021-10-28T05:02:00.000Z</time>
      </trkpt>
      <trkpt lat="45.19771" lon="5.72652">
        <ele>414</ele>
        <time>2021-10-28T05:02:06.000Z</time>
      </trkpt>
      <trkpt lat="45.19786" lon="5.72671">
        <ele>414</ele>
        <time>2021-10-28T05:02:12.000Z</time>
      </trkpt>
      <trkpt lat="45.198" lon="5.72685">
        <ele>414.39999389648</ele>
        <time>2021-10-28T05:02:18.000Z</time>
      </trkpt>
      <trkpt lat="45.19802" lon="5.72688">
        <ele>414.60000610352</ele>
        <time>2021-10-28T05:02:19.000Z</time>
      </trkpt>
      <trkpt lat="45.19812" lon="5.72702">
        <ele>414.39999389648</ele>
        <time>2021-10-28T05:02:25.000Z</time>
      </trkpt>
      <trkpt lat="45.19823" lon="5.72712">
        <ele>414.60000610352</ele>
        <time>2021-10-28T05:02:29.000Z</time>
      </trkpt>
      <trkpt lat="45.19835" lon="5.72734">
        <ele>415</ele>
        <time>2021-10-28T05:02:35.000Z</time>
      </trkpt>
      <trkpt lat="45.19836" lon="5.72737">
        <ele>415</ele>
        <time>2021-10-28T05:02:36.000Z</time>
      </trkpt>
      <trkpt lat="45.1984" lon="5.72742">
        <ele>415.20001220703</ele>
        <time>2021-10-28T05:02:38.000Z</time>
      </trkpt>
      <trkpt lat="45.19842" lon="5.72744">
        <ele>415.20001220703</ele>
        <time>2021-10-28T05:02:40.000Z</time>
      </trkpt>
      <trkpt lat="45.19843" lon="5.72743">
        <ele>415.20001220703</ele>
        <time>2021-10-28T05:02:41.000Z</time>
      </trkpt>
      <trkpt lat="45.19858" lon="5.72738">
        <ele>411.79998779297</ele>
        <time>2021-10-28T05:02:54.000Z</time>
      </trkpt>
      <trkpt lat="45.19853" lon="5.72741">
        <ele>411.39999389648</ele>
        <time>2021-10-28T05:02:56.000Z</time>
      </trkpt>
      <trkpt lat="45.19852" lon="5.72741">
        <ele>411.20001220703</ele>
        <time>2021-10-28T05:02:57.000Z</time>
      </trkpt>
      <trkpt lat="45.19852" lon="5.72743">
        <ele>411</ele>
        <time>2021-10-28T05:02:58.000Z</time>
      </trkpt>
      <trkpt lat="45.19855" lon="5.72752">
        <ele>410.79998779297</ele>
        <time>2021-10-28T05:03:00.000Z</time>
      </trkpt>
      <trkpt lat="45.19855" lon="5.7276">
        <ele>410.20001220703</ele>
        <time>2021-10-28T05:03:03.000Z</time>
      </trkpt>
      <trkpt lat="45.19855" lon="5.72762">
        <ele>410</ele>
        <time>2021-10-28T05:03:04.000Z</time>
      </trkpt>
      <trkpt lat="45.19855" lon="5.72762">
        <ele>409.60000610352</ele>
        <time>2021-10-28T05:03:05.000Z</time>
      </trkpt>
      <trkpt lat="45.19853" lon="5.7276">
        <ele>409.20001220703</ele>
        <time>2021-10-28T05:03:07.000Z</time>
      </trkpt>
      <trkpt lat="45.19853" lon="5.72759">
        <ele>408.79998779297</ele>
        <time>2021-10-28T05:03:08.000Z</time>
      </trkpt>
      <trkpt lat="45.19853" lon="5.72757">
        <ele>408.20001220703</ele>
        <time>2021-10-28T05:03:09.000Z</time>
      </trkpt>
      <trkpt lat="45.19852" lon="5.72756">
        <ele>407.60000610352</ele>
        <time>2021-10-28T05:03:10.000Z</time>
      </trkpt>
      <trkpt lat="45.19853" lon="5.72755">
        <ele>407</ele>
        <time>2021-10-28T05:03:11.000Z</time>
      </trkpt>
      <trkpt lat="45.19852" lon="5.72753">
        <ele>406.39999389648</ele>
        <time>2021-10-28T05:03:12.000Z</time>
      </trkpt>
      <trkpt lat="45.19853" lon="5.72757">
        <ele>405.20001220703</ele>
        <time>2021-10-28T05:03:15.000Z</time>
      </trkpt>
      <trkpt lat="45.19853" lon="5.72771">
        <ele>392</ele>
        <time>2021-10-28T05:03:48.000Z</time>
      </trkpt>
      <trkpt lat="45.19851" lon="5.72772">
        <ele>391.79998779297</ele>
        <time>2021-10-28T05:03:49.000Z</time>
      </trkpt>
      <trkpt lat="45.19852" lon="5.72772">
        <ele>391.39999389648</ele>
        <time>2021-10-28T05:03:50.000Z</time>
      </trkpt>
      <trkpt lat="45.19849" lon="5.72772">
        <ele>390.39999389648</ele>
        <time>2021-10-28T05:03:53.000Z</time>
      </trkpt>
      <trkpt lat="45.19847" lon="5.72772">
        <ele>389.20001220703</ele>
        <time>2021-10-28T05:03:55.000Z</time>
      </trkpt>
      <trkpt lat="45.19845" lon="5.72774">
        <ele>387.60000610352</ele>
        <time>2021-10-28T05:03:58.000Z</time>
      </trkpt>
      <trkpt lat="45.19848" lon="5.72775">
        <ele>386.79998779297</ele>
        <time>2021-10-28T05:04:00.000Z</time>
      </trkpt>
      <trkpt lat="45.19849" lon="5.72778">
        <ele>386.60000610352</ele>
        <time>2021-10-28T05:04:01.000Z</time>
      </trkpt>
      <trkpt lat="45.19849" lon="5.72782">
        <ele>386.20001220703</ele>
        <time>2021-10-28T05:04:03.000Z</time>
      </trkpt>
      <trkpt lat="45.19846" lon="5.72781">
        <ele>386</ele>
        <time>2021-10-28T05:04:05.000Z</time>
      </trkpt>
      <trkpt lat="45.19844" lon="5.7278">
        <ele>385.60000610352</ele>
        <time>2021-10-28T05:04:06.000Z</time>
      </trkpt>
      <trkpt lat="45.19841" lon="5.72779">
        <ele>385.39999389648</ele>
        <time>2021-10-28T05:04:07.000Z</time>
      </trkpt>
      <trkpt lat="45.19833" lon="5.72773">
        <ele>384.39999389648</ele>
        <time>2021-10-28T05:04:10.000Z</time>
      </trkpt>
      <trkpt lat="45.19829" lon="5.72768">
        <ele>383.79998779297</ele>
        <time>2021-10-28T05:04:12.000Z</time>
      </trkpt>
      <trkpt lat="45.19822" lon="5.72765">
        <ele>383.20001220703</ele>
        <time>2021-10-28T05:04:14.000Z</time>
      </trkpt>
      <trkpt lat="45.19812" lon="5.72757">
        <ele>382.20001220703</ele>
        <time>2021-10-28T05:04:18.000Z</time>
      </trkpt>
      <trkpt lat="45.19808" lon="5.72752">
        <ele>381.79998779297</ele>
        <time>2021-10-28T05:04:20.000Z</time>
      </trkpt>
      <trkpt lat="45.19801" lon="5.72744">
        <ele>381.20001220703</ele>
        <time>2021-10-28T05:04:23.000Z</time>
      </trkpt>
      <trkpt lat="45.19795" lon="5.72738">
        <ele>380.39999389648</ele>
        <time>2021-10-28T05:04:26.000Z</time>
      </trkpt>
      <trkpt lat="45.19793" lon="5.72736">
        <ele>380</ele>
        <time>2021-10-28T05:04:27.000Z</time>
      </trkpt>
      <trkpt lat="45.19787" lon="5.72737">
        <ele>378.79998779297</ele>
        <time>2021-10-28T05:04:31.000Z</time>
      </trkpt>
      <trkpt lat="45.19788" lon="5.72737">
        <ele>378.60000610352</ele>
        <time>2021-10-28T05:04:32.000Z</time>
      </trkpt>
      <trkpt lat="45.19789" lon="5.72738">
        <ele>378.20001220703</ele>
        <time>2021-10-28T05:04:33.000Z</time>
      </trkpt>
      <trkpt lat="45.19795" lon="5.72741">
        <ele>377.79998779297</ele>
        <time>2021-10-28T05:04:35.000Z</time>
      </trkpt>
      <trkpt lat="45.19798" lon="5.72744">
        <ele>377.39999389648</ele>
        <time>2021-10-28T05:04:36.000Z</time>
      </trkpt>
      <trkpt lat="45.19805" lon="5.72753">
        <ele>376.39999389648</ele>
        <time>2021-10-28T05:04:39.000Z</time>
      </trkpt>
      <trkpt lat="45.19811" lon="5.72765">
        <ele>375.39999389648</ele>
        <time>2021-10-28T05:04:43.000Z</time>
      </trkpt>
      <trkpt lat="45.19812" lon="5.72769">
        <ele>375</ele>
        <time>2021-10-28T05:04:44.000Z</time>
      </trkpt>
      <trkpt lat="45.19816" lon="5.72775">
        <ele>374.20001220703</ele>
        <time>2021-10-28T05:04:46.000Z</time>
      </trkpt>
      <trkpt lat="45.19827" lon="5.72784">
        <ele>373.20001220703</ele>
        <time>2021-10-28T05:04:50.000Z</time>
      </trkpt>
      <trkpt lat="45.19829" lon="5.72786">
        <ele>372.60000610352</ele>
        <time>2021-10-28T05:04:51.000Z</time>
      </trkpt>
      <trkpt lat="45.19832" lon="5.72791">
        <ele>371.79998779297</ele>
        <time>2021-10-28T05:04:53.000Z</time>
      </trkpt>
      <trkpt lat="45.19841" lon="5.72802">
        <ele>370.39999389648</ele>
        <time>2021-10-28T05:04:57.000Z</time>
      </trkpt>
      <trkpt lat="45.19843" lon="5.72806">
        <ele>369.79998779297</ele>
        <time>2021-10-28T05:04:59.000Z</time>
      </trkpt>
      <trkpt lat="45.1984" lon="5.72806">
        <ele>369.20001220703</ele>
        <time>2021-10-28T05:05:01.000Z</time>
      </trkpt>
      <trkpt lat="45.19838" lon="5.72805">
        <ele>368.79998779297</ele>
        <time>2021-10-28T05:05:02.000Z</time>
      </trkpt>
      <trkpt lat="45.19833" lon="5.72801">
        <ele>368.20001220703</ele>
        <time>2021-10-28T05:05:04.000Z</time>
      </trkpt>
      <trkpt lat="45.19825" lon="5.72796">
        <ele>367.20001220703</ele>
        <time>2021-10-28T05:05:07.000Z</time>
      </trkpt>
      <trkpt lat="45.19821" lon="5.72793">
        <ele>366.79998779297</ele>
        <time>2021-10-28T05:05:09.000Z</time>
      </trkpt>
      <trkpt lat="45.19818" lon="5.72792">
        <ele>366.20001220703</ele>
        <time>2021-10-28T05:05:10.000Z</time>
      </trkpt>
      <trkpt lat="45.19807" lon="5.72786">
        <ele>365</ele>
        <time>2021-10-28T05:05:14.000Z</time>
      </trkpt>
      <trkpt lat="45.19802" lon="5.72782">
        <ele>364.20001220703</ele>
        <time>2021-10-28T05:05:16.000Z</time>
      </trkpt>
      <trkpt lat="45.198" lon="5.7278">
        <ele>363.79998779297</ele>
        <time>2021-10-28T05:05:17.000Z</time>
      </trkpt>
      <trkpt lat="45.19797" lon="5.72781">
        <ele>363.20001220703</ele>
        <time>2021-10-28T05:05:20.000Z</time>
      </trkpt>
      <trkpt lat="45.19797" lon="5.72781">
        <ele>362.79998779297</ele>
        <time>2021-10-28T05:05:21.000Z</time>
      </trkpt>
      <trkpt lat="45.19804" lon="5.72789">
        <ele>361.60000610352</ele>
        <time>2021-10-28T05:05:25.000Z</time>
      </trkpt>
      <trkpt lat="45.19816" lon="5.72803">
        <ele>360.60000610352</ele>
        <time>2021-10-28T05:05:30.000Z</time>
      </trkpt>
      <trkpt lat="45.19819" lon="5.72806">
        <ele>360.20001220703</ele>
        <time>2021-10-28T05:05:31.000Z</time>
      </trkpt>
      <trkpt lat="45.19825" lon="5.72812">
        <ele>359</ele>
        <time>2021-10-28T05:05:34.000Z</time>
      </trkpt>
      <trkpt lat="45.19831" lon="5.72818">
        <ele>358</ele>
        <time>2021-10-28T05:05:37.000Z</time>
      </trkpt>
      <trkpt lat="45.19833" lon="5.72819">
        <ele>357.39999389648</ele>
        <time>2021-10-28T05:05:38.000Z</time>
      </trkpt>
      <trkpt lat="45.19837" lon="5.72823">
        <ele>356.60000610352</ele>
        <time>2021-10-28T05:05:40.000Z</time>
      </trkpt>
      <trkpt lat="45.19841" lon="5.72827">
        <ele>356.39999389648</ele>
        <time>2021-10-28T05:05:42.000Z</time>
      </trkpt>
      <trkpt lat="45.1984" lon="5.72829">
        <ele>356</ele>
        <time>2021-10-28T05:05:43.000Z</time>
      </trkpt>
      <trkpt lat="45.19839" lon="5.72829">
        <ele>355.60000610352</ele>
        <time>2021-10-28T05:05:44.000Z</time>
      </trkpt>
      <trkpt lat="45.19835" lon="5.72827">
        <ele>355</ele>
        <time>2021-10-28T05:05:46.000Z</time>
      </trkpt>
      <trkpt lat="45.19828" lon="5.72824">
        <ele>354.39999389648</ele>
        <time>2021-10-28T05:05:49.000Z</time>
      </trkpt>
      <trkpt lat="45.19822" lon="5.7282">
        <ele>353.60000610352</ele>
        <time>2021-10-28T05:05:52.000Z</time>
      </trkpt>
      <trkpt lat="45.1982" lon="5.72819">
        <ele>353.39999389648</ele>
        <time>2021-10-28T05:05:53.000Z</time>
      </trkpt>
      <trkpt lat="45.19818" lon="5.72818">
        <ele>353</ele>
        <time>2021-10-28T05:05:54.000Z</time>
      </trkpt>
      <trkpt lat="45.19815" lon="5.72817">
        <ele>352.20001220703</ele>
        <time>2021-10-28T05:05:56.000Z</time>
      </trkpt>
      <trkpt lat="45.19814" lon="5.72818">
        <ele>351.79998779297</ele>
        <time>2021-10-28T05:05:57.000Z</time>
      </trkpt>
      <trkpt lat="45.19816" lon="5.72819">
        <ele>351.60000610352</ele>
        <time>2021-10-28T05:05:58.000Z</time>
      </trkpt>
      <trkpt lat="45.19818" lon="5.72821">
        <ele>351</ele>
        <time>2021-10-28T05:05:59.000Z</time>
      </trkpt>
      <trkpt lat="45.19828" lon="5.72828">
        <ele>350.20001220703</ele>
        <time>2021-10-28T05:06:03.000Z</time>
      </trkpt>
      <trkpt lat="45.1983" lon="5.7283">
        <ele>350</ele>
        <time>2021-10-28T05:06:04.000Z</time>
      </trkpt>
      <trkpt lat="45.19834" lon="5.72836">
        <ele>349.20001220703</ele>
        <time>2021-10-28T05:06:07.000Z</time>
      </trkpt>
      <trkpt lat="45.19832" lon="5.72837">
        <ele>349</ele>
        <time>2021-10-28T05:06:08.000Z</time>
      </trkpt>
      <trkpt lat="45.19821" lon="5.72832">
        <ele>348</ele>
        <time>2021-10-28T05:06:12.000Z</time>
      </trkpt>
      <trkpt lat="45.19818" lon="5.72831">
        <ele>347.60000610352</ele>
        <time>2021-10-28T05:06:13.000Z</time>
      </trkpt>
      <trkpt lat="45.19808" lon="5.72828">
        <ele>346.60000610352</ele>
        <time>2021-10-28T05:06:16.000Z</time>
      </trkpt>
      <trkpt lat="45.19803" lon="5.72824">
        <ele>346</ele>
        <time>2021-10-28T05:06:18.000Z</time>
      </trkpt>
      <trkpt lat="45.19798" lon="5.72821">
        <ele>345</ele>
        <time>2021-10-28T05:06:20.000Z</time>
      </trkpt>
      <trkpt lat="45.19796" lon="5.72819">
        <ele>344.79998779297</ele>
        <time>2021-10-28T05:06:21.000Z</time>
      </trkpt>
      <trkpt lat="45.19791" lon="5.72815">
        <ele>343.79998779297</ele>
        <time>2021-10-28T05:06:24.000Z</time>
      </trkpt>
      <trkpt lat="45.1979" lon="5.72815">
        <ele>343.60000610352</ele>
        <time>2021-10-28T05:06:25.000Z</time>
      </trkpt>
      <trkpt lat="45.19792" lon="5.72817">
        <ele>343</ele>
        <time>2021-10-28T05:06:27.000Z</time>
      </trkpt>
      <trkpt lat="45.19798" lon="5.72822">
        <ele>342.79998779297</ele>
        <time>2021-10-28T05:06:29.000Z</time>
      </trkpt>
      <trkpt lat="45.19807" lon="5.72829">
        <ele>342</ele>
        <time>2021-10-28T05:06:32.000Z</time>
      </trkpt>
      <trkpt lat="45.19813" lon="5.72833">
        <ele>341.60000610352</ele>
        <time>2021-10-28T05:06:34.000Z</time>
      </trkpt>
      <trkpt lat="45.19821" lon="5.72839">
        <ele>341</ele>
        <time>2021-10-28T05:06:37.000Z</time>
      </trkpt>
      <trkpt lat="45.19823" lon="5.72844">
        <ele>340.60000610352</ele>
        <time>2021-10-28T05:06:39.000Z</time>
      </trkpt>
      <trkpt lat="45.19821" lon="5.72845">
        <ele>340</ele>
        <time>2021-10-28T05:06:41.000Z</time>
      </trkpt>
      <trkpt lat="45.19816" lon="5.72844">
        <ele>339.39999389648</ele>
        <time>2021-10-28T05:06:43.000Z</time>
      </trkpt>
      <trkpt lat="45.19807" lon="5.72841">
        <ele>338.60000610352</ele>
        <time>2021-10-28T05:06:46.000Z</time>
      </trkpt>
      <trkpt lat="45.19802" lon="5.72839">
        <ele>338.39999389648</ele>
        <time>2021-10-28T05:06:48.000Z</time>
      </trkpt>
      <trkpt lat="45.19794" lon="5.72834">
        <ele>337.20001220703</ele>
        <time>2021-10-28T05:06:51.000Z</time>
      </trkpt>
      <trkpt lat="45.19792" lon="5.72833">
        <ele>336.79998779297</ele>
        <time>2021-10-28T05:06:52.000Z</time>
      </trkpt>
      <trkpt lat="45.19781" lon="5.72827">
        <ele>335.79998779297</ele>
        <time>2021-10-28T05:06:56.000Z</time>
      </trkpt>
      <trkpt lat="45.19778" lon="5.72826">
        <ele>335.20001220703</ele>
        <time>2021-10-28T05:06:57.000Z</time>
      </trkpt>
      <trkpt lat="45.19773" lon="5.72823">
        <ele>334.60000610352</ele>
        <time>2021-10-28T05:06:59.000Z</time>
      </trkpt>
      <trkpt lat="45.19768" lon="5.72821">
        <ele>333.79998779297</ele>
        <time>2021-10-28T05:07:01.000Z</time>
      </trkpt>
      <trkpt lat="45.19766" lon="5.7282">
        <ele>333.60000610352</ele>
        <time>2021-10-28T05:07:02.000Z</time>
      </trkpt>
      <trkpt lat="45.19759" lon="5.72813">
        <ele>332.39999389648</ele>
        <time>2021-10-28T05:07:05.000Z</time>
      </trkpt>
      <trkpt lat="45.19756" lon="5.7281">
        <ele>332</ele>
        <time>2021-10-28T05:07:07.000Z</time>
      </trkpt>
      <trkpt lat="45.19756" lon="5.72811">
        <ele>331.60000610352</ele>
        <time>2021-10-28T05:07:08.000Z</time>
      </trkpt>
      <trkpt lat="45.19756" lon="5.72812">
        <ele>331.39999389648</ele>
        <time>2021-10-28T05:07:09.000Z</time>
      </trkpt>
      <trkpt lat="45.19758" lon="5.72813">
        <ele>331</ele>
        <time>2021-10-28T05:07:10.000Z</time>
      </trkpt>
      <trkpt lat="45.19763" lon="5.7282">
        <ele>330</ele>
        <time>2021-10-28T05:07:13.000Z</time>
      </trkpt>
      <trkpt lat="45.19765" lon="5.72822">
        <ele>329.79998779297</ele>
        <time>2021-10-28T05:07:14.000Z</time>
      </trkpt>
      <trkpt lat="45.19768" lon="5.72826">
        <ele>328.79998779297</ele>
        <time>2021-10-28T05:07:16.000Z</time>
      </trkpt>
      <trkpt lat="45.1977" lon="5.72828">
        <ele>328.60000610352</ele>
        <time>2021-10-28T05:07:17.000Z</time>
      </trkpt>
      <trkpt lat="45.19772" lon="5.72831">
        <ele>328.39999389648</ele>
        <time>2021-10-28T05:07:18.000Z</time>
      </trkpt>
      <trkpt lat="45.19776" lon="5.72836">
        <ele>327.39999389648</ele>
        <time>2021-10-28T05:07:20.000Z</time>
      </trkpt>
      <trkpt lat="45.19783" lon="5.72845">
        <ele>326</ele>
        <time>2021-10-28T05:07:23.000Z</time>
      </trkpt>
      <trkpt lat="45.19785" lon="5.72851">
        <ele>325.20001220703</ele>
        <time>2021-10-28T05:07:25.000Z</time>
      </trkpt>
      <trkpt lat="45.19787" lon="5.72853">
        <ele>324.79998779297</ele>
        <time>2021-10-28T05:07:26.000Z</time>
      </trkpt>
      <trkpt lat="45.19794" lon="5.72864">
        <ele>323.60000610352</ele>
        <time>2021-10-28T05:07:30.000Z</time>
      </trkpt>
      <trkpt lat="45.19796" lon="5.72866">
        <ele>323.20001220703</ele>
        <time>2021-10-28T05:07:31.000Z</time>
      </trkpt>
      <trkpt lat="45.19798" lon="5.72867">
        <ele>322.79998779297</ele>
        <time>2021-10-28T05:07:32.000Z</time>
      </trkpt>
      <trkpt lat="45.198" lon="5.72869">
        <ele>322.39999389648</ele>
        <time>2021-10-28T05:07:33.000Z</time>
      </trkpt>
      <trkpt lat="45.19801" lon="5.7287">
        <ele>322.20001220703</ele>
        <time>2021-10-28T05:07:34.000Z</time>
      </trkpt>
      <trkpt lat="45.19801" lon="5.72875">
        <ele>321.60000610352</ele>
        <time>2021-10-28T05:07:36.000Z</time>
      </trkpt>
      <trkpt lat="45.19801" lon="5.72876">
        <ele>321.39999389648</ele>
        <time>2021-10-28T05:07:37.000Z</time>
      </trkpt>
      <trkpt lat="45.19797" lon="5.72875">
        <ele>320.39999389648</ele>
        <time>2021-10-28T05:07:39.000Z</time>
      </trkpt>
      <trkpt lat="45.19795" lon="5.72874">
        <ele>320.20001220703</ele>
        <time>2021-10-28T05:07:40.000Z</time>
      </trkpt>
      <trkpt lat="45.19789" lon="5.7287">
        <ele>319.20001220703</ele>
        <time>2021-10-28T05:07:43.000Z</time>
      </trkpt>
      <trkpt lat="45.19782" lon="5.72867">
        <ele>318</ele>
        <time>2021-10-28T05:07:46.000Z</time>
      </trkpt>
      <trkpt lat="45.19774" lon="5.7286">
        <ele>316.79998779297</ele>
        <time>2021-10-28T05:07:50.000Z</time>
      </trkpt>
      <trkpt lat="45.19769" lon="5.72857">
        <ele>316</ele>
        <time>2021-10-28T05:07:52.000Z</time>
      </trkpt>
      <trkpt lat="45.19766" lon="5.72856">
        <ele>315.79998779297</ele>
        <time>2021-10-28T05:07:53.000Z</time>
      </trkpt>
      <trkpt lat="45.19755" lon="5.72849">
        <ele>314.60000610352</ele>
        <time>2021-10-28T05:07:57.000Z</time>
      </trkpt>
      <trkpt lat="45.19753" lon="5.72847">
        <ele>314.39999389648</ele>
        <time>2021-10-28T05:07:58.000Z</time>
      </trkpt>
      <trkpt lat="45.19748" lon="5.72843">
        <ele>313.60000610352</ele>
        <time>2021-10-28T05:08:00.000Z</time>
      </trkpt>
      <trkpt lat="45.19744" lon="5.72842">
        <ele>312.60000610352</ele>
        <time>2021-10-28T05:08:03.000Z</time>
      </trkpt>
      <trkpt lat="45.19744" lon="5.72844">
        <ele>312.20001220703</ele>
        <time>2021-10-28T05:08:04.000Z</time>
      </trkpt>
      <trkpt lat="45.19748" lon="5.72851">
        <ele>311.39999389648</ele>
        <time>2021-10-28T05:08:07.000Z</time>
      </trkpt>
      <trkpt lat="45.1975" lon="5.72853">
        <ele>311</ele>
        <time>2021-10-28T05:08:08.000Z</time>
      </trkpt>
      <trkpt lat="45.19756" lon="5.72861">
        <ele>310</ele>
        <time>2021-10-28T05:08:11.000Z</time>
      </trkpt>
      <trkpt lat="45.19764" lon="5.7287">
        <ele>309</ele>
        <time>2021-10-28T05:08:15.000Z</time>
      </trkpt>
      <trkpt lat="45.19767" lon="5.72871">
        <ele>308.60000610352</ele>
        <time>2021-10-28T05:08:16.000Z</time>
      </trkpt>
      <trkpt lat="45.19774" lon="5.72881">
        <ele>307.60000610352</ele>
        <time>2021-10-28T05:08:19.000Z</time>
      </trkpt>
      <trkpt lat="45.19776" lon="5.72884">
        <ele>307.39999389648</ele>
        <time>2021-10-28T05:08:20.000Z</time>
      </trkpt>
      <trkpt lat="45.19779" lon="5.7289">
        <ele>306.39999389648</ele>
        <time>2021-10-28T05:08:22.000Z</time>
      </trkpt>
      <trkpt lat="45.19786" lon="5.72901">
        <ele>305</ele>
        <time>2021-10-28T05:08:26.000Z</time>
      </trkpt>
      <trkpt lat="45.19794" lon="5.7291">
        <ele>303.79998779297</ele>
        <time>2021-10-28T05:08:30.000Z</time>
      </trkpt>
      <trkpt lat="45.19798" lon="5.7292">
        <ele>302.60000610352</ele>
        <time>2021-10-28T05:08:33.000Z</time>
      </trkpt>
      <trkpt lat="45.19792" lon="5.7292">
        <ele>301.60000610352</ele>
        <time>2021-10-28T05:08:36.000Z</time>
      </trkpt>
      <trkpt lat="45.19789" lon="5.72919">
        <ele>301.39999389648</ele>
        <time>2021-10-28T05:08:37.000Z</time>
      </trkpt>
      <trkpt lat="45.19787" lon="5.72918">
        <ele>301</ele>
        <time>2021-10-28T05:08:38.000Z</time>
      </trkpt>
      <trkpt lat="45.19781" lon="5.72915">
        <ele>300</ele>
        <time>2021-10-28T05:08:41.000Z</time>
      </trkpt>
      <trkpt lat="45.19774" lon="5.72911">
        <ele>299.20001220703</ele>
        <time>2021-10-28T05:08:44.000Z</time>
      </trkpt>
      <trkpt lat="45.19772" lon="5.72908">
        <ele>298.79998779297</ele>
        <time>2021-10-28T05:08:45.000Z</time>
      </trkpt>
      <trkpt lat="45.19765" lon="5.72903">
        <ele>297.60000610352</ele>
        <time>2021-10-28T05:08:48.000Z</time>
      </trkpt>
      <trkpt lat="45.19763" lon="5.72902">
        <ele>297.39999389648</ele>
        <time>2021-10-28T05:08:49.000Z</time>
      </trkpt>
      <trkpt lat="45.19756" lon="5.72897">
        <ele>296.39999389648</ele>
        <time>2021-10-28T05:08:52.000Z</time>
      </trkpt>
      <trkpt lat="45.19747" lon="5.72893">
        <ele>295</ele>
        <time>2021-10-28T05:08:55.000Z</time>
      </trkpt>
      <trkpt lat="45.19737" lon="5.72885">
        <ele>294</ele>
        <time>2021-10-28T05:08:59.000Z</time>
      </trkpt>
      <trkpt lat="45.1973" lon="5.72879">
        <ele>292.79998779297</ele>
        <time>2021-10-28T05:09:02.000Z</time>
      </trkpt>
      <trkpt lat="45.19726" lon="5.72876">
        <ele>292.20001220703</ele>
        <time>2021-10-28T05:09:04.000Z</time>
      </trkpt>
      <trkpt lat="45.1972" lon="5.72873">
        <ele>291.79998779297</ele>
        <time>2021-10-28T05:09:06.000Z</time>
      </trkpt>
      <trkpt lat="45.19718" lon="5.72872">
        <ele>291.60000610352</ele>
        <time>2021-10-28T05:09:07.000Z</time>
      </trkpt>
      <trkpt lat="45.19713" lon="5.72868">
        <ele>290.60000610352</ele>
        <time>2021-10-28T05:09:09.000Z</time>
      </trkpt>
      <trkpt lat="45.19704" lon="5.72858">
        <ele>289.39999389648</ele>
        <time>2021-10-28T05:09:13.000Z</time>
      </trkpt>
      <trkpt lat="45.19696" lon="5.72854">
        <ele>288</ele>
        <time>2021-10-28T05:09:17.000Z</time>
      </trkpt>
      <trkpt lat="45.19696" lon="5.72855">
        <ele>287.79998779297</ele>
        <time>2021-10-28T05:09:18.000Z</time>
      </trkpt>
      <trkpt lat="45.19698" lon="5.72864">
        <ele>287</ele>
        <time>2021-10-28T05:09:21.000Z</time>
      </trkpt>
      <trkpt lat="45.19702" lon="5.72871">
        <ele>286.39999389648</ele>
        <time>2021-10-28T05:09:23.000Z</time>
      </trkpt>
      <trkpt lat="45.19705" lon="5.72876">
        <ele>285.79998779297</ele>
        <time>2021-10-28T05:09:25.000Z</time>
      </trkpt>
      <trkpt lat="45.19709" lon="5.72882">
        <ele>284.79998779297</ele>
        <time>2021-10-28T05:09:27.000Z</time>
      </trkpt>
      <trkpt lat="45.19716" lon="5.72892">
        <ele>284.20001220703</ele>
        <time>2021-10-28T05:09:30.000Z</time>
      </trkpt>
      <trkpt lat="45.19718" lon="5.72895">
        <ele>283.39999389648</ele>
        <time>2021-10-28T05:09:31.000Z</time>
      </trkpt>
      <trkpt lat="45.19726" lon="5.72906">
        <ele>282</ele>
        <time>2021-10-28T05:09:35.000Z</time>
      </trkpt>
      <trkpt lat="45.19732" lon="5.72917">
        <ele>281</ele>
        <time>2021-10-28T05:09:38.000Z</time>
      </trkpt>
      <trkpt lat="45.19737" lon="5.72928">
        <ele>280</ele>
        <time>2021-10-28T05:09:42.000Z</time>
      </trkpt>
      <trkpt lat="45.19739" lon="5.72932">
        <ele>279.79998779297</ele>
        <time>2021-10-28T05:09:43.000Z</time>
      </trkpt>
      <trkpt lat="45.19745" lon="5.72944">
        <ele>278.79998779297</ele>
        <time>2021-10-28T05:09:46.000Z</time>
      </trkpt>
      <trkpt lat="45.19751" lon="5.72956">
        <ele>277.39999389648</ele>
        <time>2021-10-28T05:09:50.000Z</time>
      </trkpt>
      <trkpt lat="45.1976" lon="5.72969">
        <ele>275.79998779297</ele>
        <time>2021-10-28T05:09:55.000Z</time>
      </trkpt>
      <trkpt lat="45.19761" lon="5.72971">
        <ele>275.60000610352</ele>
        <time>2021-10-28T05:09:56.000Z</time>
      </trkpt>
      <trkpt lat="45.19764" lon="5.72977">
        <ele>274.60000610352</ele>
        <time>2021-10-28T05:09:58.000Z</time>
      </trkpt>
      <trkpt lat="45.19775" lon="5.72988">
        <ele>273.60000610352</ele>
        <time>2021-10-28T05:10:02.000Z</time>
      </trkpt>
      <trkpt lat="45.19779" lon="5.72992">
        <ele>272.39999389648</ele>
        <time>2021-10-28T05:10:04.000Z</time>
      </trkpt>
      <trkpt lat="45.19784" lon="5.72999">
        <ele>271.60000610352</ele>
        <time>2021-10-28T05:10:07.000Z</time>
      </trkpt>
      <trkpt lat="45.19786" lon="5.73001">
        <ele>271.20001220703</ele>
        <time>2021-10-28T05:10:08.000Z</time>
      </trkpt>
      <trkpt lat="45.19795" lon="5.73007">
        <ele>270.20001220703</ele>
        <time>2021-10-28T05:10:12.000Z</time>
      </trkpt>
      <trkpt lat="45.19799" lon="5.73009">
        <ele>269.60000610352</ele>
        <time>2021-10-28T05:10:14.000Z</time>
      </trkpt>
      <trkpt lat="45.19803" lon="5.73012">
        <ele>269.20001220703</ele>
        <time>2021-10-28T05:10:16.000Z</time>
      </trkpt>
      <trkpt lat="45.19802" lon="5.73015">
        <ele>269</ele>
        <time>2021-10-28T05:10:17.000Z</time>
      </trkpt>
      <trkpt lat="45.19799" lon="5.73018">
        <ele>267.60000610352</ele>
        <time>2021-10-28T05:10:20.000Z</time>
      </trkpt>
      <trkpt lat="45.19796" lon="5.73017">
        <ele>267.20001220703</ele>
        <time>2021-10-28T05:10:21.000Z</time>
      </trkpt>
      <trkpt lat="45.19788" lon="5.73014">
        <ele>266.39999389648</ele>
        <time>2021-10-28T05:10:24.000Z</time>
      </trkpt>
      <trkpt lat="45.19777" lon="5.73011">
        <ele>265.39999389648</ele>
        <time>2021-10-28T05:10:28.000Z</time>
      </trkpt>
      <trkpt lat="45.19768" lon="5.73009">
        <ele>264.39999389648</ele>
        <time>2021-10-28T05:10:31.000Z</time>
      </trkpt>
      <trkpt lat="45.19766" lon="5.73009">
        <ele>264</ele>
        <time>2021-10-28T05:10:32.000Z</time>
      </trkpt>
      <trkpt lat="45.19765" lon="5.73011">
        <ele>264</ele>
        <time>2021-10-28T05:10:33.000Z</time>
      </trkpt>
      <trkpt lat="45.19765" lon="5.73013">
        <ele>263</ele>
        <time>2021-10-28T05:10:35.000Z</time>
      </trkpt>
      <trkpt lat="45.19774" lon="5.73019">
        <ele>261.60000610352</ele>
        <time>2021-10-28T05:10:39.000Z</time>
      </trkpt>
      <trkpt lat="45.19775" lon="5.7302">
        <ele>261.20001220703</ele>
        <time>2021-10-28T05:10:40.000Z</time>
      </trkpt>
      <trkpt lat="45.19783" lon="5.73026">
        <ele>260.39999389648</ele>
        <time>2021-10-28T05:10:44.000Z</time>
      </trkpt>
      <trkpt lat="45.19793" lon="5.73033">
        <ele>259.20001220703</ele>
        <time>2021-10-28T05:10:48.000Z</time>
      </trkpt>
      <trkpt lat="45.19798" lon="5.73036">
        <ele>258.39999389648</ele>
        <time>2021-10-28T05:10:50.000Z</time>
      </trkpt>
      <trkpt lat="45.19799" lon="5.73038">
        <ele>258.20001220703</ele>
        <time>2021-10-28T05:10:51.000Z</time>
      </trkpt>
      <trkpt lat="45.19797" lon="5.73042">
        <ele>257.60000610352</ele>
        <time>2021-10-28T05:10:53.000Z</time>
      </trkpt>
      <trkpt lat="45.19793" lon="5.73041">
        <ele>256.79998779297</ele>
        <time>2021-10-28T05:10:55.000Z</time>
      </trkpt>
      <trkpt lat="45.19785" lon="5.7304">
        <ele>255.60000610352</ele>
        <time>2021-10-28T05:10:58.000Z</time>
      </trkpt>
      <trkpt lat="45.19782" lon="5.73039">
        <ele>255.39999389648</ele>
        <time>2021-10-28T05:10:59.000Z</time>
      </trkpt>
      <trkpt lat="45.19777" lon="5.73036">
        <ele>254.39999389648</ele>
        <time>2021-10-28T05:11:01.000Z</time>
      </trkpt>
      <trkpt lat="45.1977" lon="5.73034">
        <ele>253.39999389648</ele>
        <time>2021-10-28T05:11:04.000Z</time>
      </trkpt>
      <trkpt lat="45.19762" lon="5.73032">
        <ele>252.19999694824</ele>
        <time>2021-10-28T05:11:07.000Z</time>
      </trkpt>
      <trkpt lat="45.19754" lon="5.7303">
        <ele>251.19999694824</ele>
        <time>2021-10-28T05:11:11.000Z</time>
      </trkpt>
      <trkpt lat="45.19755" lon="5.73031">
        <ele>250.80000305176</ele>
        <time>2021-10-28T05:11:12.000Z</time>
      </trkpt>
      <trkpt lat="45.19759" lon="5.73036">
        <ele>249.80000305176</ele>
        <time>2021-10-28T05:11:15.000Z</time>
      </trkpt>
      <trkpt lat="45.19772" lon="5.73043">
        <ele>248.39999389648</ele>
        <time>2021-10-28T05:11:20.000Z</time>
      </trkpt>
      <trkpt lat="45.19778" lon="5.73047">
        <ele>247.39999389648</ele>
        <time>2021-10-28T05:11:23.000Z</time>
      </trkpt>
      <trkpt lat="45.19784" lon="5.73054">
        <ele>246.19999694824</ele>
        <time>2021-10-28T05:11:26.000Z</time>
      </trkpt>
      <trkpt lat="45.1979" lon="5.73062">
        <ele>245.39999389648</ele>
        <time>2021-10-28T05:11:30.000Z</time>
      </trkpt>
      <trkpt lat="45.19789" lon="5.73063">
        <ele>245</ele>
        <time>2021-10-28T05:11:31.000Z</time>
      </trkpt>
      <trkpt lat="45.19783" lon="5.73063">
        <ele>244</ele>
        <time>2021-10-28T05:11:34.000Z</time>
      </trkpt>
      <trkpt lat="45.19777" lon="5.73063">
        <ele>243</ele>
        <time>2021-10-28T05:11:36.000Z</time>
      </trkpt>
      <trkpt lat="45.19775" lon="5.73063">
        <ele>242.60000610352</ele>
        <time>2021-10-28T05:11:37.000Z</time>
      </trkpt>
      <trkpt lat="45.19765" lon="5.73059">
        <ele>241.19999694824</ele>
        <time>2021-10-28T05:11:41.000Z</time>
      </trkpt>
      <trkpt lat="45.19762" lon="5.73058">
        <ele>240.80000305176</ele>
        <time>2021-10-28T05:11:42.000Z</time>
      </trkpt>
      <trkpt lat="45.19758" lon="5.73057">
        <ele>240</ele>
        <time>2021-10-28T05:11:44.000Z</time>
      </trkpt>
      <trkpt lat="45.19752" lon="5.73057">
        <ele>239.39999389648</ele>
        <time>2021-10-28T05:11:46.000Z</time>
      </trkpt>
      <trkpt lat="45.19752" lon="5.73058">
        <ele>239</ele>
        <time>2021-10-28T05:11:47.000Z</time>
      </trkpt>
      <trkpt lat="45.19755" lon="5.73063">
        <ele>238</ele>
        <time>2021-10-28T05:11:50.000Z</time>
      </trkpt>
      <trkpt lat="45.19757" lon="5.73065">
        <ele>237.60000610352</ele>
        <time>2021-10-28T05:11:51.000Z</time>
      </trkpt>
      <trkpt lat="45.19766" lon="5.7307">
        <ele>236.80000305176</ele>
        <time>2021-10-28T05:11:55.000Z</time>
      </trkpt>
      <trkpt lat="45.19773" lon="5.73074">
        <ele>235.60000610352</ele>
        <time>2021-10-28T05:11:58.000Z</time>
      </trkpt>
      <trkpt lat="45.19775" lon="5.73075">
        <ele>235.39999389648</ele>
        <time>2021-10-28T05:11:59.000Z</time>
      </trkpt>
      <trkpt lat="45.1978" lon="5.73078">
        <ele>234.60000610352</ele>
        <time>2021-10-28T05:12:01.000Z</time>
      </trkpt>
      <trkpt lat="45.19787" lon="5.73085">
        <ele>233.39999389648</ele>
        <time>2021-10-28T05:12:04.000Z</time>
      </trkpt>
      <trkpt lat="45.19789" lon="5.73086">
        <ele>233</ele>
        <time>2021-10-28T05:12:05.000Z</time>
      </trkpt>
      <trkpt lat="45.19797" lon="5.73093">
        <ele>232</ele>
        <time>2021-10-28T05:12:09.000Z</time>
      </trkpt>
      <trkpt lat="45.19797" lon="5.73095">
        <ele>231.60000610352</ele>
        <time>2021-10-28T05:12:10.000Z</time>
      </trkpt>
      <trkpt lat="45.19796" lon="5.73096">
        <ele>231.39999389648</ele>
        <time>2021-10-28T05:12:11.000Z</time>
      </trkpt>
      <trkpt lat="45.19794" lon="5.73095">
        <ele>230.80000305176</ele>
        <time>2021-10-28T05:12:13.000Z</time>
      </trkpt>
      <trkpt lat="45.1979" lon="5.73096">
        <ele>230.39999389648</ele>
        <time>2021-10-28T05:12:15.000Z</time>
      </trkpt>
      <trkpt lat="45.19786" lon="5.73095">
        <ele>229.80000305176</ele>
        <time>2021-10-28T05:12:17.000Z</time>
      </trkpt>
      <trkpt lat="45.19778" lon="5.73094">
        <ele>228.80000305176</ele>
        <time>2021-10-28T05:12:20.000Z</time>
      </trkpt>
      <trkpt lat="45.19774" lon="5.73093">
        <ele>228.39999389648</ele>
        <time>2021-10-28T05:12:21.000Z</time>
      </trkpt>
      <trkpt lat="45.19765" lon="5.73092">
        <ele>227.19999694824</ele>
        <time>2021-10-28T05:12:24.000Z</time>
      </trkpt>
      <trkpt lat="45.1976" lon="5.73093">
        <ele>226.80000305176</ele>
        <time>2021-10-28T05:12:26.000Z</time>
      </trkpt>
      <trkpt lat="45.19758" lon="5.73095">
        <ele>226.60000610352</ele>
        <time>2021-10-28T05:12:27.000Z</time>
      </trkpt>
      <trkpt lat="45.19759" lon="5.73096">
        <ele>226.19999694824</ele>
        <time>2021-10-28T05:12:28.000Z</time>
      </trkpt>
      <trkpt lat="45.19759" lon="5.73097">
        <ele>225.80000305176</ele>
        <time>2021-10-28T05:12:29.000Z</time>
      </trkpt>
      <trkpt lat="45.19765" lon="5.73104">
        <ele>224.80000305176</ele>
        <time>2021-10-28T05:12:32.000Z</time>
      </trkpt>
      <trkpt lat="45.19767" lon="5.73105">
        <ele>224.60000610352</ele>
        <time>2021-10-28T05:12:33.000Z</time>
      </trkpt>
      <trkpt lat="45.19767" lon="5.73106">
        <ele>224.39999389648</ele>
        <time>2021-10-28T05:12:34.000Z</time>
      </trkpt>
      <trkpt lat="45.19768" lon="5.73109">
        <ele>224</ele>
        <time>2021-10-28T05:12:35.000Z</time>
      </trkpt>
      <trkpt lat="45.19775" lon="5.73122">
        <ele>222</ele>
        <time>2021-10-28T05:12:40.000Z</time>
      </trkpt>
      <trkpt lat="45.1978" lon="5.73125">
        <ele>221.60000610352</ele>
        <time>2021-10-28T05:12:42.000Z</time>
      </trkpt>
      <trkpt lat="45.19782" lon="5.73126">
        <ele>221.39999389648</ele>
        <time>2021-10-28T05:12:43.000Z</time>
      </trkpt>
      <trkpt lat="45.19785" lon="5.73126">
        <ele>221</ele>
        <time>2021-10-28T05:12:44.000Z</time>
      </trkpt>
      <trkpt lat="45.19789" lon="5.73129">
        <ele>220.19999694824</ele>
        <time>2021-10-28T05:12:46.000Z</time>
      </trkpt>
      <trkpt lat="45.19789" lon="5.73131">
        <ele>219.80000305176</ele>
        <time>2021-10-28T05:12:47.000Z</time>
      </trkpt>
      <trkpt lat="45.19788" lon="5.73132">
        <ele>219.60000610352</ele>
        <time>2021-10-28T05:12:48.000Z</time>
      </trkpt>
      <trkpt lat="45.19782" lon="5.73134">
        <ele>218.60000610352</ele>
        <time>2021-10-28T05:12:51.000Z</time>
      </trkpt>
      <trkpt lat="45.19777" lon="5.7314">
        <ele>217.60000610352</ele>
        <time>2021-10-28T05:12:54.000Z</time>
      </trkpt>
      <trkpt lat="45.19775" lon="5.73146">
        <ele>216.80000305176</ele>
        <time>2021-10-28T05:12:56.000Z</time>
      </trkpt>
      <trkpt lat="45.19774" lon="5.73149">
        <ele>216.60000610352</ele>
        <time>2021-10-28T05:12:57.000Z</time>
      </trkpt>
      <trkpt lat="45.19774" lon="5.73158">
        <ele>215.60000610352</ele>
        <time>2021-10-28T05:12:59.000Z</time>
      </trkpt>
      <trkpt lat="45.19774" lon="5.73163">
        <ele>215.39999389648</ele>
        <time>2021-10-28T05:13:00.000Z</time>
      </trkpt>
      <trkpt lat="45.19773" lon="5.73172">
        <ele>213.80000305176</ele>
        <time>2021-10-28T05:13:03.000Z</time>
      </trkpt>
      <trkpt lat="45.19774" lon="5.73181">
        <ele>212.80000305176</ele>
        <time>2021-10-28T05:13:06.000Z</time>
      </trkpt>
      <trkpt lat="45.19781" lon="5.73201">
        <ele>212.39999389648</ele>
        <time>2021-10-28T05:13:12.000Z</time>
      </trkpt>
      <trkpt lat="45.19777" lon="5.73215">
        <ele>212.39999389648</ele>
        <time>2021-10-28T05:13:16.000Z</time>
      </trkpt>
      <trkpt lat="45.19769" lon="5.7324">
        <ele>212.39999389648</ele>
        <time>2021-10-28T05:13:23.000Z</time>
      </trkpt>
      <trkpt lat="45.19768" lon="5.73242">
        <ele>212.39999389648</ele>
        <time>2021-10-28T05:13:24.000Z</time>
      </trkpt>
      <trkpt lat="45.19759" lon="5.7326">
        <ele>213.39999389648</ele>
        <time>2021-10-28T05:13:30.000Z</time>
      </trkpt>
      <trkpt lat="45.19757" lon="5.73264">
        <ele>213.39999389648</ele>
        <time>2021-10-28T05:13:31.000Z</time>
      </trkpt>
      <trkpt lat="45.19754" lon="5.73274">
        <ele>213.80000305176</ele>
        <time>2021-10-28T05:13:34.000Z</time>
      </trkpt>
      <trkpt lat="45.19751" lon="5.73286">
        <ele>214</ele>
        <time>2021-10-28T05:13:37.000Z</time>
      </trkpt>
      <trkpt lat="45.19751" lon="5.73288">
        <ele>214</ele>
        <time>2021-10-28T05:13:38.000Z</time>
      </trkpt>
      <trkpt lat="45.19743" lon="5.73315">
        <ele>214</ele>
        <time>2021-10-28T05:13:45.000Z</time>
      </trkpt>
      <trkpt lat="45.19737" lon="5.73335">
        <ele>214.19999694824</ele>
        <time>2021-10-28T05:13:50.000Z</time>
      </trkpt>
      <trkpt lat="45.19732" lon="5.7336">
        <ele>213.60000610352</ele>
        <time>2021-10-28T05:13:57.000Z</time>
      </trkpt>
      <trkpt lat="45.19732" lon="5.73362">
        <ele>213.60000610352</ele>
        <time>2021-10-28T05:13:58.000Z</time>
      </trkpt>
      <trkpt lat="45.19733" lon="5.73364">
        <ele>213.39999389648</ele>
        <time>2021-10-28T05:13:59.000Z</time>
      </trkpt>
      <trkpt lat="45.19747" lon="5.73367">
        <ele>212.80000305176</ele>
        <time>2021-10-28T05:14:04.000Z</time>
      </trkpt>
      <trkpt lat="45.1975" lon="5.73368">
        <ele>212.60000610352</ele>
        <time>2021-10-28T05:14:05.000Z</time>
      </trkpt>
      <trkpt lat="45.19768" lon="5.73371">
        <ele>211.80000305176</ele>
        <time>2021-10-28T05:14:11.000Z</time>
      </trkpt>
      <trkpt lat="45.19772" lon="5.73373">
        <ele>211.80000305176</ele>
        <time>2021-10-28T05:14:12.000Z</time>
      </trkpt>
      <trkpt lat="45.19789" lon="5.73378">
        <ele>211.39999389648</ele>
        <time>2021-10-28T05:14:18.000Z</time>
      </trkpt>
      <trkpt lat="45.19801" lon="5.73381">
        <ele>211</ele>
        <time>2021-10-28T05:14:23.000Z</time>
      </trkpt>
      <trkpt lat="45.19804" lon="5.73381">
        <ele>211</ele>
        <time>2021-10-28T05:14:24.000Z</time>
      </trkpt>
      <trkpt lat="45.1982" lon="5.73385">
        <ele>211</ele>
        <time>2021-10-28T05:14:30.000Z</time>
      </trkpt>
      <trkpt lat="45.19836" lon="5.73388">
        <ele>211.39999389648</ele>
        <time>2021-10-28T05:14:36.000Z</time>
      </trkpt>
      <trkpt lat="45.19845" lon="5.73391">
        <ele>211.19999694824</ele>
        <time>2021-10-28T05:14:40.000Z</time>
      </trkpt>
      <trkpt lat="45.19851" lon="5.73393">
        <ele>211.39999389648</ele>
        <time>2021-10-28T05:14:42.000Z</time>
      </trkpt>
      <trkpt lat="45.1986" lon="5.73395">
        <ele>211.39999389648</ele>
        <time>2021-10-28T05:14:45.000Z</time>
      </trkpt>
      <trkpt lat="45.19875" lon="5.73398">
        <ele>211.60000610352</ele>
        <time>2021-10-28T05:14:50.000Z</time>
      </trkpt>
      <trkpt lat="45.19896" lon="5.73401">
        <ele>211.60000610352</ele>
        <time>2021-10-28T05:14:57.000Z</time>
      </trkpt>
      <trkpt lat="45.19899" lon="5.73402">
        <ele>211.60000610352</ele>
        <time>2021-10-28T05:14:58.000Z</time>
      </trkpt>
      <trkpt lat="45.19917" lon="5.73409">
        <ele>211.60000610352</ele>
        <time>2021-10-28T05:15:04.000Z</time>
      </trkpt>
      <trkpt lat="45.19931" lon="5.73414">
        <ele>211.60000610352</ele>
        <time>2021-10-28T05:15:08.000Z</time>
      </trkpt>
      <trkpt lat="45.19946" lon="5.73417">
        <ele>211.60000610352</ele>
        <time>2021-10-28T05:15:12.000Z</time>
      </trkpt>
      <trkpt lat="45.19966" lon="5.73424">
        <ele>211.80000305176</ele>
        <time>2021-10-28T05:15:19.000Z</time>
      </trkpt>
      <trkpt lat="45.19973" lon="5.73426">
        <ele>211.80000305176</ele>
        <time>2021-10-28T05:15:21.000Z</time>
      </trkpt>
      <trkpt lat="45.19991" lon="5.73434">
        <ele>211.80000305176</ele>
        <time>2021-10-28T05:15:28.000Z</time>
      </trkpt>
      <trkpt lat="45.20008" lon="5.73445">
        <ele>211.60000610352</ele>
        <time>2021-10-28T05:15:34.000Z</time>
      </trkpt>
      <trkpt lat="45.20015" lon="5.73451">
        <ele>211.39999389648</ele>
        <time>2021-10-28T05:15:37.000Z</time>
      </trkpt>
      <trkpt lat="45.20034" lon="5.73463">
        <ele>211.19999694824</ele>
        <time>2021-10-28T05:15:44.000Z</time>
      </trkpt>
      <trkpt lat="45.20043" lon="5.73469">
        <ele>211.19999694824</ele>
        <time>2021-10-28T05:15:47.000Z</time>
      </trkpt>
      <trkpt lat="45.20057" lon="5.73483">
        <ele>211.80000305176</ele>
        <time>2021-10-28T05:15:53.000Z</time>
      </trkpt>
      <trkpt lat="45.20074" lon="5.735">
        <ele>212.19999694824</ele>
        <time>2021-10-28T05:16:00.000Z</time>
      </trkpt>
      <trkpt lat="45.20088" lon="5.7352">
        <ele>212.19999694824</ele>
        <time>2021-10-28T05:16:07.000Z</time>
      </trkpt>
      <trkpt lat="45.2009" lon="5.73523">
        <ele>212.19999694824</ele>
        <time>2021-10-28T05:16:08.000Z</time>
      </trkpt>
      <trkpt lat="45.20099" lon="5.73536">
        <ele>212.39999389648</ele>
        <time>2021-10-28T05:16:12.000Z</time>
      </trkpt>
      <trkpt lat="45.20105" lon="5.73545">
        <ele>212.39999389648</ele>
        <time>2021-10-28T05:16:15.000Z</time>
      </trkpt>
      <trkpt lat="45.20122" lon="5.73563">
        <ele>212.39999389648</ele>
        <time>2021-10-28T05:16:23.000Z</time>
      </trkpt>
      <trkpt lat="45.20135" lon="5.73582">
        <ele>212.39999389648</ele>
        <time>2021-10-28T05:16:29.000Z</time>
      </trkpt>
      <trkpt lat="45.20144" lon="5.73595">
        <ele>212.19999694824</ele>
        <time>2021-10-28T05:16:33.000Z</time>
      </trkpt>
      <trkpt lat="45.20151" lon="5.73611">
        <ele>212.19999694824</ele>
        <time>2021-10-28T05:16:37.000Z</time>
      </trkpt>
      <trkpt lat="45.20157" lon="5.73623">
        <ele>212.39999389648</ele>
        <time>2021-10-28T05:16:40.000Z</time>
      </trkpt>
      <trkpt lat="45.20166" lon="5.73647">
        <ele>212.39999389648</ele>
        <time>2021-10-28T05:16:46.000Z</time>
      </trkpt>
      <trkpt lat="45.20168" lon="5.7366">
        <ele>212.19999694824</ele>
        <time>2021-10-28T05:16:49.000Z</time>
      </trkpt>
      <trkpt lat="45.20174" lon="5.73688">
        <ele>212.60000610352</ele>
        <time>2021-10-28T05:16:56.000Z</time>
      </trkpt>
      <trkpt lat="45.20176" lon="5.73695">
        <ele>212.80000305176</ele>
        <time>2021-10-28T05:16:58.000Z</time>
      </trkpt>
      <trkpt lat="45.20177" lon="5.73699">
        <ele>212.80000305176</ele>
        <time>2021-10-28T05:16:59.000Z</time>
      </trkpt>
      <trkpt lat="45.2018" lon="5.73729">
        <ele>212.39999389648</ele>
        <time>2021-10-28T05:17:06.000Z</time>
      </trkpt>
      <trkpt lat="45.2018" lon="5.73738">
        <ele>212.60000610352</ele>
        <time>2021-10-28T05:17:08.000Z</time>
      </trkpt>
      <trkpt lat="45.20181" lon="5.73765">
        <ele>212.39999389648</ele>
        <time>2021-10-28T05:17:14.000Z</time>
      </trkpt>
      <trkpt lat="45.2018" lon="5.73783">
        <ele>212.39999389648</ele>
        <time>2021-10-28T05:17:18.000Z</time>
      </trkpt>
      <trkpt lat="45.20179" lon="5.73796">
        <ele>212.39999389648</ele>
        <time>2021-10-28T05:17:21.000Z</time>
      </trkpt>
      <trkpt lat="45.20179" lon="5.73806">
        <ele>212.39999389648</ele>
        <time>2021-10-28T05:17:23.000Z</time>
      </trkpt>
      <trkpt lat="45.20179" lon="5.7381">
        <ele>212.39999389648</ele>
        <time>2021-10-28T05:17:24.000Z</time>
      </trkpt>
      <trkpt lat="45.20178" lon="5.73825">
        <ele>212</ele>
        <time>2021-10-28T05:17:27.000Z</time>
      </trkpt>
      <trkpt lat="45.2018" lon="5.73834">
        <ele>211.80000305176</ele>
        <time>2021-10-28T05:17:31.000Z</time>
      </trkpt>
      <trkpt lat="45.2018" lon="5.73837">
        <ele>211.60000610352</ele>
        <time>2021-10-28T05:17:32.000Z</time>
      </trkpt>
      <trkpt lat="45.20179" lon="5.73841">
        <ele>211.39999389648</ele>
        <time>2021-10-28T05:17:33.000Z</time>
      </trkpt>
      <trkpt lat="45.20176" lon="5.73849">
        <ele>210.80000305176</ele>
        <time>2021-10-28T05:17:36.000Z</time>
      </trkpt>
      <trkpt lat="45.20173" lon="5.73854">
        <ele>210.60000610352</ele>
        <time>2021-10-28T05:17:38.000Z</time>
      </trkpt>
      <trkpt lat="45.20165" lon="5.73873">
        <ele>210.39999389648</ele>
        <time>2021-10-28T05:17:44.000Z</time>
      </trkpt>
      <trkpt lat="45.20153" lon="5.73893">
        <ele>210.60000610352</ele>
        <time>2021-10-28T05:17:51.000Z</time>
      </trkpt>
      <trkpt lat="45.20151" lon="5.73896">
        <ele>210.80000305176</ele>
        <time>2021-10-28T05:17:52.000Z</time>
      </trkpt>
      <trkpt lat="45.20147" lon="5.73902">
        <ele>210.80000305176</ele>
        <time>2021-10-28T05:17:54.000Z</time>
      </trkpt>
      <trkpt lat="45.20139" lon="5.73913">
        <ele>211</ele>
        <time>2021-10-28T05:17:58.000Z</time>
      </trkpt>
      <trkpt lat="45.20126" lon="5.73932">
        <ele>211.39999389648</ele>
        <time>2021-10-28T05:18:05.000Z</time>
      </trkpt>
      <trkpt lat="45.20125" lon="5.73934">
        <ele>211.60000610352</ele>
        <time>2021-10-28T05:18:06.000Z</time>
      </trkpt>
      <trkpt lat="45.20113" lon="5.73955">
        <ele>211</ele>
        <time>2021-10-28T05:18:13.000Z</time>
      </trkpt>
      <trkpt lat="45.20104" lon="5.73969">
        <ele>210.60000610352</ele>
        <time>2021-10-28T05:18:19.000Z</time>
      </trkpt>
      <trkpt lat="45.201" lon="5.73973">
        <ele>210.60000610352</ele>
        <time>2021-10-28T05:18:21.000Z</time>
      </trkpt>
      <trkpt lat="45.20087" lon="5.73987">
        <ele>210.19999694824</ele>
        <time>2021-10-28T05:18:26.000Z</time>
      </trkpt>
      <trkpt lat="45.20083" lon="5.73992">
        <ele>210.19999694824</ele>
        <time>2021-10-28T05:18:28.000Z</time>
      </trkpt>
      <trkpt lat="45.2007" lon="5.74012">
        <ele>210.19999694824</ele>
        <time>2021-10-28T05:18:35.000Z</time>
      </trkpt>
      <trkpt lat="45.20054" lon="5.74029">
        <ele>210.60000610352</ele>
        <time>2021-10-28T05:18:43.000Z</time>
      </trkpt>
      <trkpt lat="45.2005" lon="5.74034">
        <ele>210.60000610352</ele>
        <time>2021-10-28T05:18:45.000Z</time>
      </trkpt>
      <trkpt lat="45.2004" lon="5.74045">
        <ele>210.80000305176</ele>
        <time>2021-10-28T05:18:51.000Z</time>
      </trkpt>
      <trkpt lat="45.20036" lon="5.74056">
        <ele>210.80000305176</ele>
        <time>2021-10-28T05:18:56.000Z</time>
      </trkpt>
      <trkpt lat="45.20034" lon="5.7406">
        <ele>210.80000305176</ele>
        <time>2021-10-28T05:18:57.000Z</time>
      </trkpt>
      <trkpt lat="45.2003" lon="5.74063">
        <ele>211</ele>
        <time>2021-10-28T05:18:59.000Z</time>
      </trkpt>
      <trkpt lat="45.20028" lon="5.74064">
        <ele>211</ele>
        <time>2021-10-28T05:19:00.000Z</time>
      </trkpt>
      <trkpt lat="45.20024" lon="5.74067">
        <ele>211</ele>
        <time>2021-10-28T05:19:02.000Z</time>
      </trkpt>
      <trkpt lat="45.20017" lon="5.74076">
        <ele>211.19999694824</ele>
        <time>2021-10-28T05:19:06.000Z</time>
      </trkpt>
      <trkpt lat="45.20012" lon="5.74083">
        <ele>211.39999389648</ele>
        <time>2021-10-28T05:19:08.000Z</time>
      </trkpt>
      <trkpt lat="45.20007" lon="5.74088">
        <ele>211.60000610352</ele>
        <time>2021-10-28T05:19:10.000Z</time>
      </trkpt>
      <trkpt lat="45.19991" lon="5.74115">
        <ele>212.60000610352</ele>
        <time>2021-10-28T05:19:15.000Z</time>
      </trkpt>
      <trkpt lat="45.19986" lon="5.74124">
        <ele>212.80000305176</ele>
        <time>2021-10-28T05:19:16.000Z</time>
      </trkpt>
      <trkpt lat="45.19973" lon="5.74142">
        <ele>213.60000610352</ele>
        <time>2021-10-28T05:19:20.000Z</time>
      </trkpt>
      <trkpt lat="45.19956" lon="5.74158">
        <ele>214</ele>
        <time>2021-10-28T05:19:26.000Z</time>
      </trkpt>
      <trkpt lat="45.19939" lon="5.74174">
        <ele>214</ele>
        <time>2021-10-28T05:19:32.000Z</time>
      </trkpt>
      <trkpt lat="45.19934" lon="5.74181">
        <ele>213.80000305176</ele>
        <time>2021-10-28T05:19:34.000Z</time>
      </trkpt>
      <trkpt lat="45.19917" lon="5.74191">
        <ele>214</ele>
        <time>2021-10-28T05:19:40.000Z</time>
      </trkpt>
      <trkpt lat="45.19912" lon="5.74193">
        <ele>213.80000305176</ele>
        <time>2021-10-28T05:19:42.000Z</time>
      </trkpt>
      <trkpt lat="45.19895" lon="5.74204">
        <ele>213.80000305176</ele>
        <time>2021-10-28T05:19:48.000Z</time>
      </trkpt>
      <trkpt lat="45.19892" lon="5.74205">
        <ele>213.80000305176</ele>
        <time>2021-10-28T05:19:49.000Z</time>
      </trkpt>
      <trkpt lat="45.19872" lon="5.74213">
        <ele>214</ele>
        <time>2021-10-28T05:19:56.000Z</time>
      </trkpt>
      <trkpt lat="45.19858" lon="5.74219">
        <ele>214</ele>
        <time>2021-10-28T05:20:01.000Z</time>
      </trkpt>
      <trkpt lat="45.19839" lon="5.74228">
        <ele>214.19999694824</ele>
        <time>2021-10-28T05:20:07.000Z</time>
      </trkpt>
      <trkpt lat="45.19827" lon="5.74233">
        <ele>213.60000610352</ele>
        <time>2021-10-28T05:20:11.000Z</time>
      </trkpt>
      <trkpt lat="45.19809" lon="5.74242">
        <ele>214</ele>
        <time>2021-10-28T05:20:17.000Z</time>
      </trkpt>
      <trkpt lat="45.19797" lon="5.74244">
        <ele>213.80000305176</ele>
        <time>2021-10-28T05:20:21.000Z</time>
      </trkpt>
      <trkpt lat="45.19778" lon="5.74248">
        <ele>214</ele>
        <time>2021-10-28T05:20:27.000Z</time>
      </trkpt>
      <trkpt lat="45.1977" lon="5.74249">
        <ele>214</ele>
        <time>2021-10-28T05:20:30.000Z</time>
      </trkpt>
      <trkpt lat="45.19757" lon="5.7425">
        <ele>214</ele>
        <time>2021-10-28T05:20:34.000Z</time>
      </trkpt>
      <trkpt lat="45.19754" lon="5.74251">
        <ele>214</ele>
        <time>2021-10-28T05:20:35.000Z</time>
      </trkpt>
      <trkpt lat="45.19743" lon="5.74252">
        <ele>214</ele>
        <time>2021-10-28T05:20:39.000Z</time>
      </trkpt>
      <trkpt lat="45.19731" lon="5.74249">
        <ele>213.39999389648</ele>
        <time>2021-10-28T05:20:44.000Z</time>
      </trkpt>
      <trkpt lat="45.1973" lon="5.74247">
        <ele>213.19999694824</ele>
        <time>2021-10-28T05:20:45.000Z</time>
      </trkpt>
      <trkpt lat="45.19729" lon="5.74243">
        <ele>213</ele>
        <time>2021-10-28T05:20:47.000Z</time>
      </trkpt>
      <trkpt lat="45.19726" lon="5.74234">
        <ele>212.60000610352</ele>
        <time>2021-10-28T05:20:50.000Z</time>
      </trkpt>
      <trkpt lat="45.19725" lon="5.74216">
        <ele>212</ele>
        <time>2021-10-28T05:20:54.000Z</time>
      </trkpt>
      <trkpt lat="45.19717" lon="5.74188">
        <ele>212</ele>
        <time>2021-10-28T05:21:01.000Z</time>
      </trkpt>
      <trkpt lat="45.19715" lon="5.74178">
        <ele>212</ele>
        <time>2021-10-28T05:21:03.000Z</time>
      </trkpt>
      <trkpt lat="45.1971" lon="5.74158">
        <ele>212.19999694824</ele>
        <time>2021-10-28T05:21:08.000Z</time>
      </trkpt>
      <trkpt lat="45.19709" lon="5.74145">
        <ele>212.19999694824</ele>
        <time>2021-10-28T05:21:11.000Z</time>
      </trkpt>
      <trkpt lat="45.19708" lon="5.74134">
        <ele>211.60000610352</ele>
        <time>2021-10-28T05:21:14.000Z</time>
      </trkpt>
      <trkpt lat="45.19702" lon="5.74107">
        <ele>211.60000610352</ele>
        <time>2021-10-28T05:21:21.000Z</time>
      </trkpt>
      <trkpt lat="45.19702" lon="5.74098">
        <ele>211.80000305176</ele>
        <time>2021-10-28T05:21:23.000Z</time>
      </trkpt>
      <trkpt lat="45.19701" lon="5.74094">
        <ele>211.80000305176</ele>
        <time>2021-10-28T05:21:24.000Z</time>
      </trkpt>
      <trkpt lat="45.19697" lon="5.74072">
        <ele>211.80000305176</ele>
        <time>2021-10-28T05:21:30.000Z</time>
      </trkpt>
      <trkpt lat="45.19693" lon="5.7405">
        <ele>212.39999389648</ele>
        <time>2021-10-28T05:21:37.000Z</time>
      </trkpt>
      <trkpt lat="45.19688" lon="5.74022">
        <ele>212.19999694824</ele>
        <time>2021-10-28T05:21:43.000Z</time>
      </trkpt>
      <trkpt lat="45.19688" lon="5.74018">
        <ele>212.39999389648</ele>
        <time>2021-10-28T05:21:44.000Z</time>
      </trkpt>
      <trkpt lat="45.19683" lon="5.74011">
        <ele>212.39999389648</ele>
        <time>2021-10-28T05:21:47.000Z</time>
      </trkpt>
      <trkpt lat="45.19678" lon="5.74007">
        <ele>212</ele>
        <time>2021-10-28T05:21:49.000Z</time>
      </trkpt>
      <trkpt lat="45.1966" lon="5.74005">
        <ele>211.39999389648</ele>
        <time>2021-10-28T05:21:55.000Z</time>
      </trkpt>
      <trkpt lat="45.19642" lon="5.74003">
        <ele>211.60000610352</ele>
        <time>2021-10-28T05:22:01.000Z</time>
      </trkpt>
      <trkpt lat="45.19638" lon="5.74003">
        <ele>211.80000305176</ele>
        <time>2021-10-28T05:22:02.000Z</time>
      </trkpt>
      <trkpt lat="45.19621" lon="5.73998">
        <ele>212.19999694824</ele>
        <time>2021-10-28T05:22:08.000Z</time>
      </trkpt>
      <trkpt lat="45.19619" lon="5.73995">
        <ele>212.19999694824</ele>
        <time>2021-10-28T05:22:09.000Z</time>
      </trkpt>
      <trkpt lat="45.19619" lon="5.73978">
        <ele>212.19999694824</ele>
        <time>2021-10-28T05:22:13.000Z</time>
      </trkpt>
      <trkpt lat="45.19625" lon="5.73963">
        <ele>212</ele>
        <time>2021-10-28T05:22:18.000Z</time>
      </trkpt>
      <trkpt lat="45.19627" lon="5.73963">
        <ele>212</ele>
        <time>2021-10-28T05:22:19.000Z</time>
      </trkpt>
      <trkpt lat="45.19636" lon="5.73962">
        <ele>212</ele>
        <time>2021-10-28T05:22:23.000Z</time>
      </trkpt>
      <trkpt lat="45.1964" lon="5.73964">
        <ele>212</ele>
        <time>2021-10-28T05:22:26.000Z</time>
      </trkpt>
      <trkpt lat="45.19642" lon="5.73964">
        <ele>212</ele>
        <time>2021-10-28T05:22:31.000Z</time>
      </trkpt>
      <trkpt lat="45.19654" lon="5.73967">
        <ele>212</ele>
        <time>2021-10-28T05:22:37.000Z</time>
      </trkpt>
      <trkpt lat="45.1965" lon="5.73968">
        <ele>212.19999694824</ele>
        <time>2021-10-28T05:22:39.000Z</time>
      </trkpt>
      <trkpt lat="45.19648" lon="5.7397">
        <ele>212.39999389648</ele>
        <time>2021-10-28T05:22:40.000Z</time>
      </trkpt>
      <trkpt lat="45.19644" lon="5.73976">
        <ele>212.60000610352</ele>
        <time>2021-10-28T05:22:42.000Z</time>
      </trkpt>
      <trkpt lat="45.19643" lon="5.73975">
        <ele>213</ele>
        <time>2021-10-28T05:22:43.000Z</time>
      </trkpt>
      <trkpt lat="45.19642" lon="5.73974">
        <ele>213.39999389648</ele>
        <time>2021-10-28T05:22:44.000Z</time>
      </trkpt>
      <trkpt lat="45.19641" lon="5.73972">
        <ele>213.80000305176</ele>
        <time>2021-10-28T05:22:45.000Z</time>
      </trkpt>
      <trkpt lat="45.19639" lon="5.73969">
        <ele>214.60000610352</ele>
        <time>2021-10-28T05:22:48.000Z</time>
      </trkpt>
      <trkpt lat="45.19639" lon="5.73969">
        <ele>214.80000305176</ele>
        <time>2021-10-28T05:22:49.000Z</time>
      </trkpt>
      <trkpt lat="45.19639" lon="5.73968">
        <ele>215</ele>
        <time>2021-10-28T05:22:51.000Z</time>
      </trkpt>
      <trkpt lat="45.19641" lon="5.73966">
        <ele>215.80000305176</ele>
        <time>2021-10-28T05:22:54.000Z</time>
      </trkpt>
      <trkpt lat="45.19641" lon="5.73966">
        <ele>216.19999694824</ele>
        <time>2021-10-28T05:22:55.000Z</time>
      </trkpt>
      <trkpt lat="45.19642" lon="5.73966">
        <ele>216.39999389648</ele>
        <time>2021-10-28T05:22:56.000Z</time>
      </trkpt>
      <trkpt lat="45.19642" lon="5.73968">
        <ele>217</ele>
        <time>2021-10-28T05:22:58.000Z</time>
      </trkpt>
      <trkpt lat="45.1964" lon="5.73969">
        <ele>217.39999389648</ele>
        <time>2021-10-28T05:23:00.000Z</time>
      </trkpt>
      <trkpt lat="45.1964" lon="5.73973">
        <ele>217.80000305176</ele>
        <time>2021-10-28T05:23:03.000Z</time>
      </trkpt>
      <trkpt lat="45.19641" lon="5.73972">
        <ele>218.39999389648</ele>
        <time>2021-10-28T05:23:05.000Z</time>
      </trkpt>
      <trkpt lat="45.19642" lon="5.73972">
        <ele>219</ele>
        <time>2021-10-28T05:23:07.000Z</time>
      </trkpt>
      <trkpt lat="45.19641" lon="5.73971">
        <ele>219.80000305176</ele>
        <time>2021-10-28T05:23:09.000Z</time>
      </trkpt>
      <trkpt lat="45.1964" lon="5.73971">
        <ele>220</ele>
        <time>2021-10-28T05:23:10.000Z</time>
      </trkpt>
      <trkpt lat="45.19641" lon="5.73967">
        <ele>220.60000610352</ele>
        <time>2021-10-28T05:23:14.000Z</time>
      </trkpt>
      <trkpt lat="45.19646" lon="5.73967">
        <ele>220.60000610352</ele>
        <time>2021-10-28T05:23:18.000Z</time>
      </trkpt>
      <trkpt lat="45.19647" lon="5.73967">
        <ele>220.60000610352</ele>
        <time>2021-10-28T05:23:19.000Z</time>
      </trkpt>
      <trkpt lat="45.19653" lon="5.73962">
        <ele>220.39999389648</ele>
        <time>2021-10-28T05:23:24.000Z</time>
      </trkpt>
    </trkseg>
  </trk>
</gpx>